<?xml version="1.0" encoding="UTF-8" standalone="no" ?>
<gpx xmlns="http://www.topografix.com/GPX/1/1" xmlns:xsi="http://www.w3.org/2001/XMLSchema-instance" xsi:schemaLocation="http://www.topografix.com/GPX/1/1 http://www.topografix.com/GPX/1/1/gpx.xsd" version="1.1" creator="VisuGPX - https://www.visugpx.com">
  <metadata>
    <name>Tour vers St Guilhem</name>
    <desc><![CDATA[Découverte des alentours de St Guilhem
Superbe.
Boucle au nord pas très utile en terme de qualité de VTT]]></desc>
  </metadata>
  <trk>
    <name><![CDATA[2014-04-30-StGuilhem]]></name>
    <trkseg>
      <trkpt lat="43.69846" lon="3.55354">
        <ele>95.1</ele>
        <time>2014-04-30T05:32:00Z</time>
      </trkpt>
      <trkpt lat="43.69846" lon="3.55354">
        <ele>95</ele>
        <time>2014-04-30T05:36:09Z</time>
      </trkpt>
      <trkpt lat="43.69831" lon="3.55341">
        <ele>94</ele>
        <time>2014-04-30T05:36:14Z</time>
      </trkpt>
      <trkpt lat="43.69831" lon="3.55341">
        <ele>94</ele>
        <time>2014-04-30T05:36:14Z</time>
      </trkpt>
      <trkpt lat="43.69823" lon="3.55316">
        <ele>95</ele>
        <time>2014-04-30T05:36:29Z</time>
      </trkpt>
      <trkpt lat="43.6982" lon="3.553">
        <ele>95.5</ele>
        <time>2014-04-30T05:36:34Z</time>
      </trkpt>
      <trkpt lat="43.69817" lon="3.55284">
        <ele>95.7</ele>
        <time>2014-04-30T05:36:38Z</time>
      </trkpt>
      <trkpt lat="43.69815" lon="3.55268">
        <ele>94.8</ele>
        <time>2014-04-30T05:36:42Z</time>
      </trkpt>
      <trkpt lat="43.69813" lon="3.55255">
        <ele>94.6</ele>
        <time>2014-04-30T05:36:45Z</time>
      </trkpt>
      <trkpt lat="43.69811" lon="3.55242">
        <ele>95.5</ele>
        <time>2014-04-30T05:36:48Z</time>
      </trkpt>
      <trkpt lat="43.69809" lon="3.55228">
        <ele>95.4</ele>
        <time>2014-04-30T05:36:51Z</time>
      </trkpt>
      <trkpt lat="43.69806" lon="3.55215">
        <ele>95.9</ele>
        <time>2014-04-30T05:36:54Z</time>
      </trkpt>
      <trkpt lat="43.69804" lon="3.55202">
        <ele>95.2</ele>
        <time>2014-04-30T05:36:57Z</time>
      </trkpt>
      <trkpt lat="43.69801" lon="3.55188">
        <ele>94.9</ele>
        <time>2014-04-30T05:37:00Z</time>
      </trkpt>
      <trkpt lat="43.69801" lon="3.55172">
        <ele>96.2</ele>
        <time>2014-04-30T05:37:04Z</time>
      </trkpt>
      <trkpt lat="43.69809" lon="3.55165">
        <ele>95.6</ele>
        <time>2014-04-30T05:37:08Z</time>
      </trkpt>
      <trkpt lat="43.6982" lon="3.55169">
        <ele>95</ele>
        <time>2014-04-30T05:37:11Z</time>
      </trkpt>
      <trkpt lat="43.6983" lon="3.55172">
        <ele>95.4</ele>
        <time>2014-04-30T05:37:14Z</time>
      </trkpt>
      <trkpt lat="43.6984" lon="3.55176">
        <ele>95.4</ele>
        <time>2014-04-30T05:37:17Z</time>
      </trkpt>
      <trkpt lat="43.69851" lon="3.55178">
        <ele>95.7</ele>
        <time>2014-04-30T05:37:20Z</time>
      </trkpt>
      <trkpt lat="43.69851" lon="3.55178">
        <ele>95.7</ele>
        <time>2014-04-30T05:37:20Z</time>
      </trkpt>
      <trkpt lat="43.69861" lon="3.5518">
        <ele>96</ele>
        <time>2014-04-30T05:37:23Z</time>
      </trkpt>
      <trkpt lat="43.69872" lon="3.5518">
        <ele>96.2</ele>
        <time>2014-04-30T05:37:26Z</time>
      </trkpt>
      <trkpt lat="43.69883" lon="3.55177">
        <ele>96.5</ele>
        <time>2014-04-30T05:37:29Z</time>
      </trkpt>
      <trkpt lat="43.69893" lon="3.55175">
        <ele>96.7</ele>
        <time>2014-04-30T05:37:32Z</time>
      </trkpt>
      <trkpt lat="43.69903" lon="3.55173">
        <ele>96.4</ele>
        <time>2014-04-30T05:37:35Z</time>
      </trkpt>
      <trkpt lat="43.69914" lon="3.55171">
        <ele>96.6</ele>
        <time>2014-04-30T05:37:38Z</time>
      </trkpt>
      <trkpt lat="43.69925" lon="3.55169">
        <ele>97.1</ele>
        <time>2014-04-30T05:37:41Z</time>
      </trkpt>
      <trkpt lat="43.69936" lon="3.55167">
        <ele>97.7</ele>
        <time>2014-04-30T05:37:44Z</time>
      </trkpt>
      <trkpt lat="43.69946" lon="3.55164">
        <ele>97.9</ele>
        <time>2014-04-30T05:37:47Z</time>
      </trkpt>
      <trkpt lat="43.69957" lon="3.55162">
        <ele>97.9</ele>
        <time>2014-04-30T05:37:50Z</time>
      </trkpt>
      <trkpt lat="43.69967" lon="3.55161">
        <ele>98</ele>
        <time>2014-04-30T05:37:53Z</time>
      </trkpt>
      <trkpt lat="43.69978" lon="3.5516">
        <ele>97.7</ele>
        <time>2014-04-30T05:37:57Z</time>
      </trkpt>
      <trkpt lat="43.69983" lon="3.55149">
        <ele>97.7</ele>
        <time>2014-04-30T05:38:02Z</time>
      </trkpt>
      <trkpt lat="43.69978" lon="3.55137">
        <ele>98.5</ele>
        <time>2014-04-30T05:38:05Z</time>
      </trkpt>
      <trkpt lat="43.69972" lon="3.55127">
        <ele>99.1</ele>
        <time>2014-04-30T05:38:08Z</time>
      </trkpt>
      <trkpt lat="43.69966" lon="3.55116">
        <ele>99.1</ele>
        <time>2014-04-30T05:38:11Z</time>
      </trkpt>
      <trkpt lat="43.69962" lon="3.55103">
        <ele>99</ele>
        <time>2014-04-30T05:38:14Z</time>
      </trkpt>
      <trkpt lat="43.69957" lon="3.55089">
        <ele>99.4</ele>
        <time>2014-04-30T05:38:17Z</time>
      </trkpt>
      <trkpt lat="43.69951" lon="3.55075">
        <ele>99.2</ele>
        <time>2014-04-30T05:38:20Z</time>
      </trkpt>
      <trkpt lat="43.69945" lon="3.55062">
        <ele>98.6</ele>
        <time>2014-04-30T05:38:23Z</time>
      </trkpt>
      <trkpt lat="43.6994" lon="3.55048">
        <ele>98.6</ele>
        <time>2014-04-30T05:38:26Z</time>
      </trkpt>
      <trkpt lat="43.69935" lon="3.55034">
        <ele>98.9</ele>
        <time>2014-04-30T05:38:29Z</time>
      </trkpt>
      <trkpt lat="43.69929" lon="3.55022">
        <ele>99.3</ele>
        <time>2014-04-30T05:38:32Z</time>
      </trkpt>
      <trkpt lat="43.69924" lon="3.55009">
        <ele>100.1</ele>
        <time>2014-04-30T05:38:35Z</time>
      </trkpt>
      <trkpt lat="43.69919" lon="3.54996">
        <ele>100.5</ele>
        <time>2014-04-30T05:38:38Z</time>
      </trkpt>
      <trkpt lat="43.69915" lon="3.54985">
        <ele>100.7</ele>
        <time>2014-04-30T05:38:41Z</time>
      </trkpt>
      <trkpt lat="43.6991" lon="3.54974">
        <ele>101.2</ele>
        <time>2014-04-30T05:38:46Z</time>
      </trkpt>
      <trkpt lat="43.69916" lon="3.54986">
        <ele>101.1</ele>
        <time>2014-04-30T05:38:58Z</time>
      </trkpt>
      <trkpt lat="43.69921" lon="3.54999">
        <ele>100.8</ele>
        <time>2014-04-30T05:39:01Z</time>
      </trkpt>
      <trkpt lat="43.69928" lon="3.55014">
        <ele>101.2</ele>
        <time>2014-04-30T05:39:04Z</time>
      </trkpt>
      <trkpt lat="43.69935" lon="3.55029">
        <ele>100.7</ele>
        <time>2014-04-30T05:39:07Z</time>
      </trkpt>
      <trkpt lat="43.6994" lon="3.5504">
        <ele>100.3</ele>
        <time>2014-04-30T05:39:09Z</time>
      </trkpt>
      <trkpt lat="43.69944" lon="3.55051">
        <ele>100</ele>
        <time>2014-04-30T05:39:11Z</time>
      </trkpt>
      <trkpt lat="43.69952" lon="3.55066">
        <ele>99.9</ele>
        <time>2014-04-30T05:39:14Z</time>
      </trkpt>
      <trkpt lat="43.69958" lon="3.5508">
        <ele>99.7</ele>
        <time>2014-04-30T05:39:17Z</time>
      </trkpt>
      <trkpt lat="43.69964" lon="3.55094">
        <ele>99.1</ele>
        <time>2014-04-30T05:39:20Z</time>
      </trkpt>
      <trkpt lat="43.69969" lon="3.55107">
        <ele>99</ele>
        <time>2014-04-30T05:39:23Z</time>
      </trkpt>
      <trkpt lat="43.69976" lon="3.55121">
        <ele>99.2</ele>
        <time>2014-04-30T05:39:26Z</time>
      </trkpt>
      <trkpt lat="43.69983" lon="3.55136">
        <ele>98.9</ele>
        <time>2014-04-30T05:39:29Z</time>
      </trkpt>
      <trkpt lat="43.69989" lon="3.55146">
        <ele>98.3</ele>
        <time>2014-04-30T05:39:32Z</time>
      </trkpt>
      <trkpt lat="43.69998" lon="3.55155">
        <ele>98.1</ele>
        <time>2014-04-30T05:39:36Z</time>
      </trkpt>
      <trkpt lat="43.70007" lon="3.5516">
        <ele>97.6</ele>
        <time>2014-04-30T05:39:39Z</time>
      </trkpt>
      <trkpt lat="43.70018" lon="3.55163">
        <ele>97.7</ele>
        <time>2014-04-30T05:39:42Z</time>
      </trkpt>
      <trkpt lat="43.70028" lon="3.55168">
        <ele>97.8</ele>
        <time>2014-04-30T05:39:45Z</time>
      </trkpt>
      <trkpt lat="43.70037" lon="3.55173">
        <ele>98</ele>
        <time>2014-04-30T05:39:48Z</time>
      </trkpt>
      <trkpt lat="43.70046" lon="3.55178">
        <ele>98.3</ele>
        <time>2014-04-30T05:39:51Z</time>
      </trkpt>
      <trkpt lat="43.70054" lon="3.55182">
        <ele>98.4</ele>
        <time>2014-04-30T05:39:54Z</time>
      </trkpt>
      <trkpt lat="43.70064" lon="3.55186">
        <ele>98.8</ele>
        <time>2014-04-30T05:39:57Z</time>
      </trkpt>
      <trkpt lat="43.70073" lon="3.5519">
        <ele>99.5</ele>
        <time>2014-04-30T05:40:00Z</time>
      </trkpt>
      <trkpt lat="43.70083" lon="3.55188">
        <ele>99.4</ele>
        <time>2014-04-30T05:40:04Z</time>
      </trkpt>
      <trkpt lat="43.70088" lon="3.55174">
        <ele>99.6</ele>
        <time>2014-04-30T05:40:08Z</time>
      </trkpt>
      <trkpt lat="43.70094" lon="3.55163">
        <ele>100</ele>
        <time>2014-04-30T05:40:11Z</time>
      </trkpt>
      <trkpt lat="43.70099" lon="3.55149">
        <ele>100.4</ele>
        <time>2014-04-30T05:40:14Z</time>
      </trkpt>
      <trkpt lat="43.70104" lon="3.55138">
        <ele>100.8</ele>
        <time>2014-04-30T05:40:17Z</time>
      </trkpt>
      <trkpt lat="43.7011" lon="3.55127">
        <ele>101.1</ele>
        <time>2014-04-30T05:40:20Z</time>
      </trkpt>
      <trkpt lat="43.70116" lon="3.55115">
        <ele>101.1</ele>
        <time>2014-04-30T05:40:23Z</time>
      </trkpt>
      <trkpt lat="43.70122" lon="3.55102">
        <ele>101.1</ele>
        <time>2014-04-30T05:40:26Z</time>
      </trkpt>
      <trkpt lat="43.70127" lon="3.55089">
        <ele>101.4</ele>
        <time>2014-04-30T05:40:29Z</time>
      </trkpt>
      <trkpt lat="43.70133" lon="3.55076">
        <ele>102</ele>
        <time>2014-04-30T05:40:32Z</time>
      </trkpt>
      <trkpt lat="43.70139" lon="3.55064">
        <ele>102.1</ele>
        <time>2014-04-30T05:40:35Z</time>
      </trkpt>
      <trkpt lat="43.70144" lon="3.55052">
        <ele>102</ele>
        <time>2014-04-30T05:40:38Z</time>
      </trkpt>
      <trkpt lat="43.70149" lon="3.5504">
        <ele>102.2</ele>
        <time>2014-04-30T05:40:42Z</time>
      </trkpt>
      <trkpt lat="43.70153" lon="3.55027">
        <ele>102.8</ele>
        <time>2014-04-30T05:40:47Z</time>
      </trkpt>
      <trkpt lat="43.7015" lon="3.55015">
        <ele>103.8</ele>
        <time>2014-04-30T05:40:50Z</time>
      </trkpt>
      <trkpt lat="43.70146" lon="3.55002">
        <ele>104</ele>
        <time>2014-04-30T05:40:53Z</time>
      </trkpt>
      <trkpt lat="43.70144" lon="3.54987">
        <ele>103.6</ele>
        <time>2014-04-30T05:40:56Z</time>
      </trkpt>
      <trkpt lat="43.70142" lon="3.54973">
        <ele>103.5</ele>
        <time>2014-04-30T05:40:59Z</time>
      </trkpt>
      <trkpt lat="43.70139" lon="3.54959">
        <ele>103.4</ele>
        <time>2014-04-30T05:41:02Z</time>
      </trkpt>
      <trkpt lat="43.70137" lon="3.54944">
        <ele>103.2</ele>
        <time>2014-04-30T05:41:05Z</time>
      </trkpt>
      <trkpt lat="43.70135" lon="3.54931">
        <ele>103.5</ele>
        <time>2014-04-30T05:41:08Z</time>
      </trkpt>
      <trkpt lat="43.70135" lon="3.54916">
        <ele>104.2</ele>
        <time>2014-04-30T05:41:12Z</time>
      </trkpt>
      <trkpt lat="43.70141" lon="3.54904">
        <ele>104.9</ele>
        <time>2014-04-30T05:41:17Z</time>
      </trkpt>
      <trkpt lat="43.70144" lon="3.54892">
        <ele>105.1</ele>
        <time>2014-04-30T05:41:20Z</time>
      </trkpt>
      <trkpt lat="43.70147" lon="3.5488">
        <ele>105.6</ele>
        <time>2014-04-30T05:41:23Z</time>
      </trkpt>
      <trkpt lat="43.7015" lon="3.54867">
        <ele>106.3</ele>
        <time>2014-04-30T05:41:26Z</time>
      </trkpt>
      <trkpt lat="43.70152" lon="3.54853">
        <ele>106.6</ele>
        <time>2014-04-30T05:41:29Z</time>
      </trkpt>
      <trkpt lat="43.70155" lon="3.54841">
        <ele>107.3</ele>
        <time>2014-04-30T05:41:32Z</time>
      </trkpt>
      <trkpt lat="43.70159" lon="3.54829">
        <ele>107</ele>
        <time>2014-04-30T05:41:35Z</time>
      </trkpt>
      <trkpt lat="43.70162" lon="3.54816">
        <ele>107.1</ele>
        <time>2014-04-30T05:41:38Z</time>
      </trkpt>
      <trkpt lat="43.70164" lon="3.54804">
        <ele>107.6</ele>
        <time>2014-04-30T05:41:41Z</time>
      </trkpt>
      <trkpt lat="43.70167" lon="3.54791">
        <ele>108.2</ele>
        <time>2014-04-30T05:41:44Z</time>
      </trkpt>
      <trkpt lat="43.70168" lon="3.54778">
        <ele>108</ele>
        <time>2014-04-30T05:41:47Z</time>
      </trkpt>
      <trkpt lat="43.70169" lon="3.54764">
        <ele>108.1</ele>
        <time>2014-04-30T05:41:50Z</time>
      </trkpt>
      <trkpt lat="43.70168" lon="3.54751">
        <ele>108.6</ele>
        <time>2014-04-30T05:41:53Z</time>
      </trkpt>
      <trkpt lat="43.70168" lon="3.54737">
        <ele>109.2</ele>
        <time>2014-04-30T05:41:56Z</time>
      </trkpt>
      <trkpt lat="43.70167" lon="3.54723">
        <ele>109.8</ele>
        <time>2014-04-30T05:41:59Z</time>
      </trkpt>
      <trkpt lat="43.70166" lon="3.54709">
        <ele>110.2</ele>
        <time>2014-04-30T05:42:02Z</time>
      </trkpt>
      <trkpt lat="43.70166" lon="3.54696">
        <ele>110.4</ele>
        <time>2014-04-30T05:42:05Z</time>
      </trkpt>
      <trkpt lat="43.70165" lon="3.54682">
        <ele>111.1</ele>
        <time>2014-04-30T05:42:08Z</time>
      </trkpt>
      <trkpt lat="43.70164" lon="3.54669">
        <ele>111.7</ele>
        <time>2014-04-30T05:42:11Z</time>
      </trkpt>
      <trkpt lat="43.70163" lon="3.54655">
        <ele>111.5</ele>
        <time>2014-04-30T05:42:14Z</time>
      </trkpt>
      <trkpt lat="43.70161" lon="3.54641">
        <ele>112.1</ele>
        <time>2014-04-30T05:42:17Z</time>
      </trkpt>
      <trkpt lat="43.7016" lon="3.54628">
        <ele>111.6</ele>
        <time>2014-04-30T05:42:20Z</time>
      </trkpt>
      <trkpt lat="43.70158" lon="3.54615">
        <ele>113.5</ele>
        <time>2014-04-30T05:42:23Z</time>
      </trkpt>
      <trkpt lat="43.70156" lon="3.546">
        <ele>113.7</ele>
        <time>2014-04-30T05:42:27Z</time>
      </trkpt>
      <trkpt lat="43.70153" lon="3.54585">
        <ele>114</ele>
        <time>2014-04-30T05:42:31Z</time>
      </trkpt>
      <trkpt lat="43.70151" lon="3.54569">
        <ele>115.9</ele>
        <time>2014-04-30T05:42:35Z</time>
      </trkpt>
      <trkpt lat="43.7015" lon="3.54553">
        <ele>116.7</ele>
        <time>2014-04-30T05:42:39Z</time>
      </trkpt>
      <trkpt lat="43.70149" lon="3.54537">
        <ele>117.1</ele>
        <time>2014-04-30T05:42:43Z</time>
      </trkpt>
      <trkpt lat="43.70151" lon="3.54523">
        <ele>117.5</ele>
        <time>2014-04-30T05:42:47Z</time>
      </trkpt>
      <trkpt lat="43.70154" lon="3.54508">
        <ele>118.4</ele>
        <time>2014-04-30T05:42:51Z</time>
      </trkpt>
      <trkpt lat="43.70158" lon="3.54494">
        <ele>119.7</ele>
        <time>2014-04-30T05:42:55Z</time>
      </trkpt>
      <trkpt lat="43.70162" lon="3.54479">
        <ele>120.7</ele>
        <time>2014-04-30T05:42:59Z</time>
      </trkpt>
      <trkpt lat="43.70166" lon="3.54465">
        <ele>122.1</ele>
        <time>2014-04-30T05:43:03Z</time>
      </trkpt>
      <trkpt lat="43.70168" lon="3.54451">
        <ele>122.2</ele>
        <time>2014-04-30T05:43:07Z</time>
      </trkpt>
      <trkpt lat="43.70169" lon="3.54437">
        <ele>123.2</ele>
        <time>2014-04-30T05:43:11Z</time>
      </trkpt>
      <trkpt lat="43.7017" lon="3.54423">
        <ele>123.5</ele>
        <time>2014-04-30T05:43:15Z</time>
      </trkpt>
      <trkpt lat="43.7017" lon="3.54409">
        <ele>124</ele>
        <time>2014-04-30T05:43:19Z</time>
      </trkpt>
      <trkpt lat="43.70169" lon="3.54396">
        <ele>125.2</ele>
        <time>2014-04-30T05:43:23Z</time>
      </trkpt>
      <trkpt lat="43.70167" lon="3.54382">
        <ele>125.5</ele>
        <time>2014-04-30T05:43:27Z</time>
      </trkpt>
      <trkpt lat="43.70164" lon="3.54369">
        <ele>126.5</ele>
        <time>2014-04-30T05:43:31Z</time>
      </trkpt>
      <trkpt lat="43.70161" lon="3.54355">
        <ele>127.5</ele>
        <time>2014-04-30T05:43:35Z</time>
      </trkpt>
      <trkpt lat="43.70159" lon="3.54341">
        <ele>128.2</ele>
        <time>2014-04-30T05:43:39Z</time>
      </trkpt>
      <trkpt lat="43.70157" lon="3.54326">
        <ele>129.4</ele>
        <time>2014-04-30T05:43:43Z</time>
      </trkpt>
      <trkpt lat="43.70158" lon="3.54312">
        <ele>130</ele>
        <time>2014-04-30T05:43:47Z</time>
      </trkpt>
      <trkpt lat="43.7016" lon="3.54297">
        <ele>131.1</ele>
        <time>2014-04-30T05:43:51Z</time>
      </trkpt>
      <trkpt lat="43.7016" lon="3.54283">
        <ele>131.1</ele>
        <time>2014-04-30T05:43:55Z</time>
      </trkpt>
      <trkpt lat="43.7016" lon="3.54269">
        <ele>131.7</ele>
        <time>2014-04-30T05:43:59Z</time>
      </trkpt>
      <trkpt lat="43.70159" lon="3.54255">
        <ele>131.9</ele>
        <time>2014-04-30T05:44:03Z</time>
      </trkpt>
      <trkpt lat="43.70159" lon="3.54239">
        <ele>132.5</ele>
        <time>2014-04-30T05:44:07Z</time>
      </trkpt>
      <trkpt lat="43.70159" lon="3.54222">
        <ele>133</ele>
        <time>2014-04-30T05:44:11Z</time>
      </trkpt>
      <trkpt lat="43.70159" lon="3.54207">
        <ele>132.8</ele>
        <time>2014-04-30T05:44:15Z</time>
      </trkpt>
      <trkpt lat="43.70158" lon="3.54192">
        <ele>133.6</ele>
        <time>2014-04-30T05:44:19Z</time>
      </trkpt>
      <trkpt lat="43.70157" lon="3.54178">
        <ele>133.7</ele>
        <time>2014-04-30T05:44:23Z</time>
      </trkpt>
      <trkpt lat="43.70163" lon="3.54169">
        <ele>134.2</ele>
        <time>2014-04-30T05:44:28Z</time>
      </trkpt>
      <trkpt lat="43.70173" lon="3.5417">
        <ele>135</ele>
        <time>2014-04-30T05:44:32Z</time>
      </trkpt>
      <trkpt lat="43.70184" lon="3.5417">
        <ele>136</ele>
        <time>2014-04-30T05:44:36Z</time>
      </trkpt>
      <trkpt lat="43.70194" lon="3.54168">
        <ele>137</ele>
        <time>2014-04-30T05:44:40Z</time>
      </trkpt>
      <trkpt lat="43.70203" lon="3.54166">
        <ele>137.5</ele>
        <time>2014-04-30T05:44:44Z</time>
      </trkpt>
      <trkpt lat="43.70213" lon="3.54164">
        <ele>137.7</ele>
        <time>2014-04-30T05:44:48Z</time>
      </trkpt>
      <trkpt lat="43.70222" lon="3.54158">
        <ele>138.2</ele>
        <time>2014-04-30T05:44:52Z</time>
      </trkpt>
      <trkpt lat="43.7023" lon="3.54148">
        <ele>137.9</ele>
        <time>2014-04-30T05:44:56Z</time>
      </trkpt>
      <trkpt lat="43.70237" lon="3.54137">
        <ele>139.8</ele>
        <time>2014-04-30T05:45:00Z</time>
      </trkpt>
      <trkpt lat="43.70245" lon="3.54126">
        <ele>140.7</ele>
        <time>2014-04-30T05:45:04Z</time>
      </trkpt>
      <trkpt lat="43.70253" lon="3.54116">
        <ele>140.6</ele>
        <time>2014-04-30T05:45:08Z</time>
      </trkpt>
      <trkpt lat="43.70261" lon="3.54103">
        <ele>141.8</ele>
        <time>2014-04-30T05:45:12Z</time>
      </trkpt>
      <trkpt lat="43.70267" lon="3.5409">
        <ele>141.5</ele>
        <time>2014-04-30T05:45:16Z</time>
      </trkpt>
      <trkpt lat="43.70273" lon="3.54076">
        <ele>141.7</ele>
        <time>2014-04-30T05:45:20Z</time>
      </trkpt>
      <trkpt lat="43.70277" lon="3.54064">
        <ele>142.6</ele>
        <time>2014-04-30T05:45:23Z</time>
      </trkpt>
      <trkpt lat="43.70282" lon="3.54049">
        <ele>143.2</ele>
        <time>2014-04-30T05:45:27Z</time>
      </trkpt>
      <trkpt lat="43.70288" lon="3.54035">
        <ele>143.8</ele>
        <time>2014-04-30T05:45:31Z</time>
      </trkpt>
      <trkpt lat="43.70294" lon="3.54022">
        <ele>143.9</ele>
        <time>2014-04-30T05:45:35Z</time>
      </trkpt>
      <trkpt lat="43.703" lon="3.5401">
        <ele>144.4</ele>
        <time>2014-04-30T05:45:39Z</time>
      </trkpt>
      <trkpt lat="43.70303" lon="3.53996">
        <ele>145.6</ele>
        <time>2014-04-30T05:46:29Z</time>
      </trkpt>
      <trkpt lat="43.70305" lon="3.53981">
        <ele>145.6</ele>
        <time>2014-04-30T05:46:33Z</time>
      </trkpt>
      <trkpt lat="43.70305" lon="3.53966">
        <ele>146.3</ele>
        <time>2014-04-30T05:46:37Z</time>
      </trkpt>
      <trkpt lat="43.70305" lon="3.5395">
        <ele>147.4</ele>
        <time>2014-04-30T05:46:41Z</time>
      </trkpt>
      <trkpt lat="43.70306" lon="3.53934">
        <ele>148</ele>
        <time>2014-04-30T05:46:45Z</time>
      </trkpt>
      <trkpt lat="43.70306" lon="3.53921">
        <ele>148.1</ele>
        <time>2014-04-30T05:46:48Z</time>
      </trkpt>
      <trkpt lat="43.70307" lon="3.53908">
        <ele>148.8</ele>
        <time>2014-04-30T05:46:51Z</time>
      </trkpt>
      <trkpt lat="43.70308" lon="3.53895">
        <ele>149.3</ele>
        <time>2014-04-30T05:46:54Z</time>
      </trkpt>
      <trkpt lat="43.7031" lon="3.53879">
        <ele>149.5</ele>
        <time>2014-04-30T05:46:58Z</time>
      </trkpt>
      <trkpt lat="43.70313" lon="3.53864">
        <ele>150.2</ele>
        <time>2014-04-30T05:47:02Z</time>
      </trkpt>
      <trkpt lat="43.70319" lon="3.5385">
        <ele>151.3</ele>
        <time>2014-04-30T05:47:06Z</time>
      </trkpt>
      <trkpt lat="43.70326" lon="3.53837">
        <ele>151.8</ele>
        <time>2014-04-30T05:47:10Z</time>
      </trkpt>
      <trkpt lat="43.70331" lon="3.53827">
        <ele>153.3</ele>
        <time>2014-04-30T05:47:13Z</time>
      </trkpt>
      <trkpt lat="43.70335" lon="3.53811">
        <ele>153.5</ele>
        <time>2014-04-30T05:47:17Z</time>
      </trkpt>
      <trkpt lat="43.70331" lon="3.53796">
        <ele>153.6</ele>
        <time>2014-04-30T05:47:21Z</time>
      </trkpt>
      <trkpt lat="43.70323" lon="3.53784">
        <ele>154.3</ele>
        <time>2014-04-30T05:47:25Z</time>
      </trkpt>
      <trkpt lat="43.70316" lon="3.53775">
        <ele>155.2</ele>
        <time>2014-04-30T05:47:28Z</time>
      </trkpt>
      <trkpt lat="43.70309" lon="3.53766">
        <ele>155.6</ele>
        <time>2014-04-30T05:47:31Z</time>
      </trkpt>
      <trkpt lat="43.70303" lon="3.53757">
        <ele>156</ele>
        <time>2014-04-30T05:47:34Z</time>
      </trkpt>
      <trkpt lat="43.70297" lon="3.53747">
        <ele>156.8</ele>
        <time>2014-04-30T05:47:37Z</time>
      </trkpt>
      <trkpt lat="43.7029" lon="3.53733">
        <ele>157.7</ele>
        <time>2014-04-30T05:47:41Z</time>
      </trkpt>
      <trkpt lat="43.70287" lon="3.53721">
        <ele>157.6</ele>
        <time>2014-04-30T05:47:44Z</time>
      </trkpt>
      <trkpt lat="43.70285" lon="3.53708">
        <ele>157.9</ele>
        <time>2014-04-30T05:47:47Z</time>
      </trkpt>
      <trkpt lat="43.70282" lon="3.53696">
        <ele>158.5</ele>
        <time>2014-04-30T05:47:50Z</time>
      </trkpt>
      <trkpt lat="43.70281" lon="3.53683">
        <ele>158.7</ele>
        <time>2014-04-30T05:47:53Z</time>
      </trkpt>
      <trkpt lat="43.70279" lon="3.53671">
        <ele>159</ele>
        <time>2014-04-30T05:47:56Z</time>
      </trkpt>
      <trkpt lat="43.70277" lon="3.53658">
        <ele>159.5</ele>
        <time>2014-04-30T05:47:59Z</time>
      </trkpt>
      <trkpt lat="43.70276" lon="3.53645">
        <ele>160.4</ele>
        <time>2014-04-30T05:48:02Z</time>
      </trkpt>
      <trkpt lat="43.70275" lon="3.53632">
        <ele>161.6</ele>
        <time>2014-04-30T05:48:05Z</time>
      </trkpt>
      <trkpt lat="43.70274" lon="3.5362">
        <ele>161.8</ele>
        <time>2014-04-30T05:48:08Z</time>
      </trkpt>
      <trkpt lat="43.70273" lon="3.53604">
        <ele>162.5</ele>
        <time>2014-04-30T05:48:12Z</time>
      </trkpt>
      <trkpt lat="43.7027" lon="3.53588">
        <ele>163.8</ele>
        <time>2014-04-30T05:48:16Z</time>
      </trkpt>
      <trkpt lat="43.70267" lon="3.53572">
        <ele>164.7</ele>
        <time>2014-04-30T05:48:20Z</time>
      </trkpt>
      <trkpt lat="43.70265" lon="3.53557">
        <ele>165</ele>
        <time>2014-04-30T05:48:24Z</time>
      </trkpt>
      <trkpt lat="43.70262" lon="3.53542">
        <ele>165.1</ele>
        <time>2014-04-30T05:48:28Z</time>
      </trkpt>
      <trkpt lat="43.70259" lon="3.53529">
        <ele>165.8</ele>
        <time>2014-04-30T05:48:31Z</time>
      </trkpt>
      <trkpt lat="43.70256" lon="3.53518">
        <ele>166.6</ele>
        <time>2014-04-30T05:48:34Z</time>
      </trkpt>
      <trkpt lat="43.70252" lon="3.53503">
        <ele>166.6</ele>
        <time>2014-04-30T05:48:38Z</time>
      </trkpt>
      <trkpt lat="43.70249" lon="3.53489">
        <ele>167.5</ele>
        <time>2014-04-30T05:48:42Z</time>
      </trkpt>
      <trkpt lat="43.70247" lon="3.53474">
        <ele>168.1</ele>
        <time>2014-04-30T05:48:46Z</time>
      </trkpt>
      <trkpt lat="43.70246" lon="3.53458">
        <ele>168.8</ele>
        <time>2014-04-30T05:48:50Z</time>
      </trkpt>
      <trkpt lat="43.70247" lon="3.53445">
        <ele>168.9</ele>
        <time>2014-04-30T05:48:53Z</time>
      </trkpt>
      <trkpt lat="43.70251" lon="3.5343">
        <ele>169.7</ele>
        <time>2014-04-30T05:48:57Z</time>
      </trkpt>
      <trkpt lat="43.7026" lon="3.53438">
        <ele>170.2</ele>
        <time>2014-04-30T05:49:02Z</time>
      </trkpt>
      <trkpt lat="43.70254" lon="3.5345">
        <ele>170.7</ele>
        <time>2014-04-30T05:49:05Z</time>
      </trkpt>
      <trkpt lat="43.70254" lon="3.53465">
        <ele>171.6</ele>
        <time>2014-04-30T05:49:08Z</time>
      </trkpt>
      <trkpt lat="43.70258" lon="3.53478">
        <ele>171.9</ele>
        <time>2014-04-30T05:49:11Z</time>
      </trkpt>
      <trkpt lat="43.70264" lon="3.53492">
        <ele>172</ele>
        <time>2014-04-30T05:49:15Z</time>
      </trkpt>
      <trkpt lat="43.7027" lon="3.53502">
        <ele>173</ele>
        <time>2014-04-30T05:49:18Z</time>
      </trkpt>
      <trkpt lat="43.70276" lon="3.53512">
        <ele>173.1</ele>
        <time>2014-04-30T05:49:21Z</time>
      </trkpt>
      <trkpt lat="43.70282" lon="3.53526">
        <ele>173.8</ele>
        <time>2014-04-30T05:49:25Z</time>
      </trkpt>
      <trkpt lat="43.70288" lon="3.53536">
        <ele>174.2</ele>
        <time>2014-04-30T05:49:28Z</time>
      </trkpt>
      <trkpt lat="43.70292" lon="3.53547">
        <ele>175</ele>
        <time>2014-04-30T05:49:31Z</time>
      </trkpt>
      <trkpt lat="43.70297" lon="3.53559">
        <ele>175.4</ele>
        <time>2014-04-30T05:49:34Z</time>
      </trkpt>
      <trkpt lat="43.703" lon="3.53571">
        <ele>176.6</ele>
        <time>2014-04-30T05:49:37Z</time>
      </trkpt>
      <trkpt lat="43.70303" lon="3.53583">
        <ele>176.8</ele>
        <time>2014-04-30T05:49:40Z</time>
      </trkpt>
      <trkpt lat="43.70306" lon="3.53596">
        <ele>176.4</ele>
        <time>2014-04-30T05:49:43Z</time>
      </trkpt>
      <trkpt lat="43.70309" lon="3.53609">
        <ele>177.3</ele>
        <time>2014-04-30T05:49:46Z</time>
      </trkpt>
      <trkpt lat="43.70312" lon="3.53621">
        <ele>177.8</ele>
        <time>2014-04-30T05:49:49Z</time>
      </trkpt>
      <trkpt lat="43.70316" lon="3.53636">
        <ele>178.9</ele>
        <time>2014-04-30T05:49:53Z</time>
      </trkpt>
      <trkpt lat="43.7032" lon="3.53648">
        <ele>178.8</ele>
        <time>2014-04-30T05:49:56Z</time>
      </trkpt>
      <trkpt lat="43.70325" lon="3.5366">
        <ele>179.7</ele>
        <time>2014-04-30T05:49:59Z</time>
      </trkpt>
      <trkpt lat="43.70331" lon="3.5367">
        <ele>180.1</ele>
        <time>2014-04-30T05:50:02Z</time>
      </trkpt>
      <trkpt lat="43.70338" lon="3.5368">
        <ele>181.1</ele>
        <time>2014-04-30T05:50:05Z</time>
      </trkpt>
      <trkpt lat="43.70346" lon="3.53688">
        <ele>181</ele>
        <time>2014-04-30T05:50:08Z</time>
      </trkpt>
      <trkpt lat="43.70355" lon="3.53695">
        <ele>180.8</ele>
        <time>2014-04-30T05:50:11Z</time>
      </trkpt>
      <trkpt lat="43.70363" lon="3.53701">
        <ele>181.8</ele>
        <time>2014-04-30T05:50:14Z</time>
      </trkpt>
      <trkpt lat="43.70372" lon="3.53705">
        <ele>182.9</ele>
        <time>2014-04-30T05:50:17Z</time>
      </trkpt>
      <trkpt lat="43.70382" lon="3.53706">
        <ele>183.7</ele>
        <time>2014-04-30T05:50:20Z</time>
      </trkpt>
      <trkpt lat="43.70393" lon="3.53708">
        <ele>183.8</ele>
        <time>2014-04-30T05:50:24Z</time>
      </trkpt>
      <trkpt lat="43.704" lon="3.53717">
        <ele>184.7</ele>
        <time>2014-04-30T05:50:27Z</time>
      </trkpt>
      <trkpt lat="43.70406" lon="3.5373">
        <ele>185.7</ele>
        <time>2014-04-30T05:50:31Z</time>
      </trkpt>
      <trkpt lat="43.70414" lon="3.53739">
        <ele>185.6</ele>
        <time>2014-04-30T05:50:35Z</time>
      </trkpt>
      <trkpt lat="43.70424" lon="3.53747">
        <ele>186.4</ele>
        <time>2014-04-30T05:50:39Z</time>
      </trkpt>
      <trkpt lat="43.70433" lon="3.53755">
        <ele>188</ele>
        <time>2014-04-30T05:50:43Z</time>
      </trkpt>
      <trkpt lat="43.70445" lon="3.53758">
        <ele>187.7</ele>
        <time>2014-04-30T05:50:47Z</time>
      </trkpt>
      <trkpt lat="43.70455" lon="3.53758">
        <ele>188.3</ele>
        <time>2014-04-30T05:50:51Z</time>
      </trkpt>
      <trkpt lat="43.70465" lon="3.53757">
        <ele>188.3</ele>
        <time>2014-04-30T05:50:55Z</time>
      </trkpt>
      <trkpt lat="43.70476" lon="3.53759">
        <ele>189.2</ele>
        <time>2014-04-30T05:50:59Z</time>
      </trkpt>
      <trkpt lat="43.7048" lon="3.53772">
        <ele>189.8</ele>
        <time>2014-04-30T05:51:03Z</time>
      </trkpt>
      <trkpt lat="43.70478" lon="3.53785">
        <ele>191.9</ele>
        <time>2014-04-30T05:51:07Z</time>
      </trkpt>
      <trkpt lat="43.70476" lon="3.53799">
        <ele>192.6</ele>
        <time>2014-04-30T05:51:11Z</time>
      </trkpt>
      <trkpt lat="43.70475" lon="3.53813">
        <ele>192.4</ele>
        <time>2014-04-30T05:51:15Z</time>
      </trkpt>
      <trkpt lat="43.70475" lon="3.53826">
        <ele>191.9</ele>
        <time>2014-04-30T05:51:19Z</time>
      </trkpt>
      <trkpt lat="43.70475" lon="3.53841">
        <ele>193.4</ele>
        <time>2014-04-30T05:51:23Z</time>
      </trkpt>
      <trkpt lat="43.70475" lon="3.53856">
        <ele>194.3</ele>
        <time>2014-04-30T05:51:27Z</time>
      </trkpt>
      <trkpt lat="43.70475" lon="3.5387">
        <ele>195.1</ele>
        <time>2014-04-30T05:51:31Z</time>
      </trkpt>
      <trkpt lat="43.70475" lon="3.53886">
        <ele>195.9</ele>
        <time>2014-04-30T05:51:35Z</time>
      </trkpt>
      <trkpt lat="43.70477" lon="3.53901">
        <ele>196.6</ele>
        <time>2014-04-30T05:51:39Z</time>
      </trkpt>
      <trkpt lat="43.70481" lon="3.53914">
        <ele>197.4</ele>
        <time>2014-04-30T05:51:43Z</time>
      </trkpt>
      <trkpt lat="43.70485" lon="3.53927">
        <ele>197.8</ele>
        <time>2014-04-30T05:51:47Z</time>
      </trkpt>
      <trkpt lat="43.70489" lon="3.53939">
        <ele>199</ele>
        <time>2014-04-30T05:51:51Z</time>
      </trkpt>
      <trkpt lat="43.70493" lon="3.53952">
        <ele>200.2</ele>
        <time>2014-04-30T05:51:55Z</time>
      </trkpt>
      <trkpt lat="43.70497" lon="3.53964">
        <ele>199.9</ele>
        <time>2014-04-30T05:51:59Z</time>
      </trkpt>
      <trkpt lat="43.70501" lon="3.53975">
        <ele>200.1</ele>
        <time>2014-04-30T05:52:03Z</time>
      </trkpt>
      <trkpt lat="43.70506" lon="3.53988">
        <ele>201.9</ele>
        <time>2014-04-30T05:52:08Z</time>
      </trkpt>
      <trkpt lat="43.70512" lon="3.54001">
        <ele>202.5</ele>
        <time>2014-04-30T05:52:13Z</time>
      </trkpt>
      <trkpt lat="43.70518" lon="3.54013">
        <ele>204</ele>
        <time>2014-04-30T05:52:18Z</time>
      </trkpt>
      <trkpt lat="43.70525" lon="3.54025">
        <ele>204.7</ele>
        <time>2014-04-30T05:52:23Z</time>
      </trkpt>
      <trkpt lat="43.70532" lon="3.54037">
        <ele>205.8</ele>
        <time>2014-04-30T05:52:28Z</time>
      </trkpt>
      <trkpt lat="43.70537" lon="3.5405">
        <ele>206.8</ele>
        <time>2014-04-30T05:52:33Z</time>
      </trkpt>
      <trkpt lat="43.70541" lon="3.54061">
        <ele>207.1</ele>
        <time>2014-04-30T05:52:37Z</time>
      </trkpt>
      <trkpt lat="43.70546" lon="3.54074">
        <ele>208.2</ele>
        <time>2014-04-30T05:52:42Z</time>
      </trkpt>
      <trkpt lat="43.7055" lon="3.54089">
        <ele>209.6</ele>
        <time>2014-04-30T05:52:47Z</time>
      </trkpt>
      <trkpt lat="43.70553" lon="3.54101">
        <ele>210.4</ele>
        <time>2014-04-30T05:52:51Z</time>
      </trkpt>
      <trkpt lat="43.70557" lon="3.54115">
        <ele>210.9</ele>
        <time>2014-04-30T05:52:56Z</time>
      </trkpt>
      <trkpt lat="43.70561" lon="3.54126">
        <ele>211.1</ele>
        <time>2014-04-30T05:53:00Z</time>
      </trkpt>
      <trkpt lat="43.70566" lon="3.54137">
        <ele>211.4</ele>
        <time>2014-04-30T05:53:04Z</time>
      </trkpt>
      <trkpt lat="43.70573" lon="3.54147">
        <ele>212.3</ele>
        <time>2014-04-30T05:53:08Z</time>
      </trkpt>
      <trkpt lat="43.70579" lon="3.54157">
        <ele>213</ele>
        <time>2014-04-30T05:53:12Z</time>
      </trkpt>
      <trkpt lat="43.70589" lon="3.54165">
        <ele>213</ele>
        <time>2014-04-30T05:53:17Z</time>
      </trkpt>
      <trkpt lat="43.70597" lon="3.54171">
        <ele>212.6</ele>
        <time>2014-04-30T05:53:21Z</time>
      </trkpt>
      <trkpt lat="43.70605" lon="3.54176">
        <ele>215.4</ele>
        <time>2014-04-30T05:53:25Z</time>
      </trkpt>
      <trkpt lat="43.70616" lon="3.5418">
        <ele>215.8</ele>
        <time>2014-04-30T05:53:30Z</time>
      </trkpt>
      <trkpt lat="43.70625" lon="3.54182">
        <ele>216.7</ele>
        <time>2014-04-30T05:53:34Z</time>
      </trkpt>
      <trkpt lat="43.70636" lon="3.54185">
        <ele>217.4</ele>
        <time>2014-04-30T05:53:39Z</time>
      </trkpt>
      <trkpt lat="43.70647" lon="3.54187">
        <ele>217.6</ele>
        <time>2014-04-30T05:53:44Z</time>
      </trkpt>
      <trkpt lat="43.70657" lon="3.54186">
        <ele>219.4</ele>
        <time>2014-04-30T05:53:49Z</time>
      </trkpt>
      <trkpt lat="43.70668" lon="3.54184">
        <ele>220.2</ele>
        <time>2014-04-30T05:53:54Z</time>
      </trkpt>
      <trkpt lat="43.70679" lon="3.54182">
        <ele>221.4</ele>
        <time>2014-04-30T05:53:59Z</time>
      </trkpt>
      <trkpt lat="43.70689" lon="3.54179">
        <ele>221.7</ele>
        <time>2014-04-30T05:54:04Z</time>
      </trkpt>
      <trkpt lat="43.70698" lon="3.54176">
        <ele>222.4</ele>
        <time>2014-04-30T05:54:08Z</time>
      </trkpt>
      <trkpt lat="43.70708" lon="3.54172">
        <ele>223.1</ele>
        <time>2014-04-30T05:54:13Z</time>
      </trkpt>
      <trkpt lat="43.70717" lon="3.5417">
        <ele>223.9</ele>
        <time>2014-04-30T05:54:17Z</time>
      </trkpt>
      <trkpt lat="43.70727" lon="3.54167">
        <ele>225.8</ele>
        <time>2014-04-30T05:54:22Z</time>
      </trkpt>
      <trkpt lat="43.70737" lon="3.54164">
        <ele>225.6</ele>
        <time>2014-04-30T05:54:27Z</time>
      </trkpt>
      <trkpt lat="43.70748" lon="3.5416">
        <ele>226.5</ele>
        <time>2014-04-30T05:54:32Z</time>
      </trkpt>
      <trkpt lat="43.70757" lon="3.54157">
        <ele>228</ele>
        <time>2014-04-30T05:54:36Z</time>
      </trkpt>
      <trkpt lat="43.70767" lon="3.54149">
        <ele>229.3</ele>
        <time>2014-04-30T05:54:41Z</time>
      </trkpt>
      <trkpt lat="43.70757" lon="3.54143">
        <ele>229.7</ele>
        <time>2014-04-30T05:54:47Z</time>
      </trkpt>
      <trkpt lat="43.70746" lon="3.54146">
        <ele>231.2</ele>
        <time>2014-04-30T05:54:52Z</time>
      </trkpt>
      <trkpt lat="43.70737" lon="3.54145">
        <ele>232</ele>
        <time>2014-04-30T05:54:56Z</time>
      </trkpt>
      <trkpt lat="43.70727" lon="3.54139">
        <ele>232.8</ele>
        <time>2014-04-30T05:55:01Z</time>
      </trkpt>
      <trkpt lat="43.70716" lon="3.54134">
        <ele>234</ele>
        <time>2014-04-30T05:55:06Z</time>
      </trkpt>
      <trkpt lat="43.70707" lon="3.5413">
        <ele>233.9</ele>
        <time>2014-04-30T05:55:11Z</time>
      </trkpt>
      <trkpt lat="43.70698" lon="3.54125">
        <ele>236.1</ele>
        <time>2014-04-30T05:55:15Z</time>
      </trkpt>
      <trkpt lat="43.70689" lon="3.54119">
        <ele>235.5</ele>
        <time>2014-04-30T05:55:20Z</time>
      </trkpt>
      <trkpt lat="43.70679" lon="3.54111">
        <ele>236.7</ele>
        <time>2014-04-30T05:55:25Z</time>
      </trkpt>
      <trkpt lat="43.70671" lon="3.54101">
        <ele>237.3</ele>
        <time>2014-04-30T05:55:30Z</time>
      </trkpt>
      <trkpt lat="43.70666" lon="3.5409">
        <ele>237.8</ele>
        <time>2014-04-30T05:55:34Z</time>
      </trkpt>
      <trkpt lat="43.70662" lon="3.54076">
        <ele>238.8</ele>
        <time>2014-04-30T05:55:39Z</time>
      </trkpt>
      <trkpt lat="43.70659" lon="3.54062">
        <ele>240.1</ele>
        <time>2014-04-30T05:55:44Z</time>
      </trkpt>
      <trkpt lat="43.70656" lon="3.54048">
        <ele>242.1</ele>
        <time>2014-04-30T05:55:49Z</time>
      </trkpt>
      <trkpt lat="43.70654" lon="3.54036">
        <ele>241.2</ele>
        <time>2014-04-30T05:55:53Z</time>
      </trkpt>
      <trkpt lat="43.7065" lon="3.54023">
        <ele>241.8</ele>
        <time>2014-04-30T05:55:58Z</time>
      </trkpt>
      <trkpt lat="43.70649" lon="3.5401">
        <ele>243.2</ele>
        <time>2014-04-30T05:56:03Z</time>
      </trkpt>
      <trkpt lat="43.70645" lon="3.53996">
        <ele>243</ele>
        <time>2014-04-30T05:56:08Z</time>
      </trkpt>
      <trkpt lat="43.70642" lon="3.53981">
        <ele>242.7</ele>
        <time>2014-04-30T05:56:13Z</time>
      </trkpt>
      <trkpt lat="43.7064" lon="3.53969">
        <ele>245</ele>
        <time>2014-04-30T05:56:17Z</time>
      </trkpt>
      <trkpt lat="43.70638" lon="3.53954">
        <ele>246.2</ele>
        <time>2014-04-30T05:56:22Z</time>
      </trkpt>
      <trkpt lat="43.70635" lon="3.53941">
        <ele>247.1</ele>
        <time>2014-04-30T05:56:27Z</time>
      </trkpt>
      <trkpt lat="43.70633" lon="3.53927">
        <ele>247.5</ele>
        <time>2014-04-30T05:56:32Z</time>
      </trkpt>
      <trkpt lat="43.70632" lon="3.53914">
        <ele>248.5</ele>
        <time>2014-04-30T05:56:37Z</time>
      </trkpt>
      <trkpt lat="43.70631" lon="3.53901">
        <ele>250.1</ele>
        <time>2014-04-30T05:56:42Z</time>
      </trkpt>
      <trkpt lat="43.7063" lon="3.53888">
        <ele>250.4</ele>
        <time>2014-04-30T05:56:46Z</time>
      </trkpt>
      <trkpt lat="43.70629" lon="3.53874">
        <ele>250.2</ele>
        <time>2014-04-30T05:56:51Z</time>
      </trkpt>
      <trkpt lat="43.7063" lon="3.5386">
        <ele>252.5</ele>
        <time>2014-04-30T05:56:56Z</time>
      </trkpt>
      <trkpt lat="43.70631" lon="3.53848">
        <ele>253.2</ele>
        <time>2014-04-30T05:57:01Z</time>
      </trkpt>
      <trkpt lat="43.70633" lon="3.53835">
        <ele>253.1</ele>
        <time>2014-04-30T05:57:06Z</time>
      </trkpt>
      <trkpt lat="43.70636" lon="3.53821">
        <ele>254.3</ele>
        <time>2014-04-30T05:57:12Z</time>
      </trkpt>
      <trkpt lat="43.70638" lon="3.53809">
        <ele>255.3</ele>
        <time>2014-04-30T05:57:16Z</time>
      </trkpt>
      <trkpt lat="43.70642" lon="3.53797">
        <ele>255.9</ele>
        <time>2014-04-30T05:57:21Z</time>
      </trkpt>
      <trkpt lat="43.70646" lon="3.53786">
        <ele>256.9</ele>
        <time>2014-04-30T05:57:26Z</time>
      </trkpt>
      <trkpt lat="43.70651" lon="3.53775">
        <ele>257.8</ele>
        <time>2014-04-30T05:57:31Z</time>
      </trkpt>
      <trkpt lat="43.70655" lon="3.53763">
        <ele>259.8</ele>
        <time>2014-04-30T05:57:36Z</time>
      </trkpt>
      <trkpt lat="43.70661" lon="3.53751">
        <ele>261.6</ele>
        <time>2014-04-30T05:57:42Z</time>
      </trkpt>
      <trkpt lat="43.70665" lon="3.5374">
        <ele>262.2</ele>
        <time>2014-04-30T05:57:47Z</time>
      </trkpt>
      <trkpt lat="43.7067" lon="3.53726">
        <ele>263.2</ele>
        <time>2014-04-30T05:57:53Z</time>
      </trkpt>
      <trkpt lat="43.70674" lon="3.53713">
        <ele>264.6</ele>
        <time>2014-04-30T05:57:58Z</time>
      </trkpt>
      <trkpt lat="43.70679" lon="3.53702">
        <ele>265.6</ele>
        <time>2014-04-30T05:58:03Z</time>
      </trkpt>
      <trkpt lat="43.70685" lon="3.53692">
        <ele>266.2</ele>
        <time>2014-04-30T05:58:08Z</time>
      </trkpt>
      <trkpt lat="43.70692" lon="3.53681">
        <ele>267.4</ele>
        <time>2014-04-30T05:58:14Z</time>
      </trkpt>
      <trkpt lat="43.70697" lon="3.5367">
        <ele>268.7</ele>
        <time>2014-04-30T05:58:19Z</time>
      </trkpt>
      <trkpt lat="43.70703" lon="3.5366">
        <ele>269.3</ele>
        <time>2014-04-30T05:58:24Z</time>
      </trkpt>
      <trkpt lat="43.7071" lon="3.53651">
        <ele>269.8</ele>
        <time>2014-04-30T05:58:30Z</time>
      </trkpt>
      <trkpt lat="43.70718" lon="3.53644">
        <ele>271.1</ele>
        <time>2014-04-30T05:58:35Z</time>
      </trkpt>
      <trkpt lat="43.70727" lon="3.5364">
        <ele>271.1</ele>
        <time>2014-04-30T05:58:41Z</time>
      </trkpt>
      <trkpt lat="43.70736" lon="3.53638">
        <ele>272.1</ele>
        <time>2014-04-30T05:58:47Z</time>
      </trkpt>
      <trkpt lat="43.70746" lon="3.53641">
        <ele>273.7</ele>
        <time>2014-04-30T05:58:53Z</time>
      </trkpt>
      <trkpt lat="43.70756" lon="3.53646">
        <ele>275.5</ele>
        <time>2014-04-30T05:59:00Z</time>
      </trkpt>
      <trkpt lat="43.70765" lon="3.53651">
        <ele>276.8</ele>
        <time>2014-04-30T05:59:06Z</time>
      </trkpt>
      <trkpt lat="43.70775" lon="3.53655">
        <ele>277.4</ele>
        <time>2014-04-30T05:59:12Z</time>
      </trkpt>
      <trkpt lat="43.70784" lon="3.53654">
        <ele>277.2</ele>
        <time>2014-04-30T05:59:17Z</time>
      </trkpt>
      <trkpt lat="43.70785" lon="3.53667">
        <ele>279.1</ele>
        <time>2014-04-30T05:59:26Z</time>
      </trkpt>
      <trkpt lat="43.70775" lon="3.53668">
        <ele>279.5</ele>
        <time>2014-04-30T05:59:30Z</time>
      </trkpt>
      <trkpt lat="43.70766" lon="3.53673">
        <ele>279.7</ele>
        <time>2014-04-30T05:59:34Z</time>
      </trkpt>
      <trkpt lat="43.70758" lon="3.53682">
        <ele>281.2</ele>
        <time>2014-04-30T05:59:38Z</time>
      </trkpt>
      <trkpt lat="43.70753" lon="3.53694">
        <ele>281.6</ele>
        <time>2014-04-30T05:59:42Z</time>
      </trkpt>
      <trkpt lat="43.70751" lon="3.53708">
        <ele>282</ele>
        <time>2014-04-30T05:59:47Z</time>
      </trkpt>
      <trkpt lat="43.70751" lon="3.53724">
        <ele>282.9</ele>
        <time>2014-04-30T05:59:52Z</time>
      </trkpt>
      <trkpt lat="43.70752" lon="3.53737">
        <ele>283.8</ele>
        <time>2014-04-30T05:59:57Z</time>
      </trkpt>
      <trkpt lat="43.70755" lon="3.53751">
        <ele>284.6</ele>
        <time>2014-04-30T06:00:03Z</time>
      </trkpt>
      <trkpt lat="43.70758" lon="3.53765">
        <ele>286</ele>
        <time>2014-04-30T06:00:09Z</time>
      </trkpt>
      <trkpt lat="43.70762" lon="3.53778">
        <ele>287.1</ele>
        <time>2014-04-30T06:00:15Z</time>
      </trkpt>
      <trkpt lat="43.70765" lon="3.53791">
        <ele>287.6</ele>
        <time>2014-04-30T06:00:20Z</time>
      </trkpt>
      <trkpt lat="43.70769" lon="3.53802">
        <ele>289.1</ele>
        <time>2014-04-30T06:00:25Z</time>
      </trkpt>
      <trkpt lat="43.70773" lon="3.53813">
        <ele>289.5</ele>
        <time>2014-04-30T06:00:30Z</time>
      </trkpt>
      <trkpt lat="43.70778" lon="3.53824">
        <ele>290.9</ele>
        <time>2014-04-30T06:00:35Z</time>
      </trkpt>
      <trkpt lat="43.70786" lon="3.53832">
        <ele>292.7</ele>
        <time>2014-04-30T06:00:40Z</time>
      </trkpt>
      <trkpt lat="43.70796" lon="3.53833">
        <ele>292.6</ele>
        <time>2014-04-30T06:00:45Z</time>
      </trkpt>
      <trkpt lat="43.70807" lon="3.53831">
        <ele>293.7</ele>
        <time>2014-04-30T06:00:50Z</time>
      </trkpt>
      <trkpt lat="43.70817" lon="3.53829">
        <ele>293.6</ele>
        <time>2014-04-30T06:00:55Z</time>
      </trkpt>
      <trkpt lat="43.70828" lon="3.53829">
        <ele>293.9</ele>
        <time>2014-04-30T06:01:00Z</time>
      </trkpt>
      <trkpt lat="43.70837" lon="3.53828">
        <ele>295.3</ele>
        <time>2014-04-30T06:01:04Z</time>
      </trkpt>
      <trkpt lat="43.70847" lon="3.53826">
        <ele>296.1</ele>
        <time>2014-04-30T06:01:08Z</time>
      </trkpt>
      <trkpt lat="43.70856" lon="3.53825">
        <ele>296.1</ele>
        <time>2014-04-30T06:01:12Z</time>
      </trkpt>
      <trkpt lat="43.70865" lon="3.53824">
        <ele>295.8</ele>
        <time>2014-04-30T06:01:16Z</time>
      </trkpt>
      <trkpt lat="43.70875" lon="3.53822">
        <ele>297.3</ele>
        <time>2014-04-30T06:01:20Z</time>
      </trkpt>
      <trkpt lat="43.70885" lon="3.53821">
        <ele>297.6</ele>
        <time>2014-04-30T06:01:24Z</time>
      </trkpt>
      <trkpt lat="43.70896" lon="3.5382">
        <ele>297.8</ele>
        <time>2014-04-30T06:01:28Z</time>
      </trkpt>
      <trkpt lat="43.70906" lon="3.53819">
        <ele>297.9</ele>
        <time>2014-04-30T06:01:32Z</time>
      </trkpt>
      <trkpt lat="43.70916" lon="3.53817">
        <ele>297.9</ele>
        <time>2014-04-30T06:01:36Z</time>
      </trkpt>
      <trkpt lat="43.70926" lon="3.53815">
        <ele>298.5</ele>
        <time>2014-04-30T06:01:40Z</time>
      </trkpt>
      <trkpt lat="43.70936" lon="3.53815">
        <ele>299.2</ele>
        <time>2014-04-30T06:01:45Z</time>
      </trkpt>
      <trkpt lat="43.70946" lon="3.53813">
        <ele>299.6</ele>
        <time>2014-04-30T06:01:50Z</time>
      </trkpt>
      <trkpt lat="43.70956" lon="3.53811">
        <ele>300.3</ele>
        <time>2014-04-30T06:01:55Z</time>
      </trkpt>
      <trkpt lat="43.70965" lon="3.5381">
        <ele>301.4</ele>
        <time>2014-04-30T06:02:00Z</time>
      </trkpt>
      <trkpt lat="43.70974" lon="3.53809">
        <ele>302.8</ele>
        <time>2014-04-30T06:02:05Z</time>
      </trkpt>
      <trkpt lat="43.70984" lon="3.53806">
        <ele>303.6</ele>
        <time>2014-04-30T06:02:10Z</time>
      </trkpt>
      <trkpt lat="43.70993" lon="3.53805">
        <ele>303.8</ele>
        <time>2014-04-30T06:02:15Z</time>
      </trkpt>
      <trkpt lat="43.71002" lon="3.53805">
        <ele>304.8</ele>
        <time>2014-04-30T06:02:20Z</time>
      </trkpt>
      <trkpt lat="43.71012" lon="3.53804">
        <ele>305.9</ele>
        <time>2014-04-30T06:02:25Z</time>
      </trkpt>
      <trkpt lat="43.71022" lon="3.53803">
        <ele>308.9</ele>
        <time>2014-04-30T06:02:30Z</time>
      </trkpt>
      <trkpt lat="43.71032" lon="3.53802">
        <ele>308.9</ele>
        <time>2014-04-30T06:02:35Z</time>
      </trkpt>
      <trkpt lat="43.71042" lon="3.538">
        <ele>309.4</ele>
        <time>2014-04-30T06:02:40Z</time>
      </trkpt>
      <trkpt lat="43.71053" lon="3.53799">
        <ele>308.5</ele>
        <time>2014-04-30T06:02:45Z</time>
      </trkpt>
      <trkpt lat="43.71064" lon="3.53798">
        <ele>310</ele>
        <time>2014-04-30T06:02:50Z</time>
      </trkpt>
      <trkpt lat="43.71074" lon="3.53796">
        <ele>310.7</ele>
        <time>2014-04-30T06:02:55Z</time>
      </trkpt>
      <trkpt lat="43.71084" lon="3.53795">
        <ele>310.9</ele>
        <time>2014-04-30T06:03:00Z</time>
      </trkpt>
      <trkpt lat="43.71093" lon="3.5379">
        <ele>313.3</ele>
        <time>2014-04-30T06:03:05Z</time>
      </trkpt>
      <trkpt lat="43.71104" lon="3.53788">
        <ele>314.2</ele>
        <time>2014-04-30T06:03:10Z</time>
      </trkpt>
      <trkpt lat="43.71113" lon="3.53789">
        <ele>313.6</ele>
        <time>2014-04-30T06:03:15Z</time>
      </trkpt>
      <trkpt lat="43.71123" lon="3.53788">
        <ele>314.5</ele>
        <time>2014-04-30T06:03:20Z</time>
      </trkpt>
      <trkpt lat="43.71179" lon="3.53778">
        <ele>319</ele>
        <time>2014-04-30T06:03:48Z</time>
      </trkpt>
      <trkpt lat="43.71189" lon="3.53778">
        <ele>320.8</ele>
        <time>2014-04-30T06:03:53Z</time>
      </trkpt>
      <trkpt lat="43.71199" lon="3.53777">
        <ele>320.8</ele>
        <time>2014-04-30T06:03:58Z</time>
      </trkpt>
      <trkpt lat="43.71208" lon="3.53777">
        <ele>321.4</ele>
        <time>2014-04-30T06:04:03Z</time>
      </trkpt>
      <trkpt lat="43.71218" lon="3.53775">
        <ele>322.1</ele>
        <time>2014-04-30T06:04:08Z</time>
      </trkpt>
      <trkpt lat="43.71228" lon="3.53773">
        <ele>324.7</ele>
        <time>2014-04-30T06:04:13Z</time>
      </trkpt>
      <trkpt lat="43.71238" lon="3.53771">
        <ele>325.4</ele>
        <time>2014-04-30T06:04:18Z</time>
      </trkpt>
      <trkpt lat="43.71248" lon="3.5377">
        <ele>325.1</ele>
        <time>2014-04-30T06:04:23Z</time>
      </trkpt>
      <trkpt lat="43.71258" lon="3.53769">
        <ele>326.3</ele>
        <time>2014-04-30T06:04:28Z</time>
      </trkpt>
      <trkpt lat="43.71269" lon="3.53768">
        <ele>326.8</ele>
        <time>2014-04-30T06:04:33Z</time>
      </trkpt>
      <trkpt lat="43.71278" lon="3.53767">
        <ele>328</ele>
        <time>2014-04-30T06:04:37Z</time>
      </trkpt>
      <trkpt lat="43.71288" lon="3.53767">
        <ele>327.8</ele>
        <time>2014-04-30T06:04:41Z</time>
      </trkpt>
      <trkpt lat="43.71297" lon="3.53766">
        <ele>328.5</ele>
        <time>2014-04-30T06:04:45Z</time>
      </trkpt>
      <trkpt lat="43.71307" lon="3.53765">
        <ele>329</ele>
        <time>2014-04-30T06:04:49Z</time>
      </trkpt>
      <trkpt lat="43.71318" lon="3.53764">
        <ele>328.7</ele>
        <time>2014-04-30T06:04:53Z</time>
      </trkpt>
      <trkpt lat="43.71327" lon="3.53763">
        <ele>328.3</ele>
        <time>2014-04-30T06:04:57Z</time>
      </trkpt>
      <trkpt lat="43.71337" lon="3.53762">
        <ele>328.9</ele>
        <time>2014-04-30T06:05:01Z</time>
      </trkpt>
      <trkpt lat="43.71348" lon="3.5376">
        <ele>330.8</ele>
        <time>2014-04-30T06:05:06Z</time>
      </trkpt>
      <trkpt lat="43.71358" lon="3.5376">
        <ele>332</ele>
        <time>2014-04-30T06:05:11Z</time>
      </trkpt>
      <trkpt lat="43.71368" lon="3.53757">
        <ele>332.7</ele>
        <time>2014-04-30T06:05:17Z</time>
      </trkpt>
      <trkpt lat="43.71378" lon="3.53756">
        <ele>334.1</ele>
        <time>2014-04-30T06:05:23Z</time>
      </trkpt>
      <trkpt lat="43.71389" lon="3.53755">
        <ele>335.4</ele>
        <time>2014-04-30T06:05:29Z</time>
      </trkpt>
      <trkpt lat="43.71399" lon="3.53752">
        <ele>336.8</ele>
        <time>2014-04-30T06:05:35Z</time>
      </trkpt>
      <trkpt lat="43.71409" lon="3.53752">
        <ele>337.5</ele>
        <time>2014-04-30T06:05:41Z</time>
      </trkpt>
      <trkpt lat="43.71418" lon="3.5375">
        <ele>337.3</ele>
        <time>2014-04-30T06:05:47Z</time>
      </trkpt>
      <trkpt lat="43.71428" lon="3.53748">
        <ele>339.2</ele>
        <time>2014-04-30T06:05:53Z</time>
      </trkpt>
      <trkpt lat="43.71438" lon="3.53746">
        <ele>339.2</ele>
        <time>2014-04-30T06:05:59Z</time>
      </trkpt>
      <trkpt lat="43.71448" lon="3.53742">
        <ele>341.7</ele>
        <time>2014-04-30T06:06:05Z</time>
      </trkpt>
      <trkpt lat="43.71457" lon="3.53741">
        <ele>343</ele>
        <time>2014-04-30T06:06:10Z</time>
      </trkpt>
      <trkpt lat="43.71466" lon="3.5374">
        <ele>343.1</ele>
        <time>2014-04-30T06:06:15Z</time>
      </trkpt>
      <trkpt lat="43.71476" lon="3.53737">
        <ele>344.5</ele>
        <time>2014-04-30T06:06:21Z</time>
      </trkpt>
      <trkpt lat="43.71486" lon="3.53734">
        <ele>343.5</ele>
        <time>2014-04-30T06:07:42Z</time>
      </trkpt>
      <trkpt lat="43.71495" lon="3.53732">
        <ele>345.3</ele>
        <time>2014-04-30T06:07:47Z</time>
      </trkpt>
      <trkpt lat="43.71505" lon="3.53729">
        <ele>345.7</ele>
        <time>2014-04-30T06:07:52Z</time>
      </trkpt>
      <trkpt lat="43.71516" lon="3.53728">
        <ele>346.2</ele>
        <time>2014-04-30T06:07:57Z</time>
      </trkpt>
      <trkpt lat="43.71525" lon="3.53728">
        <ele>346.7</ele>
        <time>2014-04-30T06:08:01Z</time>
      </trkpt>
      <trkpt lat="43.71536" lon="3.53732">
        <ele>346.1</ele>
        <time>2014-04-30T06:08:05Z</time>
      </trkpt>
      <trkpt lat="43.71546" lon="3.53734">
        <ele>346.7</ele>
        <time>2014-04-30T06:08:09Z</time>
      </trkpt>
      <trkpt lat="43.71555" lon="3.53736">
        <ele>346.7</ele>
        <time>2014-04-30T06:08:13Z</time>
      </trkpt>
      <trkpt lat="43.71564" lon="3.53737">
        <ele>346.5</ele>
        <time>2014-04-30T06:08:16Z</time>
      </trkpt>
      <trkpt lat="43.71573" lon="3.53738">
        <ele>346.4</ele>
        <time>2014-04-30T06:08:19Z</time>
      </trkpt>
      <trkpt lat="43.71583" lon="3.53741">
        <ele>346.3</ele>
        <time>2014-04-30T06:08:22Z</time>
      </trkpt>
      <trkpt lat="43.71593" lon="3.53743">
        <ele>346.7</ele>
        <time>2014-04-30T06:08:25Z</time>
      </trkpt>
      <trkpt lat="43.71602" lon="3.53746">
        <ele>347.6</ele>
        <time>2014-04-30T06:08:28Z</time>
      </trkpt>
      <trkpt lat="43.71612" lon="3.53748">
        <ele>347.6</ele>
        <time>2014-04-30T06:08:31Z</time>
      </trkpt>
      <trkpt lat="43.71622" lon="3.5375">
        <ele>347.3</ele>
        <time>2014-04-30T06:08:34Z</time>
      </trkpt>
      <trkpt lat="43.71634" lon="3.53751">
        <ele>347.8</ele>
        <time>2014-04-30T06:08:37Z</time>
      </trkpt>
      <trkpt lat="43.71646" lon="3.53754">
        <ele>348.3</ele>
        <time>2014-04-30T06:08:40Z</time>
      </trkpt>
      <trkpt lat="43.71658" lon="3.53755">
        <ele>348.1</ele>
        <time>2014-04-30T06:08:43Z</time>
      </trkpt>
      <trkpt lat="43.7167" lon="3.53756">
        <ele>348.9</ele>
        <time>2014-04-30T06:08:46Z</time>
      </trkpt>
      <trkpt lat="43.71681" lon="3.53759">
        <ele>348.4</ele>
        <time>2014-04-30T06:08:49Z</time>
      </trkpt>
      <trkpt lat="43.71693" lon="3.53759">
        <ele>347.9</ele>
        <time>2014-04-30T06:08:52Z</time>
      </trkpt>
      <trkpt lat="43.71705" lon="3.53758">
        <ele>348.3</ele>
        <time>2014-04-30T06:08:55Z</time>
      </trkpt>
      <trkpt lat="43.71718" lon="3.53756">
        <ele>348.1</ele>
        <time>2014-04-30T06:08:58Z</time>
      </trkpt>
      <trkpt lat="43.71727" lon="3.53754">
        <ele>348</ele>
        <time>2014-04-30T06:09:00Z</time>
      </trkpt>
      <trkpt lat="43.71736" lon="3.53751">
        <ele>348.1</ele>
        <time>2014-04-30T06:09:02Z</time>
      </trkpt>
      <trkpt lat="43.71746" lon="3.53749">
        <ele>347.6</ele>
        <time>2014-04-30T06:09:04Z</time>
      </trkpt>
      <trkpt lat="43.71755" lon="3.53747">
        <ele>347.7</ele>
        <time>2014-04-30T06:09:06Z</time>
      </trkpt>
      <trkpt lat="43.71765" lon="3.53746">
        <ele>348</ele>
        <time>2014-04-30T06:09:08Z</time>
      </trkpt>
      <trkpt lat="43.71776" lon="3.53744">
        <ele>347.1</ele>
        <time>2014-04-30T06:09:10Z</time>
      </trkpt>
      <trkpt lat="43.71786" lon="3.53742">
        <ele>346.6</ele>
        <time>2014-04-30T06:09:12Z</time>
      </trkpt>
      <trkpt lat="43.71798" lon="3.5374">
        <ele>346.4</ele>
        <time>2014-04-30T06:09:14Z</time>
      </trkpt>
      <trkpt lat="43.7181" lon="3.53737">
        <ele>345.9</ele>
        <time>2014-04-30T06:09:16Z</time>
      </trkpt>
      <trkpt lat="43.71822" lon="3.53734">
        <ele>345.3</ele>
        <time>2014-04-30T06:09:18Z</time>
      </trkpt>
      <trkpt lat="43.71833" lon="3.53731">
        <ele>345.4</ele>
        <time>2014-04-30T06:09:20Z</time>
      </trkpt>
      <trkpt lat="43.71843" lon="3.53728">
        <ele>345.2</ele>
        <time>2014-04-30T06:09:22Z</time>
      </trkpt>
      <trkpt lat="43.71852" lon="3.53726">
        <ele>344.8</ele>
        <time>2014-04-30T06:09:24Z</time>
      </trkpt>
      <trkpt lat="43.71861" lon="3.53725">
        <ele>345.4</ele>
        <time>2014-04-30T06:09:26Z</time>
      </trkpt>
      <trkpt lat="43.71874" lon="3.53722">
        <ele>345.1</ele>
        <time>2014-04-30T06:09:29Z</time>
      </trkpt>
      <trkpt lat="43.71883" lon="3.5372">
        <ele>344.9</ele>
        <time>2014-04-30T06:09:31Z</time>
      </trkpt>
      <trkpt lat="43.71893" lon="3.53718">
        <ele>345.1</ele>
        <time>2014-04-30T06:09:33Z</time>
      </trkpt>
      <trkpt lat="43.71904" lon="3.53715">
        <ele>345.4</ele>
        <time>2014-04-30T06:09:35Z</time>
      </trkpt>
      <trkpt lat="43.71914" lon="3.53713">
        <ele>345.8</ele>
        <time>2014-04-30T06:09:37Z</time>
      </trkpt>
      <trkpt lat="43.71923" lon="3.53709">
        <ele>345.6</ele>
        <time>2014-04-30T06:09:39Z</time>
      </trkpt>
      <trkpt lat="43.71932" lon="3.53707">
        <ele>345.7</ele>
        <time>2014-04-30T06:09:41Z</time>
      </trkpt>
      <trkpt lat="43.71941" lon="3.53705">
        <ele>345.8</ele>
        <time>2014-04-30T06:09:43Z</time>
      </trkpt>
      <trkpt lat="43.7195" lon="3.53703">
        <ele>345.8</ele>
        <time>2014-04-30T06:09:45Z</time>
      </trkpt>
      <trkpt lat="43.71959" lon="3.53702">
        <ele>345.7</ele>
        <time>2014-04-30T06:09:47Z</time>
      </trkpt>
      <trkpt lat="43.71968" lon="3.53701">
        <ele>346.8</ele>
        <time>2014-04-30T06:09:49Z</time>
      </trkpt>
      <trkpt lat="43.71978" lon="3.53698">
        <ele>347.5</ele>
        <time>2014-04-30T06:09:51Z</time>
      </trkpt>
      <trkpt lat="43.71988" lon="3.53696">
        <ele>348</ele>
        <time>2014-04-30T06:09:53Z</time>
      </trkpt>
      <trkpt lat="43.71997" lon="3.53693">
        <ele>346.6</ele>
        <time>2014-04-30T06:09:55Z</time>
      </trkpt>
      <trkpt lat="43.72008" lon="3.5369">
        <ele>345.5</ele>
        <time>2014-04-30T06:09:57Z</time>
      </trkpt>
      <trkpt lat="43.72018" lon="3.53687">
        <ele>344.7</ele>
        <time>2014-04-30T06:09:59Z</time>
      </trkpt>
      <trkpt lat="43.72031" lon="3.53684">
        <ele>344.2</ele>
        <time>2014-04-30T06:10:02Z</time>
      </trkpt>
      <trkpt lat="43.7204" lon="3.53681">
        <ele>344.7</ele>
        <time>2014-04-30T06:10:04Z</time>
      </trkpt>
      <trkpt lat="43.72049" lon="3.53678">
        <ele>345.6</ele>
        <time>2014-04-30T06:10:06Z</time>
      </trkpt>
      <trkpt lat="43.72058" lon="3.53676">
        <ele>345.7</ele>
        <time>2014-04-30T06:10:08Z</time>
      </trkpt>
      <trkpt lat="43.72069" lon="3.5367">
        <ele>345.7</ele>
        <time>2014-04-30T06:10:11Z</time>
      </trkpt>
      <trkpt lat="43.72076" lon="3.53658">
        <ele>345.4</ele>
        <time>2014-04-30T06:10:14Z</time>
      </trkpt>
      <trkpt lat="43.72077" lon="3.53645">
        <ele>345.6</ele>
        <time>2014-04-30T06:10:17Z</time>
      </trkpt>
      <trkpt lat="43.7208" lon="3.5363">
        <ele>345.9</ele>
        <time>2014-04-30T06:10:20Z</time>
      </trkpt>
      <trkpt lat="43.72084" lon="3.53615">
        <ele>345.9</ele>
        <time>2014-04-30T06:10:23Z</time>
      </trkpt>
      <trkpt lat="43.72093" lon="3.53604">
        <ele>345.9</ele>
        <time>2014-04-30T06:10:26Z</time>
      </trkpt>
      <trkpt lat="43.72102" lon="3.53595">
        <ele>346.1</ele>
        <time>2014-04-30T06:10:29Z</time>
      </trkpt>
      <trkpt lat="43.72111" lon="3.53585">
        <ele>346.1</ele>
        <time>2014-04-30T06:10:32Z</time>
      </trkpt>
      <trkpt lat="43.72119" lon="3.53576">
        <ele>346</ele>
        <time>2014-04-30T06:10:35Z</time>
      </trkpt>
      <trkpt lat="43.72126" lon="3.53567">
        <ele>346.5</ele>
        <time>2014-04-30T06:10:38Z</time>
      </trkpt>
      <trkpt lat="43.72134" lon="3.53558">
        <ele>347.1</ele>
        <time>2014-04-30T06:10:42Z</time>
      </trkpt>
      <trkpt lat="43.72142" lon="3.53551">
        <ele>347.9</ele>
        <time>2014-04-30T06:10:46Z</time>
      </trkpt>
      <trkpt lat="43.7215" lon="3.53545">
        <ele>348.7</ele>
        <time>2014-04-30T06:10:50Z</time>
      </trkpt>
      <trkpt lat="43.7216" lon="3.53539">
        <ele>349.8</ele>
        <time>2014-04-30T06:10:55Z</time>
      </trkpt>
      <trkpt lat="43.72169" lon="3.53531">
        <ele>350.2</ele>
        <time>2014-04-30T06:10:59Z</time>
      </trkpt>
      <trkpt lat="43.72177" lon="3.53522">
        <ele>350.6</ele>
        <time>2014-04-30T06:11:03Z</time>
      </trkpt>
      <trkpt lat="43.72185" lon="3.53513">
        <ele>351.7</ele>
        <time>2014-04-30T06:11:07Z</time>
      </trkpt>
      <trkpt lat="43.72193" lon="3.53504">
        <ele>352</ele>
        <time>2014-04-30T06:11:11Z</time>
      </trkpt>
      <trkpt lat="43.722" lon="3.53495">
        <ele>353.2</ele>
        <time>2014-04-30T06:11:15Z</time>
      </trkpt>
      <trkpt lat="43.72209" lon="3.53486">
        <ele>353.5</ele>
        <time>2014-04-30T06:11:19Z</time>
      </trkpt>
      <trkpt lat="43.72216" lon="3.53477">
        <ele>354.4</ele>
        <time>2014-04-30T06:11:23Z</time>
      </trkpt>
      <trkpt lat="43.72223" lon="3.53468">
        <ele>355.2</ele>
        <time>2014-04-30T06:11:27Z</time>
      </trkpt>
      <trkpt lat="43.7223" lon="3.5346">
        <ele>355.9</ele>
        <time>2014-04-30T06:11:31Z</time>
      </trkpt>
      <trkpt lat="43.72235" lon="3.53448">
        <ele>357.9</ele>
        <time>2014-04-30T06:11:35Z</time>
      </trkpt>
      <trkpt lat="43.72238" lon="3.53434">
        <ele>357.6</ele>
        <time>2014-04-30T06:11:40Z</time>
      </trkpt>
      <trkpt lat="43.72238" lon="3.5342">
        <ele>359.6</ele>
        <time>2014-04-30T06:11:45Z</time>
      </trkpt>
      <trkpt lat="43.72236" lon="3.53406">
        <ele>360.6</ele>
        <time>2014-04-30T06:11:50Z</time>
      </trkpt>
      <trkpt lat="43.72234" lon="3.53392">
        <ele>360.9</ele>
        <time>2014-04-30T06:11:55Z</time>
      </trkpt>
      <trkpt lat="43.72231" lon="3.5338">
        <ele>361.4</ele>
        <time>2014-04-30T06:11:59Z</time>
      </trkpt>
      <trkpt lat="43.7223" lon="3.53367">
        <ele>361.5</ele>
        <time>2014-04-30T06:12:03Z</time>
      </trkpt>
      <trkpt lat="43.72228" lon="3.53354">
        <ele>362.3</ele>
        <time>2014-04-30T06:12:07Z</time>
      </trkpt>
      <trkpt lat="43.72228" lon="3.5334">
        <ele>363.7</ele>
        <time>2014-04-30T06:12:11Z</time>
      </trkpt>
      <trkpt lat="43.72228" lon="3.53327">
        <ele>364.4</ele>
        <time>2014-04-30T06:12:15Z</time>
      </trkpt>
      <trkpt lat="43.72229" lon="3.53314">
        <ele>365.1</ele>
        <time>2014-04-30T06:12:19Z</time>
      </trkpt>
      <trkpt lat="43.72231" lon="3.533">
        <ele>365.3</ele>
        <time>2014-04-30T06:12:23Z</time>
      </trkpt>
      <trkpt lat="43.72231" lon="3.53286">
        <ele>366.3</ele>
        <time>2014-04-30T06:12:27Z</time>
      </trkpt>
      <trkpt lat="43.72228" lon="3.53274">
        <ele>367.3</ele>
        <time>2014-04-30T06:12:31Z</time>
      </trkpt>
      <trkpt lat="43.72223" lon="3.53262">
        <ele>368</ele>
        <time>2014-04-30T06:12:35Z</time>
      </trkpt>
      <trkpt lat="43.7222" lon="3.53249">
        <ele>368.9</ele>
        <time>2014-04-30T06:12:39Z</time>
      </trkpt>
      <trkpt lat="43.72221" lon="3.53236">
        <ele>369.6</ele>
        <time>2014-04-30T06:12:43Z</time>
      </trkpt>
      <trkpt lat="43.7223" lon="3.53237">
        <ele>369.9</ele>
        <time>2014-04-30T06:12:49Z</time>
      </trkpt>
      <trkpt lat="43.72236" lon="3.53248">
        <ele>370.3</ele>
        <time>2014-04-30T06:12:54Z</time>
      </trkpt>
      <trkpt lat="43.72245" lon="3.53253">
        <ele>371.7</ele>
        <time>2014-04-30T06:12:59Z</time>
      </trkpt>
      <trkpt lat="43.72253" lon="3.53258">
        <ele>372.5</ele>
        <time>2014-04-30T06:13:03Z</time>
      </trkpt>
      <trkpt lat="43.72262" lon="3.53268">
        <ele>373.5</ele>
        <time>2014-04-30T06:13:08Z</time>
      </trkpt>
      <trkpt lat="43.72269" lon="3.5328">
        <ele>373</ele>
        <time>2014-04-30T06:13:13Z</time>
      </trkpt>
      <trkpt lat="43.72276" lon="3.53293">
        <ele>373.6</ele>
        <time>2014-04-30T06:13:18Z</time>
      </trkpt>
      <trkpt lat="43.72282" lon="3.53303">
        <ele>373.5</ele>
        <time>2014-04-30T06:13:22Z</time>
      </trkpt>
      <trkpt lat="43.72288" lon="3.53312">
        <ele>374.9</ele>
        <time>2014-04-30T06:13:26Z</time>
      </trkpt>
      <trkpt lat="43.72295" lon="3.53321">
        <ele>375.6</ele>
        <time>2014-04-30T06:13:30Z</time>
      </trkpt>
      <trkpt lat="43.72303" lon="3.53326">
        <ele>377</ele>
        <time>2014-04-30T06:13:34Z</time>
      </trkpt>
      <trkpt lat="43.72313" lon="3.53329">
        <ele>377.6</ele>
        <time>2014-04-30T06:13:38Z</time>
      </trkpt>
      <trkpt lat="43.72322" lon="3.53329">
        <ele>378.5</ele>
        <time>2014-04-30T06:13:43Z</time>
      </trkpt>
      <trkpt lat="43.72333" lon="3.53325">
        <ele>379.3</ele>
        <time>2014-04-30T06:13:48Z</time>
      </trkpt>
      <trkpt lat="43.72343" lon="3.5332">
        <ele>380.5</ele>
        <time>2014-04-30T06:13:53Z</time>
      </trkpt>
      <trkpt lat="43.72353" lon="3.53317">
        <ele>381.5</ele>
        <time>2014-04-30T06:13:58Z</time>
      </trkpt>
      <trkpt lat="43.72362" lon="3.53316">
        <ele>382.6</ele>
        <time>2014-04-30T06:14:02Z</time>
      </trkpt>
      <trkpt lat="43.72373" lon="3.53316">
        <ele>383.2</ele>
        <time>2014-04-30T06:14:07Z</time>
      </trkpt>
      <trkpt lat="43.72385" lon="3.53316">
        <ele>383.4</ele>
        <time>2014-04-30T06:14:12Z</time>
      </trkpt>
      <trkpt lat="43.72392" lon="3.53308">
        <ele>384.5</ele>
        <time>2014-04-30T06:14:17Z</time>
      </trkpt>
      <trkpt lat="43.72383" lon="3.53301">
        <ele>385.8</ele>
        <time>2014-04-30T06:14:23Z</time>
      </trkpt>
      <trkpt lat="43.72373" lon="3.53298">
        <ele>387</ele>
        <time>2014-04-30T06:14:28Z</time>
      </trkpt>
      <trkpt lat="43.72364" lon="3.53292">
        <ele>386.4</ele>
        <time>2014-04-30T06:14:33Z</time>
      </trkpt>
      <trkpt lat="43.72357" lon="3.53284">
        <ele>386.6</ele>
        <time>2014-04-30T06:14:37Z</time>
      </trkpt>
      <trkpt lat="43.72349" lon="3.53273">
        <ele>387.5</ele>
        <time>2014-04-30T06:14:42Z</time>
      </trkpt>
      <trkpt lat="43.72344" lon="3.53262">
        <ele>388.2</ele>
        <time>2014-04-30T06:14:46Z</time>
      </trkpt>
      <trkpt lat="43.7234" lon="3.5325">
        <ele>388.8</ele>
        <time>2014-04-30T06:14:50Z</time>
      </trkpt>
      <trkpt lat="43.72336" lon="3.53237">
        <ele>389.9</ele>
        <time>2014-04-30T06:14:54Z</time>
      </trkpt>
      <trkpt lat="43.72334" lon="3.53225">
        <ele>390.5</ele>
        <time>2014-04-30T06:14:58Z</time>
      </trkpt>
      <trkpt lat="43.72332" lon="3.5321">
        <ele>391.4</ele>
        <time>2014-04-30T06:15:03Z</time>
      </trkpt>
      <trkpt lat="43.72331" lon="3.53197">
        <ele>392.1</ele>
        <time>2014-04-30T06:15:07Z</time>
      </trkpt>
      <trkpt lat="43.72329" lon="3.53183">
        <ele>392.9</ele>
        <time>2014-04-30T06:15:11Z</time>
      </trkpt>
      <trkpt lat="43.72328" lon="3.53171">
        <ele>393.9</ele>
        <time>2014-04-30T06:15:15Z</time>
      </trkpt>
      <trkpt lat="43.72326" lon="3.53156">
        <ele>395.4</ele>
        <time>2014-04-30T06:15:20Z</time>
      </trkpt>
      <trkpt lat="43.72326" lon="3.53141">
        <ele>395.6</ele>
        <time>2014-04-30T06:15:25Z</time>
      </trkpt>
      <trkpt lat="43.72325" lon="3.53127">
        <ele>397.2</ele>
        <time>2014-04-30T06:15:30Z</time>
      </trkpt>
      <trkpt lat="43.72327" lon="3.53112">
        <ele>398.4</ele>
        <time>2014-04-30T06:15:35Z</time>
      </trkpt>
      <trkpt lat="43.72331" lon="3.53097">
        <ele>398.9</ele>
        <time>2014-04-30T06:15:40Z</time>
      </trkpt>
      <trkpt lat="43.72333" lon="3.53085">
        <ele>399.7</ele>
        <time>2014-04-30T06:15:44Z</time>
      </trkpt>
      <trkpt lat="43.72335" lon="3.5307">
        <ele>400</ele>
        <time>2014-04-30T06:15:49Z</time>
      </trkpt>
      <trkpt lat="43.72336" lon="3.53055">
        <ele>400.4</ele>
        <time>2014-04-30T06:15:54Z</time>
      </trkpt>
      <trkpt lat="43.7234" lon="3.53041">
        <ele>401.4</ele>
        <time>2014-04-30T06:15:59Z</time>
      </trkpt>
      <trkpt lat="43.72344" lon="3.5303">
        <ele>404.4</ele>
        <time>2014-04-30T06:16:03Z</time>
      </trkpt>
      <trkpt lat="43.7235" lon="3.53017">
        <ele>404.3</ele>
        <time>2014-04-30T06:16:08Z</time>
      </trkpt>
      <trkpt lat="43.72356" lon="3.53006">
        <ele>404.3</ele>
        <time>2014-04-30T06:16:13Z</time>
      </trkpt>
      <trkpt lat="43.72362" lon="3.52995">
        <ele>405.3</ele>
        <time>2014-04-30T06:16:18Z</time>
      </trkpt>
      <trkpt lat="43.72368" lon="3.52984">
        <ele>406.4</ele>
        <time>2014-04-30T06:16:23Z</time>
      </trkpt>
      <trkpt lat="43.72374" lon="3.52974">
        <ele>407.9</ele>
        <time>2014-04-30T06:16:28Z</time>
      </trkpt>
      <trkpt lat="43.72381" lon="3.52963">
        <ele>407.9</ele>
        <time>2014-04-30T06:16:33Z</time>
      </trkpt>
      <trkpt lat="43.72386" lon="3.5295">
        <ele>408.4</ele>
        <time>2014-04-30T06:16:38Z</time>
      </trkpt>
      <trkpt lat="43.72388" lon="3.52937">
        <ele>408.6</ele>
        <time>2014-04-30T06:16:43Z</time>
      </trkpt>
      <trkpt lat="43.72394" lon="3.52925">
        <ele>408.9</ele>
        <time>2014-04-30T06:16:48Z</time>
      </trkpt>
      <trkpt lat="43.72404" lon="3.52924">
        <ele>409.8</ele>
        <time>2014-04-30T06:16:53Z</time>
      </trkpt>
      <trkpt lat="43.72407" lon="3.52938">
        <ele>410.8</ele>
        <time>2014-04-30T06:16:58Z</time>
      </trkpt>
      <trkpt lat="43.72402" lon="3.52952">
        <ele>411</ele>
        <time>2014-04-30T06:17:02Z</time>
      </trkpt>
      <trkpt lat="43.72397" lon="3.52963">
        <ele>411.9</ele>
        <time>2014-04-30T06:17:06Z</time>
      </trkpt>
      <trkpt lat="43.72392" lon="3.52975">
        <ele>412.1</ele>
        <time>2014-04-30T06:17:10Z</time>
      </trkpt>
      <trkpt lat="43.72389" lon="3.52989">
        <ele>413.3</ele>
        <time>2014-04-30T06:17:14Z</time>
      </trkpt>
      <trkpt lat="43.72387" lon="3.53002">
        <ele>413.9</ele>
        <time>2014-04-30T06:17:18Z</time>
      </trkpt>
      <trkpt lat="43.72387" lon="3.53016">
        <ele>413.8</ele>
        <time>2014-04-30T06:17:22Z</time>
      </trkpt>
      <trkpt lat="43.72386" lon="3.53029">
        <ele>414.2</ele>
        <time>2014-04-30T06:17:26Z</time>
      </trkpt>
      <trkpt lat="43.72388" lon="3.53043">
        <ele>415.8</ele>
        <time>2014-04-30T06:17:30Z</time>
      </trkpt>
      <trkpt lat="43.72392" lon="3.53055">
        <ele>416.4</ele>
        <time>2014-04-30T06:17:34Z</time>
      </trkpt>
      <trkpt lat="43.72399" lon="3.53065">
        <ele>416.9</ele>
        <time>2014-04-30T06:17:38Z</time>
      </trkpt>
      <trkpt lat="43.72406" lon="3.53072">
        <ele>417.5</ele>
        <time>2014-04-30T06:17:42Z</time>
      </trkpt>
      <trkpt lat="43.72415" lon="3.53077">
        <ele>418.9</ele>
        <time>2014-04-30T06:17:46Z</time>
      </trkpt>
      <trkpt lat="43.72424" lon="3.53082">
        <ele>419.1</ele>
        <time>2014-04-30T06:17:50Z</time>
      </trkpt>
      <trkpt lat="43.72434" lon="3.53088">
        <ele>420.1</ele>
        <time>2014-04-30T06:17:55Z</time>
      </trkpt>
      <trkpt lat="43.72444" lon="3.53087">
        <ele>421.2</ele>
        <time>2014-04-30T06:18:00Z</time>
      </trkpt>
      <trkpt lat="43.72443" lon="3.53073">
        <ele>422.8</ele>
        <time>2014-04-30T06:18:07Z</time>
      </trkpt>
      <trkpt lat="43.72437" lon="3.5306">
        <ele>423</ele>
        <time>2014-04-30T06:18:12Z</time>
      </trkpt>
      <trkpt lat="43.72434" lon="3.53047">
        <ele>423.7</ele>
        <time>2014-04-30T06:18:16Z</time>
      </trkpt>
      <trkpt lat="43.72434" lon="3.53032">
        <ele>423.5</ele>
        <time>2014-04-30T06:18:21Z</time>
      </trkpt>
      <trkpt lat="43.72439" lon="3.5302">
        <ele>424.4</ele>
        <time>2014-04-30T06:18:26Z</time>
      </trkpt>
      <trkpt lat="43.72445" lon="3.53009">
        <ele>425.9</ele>
        <time>2014-04-30T06:18:31Z</time>
      </trkpt>
      <trkpt lat="43.72452" lon="3.52999">
        <ele>426.7</ele>
        <time>2014-04-30T06:18:36Z</time>
      </trkpt>
      <trkpt lat="43.72458" lon="3.5299">
        <ele>427.4</ele>
        <time>2014-04-30T06:18:41Z</time>
      </trkpt>
      <trkpt lat="43.72463" lon="3.52978">
        <ele>428.1</ele>
        <time>2014-04-30T06:18:46Z</time>
      </trkpt>
      <trkpt lat="43.72467" lon="3.52965">
        <ele>428.9</ele>
        <time>2014-04-30T06:18:52Z</time>
      </trkpt>
      <trkpt lat="43.7247" lon="3.52952">
        <ele>431.7</ele>
        <time>2014-04-30T06:18:58Z</time>
      </trkpt>
      <trkpt lat="43.72477" lon="3.52945">
        <ele>432.9</ele>
        <time>2014-04-30T06:19:05Z</time>
      </trkpt>
      <trkpt lat="43.72479" lon="3.52959">
        <ele>433</ele>
        <time>2014-04-30T06:19:11Z</time>
      </trkpt>
      <trkpt lat="43.72482" lon="3.52971">
        <ele>434.1</ele>
        <time>2014-04-30T06:19:16Z</time>
      </trkpt>
      <trkpt lat="43.72484" lon="3.52984">
        <ele>434.8</ele>
        <time>2014-04-30T06:19:21Z</time>
      </trkpt>
      <trkpt lat="43.72489" lon="3.52994">
        <ele>435.1</ele>
        <time>2014-04-30T06:19:26Z</time>
      </trkpt>
      <trkpt lat="43.72496" lon="3.52985">
        <ele>436.6</ele>
        <time>2014-04-30T06:19:34Z</time>
      </trkpt>
      <trkpt lat="43.72496" lon="3.52973">
        <ele>437</ele>
        <time>2014-04-30T06:19:39Z</time>
      </trkpt>
      <trkpt lat="43.72497" lon="3.52959">
        <ele>438.2</ele>
        <time>2014-04-30T06:19:44Z</time>
      </trkpt>
      <trkpt lat="43.72499" lon="3.52946">
        <ele>440.3</ele>
        <time>2014-04-30T06:19:49Z</time>
      </trkpt>
      <trkpt lat="43.72502" lon="3.52932">
        <ele>440.5</ele>
        <time>2014-04-30T06:19:54Z</time>
      </trkpt>
      <trkpt lat="43.72505" lon="3.52919">
        <ele>440.9</ele>
        <time>2014-04-30T06:19:59Z</time>
      </trkpt>
      <trkpt lat="43.72507" lon="3.52907">
        <ele>442.5</ele>
        <time>2014-04-30T06:20:04Z</time>
      </trkpt>
      <trkpt lat="43.72509" lon="3.52895">
        <ele>443</ele>
        <time>2014-04-30T06:20:09Z</time>
      </trkpt>
      <trkpt lat="43.7251" lon="3.52882">
        <ele>443.7</ele>
        <time>2014-04-30T06:20:14Z</time>
      </trkpt>
      <trkpt lat="43.72512" lon="3.52869">
        <ele>444.6</ele>
        <time>2014-04-30T06:20:19Z</time>
      </trkpt>
      <trkpt lat="43.72513" lon="3.52856">
        <ele>445.2</ele>
        <time>2014-04-30T06:20:24Z</time>
      </trkpt>
      <trkpt lat="43.72515" lon="3.52842">
        <ele>446.1</ele>
        <time>2014-04-30T06:20:29Z</time>
      </trkpt>
      <trkpt lat="43.72515" lon="3.52828">
        <ele>447.4</ele>
        <time>2014-04-30T06:20:34Z</time>
      </trkpt>
      <trkpt lat="43.72518" lon="3.52813">
        <ele>447</ele>
        <time>2014-04-30T06:20:39Z</time>
      </trkpt>
      <trkpt lat="43.72522" lon="3.528">
        <ele>448.4</ele>
        <time>2014-04-30T06:20:45Z</time>
      </trkpt>
      <trkpt lat="43.72526" lon="3.52789">
        <ele>450.2</ele>
        <time>2014-04-30T06:20:50Z</time>
      </trkpt>
      <trkpt lat="43.72532" lon="3.52777">
        <ele>451.2</ele>
        <time>2014-04-30T06:20:55Z</time>
      </trkpt>
      <trkpt lat="43.72533" lon="3.52763">
        <ele>452.3</ele>
        <time>2014-04-30T06:21:00Z</time>
      </trkpt>
      <trkpt lat="43.7253" lon="3.5275">
        <ele>451.9</ele>
        <time>2014-04-30T06:21:05Z</time>
      </trkpt>
      <trkpt lat="43.72525" lon="3.52738">
        <ele>453</ele>
        <time>2014-04-30T06:21:10Z</time>
      </trkpt>
      <trkpt lat="43.72522" lon="3.52723">
        <ele>453.6</ele>
        <time>2014-04-30T06:21:15Z</time>
      </trkpt>
      <trkpt lat="43.72523" lon="3.5271">
        <ele>454.7</ele>
        <time>2014-04-30T06:21:20Z</time>
      </trkpt>
      <trkpt lat="43.72527" lon="3.52697">
        <ele>456.5</ele>
        <time>2014-04-30T06:21:25Z</time>
      </trkpt>
      <trkpt lat="43.7253" lon="3.52685">
        <ele>456.7</ele>
        <time>2014-04-30T06:21:30Z</time>
      </trkpt>
      <trkpt lat="43.72533" lon="3.52672">
        <ele>457.2</ele>
        <time>2014-04-30T06:21:35Z</time>
      </trkpt>
      <trkpt lat="43.72537" lon="3.52661">
        <ele>458.5</ele>
        <time>2014-04-30T06:21:40Z</time>
      </trkpt>
      <trkpt lat="43.72543" lon="3.52648">
        <ele>461.3</ele>
        <time>2014-04-30T06:21:46Z</time>
      </trkpt>
      <trkpt lat="43.7255" lon="3.52638">
        <ele>462.5</ele>
        <time>2014-04-30T06:21:52Z</time>
      </trkpt>
      <trkpt lat="43.72558" lon="3.52627">
        <ele>462.9</ele>
        <time>2014-04-30T06:21:58Z</time>
      </trkpt>
      <trkpt lat="43.72566" lon="3.52619">
        <ele>464.2</ele>
        <time>2014-04-30T06:22:04Z</time>
      </trkpt>
      <trkpt lat="43.72575" lon="3.52611">
        <ele>465.6</ele>
        <time>2014-04-30T06:22:10Z</time>
      </trkpt>
      <trkpt lat="43.72583" lon="3.52602">
        <ele>466.3</ele>
        <time>2014-04-30T06:22:16Z</time>
      </trkpt>
      <trkpt lat="43.7259" lon="3.52594">
        <ele>467.6</ele>
        <time>2014-04-30T06:22:21Z</time>
      </trkpt>
      <trkpt lat="43.72597" lon="3.52583">
        <ele>468.1</ele>
        <time>2014-04-30T06:22:27Z</time>
      </trkpt>
      <trkpt lat="43.72603" lon="3.52574">
        <ele>469.1</ele>
        <time>2014-04-30T06:22:32Z</time>
      </trkpt>
      <trkpt lat="43.72612" lon="3.52564">
        <ele>471.2</ele>
        <time>2014-04-30T06:22:38Z</time>
      </trkpt>
      <trkpt lat="43.72619" lon="3.52556">
        <ele>472.2</ele>
        <time>2014-04-30T06:22:43Z</time>
      </trkpt>
      <trkpt lat="43.72626" lon="3.52547">
        <ele>472.2</ele>
        <time>2014-04-30T06:22:48Z</time>
      </trkpt>
      <trkpt lat="43.72633" lon="3.52538">
        <ele>472.9</ele>
        <time>2014-04-30T06:22:53Z</time>
      </trkpt>
      <trkpt lat="43.72639" lon="3.52528">
        <ele>473.4</ele>
        <time>2014-04-30T06:22:58Z</time>
      </trkpt>
      <trkpt lat="43.72644" lon="3.52517">
        <ele>474.7</ele>
        <time>2014-04-30T06:23:03Z</time>
      </trkpt>
      <trkpt lat="43.7265" lon="3.52506">
        <ele>477</ele>
        <time>2014-04-30T06:23:08Z</time>
      </trkpt>
      <trkpt lat="43.72655" lon="3.52495">
        <ele>477.6</ele>
        <time>2014-04-30T06:23:13Z</time>
      </trkpt>
      <trkpt lat="43.7266" lon="3.52483">
        <ele>478.9</ele>
        <time>2014-04-30T06:23:18Z</time>
      </trkpt>
      <trkpt lat="43.72665" lon="3.52473">
        <ele>479.8</ele>
        <time>2014-04-30T06:23:23Z</time>
      </trkpt>
      <trkpt lat="43.72671" lon="3.52461">
        <ele>480.3</ele>
        <time>2014-04-30T06:23:28Z</time>
      </trkpt>
      <trkpt lat="43.72677" lon="3.52451">
        <ele>480.3</ele>
        <time>2014-04-30T06:23:33Z</time>
      </trkpt>
      <trkpt lat="43.72684" lon="3.5244">
        <ele>481.4</ele>
        <time>2014-04-30T06:23:39Z</time>
      </trkpt>
      <trkpt lat="43.72692" lon="3.52431">
        <ele>482.1</ele>
        <time>2014-04-30T06:24:23Z</time>
      </trkpt>
      <trkpt lat="43.72701" lon="3.52424">
        <ele>483.3</ele>
        <time>2014-04-30T06:24:30Z</time>
      </trkpt>
      <trkpt lat="43.72709" lon="3.52418">
        <ele>483.7</ele>
        <time>2014-04-30T06:24:36Z</time>
      </trkpt>
      <trkpt lat="43.72719" lon="3.52413">
        <ele>485</ele>
        <time>2014-04-30T06:24:42Z</time>
      </trkpt>
      <trkpt lat="43.72727" lon="3.52408">
        <ele>485.3</ele>
        <time>2014-04-30T06:24:47Z</time>
      </trkpt>
      <trkpt lat="43.72736" lon="3.52403">
        <ele>486.9</ele>
        <time>2014-04-30T06:24:52Z</time>
      </trkpt>
      <trkpt lat="43.72746" lon="3.52397">
        <ele>486.7</ele>
        <time>2014-04-30T06:24:57Z</time>
      </trkpt>
      <trkpt lat="43.72755" lon="3.52389">
        <ele>487.2</ele>
        <time>2014-04-30T06:25:02Z</time>
      </trkpt>
      <trkpt lat="43.72762" lon="3.5238">
        <ele>487.5</ele>
        <time>2014-04-30T06:25:06Z</time>
      </trkpt>
      <trkpt lat="43.7277" lon="3.52369">
        <ele>487.8</ele>
        <time>2014-04-30T06:25:11Z</time>
      </trkpt>
      <trkpt lat="43.72777" lon="3.52358">
        <ele>488</ele>
        <time>2014-04-30T06:25:16Z</time>
      </trkpt>
      <trkpt lat="43.72784" lon="3.52348">
        <ele>488.8</ele>
        <time>2014-04-30T06:25:20Z</time>
      </trkpt>
      <trkpt lat="43.7279" lon="3.52338">
        <ele>488.8</ele>
        <time>2014-04-30T06:25:24Z</time>
      </trkpt>
      <trkpt lat="43.72796" lon="3.52328">
        <ele>489.9</ele>
        <time>2014-04-30T06:25:28Z</time>
      </trkpt>
      <trkpt lat="43.72802" lon="3.52318">
        <ele>491</ele>
        <time>2014-04-30T06:25:32Z</time>
      </trkpt>
      <trkpt lat="43.72807" lon="3.52308">
        <ele>491.4</ele>
        <time>2014-04-30T06:25:36Z</time>
      </trkpt>
      <trkpt lat="43.72814" lon="3.52298">
        <ele>491.8</ele>
        <time>2014-04-30T06:25:40Z</time>
      </trkpt>
      <trkpt lat="43.7282" lon="3.52288">
        <ele>491.7</ele>
        <time>2014-04-30T06:25:44Z</time>
      </trkpt>
      <trkpt lat="43.72827" lon="3.52279">
        <ele>492.3</ele>
        <time>2014-04-30T06:25:48Z</time>
      </trkpt>
      <trkpt lat="43.72836" lon="3.5227">
        <ele>491.9</ele>
        <time>2014-04-30T06:25:52Z</time>
      </trkpt>
      <trkpt lat="43.72843" lon="3.52263">
        <ele>491.6</ele>
        <time>2014-04-30T06:25:55Z</time>
      </trkpt>
      <trkpt lat="43.72852" lon="3.52255">
        <ele>491.6</ele>
        <time>2014-04-30T06:25:59Z</time>
      </trkpt>
      <trkpt lat="43.72861" lon="3.52248">
        <ele>491.6</ele>
        <time>2014-04-30T06:26:03Z</time>
      </trkpt>
      <trkpt lat="43.7287" lon="3.5224">
        <ele>492.2</ele>
        <time>2014-04-30T06:26:08Z</time>
      </trkpt>
      <trkpt lat="43.72859" lon="3.52248">
        <ele>492.1</ele>
        <time>2014-04-30T06:26:57Z</time>
      </trkpt>
      <trkpt lat="43.72849" lon="3.52255">
        <ele>491.2</ele>
        <time>2014-04-30T06:27:01Z</time>
      </trkpt>
      <trkpt lat="43.72841" lon="3.52263">
        <ele>491</ele>
        <time>2014-04-30T06:27:05Z</time>
      </trkpt>
      <trkpt lat="43.72833" lon="3.52271">
        <ele>491.2</ele>
        <time>2014-04-30T06:27:10Z</time>
      </trkpt>
      <trkpt lat="43.72838" lon="3.5226">
        <ele>492.6</ele>
        <time>2014-04-30T06:27:25Z</time>
      </trkpt>
      <trkpt lat="43.72846" lon="3.5225">
        <ele>493.9</ele>
        <time>2014-04-30T06:27:31Z</time>
      </trkpt>
      <trkpt lat="43.72854" lon="3.52241">
        <ele>493.7</ele>
        <time>2014-04-30T06:27:37Z</time>
      </trkpt>
      <trkpt lat="43.72861" lon="3.52231">
        <ele>493.6</ele>
        <time>2014-04-30T06:27:42Z</time>
      </trkpt>
      <trkpt lat="43.72869" lon="3.52222">
        <ele>494.6</ele>
        <time>2014-04-30T06:27:47Z</time>
      </trkpt>
      <trkpt lat="43.72878" lon="3.52214">
        <ele>496.4</ele>
        <time>2014-04-30T06:27:52Z</time>
      </trkpt>
      <trkpt lat="43.72887" lon="3.52207">
        <ele>498.1</ele>
        <time>2014-04-30T06:27:57Z</time>
      </trkpt>
      <trkpt lat="43.72896" lon="3.52204">
        <ele>497.3</ele>
        <time>2014-04-30T06:28:03Z</time>
      </trkpt>
      <trkpt lat="43.72907" lon="3.52203">
        <ele>498.6</ele>
        <time>2014-04-30T06:28:09Z</time>
      </trkpt>
      <trkpt lat="43.72917" lon="3.52203">
        <ele>498.1</ele>
        <time>2014-04-30T06:28:13Z</time>
      </trkpt>
      <trkpt lat="43.72926" lon="3.522">
        <ele>497.3</ele>
        <time>2014-04-30T06:28:18Z</time>
      </trkpt>
      <trkpt lat="43.72935" lon="3.52193">
        <ele>498.2</ele>
        <time>2014-04-30T06:28:23Z</time>
      </trkpt>
      <trkpt lat="43.72943" lon="3.52186">
        <ele>499</ele>
        <time>2014-04-30T06:28:28Z</time>
      </trkpt>
      <trkpt lat="43.72951" lon="3.52178">
        <ele>498.8</ele>
        <time>2014-04-30T06:28:32Z</time>
      </trkpt>
      <trkpt lat="43.7296" lon="3.52176">
        <ele>499.2</ele>
        <time>2014-04-30T06:28:36Z</time>
      </trkpt>
      <trkpt lat="43.72969" lon="3.52171">
        <ele>500.1</ele>
        <time>2014-04-30T06:28:40Z</time>
      </trkpt>
      <trkpt lat="43.72977" lon="3.52165">
        <ele>500.8</ele>
        <time>2014-04-30T06:28:44Z</time>
      </trkpt>
      <trkpt lat="43.72987" lon="3.5216">
        <ele>501.2</ele>
        <time>2014-04-30T06:28:48Z</time>
      </trkpt>
      <trkpt lat="43.72996" lon="3.52154">
        <ele>502.6</ele>
        <time>2014-04-30T06:28:52Z</time>
      </trkpt>
      <trkpt lat="43.73005" lon="3.52152">
        <ele>503.2</ele>
        <time>2014-04-30T06:28:57Z</time>
      </trkpt>
      <trkpt lat="43.73015" lon="3.5215">
        <ele>502.9</ele>
        <time>2014-04-30T06:29:02Z</time>
      </trkpt>
      <trkpt lat="43.73025" lon="3.52148">
        <ele>505.2</ele>
        <time>2014-04-30T06:29:07Z</time>
      </trkpt>
      <trkpt lat="43.73035" lon="3.5215">
        <ele>505.7</ele>
        <time>2014-04-30T06:29:12Z</time>
      </trkpt>
      <trkpt lat="43.73046" lon="3.52147">
        <ele>512.3</ele>
        <time>2014-04-30T06:29:41Z</time>
      </trkpt>
      <trkpt lat="43.73054" lon="3.52138">
        <ele>512.8</ele>
        <time>2014-04-30T06:29:44Z</time>
      </trkpt>
      <trkpt lat="43.73063" lon="3.52128">
        <ele>513.9</ele>
        <time>2014-04-30T06:29:48Z</time>
      </trkpt>
      <trkpt lat="43.7307" lon="3.5212">
        <ele>514.5</ele>
        <time>2014-04-30T06:29:51Z</time>
      </trkpt>
      <trkpt lat="43.73079" lon="3.5211">
        <ele>514.7</ele>
        <time>2014-04-30T06:29:55Z</time>
      </trkpt>
      <trkpt lat="43.73089" lon="3.52099">
        <ele>518.8</ele>
        <time>2014-04-30T06:30:17Z</time>
      </trkpt>
      <trkpt lat="43.73098" lon="3.52092">
        <ele>519.8</ele>
        <time>2014-04-30T06:30:20Z</time>
      </trkpt>
      <trkpt lat="43.73109" lon="3.52084">
        <ele>520</ele>
        <time>2014-04-30T06:30:29Z</time>
      </trkpt>
      <trkpt lat="43.73118" lon="3.52076">
        <ele>520.4</ele>
        <time>2014-04-30T06:30:38Z</time>
      </trkpt>
      <trkpt lat="43.73127" lon="3.52068">
        <ele>521</ele>
        <time>2014-04-30T06:30:41Z</time>
      </trkpt>
      <trkpt lat="43.73134" lon="3.52059">
        <ele>523</ele>
        <time>2014-04-30T06:30:53Z</time>
      </trkpt>
      <trkpt lat="43.73141" lon="3.52048">
        <ele>525.9</ele>
        <time>2014-04-30T06:31:04Z</time>
      </trkpt>
      <trkpt lat="43.73147" lon="3.52036">
        <ele>526.5</ele>
        <time>2014-04-30T06:31:07Z</time>
      </trkpt>
      <trkpt lat="43.73155" lon="3.52026">
        <ele>527.3</ele>
        <time>2014-04-30T06:31:19Z</time>
      </trkpt>
      <trkpt lat="43.73163" lon="3.52016">
        <ele>526.4</ele>
        <time>2014-04-30T06:31:22Z</time>
      </trkpt>
      <trkpt lat="43.73171" lon="3.52007">
        <ele>526.7</ele>
        <time>2014-04-30T06:31:32Z</time>
      </trkpt>
      <trkpt lat="43.73181" lon="3.51998">
        <ele>528.4</ele>
        <time>2014-04-30T06:31:41Z</time>
      </trkpt>
      <trkpt lat="43.73189" lon="3.5199">
        <ele>529.5</ele>
        <time>2014-04-30T06:31:44Z</time>
      </trkpt>
      <trkpt lat="43.73198" lon="3.51983">
        <ele>531.7</ele>
        <time>2014-04-30T06:31:56Z</time>
      </trkpt>
      <trkpt lat="43.73206" lon="3.51972">
        <ele>533.6</ele>
        <time>2014-04-30T06:32:07Z</time>
      </trkpt>
      <trkpt lat="43.73209" lon="3.5196">
        <ele>534.9</ele>
        <time>2014-04-30T06:32:14Z</time>
      </trkpt>
      <trkpt lat="43.73219" lon="3.51954">
        <ele>538.8</ele>
        <time>2014-04-30T06:33:20Z</time>
      </trkpt>
      <trkpt lat="43.73229" lon="3.51948">
        <ele>540.1</ele>
        <time>2014-04-30T06:33:30Z</time>
      </trkpt>
      <trkpt lat="43.73239" lon="3.51947">
        <ele>543.7</ele>
        <time>2014-04-30T06:33:47Z</time>
      </trkpt>
      <trkpt lat="43.73247" lon="3.51952">
        <ele>545</ele>
        <time>2014-04-30T06:33:50Z</time>
      </trkpt>
      <trkpt lat="43.73256" lon="3.5196">
        <ele>545.8</ele>
        <time>2014-04-30T06:33:54Z</time>
      </trkpt>
      <trkpt lat="43.73266" lon="3.51959">
        <ele>545.6</ele>
        <time>2014-04-30T06:33:58Z</time>
      </trkpt>
      <trkpt lat="43.73274" lon="3.5195">
        <ele>546.9</ele>
        <time>2014-04-30T06:34:03Z</time>
      </trkpt>
      <trkpt lat="43.73284" lon="3.51955">
        <ele>552.9</ele>
        <time>2014-04-30T06:34:41Z</time>
      </trkpt>
      <trkpt lat="43.73292" lon="3.51965">
        <ele>554</ele>
        <time>2014-04-30T06:34:49Z</time>
      </trkpt>
      <trkpt lat="43.73299" lon="3.51974">
        <ele>554.9</ele>
        <time>2014-04-30T06:34:52Z</time>
      </trkpt>
      <trkpt lat="43.7331" lon="3.51971">
        <ele>556.4</ele>
        <time>2014-04-30T06:35:01Z</time>
      </trkpt>
      <trkpt lat="43.73321" lon="3.51963">
        <ele>559.9</ele>
        <time>2014-04-30T06:35:32Z</time>
      </trkpt>
      <trkpt lat="43.7333" lon="3.51955">
        <ele>562.3</ele>
        <time>2014-04-30T06:35:40Z</time>
      </trkpt>
      <trkpt lat="43.73339" lon="3.51947">
        <ele>562.1</ele>
        <time>2014-04-30T06:35:43Z</time>
      </trkpt>
      <trkpt lat="43.73348" lon="3.51942">
        <ele>561.7</ele>
        <time>2014-04-30T06:35:46Z</time>
      </trkpt>
      <trkpt lat="43.73357" lon="3.51936">
        <ele>562.5</ele>
        <time>2014-04-30T06:35:50Z</time>
      </trkpt>
      <trkpt lat="43.73366" lon="3.5193">
        <ele>563.2</ele>
        <time>2014-04-30T06:35:54Z</time>
      </trkpt>
      <trkpt lat="43.73375" lon="3.51924">
        <ele>563.4</ele>
        <time>2014-04-30T06:35:59Z</time>
      </trkpt>
      <trkpt lat="43.73385" lon="3.51922">
        <ele>563.4</ele>
        <time>2014-04-30T06:36:56Z</time>
      </trkpt>
      <trkpt lat="43.73395" lon="3.51924">
        <ele>562.4</ele>
        <time>2014-04-30T06:36:59Z</time>
      </trkpt>
      <trkpt lat="43.73406" lon="3.51919">
        <ele>560.5</ele>
        <time>2014-04-30T06:37:03Z</time>
      </trkpt>
      <trkpt lat="43.73413" lon="3.51908">
        <ele>559.3</ele>
        <time>2014-04-30T06:37:07Z</time>
      </trkpt>
      <trkpt lat="43.7342" lon="3.51898">
        <ele>558.1</ele>
        <time>2014-04-30T06:37:11Z</time>
      </trkpt>
      <trkpt lat="43.73427" lon="3.51889">
        <ele>557.4</ele>
        <time>2014-04-30T06:37:14Z</time>
      </trkpt>
      <trkpt lat="43.73435" lon="3.51879">
        <ele>555.8</ele>
        <time>2014-04-30T06:37:18Z</time>
      </trkpt>
      <trkpt lat="43.73443" lon="3.51873">
        <ele>554.3</ele>
        <time>2014-04-30T06:37:21Z</time>
      </trkpt>
      <trkpt lat="43.73452" lon="3.51864">
        <ele>552.8</ele>
        <time>2014-04-30T06:37:24Z</time>
      </trkpt>
      <trkpt lat="43.7346" lon="3.51859">
        <ele>551.3</ele>
        <time>2014-04-30T06:37:28Z</time>
      </trkpt>
      <trkpt lat="43.73471" lon="3.51857">
        <ele>550</ele>
        <time>2014-04-30T06:37:33Z</time>
      </trkpt>
      <trkpt lat="43.73479" lon="3.51865">
        <ele>547.7</ele>
        <time>2014-04-30T06:37:38Z</time>
      </trkpt>
      <trkpt lat="43.73487" lon="3.51874">
        <ele>545</ele>
        <time>2014-04-30T06:37:43Z</time>
      </trkpt>
      <trkpt lat="43.73495" lon="3.51884">
        <ele>542.2</ele>
        <time>2014-04-30T06:37:47Z</time>
      </trkpt>
      <trkpt lat="43.735" lon="3.51896">
        <ele>540.1</ele>
        <time>2014-04-30T06:37:51Z</time>
      </trkpt>
      <trkpt lat="43.73508" lon="3.51889">
        <ele>535.8</ele>
        <time>2014-04-30T06:38:03Z</time>
      </trkpt>
      <trkpt lat="43.73508" lon="3.51875">
        <ele>532.9</ele>
        <time>2014-04-30T06:38:09Z</time>
      </trkpt>
      <trkpt lat="43.73507" lon="3.51861">
        <ele>531.1</ele>
        <time>2014-04-30T06:38:14Z</time>
      </trkpt>
      <trkpt lat="43.73506" lon="3.51847">
        <ele>529.2</ele>
        <time>2014-04-30T06:38:19Z</time>
      </trkpt>
      <trkpt lat="43.73503" lon="3.51833">
        <ele>528.2</ele>
        <time>2014-04-30T06:38:25Z</time>
      </trkpt>
      <trkpt lat="43.73497" lon="3.5182">
        <ele>525.6</ele>
        <time>2014-04-30T06:38:30Z</time>
      </trkpt>
      <trkpt lat="43.73505" lon="3.51811">
        <ele>523.5</ele>
        <time>2014-04-30T06:38:37Z</time>
      </trkpt>
      <trkpt lat="43.73513" lon="3.51801">
        <ele>522.3</ele>
        <time>2014-04-30T06:38:44Z</time>
      </trkpt>
      <trkpt lat="43.73519" lon="3.51791">
        <ele>519.7</ele>
        <time>2014-04-30T06:38:49Z</time>
      </trkpt>
      <trkpt lat="43.73523" lon="3.51779">
        <ele>517.7</ele>
        <time>2014-04-30T06:38:54Z</time>
      </trkpt>
      <trkpt lat="43.73526" lon="3.51767">
        <ele>516.5</ele>
        <time>2014-04-30T06:38:58Z</time>
      </trkpt>
      <trkpt lat="43.73527" lon="3.51755">
        <ele>515.7</ele>
        <time>2014-04-30T06:39:02Z</time>
      </trkpt>
      <trkpt lat="43.73529" lon="3.51741">
        <ele>513.4</ele>
        <time>2014-04-30T06:39:07Z</time>
      </trkpt>
      <trkpt lat="43.7353" lon="3.51728">
        <ele>511</ele>
        <time>2014-04-30T06:39:12Z</time>
      </trkpt>
      <trkpt lat="43.73529" lon="3.51711">
        <ele>507.6</ele>
        <time>2014-04-30T06:39:17Z</time>
      </trkpt>
      <trkpt lat="43.73526" lon="3.51698">
        <ele>505.1</ele>
        <time>2014-04-30T06:39:21Z</time>
      </trkpt>
      <trkpt lat="43.73531" lon="3.51709">
        <ele>506.4</ele>
        <time>2014-04-30T06:42:31Z</time>
      </trkpt>
      <trkpt lat="43.73532" lon="3.51724">
        <ele>508.3</ele>
        <time>2014-04-30T06:42:38Z</time>
      </trkpt>
      <trkpt lat="43.73533" lon="3.51736">
        <ele>509.8</ele>
        <time>2014-04-30T06:42:44Z</time>
      </trkpt>
      <trkpt lat="43.73533" lon="3.5175">
        <ele>510.3</ele>
        <time>2014-04-30T06:42:50Z</time>
      </trkpt>
      <trkpt lat="43.73532" lon="3.51765">
        <ele>511.9</ele>
        <time>2014-04-30T06:42:56Z</time>
      </trkpt>
      <trkpt lat="43.73537" lon="3.51777">
        <ele>512</ele>
        <time>2014-04-30T06:43:01Z</time>
      </trkpt>
      <trkpt lat="43.73546" lon="3.51778">
        <ele>511.8</ele>
        <time>2014-04-30T06:43:07Z</time>
      </trkpt>
      <trkpt lat="43.73555" lon="3.5177">
        <ele>514.6</ele>
        <time>2014-04-30T06:43:14Z</time>
      </trkpt>
      <trkpt lat="43.73561" lon="3.5176">
        <ele>515.5</ele>
        <time>2014-04-30T06:43:20Z</time>
      </trkpt>
      <trkpt lat="43.73567" lon="3.51749">
        <ele>515.6</ele>
        <time>2014-04-30T06:43:26Z</time>
      </trkpt>
      <trkpt lat="43.73573" lon="3.5176">
        <ele>517.8</ele>
        <time>2014-04-30T06:43:36Z</time>
      </trkpt>
      <trkpt lat="43.73568" lon="3.51771">
        <ele>517.2</ele>
        <time>2014-04-30T06:43:42Z</time>
      </trkpt>
      <trkpt lat="43.73564" lon="3.51785">
        <ele>517.5</ele>
        <time>2014-04-30T06:43:48Z</time>
      </trkpt>
      <trkpt lat="43.73561" lon="3.51799">
        <ele>517.5</ele>
        <time>2014-04-30T06:43:52Z</time>
      </trkpt>
      <trkpt lat="43.7356" lon="3.51814">
        <ele>517.1</ele>
        <time>2014-04-30T06:43:55Z</time>
      </trkpt>
      <trkpt lat="43.73558" lon="3.51827">
        <ele>515.1</ele>
        <time>2014-04-30T06:43:58Z</time>
      </trkpt>
      <trkpt lat="43.73557" lon="3.5184">
        <ele>513.5</ele>
        <time>2014-04-30T06:44:02Z</time>
      </trkpt>
      <trkpt lat="43.73555" lon="3.51855">
        <ele>513.9</ele>
        <time>2014-04-30T06:44:07Z</time>
      </trkpt>
      <trkpt lat="43.73556" lon="3.51868">
        <ele>517.2</ele>
        <time>2014-04-30T06:44:53Z</time>
      </trkpt>
      <trkpt lat="43.73553" lon="3.51881">
        <ele>517</ele>
        <time>2014-04-30T06:44:57Z</time>
      </trkpt>
      <trkpt lat="43.73549" lon="3.51892">
        <ele>516.8</ele>
        <time>2014-04-30T06:45:01Z</time>
      </trkpt>
      <trkpt lat="43.73546" lon="3.51905">
        <ele>517</ele>
        <time>2014-04-30T06:45:05Z</time>
      </trkpt>
      <trkpt lat="43.73543" lon="3.51918">
        <ele>516.4</ele>
        <time>2014-04-30T06:45:09Z</time>
      </trkpt>
      <trkpt lat="43.7354" lon="3.5193">
        <ele>516.5</ele>
        <time>2014-04-30T06:45:13Z</time>
      </trkpt>
      <trkpt lat="43.73538" lon="3.51945">
        <ele>517.8</ele>
        <time>2014-04-30T06:45:18Z</time>
      </trkpt>
      <trkpt lat="43.73535" lon="3.51959">
        <ele>519.6</ele>
        <time>2014-04-30T06:45:23Z</time>
      </trkpt>
      <trkpt lat="43.73533" lon="3.51972">
        <ele>522.3</ele>
        <time>2014-04-30T06:45:28Z</time>
      </trkpt>
      <trkpt lat="43.73532" lon="3.51985">
        <ele>524</ele>
        <time>2014-04-30T06:45:33Z</time>
      </trkpt>
      <trkpt lat="43.73529" lon="3.51998">
        <ele>524.5</ele>
        <time>2014-04-30T06:45:39Z</time>
      </trkpt>
      <trkpt lat="43.73527" lon="3.52011">
        <ele>525.5</ele>
        <time>2014-04-30T06:45:45Z</time>
      </trkpt>
      <trkpt lat="43.73527" lon="3.52025">
        <ele>526.8</ele>
        <time>2014-04-30T06:45:51Z</time>
      </trkpt>
      <trkpt lat="43.73535" lon="3.52018">
        <ele>522.8</ele>
        <time>2014-04-30T06:46:38Z</time>
      </trkpt>
      <trkpt lat="43.73535" lon="3.52005">
        <ele>520</ele>
        <time>2014-04-30T06:46:42Z</time>
      </trkpt>
      <trkpt lat="43.73538" lon="3.51993">
        <ele>517.7</ele>
        <time>2014-04-30T06:46:48Z</time>
      </trkpt>
      <trkpt lat="43.73541" lon="3.51981">
        <ele>516.3</ele>
        <time>2014-04-30T06:46:53Z</time>
      </trkpt>
      <trkpt lat="43.73544" lon="3.51967">
        <ele>514.7</ele>
        <time>2014-04-30T06:46:57Z</time>
      </trkpt>
      <trkpt lat="43.73547" lon="3.51954">
        <ele>513.1</ele>
        <time>2014-04-30T06:47:00Z</time>
      </trkpt>
      <trkpt lat="43.73549" lon="3.51939">
        <ele>511.8</ele>
        <time>2014-04-30T06:47:04Z</time>
      </trkpt>
      <trkpt lat="43.73553" lon="3.51926">
        <ele>509.8</ele>
        <time>2014-04-30T06:47:08Z</time>
      </trkpt>
      <trkpt lat="43.73556" lon="3.51913">
        <ele>508.7</ele>
        <time>2014-04-30T06:47:11Z</time>
      </trkpt>
      <trkpt lat="43.73561" lon="3.51901">
        <ele>507.2</ele>
        <time>2014-04-30T06:47:15Z</time>
      </trkpt>
      <trkpt lat="43.73569" lon="3.51893">
        <ele>505.2</ele>
        <time>2014-04-30T06:47:19Z</time>
      </trkpt>
      <trkpt lat="43.73574" lon="3.51881">
        <ele>504.8</ele>
        <time>2014-04-30T06:47:23Z</time>
      </trkpt>
      <trkpt lat="43.73576" lon="3.51867">
        <ele>503</ele>
        <time>2014-04-30T06:47:26Z</time>
      </trkpt>
      <trkpt lat="43.73577" lon="3.51853">
        <ele>500.2</ele>
        <time>2014-04-30T06:47:31Z</time>
      </trkpt>
      <trkpt lat="43.7358" lon="3.51838">
        <ele>498.5</ele>
        <time>2014-04-30T06:47:35Z</time>
      </trkpt>
      <trkpt lat="43.73584" lon="3.51825">
        <ele>497.3</ele>
        <time>2014-04-30T06:47:39Z</time>
      </trkpt>
      <trkpt lat="43.73588" lon="3.51814">
        <ele>494.6</ele>
        <time>2014-04-30T06:47:44Z</time>
      </trkpt>
      <trkpt lat="43.73593" lon="3.51803">
        <ele>493.7</ele>
        <time>2014-04-30T06:47:48Z</time>
      </trkpt>
      <trkpt lat="43.736" lon="3.5179">
        <ele>491.6</ele>
        <time>2014-04-30T06:47:51Z</time>
      </trkpt>
      <trkpt lat="43.73609" lon="3.51779">
        <ele>489.7</ele>
        <time>2014-04-30T06:47:54Z</time>
      </trkpt>
      <trkpt lat="43.73619" lon="3.51768">
        <ele>489.7</ele>
        <time>2014-04-30T06:47:58Z</time>
      </trkpt>
      <trkpt lat="43.73628" lon="3.51765">
        <ele>487.8</ele>
        <time>2014-04-30T06:48:03Z</time>
      </trkpt>
      <trkpt lat="43.73638" lon="3.5176">
        <ele>486</ele>
        <time>2014-04-30T06:48:09Z</time>
      </trkpt>
      <trkpt lat="43.73647" lon="3.51757">
        <ele>480.5</ele>
        <time>2014-04-30T06:48:41Z</time>
      </trkpt>
      <trkpt lat="43.73656" lon="3.51753">
        <ele>478.9</ele>
        <time>2014-04-30T06:48:46Z</time>
      </trkpt>
      <trkpt lat="43.73664" lon="3.51745">
        <ele>477.8</ele>
        <time>2014-04-30T06:48:51Z</time>
      </trkpt>
      <trkpt lat="43.73674" lon="3.51743">
        <ele>477.1</ele>
        <time>2014-04-30T06:48:55Z</time>
      </trkpt>
      <trkpt lat="43.73682" lon="3.51737">
        <ele>474.2</ele>
        <time>2014-04-30T06:49:01Z</time>
      </trkpt>
      <trkpt lat="43.73691" lon="3.51732">
        <ele>468.5</ele>
        <time>2014-04-30T06:49:32Z</time>
      </trkpt>
      <trkpt lat="43.73703" lon="3.51725">
        <ele>467.2</ele>
        <time>2014-04-30T06:49:37Z</time>
      </trkpt>
      <trkpt lat="43.7371" lon="3.51712">
        <ele>463.8</ele>
        <time>2014-04-30T06:49:42Z</time>
      </trkpt>
      <trkpt lat="43.73712" lon="3.51696">
        <ele>463.3</ele>
        <time>2014-04-30T06:49:46Z</time>
      </trkpt>
      <trkpt lat="43.73719" lon="3.51687">
        <ele>463.6</ele>
        <time>2014-04-30T06:49:49Z</time>
      </trkpt>
      <trkpt lat="43.73728" lon="3.51679">
        <ele>462.2</ele>
        <time>2014-04-30T06:49:53Z</time>
      </trkpt>
      <trkpt lat="43.73737" lon="3.51673">
        <ele>461.2</ele>
        <time>2014-04-30T06:49:58Z</time>
      </trkpt>
      <trkpt lat="43.73743" lon="3.51661">
        <ele>456.2</ele>
        <time>2014-04-30T06:50:36Z</time>
      </trkpt>
      <trkpt lat="43.73746" lon="3.51649">
        <ele>456</ele>
        <time>2014-04-30T06:50:40Z</time>
      </trkpt>
      <trkpt lat="43.73754" lon="3.51641">
        <ele>447.3</ele>
        <time>2014-04-30T06:51:38Z</time>
      </trkpt>
      <trkpt lat="43.73763" lon="3.51637">
        <ele>446.4</ele>
        <time>2014-04-30T06:51:41Z</time>
      </trkpt>
      <trkpt lat="43.73772" lon="3.51638">
        <ele>445.5</ele>
        <time>2014-04-30T06:51:46Z</time>
      </trkpt>
      <trkpt lat="43.73781" lon="3.51639">
        <ele>444.8</ele>
        <time>2014-04-30T06:52:04Z</time>
      </trkpt>
      <trkpt lat="43.73789" lon="3.51648">
        <ele>443.1</ele>
        <time>2014-04-30T06:52:09Z</time>
      </trkpt>
      <trkpt lat="43.73794" lon="3.51659">
        <ele>441.7</ele>
        <time>2014-04-30T06:52:14Z</time>
      </trkpt>
      <trkpt lat="43.73792" lon="3.51672">
        <ele>438.2</ele>
        <time>2014-04-30T06:52:20Z</time>
      </trkpt>
      <trkpt lat="43.73783" lon="3.51682">
        <ele>436.1</ele>
        <time>2014-04-30T06:52:25Z</time>
      </trkpt>
      <trkpt lat="43.73774" lon="3.51691">
        <ele>434</ele>
        <time>2014-04-30T06:52:29Z</time>
      </trkpt>
      <trkpt lat="43.73769" lon="3.51703">
        <ele>433.1</ele>
        <time>2014-04-30T06:52:32Z</time>
      </trkpt>
      <trkpt lat="43.73767" lon="3.51718">
        <ele>432</ele>
        <time>2014-04-30T06:52:36Z</time>
      </trkpt>
      <trkpt lat="43.73767" lon="3.51733">
        <ele>430.3</ele>
        <time>2014-04-30T06:52:40Z</time>
      </trkpt>
      <trkpt lat="43.73762" lon="3.51744">
        <ele>428.3</ele>
        <time>2014-04-30T06:52:44Z</time>
      </trkpt>
      <trkpt lat="43.73772" lon="3.51745">
        <ele>421.5</ele>
        <time>2014-04-30T06:53:16Z</time>
      </trkpt>
      <trkpt lat="43.73777" lon="3.51734">
        <ele>420.3</ele>
        <time>2014-04-30T06:53:19Z</time>
      </trkpt>
      <trkpt lat="43.73782" lon="3.51722">
        <ele>418.6</ele>
        <time>2014-04-30T06:53:24Z</time>
      </trkpt>
      <trkpt lat="43.73782" lon="3.51737">
        <ele>418.3</ele>
        <time>2014-04-30T06:53:32Z</time>
      </trkpt>
      <trkpt lat="43.73779" lon="3.51749">
        <ele>417.8</ele>
        <time>2014-04-30T06:53:35Z</time>
      </trkpt>
      <trkpt lat="43.73777" lon="3.51763">
        <ele>417.2</ele>
        <time>2014-04-30T06:53:39Z</time>
      </trkpt>
      <trkpt lat="43.73775" lon="3.51778">
        <ele>414.7</ele>
        <time>2014-04-30T06:53:43Z</time>
      </trkpt>
      <trkpt lat="43.73767" lon="3.51786">
        <ele>412.6</ele>
        <time>2014-04-30T06:53:48Z</time>
      </trkpt>
      <trkpt lat="43.7376" lon="3.51794">
        <ele>410</ele>
        <time>2014-04-30T06:53:53Z</time>
      </trkpt>
      <trkpt lat="43.73754" lon="3.51808">
        <ele>407.3</ele>
        <time>2014-04-30T06:53:57Z</time>
      </trkpt>
      <trkpt lat="43.73748" lon="3.5182">
        <ele>404.9</ele>
        <time>2014-04-30T06:54:00Z</time>
      </trkpt>
      <trkpt lat="43.73745" lon="3.51835">
        <ele>403.1</ele>
        <time>2014-04-30T06:54:03Z</time>
      </trkpt>
      <trkpt lat="43.73742" lon="3.51846">
        <ele>401.4</ele>
        <time>2014-04-30T06:54:07Z</time>
      </trkpt>
      <trkpt lat="43.7374" lon="3.5186">
        <ele>400.3</ele>
        <time>2014-04-30T06:54:10Z</time>
      </trkpt>
      <trkpt lat="43.73738" lon="3.51873">
        <ele>398.8</ele>
        <time>2014-04-30T06:54:12Z</time>
      </trkpt>
      <trkpt lat="43.73742" lon="3.51886">
        <ele>396.7</ele>
        <time>2014-04-30T06:54:16Z</time>
      </trkpt>
      <trkpt lat="43.73744" lon="3.51899">
        <ele>395.3</ele>
        <time>2014-04-30T06:54:21Z</time>
      </trkpt>
      <trkpt lat="43.73741" lon="3.51913">
        <ele>394.3</ele>
        <time>2014-04-30T06:54:26Z</time>
      </trkpt>
      <trkpt lat="43.73738" lon="3.51926">
        <ele>393.5</ele>
        <time>2014-04-30T06:54:29Z</time>
      </trkpt>
      <trkpt lat="43.73745" lon="3.51936">
        <ele>390.9</ele>
        <time>2014-04-30T06:54:35Z</time>
      </trkpt>
      <trkpt lat="43.73754" lon="3.51939">
        <ele>388.9</ele>
        <time>2014-04-30T06:54:41Z</time>
      </trkpt>
      <trkpt lat="43.73763" lon="3.51932">
        <ele>385.5</ele>
        <time>2014-04-30T06:54:50Z</time>
      </trkpt>
      <trkpt lat="43.7377" lon="3.51921">
        <ele>383</ele>
        <time>2014-04-30T06:54:56Z</time>
      </trkpt>
      <trkpt lat="43.73775" lon="3.51909">
        <ele>380.5</ele>
        <time>2014-04-30T06:55:00Z</time>
      </trkpt>
      <trkpt lat="43.73784" lon="3.51901">
        <ele>379.6</ele>
        <time>2014-04-30T06:55:05Z</time>
      </trkpt>
      <trkpt lat="43.73795" lon="3.51896">
        <ele>377.3</ele>
        <time>2014-04-30T06:55:10Z</time>
      </trkpt>
      <trkpt lat="43.73804" lon="3.5189">
        <ele>375.5</ele>
        <time>2014-04-30T06:55:14Z</time>
      </trkpt>
      <trkpt lat="43.73816" lon="3.51886">
        <ele>373.1</ele>
        <time>2014-04-30T06:55:20Z</time>
      </trkpt>
      <trkpt lat="43.73826" lon="3.51887">
        <ele>371</ele>
        <time>2014-04-30T06:55:24Z</time>
      </trkpt>
      <trkpt lat="43.73835" lon="3.5189">
        <ele>370.5</ele>
        <time>2014-04-30T06:56:25Z</time>
      </trkpt>
      <trkpt lat="43.73845" lon="3.51894">
        <ele>369.5</ele>
        <time>2014-04-30T06:56:29Z</time>
      </trkpt>
      <trkpt lat="43.73856" lon="3.51896">
        <ele>368.2</ele>
        <time>2014-04-30T06:56:33Z</time>
      </trkpt>
      <trkpt lat="43.73865" lon="3.51899">
        <ele>366.5</ele>
        <time>2014-04-30T06:56:36Z</time>
      </trkpt>
      <trkpt lat="43.73874" lon="3.51902">
        <ele>365</ele>
        <time>2014-04-30T06:56:39Z</time>
      </trkpt>
      <trkpt lat="43.73885" lon="3.51905">
        <ele>363</ele>
        <time>2014-04-30T06:56:42Z</time>
      </trkpt>
      <trkpt lat="43.73895" lon="3.51909">
        <ele>361.3</ele>
        <time>2014-04-30T06:56:45Z</time>
      </trkpt>
      <trkpt lat="43.73905" lon="3.51915">
        <ele>359.7</ele>
        <time>2014-04-30T06:56:49Z</time>
      </trkpt>
      <trkpt lat="43.73914" lon="3.51922">
        <ele>358.1</ele>
        <time>2014-04-30T06:56:52Z</time>
      </trkpt>
      <trkpt lat="43.73923" lon="3.51929">
        <ele>355.8</ele>
        <time>2014-04-30T06:56:55Z</time>
      </trkpt>
      <trkpt lat="43.73932" lon="3.51937">
        <ele>353.6</ele>
        <time>2014-04-30T06:56:59Z</time>
      </trkpt>
      <trkpt lat="43.7394" lon="3.51943">
        <ele>352</ele>
        <time>2014-04-30T06:57:02Z</time>
      </trkpt>
      <trkpt lat="43.73949" lon="3.51951">
        <ele>350.4</ele>
        <time>2014-04-30T06:57:06Z</time>
      </trkpt>
      <trkpt lat="43.73955" lon="3.5196">
        <ele>348.3</ele>
        <time>2014-04-30T06:57:09Z</time>
      </trkpt>
      <trkpt lat="43.73958" lon="3.51974">
        <ele>345.4</ele>
        <time>2014-04-30T06:57:12Z</time>
      </trkpt>
      <trkpt lat="43.73957" lon="3.51987">
        <ele>344.3</ele>
        <time>2014-04-30T06:57:15Z</time>
      </trkpt>
      <trkpt lat="43.7395" lon="3.52001">
        <ele>342.3</ele>
        <time>2014-04-30T06:57:19Z</time>
      </trkpt>
      <trkpt lat="43.73948" lon="3.52014">
        <ele>341.4</ele>
        <time>2014-04-30T06:57:22Z</time>
      </trkpt>
      <trkpt lat="43.73943" lon="3.52031">
        <ele>340.6</ele>
        <time>2014-04-30T06:57:25Z</time>
      </trkpt>
      <trkpt lat="43.7394" lon="3.52046">
        <ele>339</ele>
        <time>2014-04-30T06:57:28Z</time>
      </trkpt>
      <trkpt lat="43.73939" lon="3.52061">
        <ele>337.7</ele>
        <time>2014-04-30T06:57:31Z</time>
      </trkpt>
      <trkpt lat="43.73937" lon="3.52075">
        <ele>335.5</ele>
        <time>2014-04-30T06:57:34Z</time>
      </trkpt>
      <trkpt lat="43.73934" lon="3.5209">
        <ele>333.4</ele>
        <time>2014-04-30T06:57:37Z</time>
      </trkpt>
      <trkpt lat="43.73934" lon="3.52105">
        <ele>332.2</ele>
        <time>2014-04-30T06:57:40Z</time>
      </trkpt>
      <trkpt lat="43.73937" lon="3.52122">
        <ele>330.8</ele>
        <time>2014-04-30T06:57:43Z</time>
      </trkpt>
      <trkpt lat="43.73939" lon="3.52135">
        <ele>329.5</ele>
        <time>2014-04-30T06:57:45Z</time>
      </trkpt>
      <trkpt lat="43.73942" lon="3.52148">
        <ele>327.7</ele>
        <time>2014-04-30T06:57:48Z</time>
      </trkpt>
      <trkpt lat="43.73945" lon="3.52162">
        <ele>326.1</ele>
        <time>2014-04-30T06:57:52Z</time>
      </trkpt>
      <trkpt lat="43.73946" lon="3.52176">
        <ele>324.3</ele>
        <time>2014-04-30T06:57:57Z</time>
      </trkpt>
      <trkpt lat="43.73945" lon="3.5219">
        <ele>320.7</ele>
        <time>2014-04-30T06:58:02Z</time>
      </trkpt>
      <trkpt lat="43.73941" lon="3.52205">
        <ele>319.3</ele>
        <time>2014-04-30T06:58:06Z</time>
      </trkpt>
      <trkpt lat="43.73937" lon="3.52218">
        <ele>317.1</ele>
        <time>2014-04-30T06:58:09Z</time>
      </trkpt>
      <trkpt lat="43.73931" lon="3.52231">
        <ele>315.1</ele>
        <time>2014-04-30T06:58:13Z</time>
      </trkpt>
      <trkpt lat="43.73929" lon="3.52245">
        <ele>314.3</ele>
        <time>2014-04-30T06:58:17Z</time>
      </trkpt>
      <trkpt lat="43.73929" lon="3.52259">
        <ele>313.6</ele>
        <time>2014-04-30T06:58:21Z</time>
      </trkpt>
      <trkpt lat="43.73927" lon="3.52272">
        <ele>311.2</ele>
        <time>2014-04-30T06:58:25Z</time>
      </trkpt>
      <trkpt lat="43.73923" lon="3.52286">
        <ele>309.7</ele>
        <time>2014-04-30T06:58:29Z</time>
      </trkpt>
      <trkpt lat="43.73922" lon="3.523">
        <ele>307.6</ele>
        <time>2014-04-30T06:58:33Z</time>
      </trkpt>
      <trkpt lat="43.73921" lon="3.52314">
        <ele>305.5</ele>
        <time>2014-04-30T06:58:37Z</time>
      </trkpt>
      <trkpt lat="43.73918" lon="3.52329">
        <ele>302.3</ele>
        <time>2014-04-30T06:58:41Z</time>
      </trkpt>
      <trkpt lat="43.73919" lon="3.52342">
        <ele>299.9</ele>
        <time>2014-04-30T06:58:46Z</time>
      </trkpt>
      <trkpt lat="43.73922" lon="3.52329">
        <ele>300.6</ele>
        <time>2014-04-30T06:59:48Z</time>
      </trkpt>
      <trkpt lat="43.73928" lon="3.52316">
        <ele>299.9</ele>
        <time>2014-04-30T06:59:53Z</time>
      </trkpt>
      <trkpt lat="43.73934" lon="3.52306">
        <ele>299.9</ele>
        <time>2014-04-30T06:59:57Z</time>
      </trkpt>
      <trkpt lat="43.73941" lon="3.52295">
        <ele>299.1</ele>
        <time>2014-04-30T07:00:00Z</time>
      </trkpt>
      <trkpt lat="43.73948" lon="3.52283">
        <ele>298.3</ele>
        <time>2014-04-30T07:00:03Z</time>
      </trkpt>
      <trkpt lat="43.73956" lon="3.52273">
        <ele>297.4</ele>
        <time>2014-04-30T07:00:06Z</time>
      </trkpt>
      <trkpt lat="43.73961" lon="3.52262">
        <ele>297.5</ele>
        <time>2014-04-30T07:00:11Z</time>
      </trkpt>
      <trkpt lat="43.73969" lon="3.52254">
        <ele>297.1</ele>
        <time>2014-04-30T07:00:16Z</time>
      </trkpt>
      <trkpt lat="43.73974" lon="3.52242">
        <ele>297.6</ele>
        <time>2014-04-30T07:00:28Z</time>
      </trkpt>
      <trkpt lat="43.73979" lon="3.52227">
        <ele>297.3</ele>
        <time>2014-04-30T07:00:33Z</time>
      </trkpt>
      <trkpt lat="43.73981" lon="3.52215">
        <ele>298.2</ele>
        <time>2014-04-30T07:00:37Z</time>
      </trkpt>
      <trkpt lat="43.73984" lon="3.522">
        <ele>298.5</ele>
        <time>2014-04-30T07:00:42Z</time>
      </trkpt>
      <trkpt lat="43.73985" lon="3.52188">
        <ele>298.7</ele>
        <time>2014-04-30T07:00:46Z</time>
      </trkpt>
      <trkpt lat="43.73987" lon="3.52175">
        <ele>298.7</ele>
        <time>2014-04-30T07:00:50Z</time>
      </trkpt>
      <trkpt lat="43.73988" lon="3.5216">
        <ele>298.7</ele>
        <time>2014-04-30T07:00:54Z</time>
      </trkpt>
      <trkpt lat="43.7399" lon="3.52145">
        <ele>298.4</ele>
        <time>2014-04-30T07:00:58Z</time>
      </trkpt>
      <trkpt lat="43.73992" lon="3.52132">
        <ele>298.1</ele>
        <time>2014-04-30T07:01:02Z</time>
      </trkpt>
      <trkpt lat="43.73995" lon="3.52117">
        <ele>298.8</ele>
        <time>2014-04-30T07:01:07Z</time>
      </trkpt>
      <trkpt lat="43.73998" lon="3.52104">
        <ele>299.3</ele>
        <time>2014-04-30T07:01:13Z</time>
      </trkpt>
      <trkpt lat="43.74001" lon="3.52089">
        <ele>299.6</ele>
        <time>2014-04-30T07:01:18Z</time>
      </trkpt>
      <trkpt lat="43.74007" lon="3.52076">
        <ele>299.7</ele>
        <time>2014-04-30T07:01:23Z</time>
      </trkpt>
      <trkpt lat="43.74012" lon="3.52064">
        <ele>299.1</ele>
        <time>2014-04-30T07:01:28Z</time>
      </trkpt>
      <trkpt lat="43.74019" lon="3.52052">
        <ele>300.4</ele>
        <time>2014-04-30T07:01:33Z</time>
      </trkpt>
      <trkpt lat="43.74026" lon="3.52041">
        <ele>300.3</ele>
        <time>2014-04-30T07:01:37Z</time>
      </trkpt>
      <trkpt lat="43.74035" lon="3.52034">
        <ele>298.9</ele>
        <time>2014-04-30T07:01:41Z</time>
      </trkpt>
      <trkpt lat="43.74044" lon="3.52024">
        <ele>299.2</ele>
        <time>2014-04-30T07:01:45Z</time>
      </trkpt>
      <trkpt lat="43.74052" lon="3.52017">
        <ele>300.8</ele>
        <time>2014-04-30T07:01:49Z</time>
      </trkpt>
      <trkpt lat="43.74059" lon="3.52009">
        <ele>300.5</ele>
        <time>2014-04-30T07:01:53Z</time>
      </trkpt>
      <trkpt lat="43.74068" lon="3.51998">
        <ele>300.2</ele>
        <time>2014-04-30T07:01:58Z</time>
      </trkpt>
      <trkpt lat="43.74075" lon="3.51987">
        <ele>301.2</ele>
        <time>2014-04-30T07:02:02Z</time>
      </trkpt>
      <trkpt lat="43.74082" lon="3.51975">
        <ele>302</ele>
        <time>2014-04-30T07:02:06Z</time>
      </trkpt>
      <trkpt lat="43.74089" lon="3.51963">
        <ele>302.7</ele>
        <time>2014-04-30T07:02:10Z</time>
      </trkpt>
      <trkpt lat="43.74094" lon="3.51949">
        <ele>302.9</ele>
        <time>2014-04-30T07:02:14Z</time>
      </trkpt>
      <trkpt lat="43.74099" lon="3.51938">
        <ele>303.2</ele>
        <time>2014-04-30T07:02:18Z</time>
      </trkpt>
      <trkpt lat="43.74102" lon="3.51924">
        <ele>303</ele>
        <time>2014-04-30T07:02:22Z</time>
      </trkpt>
      <trkpt lat="43.74103" lon="3.51909">
        <ele>303.9</ele>
        <time>2014-04-30T07:02:26Z</time>
      </trkpt>
      <trkpt lat="43.74102" lon="3.51893">
        <ele>305.1</ele>
        <time>2014-04-30T07:02:30Z</time>
      </trkpt>
      <trkpt lat="43.74099" lon="3.51879">
        <ele>305.7</ele>
        <time>2014-04-30T07:02:34Z</time>
      </trkpt>
      <trkpt lat="43.74097" lon="3.51866">
        <ele>307</ele>
        <time>2014-04-30T07:02:38Z</time>
      </trkpt>
      <trkpt lat="43.74089" lon="3.51856">
        <ele>306.1</ele>
        <time>2014-04-30T07:02:43Z</time>
      </trkpt>
      <trkpt lat="43.74079" lon="3.51852">
        <ele>306.1</ele>
        <time>2014-04-30T07:02:47Z</time>
      </trkpt>
      <trkpt lat="43.74077" lon="3.51838">
        <ele>306.9</ele>
        <time>2014-04-30T07:02:54Z</time>
      </trkpt>
      <trkpt lat="43.74077" lon="3.51824">
        <ele>309.1</ele>
        <time>2014-04-30T07:03:00Z</time>
      </trkpt>
      <trkpt lat="43.74081" lon="3.5181">
        <ele>309.3</ele>
        <time>2014-04-30T07:03:06Z</time>
      </trkpt>
      <trkpt lat="43.74086" lon="3.518">
        <ele>309.6</ele>
        <time>2014-04-30T07:03:11Z</time>
      </trkpt>
      <trkpt lat="43.74091" lon="3.51789">
        <ele>310.9</ele>
        <time>2014-04-30T07:03:15Z</time>
      </trkpt>
      <trkpt lat="43.74096" lon="3.51778">
        <ele>311.5</ele>
        <time>2014-04-30T07:03:21Z</time>
      </trkpt>
      <trkpt lat="43.74103" lon="3.51768">
        <ele>315.6</ele>
        <time>2014-04-30T07:03:36Z</time>
      </trkpt>
      <trkpt lat="43.7411" lon="3.51756">
        <ele>316.2</ele>
        <time>2014-04-30T07:03:41Z</time>
      </trkpt>
      <trkpt lat="43.74116" lon="3.51746">
        <ele>316.4</ele>
        <time>2014-04-30T07:03:44Z</time>
      </trkpt>
      <trkpt lat="43.74123" lon="3.51732">
        <ele>317</ele>
        <time>2014-04-30T07:03:47Z</time>
      </trkpt>
      <trkpt lat="43.74128" lon="3.5172">
        <ele>316.9</ele>
        <time>2014-04-30T07:03:50Z</time>
      </trkpt>
      <trkpt lat="43.74134" lon="3.5171">
        <ele>316.1</ele>
        <time>2014-04-30T07:03:53Z</time>
      </trkpt>
      <trkpt lat="43.7414" lon="3.517">
        <ele>316.4</ele>
        <time>2014-04-30T07:03:56Z</time>
      </trkpt>
      <trkpt lat="43.74146" lon="3.51687">
        <ele>316.4</ele>
        <time>2014-04-30T07:04:00Z</time>
      </trkpt>
      <trkpt lat="43.74155" lon="3.51678">
        <ele>317.1</ele>
        <time>2014-04-30T07:04:04Z</time>
      </trkpt>
      <trkpt lat="43.74163" lon="3.51673">
        <ele>316.9</ele>
        <time>2014-04-30T07:04:08Z</time>
      </trkpt>
      <trkpt lat="43.7417" lon="3.51663">
        <ele>317.8</ele>
        <time>2014-04-30T07:04:12Z</time>
      </trkpt>
      <trkpt lat="43.74175" lon="3.51652">
        <ele>318.6</ele>
        <time>2014-04-30T07:04:16Z</time>
      </trkpt>
      <trkpt lat="43.74181" lon="3.51642">
        <ele>319.3</ele>
        <time>2014-04-30T07:04:20Z</time>
      </trkpt>
      <trkpt lat="43.74187" lon="3.5163">
        <ele>319.4</ele>
        <time>2014-04-30T07:04:25Z</time>
      </trkpt>
      <trkpt lat="43.74192" lon="3.51618">
        <ele>320</ele>
        <time>2014-04-30T07:04:29Z</time>
      </trkpt>
      <trkpt lat="43.74196" lon="3.51605">
        <ele>320.2</ele>
        <time>2014-04-30T07:04:34Z</time>
      </trkpt>
      <trkpt lat="43.74198" lon="3.51591">
        <ele>321.7</ele>
        <time>2014-04-30T07:04:46Z</time>
      </trkpt>
      <trkpt lat="43.74195" lon="3.51576">
        <ele>325.8</ele>
        <time>2014-04-30T07:05:28Z</time>
      </trkpt>
      <trkpt lat="43.74204" lon="3.51579">
        <ele>326.1</ele>
        <time>2014-04-30T07:05:38Z</time>
      </trkpt>
      <trkpt lat="43.74213" lon="3.51582">
        <ele>325.5</ele>
        <time>2014-04-30T07:05:40Z</time>
      </trkpt>
      <trkpt lat="43.74223" lon="3.51584">
        <ele>324.9</ele>
        <time>2014-04-30T07:05:42Z</time>
      </trkpt>
      <trkpt lat="43.74233" lon="3.51586">
        <ele>324.7</ele>
        <time>2014-04-30T07:05:44Z</time>
      </trkpt>
      <trkpt lat="43.74244" lon="3.51586">
        <ele>324.3</ele>
        <time>2014-04-30T07:05:47Z</time>
      </trkpt>
      <trkpt lat="43.74253" lon="3.51588">
        <ele>324.4</ele>
        <time>2014-04-30T07:05:53Z</time>
      </trkpt>
      <trkpt lat="43.74262" lon="3.51592">
        <ele>323.8</ele>
        <time>2014-04-30T07:05:58Z</time>
      </trkpt>
      <trkpt lat="43.74271" lon="3.51598">
        <ele>324.1</ele>
        <time>2014-04-30T07:06:03Z</time>
      </trkpt>
      <trkpt lat="43.74279" lon="3.51604">
        <ele>323.5</ele>
        <time>2014-04-30T07:06:08Z</time>
      </trkpt>
      <trkpt lat="43.74288" lon="3.51612">
        <ele>324.8</ele>
        <time>2014-04-30T07:06:13Z</time>
      </trkpt>
      <trkpt lat="43.74299" lon="3.51617">
        <ele>326.5</ele>
        <time>2014-04-30T07:06:18Z</time>
      </trkpt>
      <trkpt lat="43.74309" lon="3.51619">
        <ele>325.9</ele>
        <time>2014-04-30T07:06:23Z</time>
      </trkpt>
      <trkpt lat="43.74319" lon="3.51619">
        <ele>327</ele>
        <time>2014-04-30T07:06:29Z</time>
      </trkpt>
      <trkpt lat="43.74326" lon="3.51626">
        <ele>329.6</ele>
        <time>2014-04-30T07:06:38Z</time>
      </trkpt>
      <trkpt lat="43.74334" lon="3.51635">
        <ele>332.7</ele>
        <time>2014-04-30T07:06:57Z</time>
      </trkpt>
      <trkpt lat="43.74342" lon="3.51641">
        <ele>333</ele>
        <time>2014-04-30T07:07:01Z</time>
      </trkpt>
      <trkpt lat="43.74353" lon="3.51647">
        <ele>337.4</ele>
        <time>2014-04-30T07:07:21Z</time>
      </trkpt>
      <trkpt lat="43.74362" lon="3.51652">
        <ele>337.9</ele>
        <time>2014-04-30T07:07:24Z</time>
      </trkpt>
      <trkpt lat="43.74373" lon="3.51657">
        <ele>338.7</ele>
        <time>2014-04-30T07:07:28Z</time>
      </trkpt>
      <trkpt lat="43.74382" lon="3.5166">
        <ele>338.8</ele>
        <time>2014-04-30T07:07:32Z</time>
      </trkpt>
      <trkpt lat="43.74391" lon="3.51663">
        <ele>339.2</ele>
        <time>2014-04-30T07:07:36Z</time>
      </trkpt>
      <trkpt lat="43.74401" lon="3.51667">
        <ele>339.9</ele>
        <time>2014-04-30T07:07:40Z</time>
      </trkpt>
      <trkpt lat="43.7441" lon="3.51673">
        <ele>339.9</ele>
        <time>2014-04-30T07:07:44Z</time>
      </trkpt>
      <trkpt lat="43.7442" lon="3.51677">
        <ele>339.1</ele>
        <time>2014-04-30T07:07:48Z</time>
      </trkpt>
      <trkpt lat="43.74429" lon="3.5168">
        <ele>339.3</ele>
        <time>2014-04-30T07:07:52Z</time>
      </trkpt>
      <trkpt lat="43.74438" lon="3.51679">
        <ele>339.4</ele>
        <time>2014-04-30T07:07:56Z</time>
      </trkpt>
      <trkpt lat="43.74449" lon="3.51678">
        <ele>340</ele>
        <time>2014-04-30T07:08:01Z</time>
      </trkpt>
      <trkpt lat="43.74458" lon="3.51682">
        <ele>340.1</ele>
        <time>2014-04-30T07:08:06Z</time>
      </trkpt>
      <trkpt lat="43.74466" lon="3.51687">
        <ele>342.1</ele>
        <time>2014-04-30T07:08:10Z</time>
      </trkpt>
      <trkpt lat="43.74476" lon="3.51693">
        <ele>342.9</ele>
        <time>2014-04-30T07:08:15Z</time>
      </trkpt>
      <trkpt lat="43.74485" lon="3.51697">
        <ele>343.9</ele>
        <time>2014-04-30T07:08:21Z</time>
      </trkpt>
      <trkpt lat="43.74495" lon="3.51698">
        <ele>345.1</ele>
        <time>2014-04-30T07:08:27Z</time>
      </trkpt>
      <trkpt lat="43.74506" lon="3.517">
        <ele>347.2</ele>
        <time>2014-04-30T07:08:33Z</time>
      </trkpt>
      <trkpt lat="43.74515" lon="3.51701">
        <ele>348.6</ele>
        <time>2014-04-30T07:08:38Z</time>
      </trkpt>
      <trkpt lat="43.74525" lon="3.517">
        <ele>348.8</ele>
        <time>2014-04-30T07:08:43Z</time>
      </trkpt>
      <trkpt lat="43.74535" lon="3.517">
        <ele>349.3</ele>
        <time>2014-04-30T07:08:48Z</time>
      </trkpt>
      <trkpt lat="43.74545" lon="3.517">
        <ele>350</ele>
        <time>2014-04-30T07:08:53Z</time>
      </trkpt>
      <trkpt lat="43.74555" lon="3.517">
        <ele>350.5</ele>
        <time>2014-04-30T07:08:58Z</time>
      </trkpt>
      <trkpt lat="43.74565" lon="3.51694">
        <ele>351.1</ele>
        <time>2014-04-30T07:09:03Z</time>
      </trkpt>
      <trkpt lat="43.74574" lon="3.51689">
        <ele>352.4</ele>
        <time>2014-04-30T07:09:08Z</time>
      </trkpt>
      <trkpt lat="43.74584" lon="3.51693">
        <ele>354.4</ele>
        <time>2014-04-30T07:09:14Z</time>
      </trkpt>
      <trkpt lat="43.74594" lon="3.517">
        <ele>354.7</ele>
        <time>2014-04-30T07:09:19Z</time>
      </trkpt>
      <trkpt lat="43.74602" lon="3.51706">
        <ele>354.7</ele>
        <time>2014-04-30T07:09:23Z</time>
      </trkpt>
      <trkpt lat="43.7461" lon="3.51715">
        <ele>355.2</ele>
        <time>2014-04-30T07:09:27Z</time>
      </trkpt>
      <trkpt lat="43.74617" lon="3.51723">
        <ele>356.1</ele>
        <time>2014-04-30T07:09:31Z</time>
      </trkpt>
      <trkpt lat="43.74625" lon="3.51728">
        <ele>356.9</ele>
        <time>2014-04-30T07:09:35Z</time>
      </trkpt>
      <trkpt lat="43.74635" lon="3.51732">
        <ele>357.5</ele>
        <time>2014-04-30T07:09:40Z</time>
      </trkpt>
      <trkpt lat="43.74645" lon="3.51739">
        <ele>358.4</ele>
        <time>2014-04-30T07:09:44Z</time>
      </trkpt>
      <trkpt lat="43.74656" lon="3.51746">
        <ele>358.7</ele>
        <time>2014-04-30T07:09:48Z</time>
      </trkpt>
      <trkpt lat="43.74666" lon="3.51754">
        <ele>357.4</ele>
        <time>2014-04-30T07:09:52Z</time>
      </trkpt>
      <trkpt lat="43.74676" lon="3.51761">
        <ele>358.1</ele>
        <time>2014-04-30T07:09:56Z</time>
      </trkpt>
      <trkpt lat="43.74685" lon="3.51769">
        <ele>358.3</ele>
        <time>2014-04-30T07:10:00Z</time>
      </trkpt>
      <trkpt lat="43.74694" lon="3.51779">
        <ele>359</ele>
        <time>2014-04-30T07:10:04Z</time>
      </trkpt>
      <trkpt lat="43.74702" lon="3.51787">
        <ele>359.6</ele>
        <time>2014-04-30T07:10:08Z</time>
      </trkpt>
      <trkpt lat="43.74711" lon="3.51796">
        <ele>360</ele>
        <time>2014-04-30T07:10:12Z</time>
      </trkpt>
      <trkpt lat="43.7472" lon="3.51804">
        <ele>361.1</ele>
        <time>2014-04-30T07:10:16Z</time>
      </trkpt>
      <trkpt lat="43.74728" lon="3.51812">
        <ele>361.2</ele>
        <time>2014-04-30T07:10:19Z</time>
      </trkpt>
      <trkpt lat="43.74735" lon="3.51821">
        <ele>362.1</ele>
        <time>2014-04-30T07:10:22Z</time>
      </trkpt>
      <trkpt lat="43.74743" lon="3.51829">
        <ele>363</ele>
        <time>2014-04-30T07:10:25Z</time>
      </trkpt>
      <trkpt lat="43.74751" lon="3.51837">
        <ele>363.2</ele>
        <time>2014-04-30T07:10:28Z</time>
      </trkpt>
      <trkpt lat="43.74759" lon="3.51844">
        <ele>363.4</ele>
        <time>2014-04-30T07:10:31Z</time>
      </trkpt>
      <trkpt lat="43.74767" lon="3.51848">
        <ele>363.8</ele>
        <time>2014-04-30T07:10:34Z</time>
      </trkpt>
      <trkpt lat="43.74776" lon="3.51852">
        <ele>363.8</ele>
        <time>2014-04-30T07:10:37Z</time>
      </trkpt>
      <trkpt lat="43.74785" lon="3.51856">
        <ele>364.5</ele>
        <time>2014-04-30T07:10:40Z</time>
      </trkpt>
      <trkpt lat="43.74794" lon="3.51861">
        <ele>365.1</ele>
        <time>2014-04-30T07:10:43Z</time>
      </trkpt>
      <trkpt lat="43.74801" lon="3.51868">
        <ele>366.2</ele>
        <time>2014-04-30T07:10:46Z</time>
      </trkpt>
      <trkpt lat="43.74809" lon="3.51876">
        <ele>367.1</ele>
        <time>2014-04-30T07:10:49Z</time>
      </trkpt>
      <trkpt lat="43.74815" lon="3.51885">
        <ele>366.9</ele>
        <time>2014-04-30T07:10:52Z</time>
      </trkpt>
      <trkpt lat="43.74823" lon="3.51898">
        <ele>368.2</ele>
        <time>2014-04-30T07:10:56Z</time>
      </trkpt>
      <trkpt lat="43.7483" lon="3.51909">
        <ele>368.7</ele>
        <time>2014-04-30T07:11:00Z</time>
      </trkpt>
      <trkpt lat="43.74836" lon="3.5192">
        <ele>370</ele>
        <time>2014-04-30T07:11:04Z</time>
      </trkpt>
      <trkpt lat="43.74842" lon="3.51932">
        <ele>370.1</ele>
        <time>2014-04-30T07:11:08Z</time>
      </trkpt>
      <trkpt lat="43.74849" lon="3.51944">
        <ele>369.7</ele>
        <time>2014-04-30T07:11:12Z</time>
      </trkpt>
      <trkpt lat="43.74856" lon="3.51956">
        <ele>371.1</ele>
        <time>2014-04-30T07:11:16Z</time>
      </trkpt>
      <trkpt lat="43.74862" lon="3.51967">
        <ele>372</ele>
        <time>2014-04-30T07:11:20Z</time>
      </trkpt>
      <trkpt lat="43.74863" lon="3.51981">
        <ele>374</ele>
        <time>2014-04-30T07:11:27Z</time>
      </trkpt>
      <trkpt lat="43.74862" lon="3.51995">
        <ele>375.7</ele>
        <time>2014-04-30T07:11:34Z</time>
      </trkpt>
      <trkpt lat="43.74861" lon="3.52009">
        <ele>378.6</ele>
        <time>2014-04-30T07:11:48Z</time>
      </trkpt>
      <trkpt lat="43.74863" lon="3.52023">
        <ele>380.4</ele>
        <time>2014-04-30T07:11:53Z</time>
      </trkpt>
      <trkpt lat="43.74866" lon="3.52036">
        <ele>380.7</ele>
        <time>2014-04-30T07:11:58Z</time>
      </trkpt>
      <trkpt lat="43.74867" lon="3.5205">
        <ele>381.8</ele>
        <time>2014-04-30T07:12:03Z</time>
      </trkpt>
      <trkpt lat="43.74864" lon="3.52063">
        <ele>380.7</ele>
        <time>2014-04-30T07:12:08Z</time>
      </trkpt>
      <trkpt lat="43.74858" lon="3.52073">
        <ele>381.3</ele>
        <time>2014-04-30T07:12:13Z</time>
      </trkpt>
      <trkpt lat="43.7485" lon="3.52081">
        <ele>382.4</ele>
        <time>2014-04-30T07:12:18Z</time>
      </trkpt>
      <trkpt lat="43.74842" lon="3.52088">
        <ele>383.2</ele>
        <time>2014-04-30T07:12:23Z</time>
      </trkpt>
      <trkpt lat="43.74837" lon="3.52101">
        <ele>384.2</ele>
        <time>2014-04-30T07:12:29Z</time>
      </trkpt>
      <trkpt lat="43.74838" lon="3.52114">
        <ele>384.6</ele>
        <time>2014-04-30T07:12:34Z</time>
      </trkpt>
      <trkpt lat="43.7484" lon="3.52128">
        <ele>385.9</ele>
        <time>2014-04-30T07:12:39Z</time>
      </trkpt>
      <trkpt lat="43.74841" lon="3.52143">
        <ele>386</ele>
        <time>2014-04-30T07:12:44Z</time>
      </trkpt>
      <trkpt lat="43.74842" lon="3.52156">
        <ele>386.2</ele>
        <time>2014-04-30T07:12:48Z</time>
      </trkpt>
      <trkpt lat="43.74843" lon="3.52171">
        <ele>386.6</ele>
        <time>2014-04-30T07:12:53Z</time>
      </trkpt>
      <trkpt lat="43.74844" lon="3.52184">
        <ele>387.8</ele>
        <time>2014-04-30T07:12:57Z</time>
      </trkpt>
      <trkpt lat="43.74843" lon="3.522">
        <ele>388.2</ele>
        <time>2014-04-30T07:13:01Z</time>
      </trkpt>
      <trkpt lat="43.74848" lon="3.52212">
        <ele>389.6</ele>
        <time>2014-04-30T07:13:06Z</time>
      </trkpt>
      <trkpt lat="43.74857" lon="3.52216">
        <ele>389.1</ele>
        <time>2014-04-30T07:13:10Z</time>
      </trkpt>
      <trkpt lat="43.74865" lon="3.52221">
        <ele>389.5</ele>
        <time>2014-04-30T07:13:15Z</time>
      </trkpt>
      <trkpt lat="43.74869" lon="3.52233">
        <ele>389.3</ele>
        <time>2014-04-30T07:13:19Z</time>
      </trkpt>
      <trkpt lat="43.74871" lon="3.52246">
        <ele>390.5</ele>
        <time>2014-04-30T07:13:23Z</time>
      </trkpt>
      <trkpt lat="43.74871" lon="3.52259">
        <ele>391.1</ele>
        <time>2014-04-30T07:13:27Z</time>
      </trkpt>
      <trkpt lat="43.7487" lon="3.52272">
        <ele>391.2</ele>
        <time>2014-04-30T07:13:31Z</time>
      </trkpt>
      <trkpt lat="43.74867" lon="3.52285">
        <ele>393.1</ele>
        <time>2014-04-30T07:13:35Z</time>
      </trkpt>
      <trkpt lat="43.74863" lon="3.52299">
        <ele>392.6</ele>
        <time>2014-04-30T07:13:39Z</time>
      </trkpt>
      <trkpt lat="43.74857" lon="3.52312">
        <ele>393.3</ele>
        <time>2014-04-30T07:13:43Z</time>
      </trkpt>
      <trkpt lat="43.74852" lon="3.52324">
        <ele>393.3</ele>
        <time>2014-04-30T07:13:47Z</time>
      </trkpt>
      <trkpt lat="43.74846" lon="3.52336">
        <ele>393.4</ele>
        <time>2014-04-30T07:13:51Z</time>
      </trkpt>
      <trkpt lat="43.74843" lon="3.5235">
        <ele>393.9</ele>
        <time>2014-04-30T07:13:55Z</time>
      </trkpt>
      <trkpt lat="43.74839" lon="3.52364">
        <ele>395.3</ele>
        <time>2014-04-30T07:13:59Z</time>
      </trkpt>
      <trkpt lat="43.74836" lon="3.52378">
        <ele>395.9</ele>
        <time>2014-04-30T07:14:03Z</time>
      </trkpt>
      <trkpt lat="43.74834" lon="3.52392">
        <ele>395.8</ele>
        <time>2014-04-30T07:14:07Z</time>
      </trkpt>
      <trkpt lat="43.74833" lon="3.52407">
        <ele>396</ele>
        <time>2014-04-30T07:14:11Z</time>
      </trkpt>
      <trkpt lat="43.7484" lon="3.52418">
        <ele>395.4</ele>
        <time>2014-04-30T07:14:15Z</time>
      </trkpt>
      <trkpt lat="43.74848" lon="3.52423">
        <ele>395.6</ele>
        <time>2014-04-30T07:14:19Z</time>
      </trkpt>
      <trkpt lat="43.74857" lon="3.52427">
        <ele>396.8</ele>
        <time>2014-04-30T07:14:24Z</time>
      </trkpt>
      <trkpt lat="43.74868" lon="3.52431">
        <ele>397.7</ele>
        <time>2014-04-30T07:14:29Z</time>
      </trkpt>
      <trkpt lat="43.74878" lon="3.52437">
        <ele>398.2</ele>
        <time>2014-04-30T07:14:33Z</time>
      </trkpt>
      <trkpt lat="43.74887" lon="3.52442">
        <ele>398</ele>
        <time>2014-04-30T07:14:37Z</time>
      </trkpt>
      <trkpt lat="43.74897" lon="3.52447">
        <ele>398.5</ele>
        <time>2014-04-30T07:14:41Z</time>
      </trkpt>
      <trkpt lat="43.74905" lon="3.52453">
        <ele>399</ele>
        <time>2014-04-30T07:14:44Z</time>
      </trkpt>
      <trkpt lat="43.74913" lon="3.5246">
        <ele>398.4</ele>
        <time>2014-04-30T07:14:47Z</time>
      </trkpt>
      <trkpt lat="43.7492" lon="3.52468">
        <ele>397.9</ele>
        <time>2014-04-30T07:14:50Z</time>
      </trkpt>
      <trkpt lat="43.74927" lon="3.52478">
        <ele>398.6</ele>
        <time>2014-04-30T07:14:53Z</time>
      </trkpt>
      <trkpt lat="43.74934" lon="3.52488">
        <ele>399.8</ele>
        <time>2014-04-30T07:14:56Z</time>
      </trkpt>
      <trkpt lat="43.74942" lon="3.52497">
        <ele>400</ele>
        <time>2014-04-30T07:14:59Z</time>
      </trkpt>
      <trkpt lat="43.7495" lon="3.52503">
        <ele>400.3</ele>
        <time>2014-04-30T07:15:02Z</time>
      </trkpt>
      <trkpt lat="43.74954" lon="3.52516">
        <ele>400.7</ele>
        <time>2014-04-30T07:15:05Z</time>
      </trkpt>
      <trkpt lat="43.74956" lon="3.52531">
        <ele>400.8</ele>
        <time>2014-04-30T07:15:09Z</time>
      </trkpt>
      <trkpt lat="43.74962" lon="3.52542">
        <ele>402.1</ele>
        <time>2014-04-30T07:15:13Z</time>
      </trkpt>
      <trkpt lat="43.74967" lon="3.52556">
        <ele>402.2</ele>
        <time>2014-04-30T07:15:17Z</time>
      </trkpt>
      <trkpt lat="43.74971" lon="3.52568">
        <ele>401.4</ele>
        <time>2014-04-30T07:15:20Z</time>
      </trkpt>
      <trkpt lat="43.74975" lon="3.5258">
        <ele>402.1</ele>
        <time>2014-04-30T07:15:23Z</time>
      </trkpt>
      <trkpt lat="43.7498" lon="3.52591">
        <ele>401.1</ele>
        <time>2014-04-30T07:15:26Z</time>
      </trkpt>
      <trkpt lat="43.74986" lon="3.52601">
        <ele>401.7</ele>
        <time>2014-04-30T07:15:29Z</time>
      </trkpt>
      <trkpt lat="43.74994" lon="3.52612">
        <ele>404.1</ele>
        <time>2014-04-30T07:15:33Z</time>
      </trkpt>
      <trkpt lat="43.75001" lon="3.52624">
        <ele>404.2</ele>
        <time>2014-04-30T07:15:37Z</time>
      </trkpt>
      <trkpt lat="43.75009" lon="3.52635">
        <ele>404.5</ele>
        <time>2014-04-30T07:15:41Z</time>
      </trkpt>
      <trkpt lat="43.75017" lon="3.52642">
        <ele>404.1</ele>
        <time>2014-04-30T07:15:45Z</time>
      </trkpt>
      <trkpt lat="43.75027" lon="3.52648">
        <ele>404.8</ele>
        <time>2014-04-30T07:15:50Z</time>
      </trkpt>
      <trkpt lat="43.75037" lon="3.52651">
        <ele>406.9</ele>
        <time>2014-04-30T07:15:55Z</time>
      </trkpt>
      <trkpt lat="43.75046" lon="3.52654">
        <ele>407.3</ele>
        <time>2014-04-30T07:16:00Z</time>
      </trkpt>
      <trkpt lat="43.75052" lon="3.52664">
        <ele>408</ele>
        <time>2014-04-30T07:16:05Z</time>
      </trkpt>
      <trkpt lat="43.75046" lon="3.52675">
        <ele>408.7</ele>
        <time>2014-04-30T07:16:10Z</time>
      </trkpt>
      <trkpt lat="43.7504" lon="3.52685">
        <ele>409</ele>
        <time>2014-04-30T07:16:15Z</time>
      </trkpt>
      <trkpt lat="43.75035" lon="3.52697">
        <ele>410.2</ele>
        <time>2014-04-30T07:16:20Z</time>
      </trkpt>
      <trkpt lat="43.75032" lon="3.52709">
        <ele>409.8</ele>
        <time>2014-04-30T07:16:52Z</time>
      </trkpt>
      <trkpt lat="43.75028" lon="3.52721">
        <ele>409.4</ele>
        <time>2014-04-30T07:16:56Z</time>
      </trkpt>
      <trkpt lat="43.75024" lon="3.52734">
        <ele>409.5</ele>
        <time>2014-04-30T07:17:00Z</time>
      </trkpt>
      <trkpt lat="43.7502" lon="3.52746">
        <ele>410.4</ele>
        <time>2014-04-30T07:17:04Z</time>
      </trkpt>
      <trkpt lat="43.75014" lon="3.52756">
        <ele>410.6</ele>
        <time>2014-04-30T07:17:08Z</time>
      </trkpt>
      <trkpt lat="43.75004" lon="3.5276">
        <ele>412.3</ele>
        <time>2014-04-30T07:17:13Z</time>
      </trkpt>
      <trkpt lat="43.74994" lon="3.52757">
        <ele>413.8</ele>
        <time>2014-04-30T07:17:18Z</time>
      </trkpt>
      <trkpt lat="43.74985" lon="3.52758">
        <ele>414.6</ele>
        <time>2014-04-30T07:17:22Z</time>
      </trkpt>
      <trkpt lat="43.74977" lon="3.52766">
        <ele>414.6</ele>
        <time>2014-04-30T07:17:26Z</time>
      </trkpt>
      <trkpt lat="43.74971" lon="3.52776">
        <ele>415.2</ele>
        <time>2014-04-30T07:17:30Z</time>
      </trkpt>
      <trkpt lat="43.74962" lon="3.52785">
        <ele>414.3</ele>
        <time>2014-04-30T07:17:34Z</time>
      </trkpt>
      <trkpt lat="43.74953" lon="3.52792">
        <ele>414.2</ele>
        <time>2014-04-30T07:17:37Z</time>
      </trkpt>
      <trkpt lat="43.74945" lon="3.52801">
        <ele>414.6</ele>
        <time>2014-04-30T07:17:40Z</time>
      </trkpt>
      <trkpt lat="43.74938" lon="3.52812">
        <ele>414.7</ele>
        <time>2014-04-30T07:17:43Z</time>
      </trkpt>
      <trkpt lat="43.74934" lon="3.52825">
        <ele>414.6</ele>
        <time>2014-04-30T07:17:46Z</time>
      </trkpt>
      <trkpt lat="43.74932" lon="3.52841">
        <ele>415.2</ele>
        <time>2014-04-30T07:17:50Z</time>
      </trkpt>
      <trkpt lat="43.74933" lon="3.52856">
        <ele>416.2</ele>
        <time>2014-04-30T07:17:54Z</time>
      </trkpt>
      <trkpt lat="43.74936" lon="3.5287">
        <ele>418.1</ele>
        <time>2014-04-30T07:17:58Z</time>
      </trkpt>
      <trkpt lat="43.74939" lon="3.52883">
        <ele>418.4</ele>
        <time>2014-04-30T07:18:02Z</time>
      </trkpt>
      <trkpt lat="43.74941" lon="3.52897">
        <ele>417.6</ele>
        <time>2014-04-30T07:18:06Z</time>
      </trkpt>
      <trkpt lat="43.74944" lon="3.5291">
        <ele>419.6</ele>
        <time>2014-04-30T07:18:10Z</time>
      </trkpt>
      <trkpt lat="43.74946" lon="3.52924">
        <ele>420.4</ele>
        <time>2014-04-30T07:18:14Z</time>
      </trkpt>
      <trkpt lat="43.74948" lon="3.52938">
        <ele>420.2</ele>
        <time>2014-04-30T07:18:18Z</time>
      </trkpt>
      <trkpt lat="43.74949" lon="3.52951">
        <ele>422.1</ele>
        <time>2014-04-30T07:18:22Z</time>
      </trkpt>
      <trkpt lat="43.7495" lon="3.52964">
        <ele>423.2</ele>
        <time>2014-04-30T07:18:26Z</time>
      </trkpt>
      <trkpt lat="43.7495" lon="3.52979">
        <ele>424</ele>
        <time>2014-04-30T07:18:31Z</time>
      </trkpt>
      <trkpt lat="43.74949" lon="3.52994">
        <ele>425.6</ele>
        <time>2014-04-30T07:18:36Z</time>
      </trkpt>
      <trkpt lat="43.74946" lon="3.53007">
        <ele>426.4</ele>
        <time>2014-04-30T07:18:40Z</time>
      </trkpt>
      <trkpt lat="43.74942" lon="3.53018">
        <ele>426.5</ele>
        <time>2014-04-30T07:18:44Z</time>
      </trkpt>
      <trkpt lat="43.74936" lon="3.53029">
        <ele>427.7</ele>
        <time>2014-04-30T07:18:49Z</time>
      </trkpt>
      <trkpt lat="43.74928" lon="3.53039">
        <ele>429.1</ele>
        <time>2014-04-30T07:18:54Z</time>
      </trkpt>
      <trkpt lat="43.74922" lon="3.5305">
        <ele>429.8</ele>
        <time>2014-04-30T07:18:59Z</time>
      </trkpt>
      <trkpt lat="43.74916" lon="3.53062">
        <ele>430.8</ele>
        <time>2014-04-30T07:19:04Z</time>
      </trkpt>
      <trkpt lat="43.74912" lon="3.53073">
        <ele>431.9</ele>
        <time>2014-04-30T07:19:09Z</time>
      </trkpt>
      <trkpt lat="43.74906" lon="3.53085">
        <ele>432.6</ele>
        <time>2014-04-30T07:19:14Z</time>
      </trkpt>
      <trkpt lat="43.74899" lon="3.53095">
        <ele>433.7</ele>
        <time>2014-04-30T07:19:19Z</time>
      </trkpt>
      <trkpt lat="43.74891" lon="3.53104">
        <ele>434.8</ele>
        <time>2014-04-30T07:19:24Z</time>
      </trkpt>
      <trkpt lat="43.74884" lon="3.53112">
        <ele>435.3</ele>
        <time>2014-04-30T07:19:29Z</time>
      </trkpt>
      <trkpt lat="43.74876" lon="3.5312">
        <ele>436.4</ele>
        <time>2014-04-30T07:19:34Z</time>
      </trkpt>
      <trkpt lat="43.74868" lon="3.53126">
        <ele>438</ele>
        <time>2014-04-30T07:19:39Z</time>
      </trkpt>
      <trkpt lat="43.7486" lon="3.53133">
        <ele>438.7</ele>
        <time>2014-04-30T07:19:44Z</time>
      </trkpt>
      <trkpt lat="43.74851" lon="3.53137">
        <ele>439.5</ele>
        <time>2014-04-30T07:19:49Z</time>
      </trkpt>
      <trkpt lat="43.74842" lon="3.53139">
        <ele>439.8</ele>
        <time>2014-04-30T07:19:54Z</time>
      </trkpt>
      <trkpt lat="43.74832" lon="3.5314">
        <ele>441</ele>
        <time>2014-04-30T07:19:59Z</time>
      </trkpt>
      <trkpt lat="43.74824" lon="3.53145">
        <ele>441.3</ele>
        <time>2014-04-30T07:20:04Z</time>
      </trkpt>
      <trkpt lat="43.74816" lon="3.53154">
        <ele>443.3</ele>
        <time>2014-04-30T07:20:09Z</time>
      </trkpt>
      <trkpt lat="43.74809" lon="3.53163">
        <ele>443</ele>
        <time>2014-04-30T07:20:14Z</time>
      </trkpt>
      <trkpt lat="43.748" lon="3.53168">
        <ele>443.3</ele>
        <time>2014-04-30T07:20:19Z</time>
      </trkpt>
      <trkpt lat="43.7479" lon="3.53168">
        <ele>444.8</ele>
        <time>2014-04-30T07:20:24Z</time>
      </trkpt>
      <trkpt lat="43.7478" lon="3.53167">
        <ele>445.9</ele>
        <time>2014-04-30T07:20:29Z</time>
      </trkpt>
      <trkpt lat="43.7477" lon="3.53164">
        <ele>446.3</ele>
        <time>2014-04-30T07:20:34Z</time>
      </trkpt>
      <trkpt lat="43.7476" lon="3.5316">
        <ele>448</ele>
        <time>2014-04-30T07:20:39Z</time>
      </trkpt>
      <trkpt lat="43.74751" lon="3.53155">
        <ele>447.7</ele>
        <time>2014-04-30T07:20:44Z</time>
      </trkpt>
      <trkpt lat="43.74741" lon="3.53151">
        <ele>448.6</ele>
        <time>2014-04-30T07:20:49Z</time>
      </trkpt>
      <trkpt lat="43.74732" lon="3.53145">
        <ele>449.8</ele>
        <time>2014-04-30T07:20:54Z</time>
      </trkpt>
      <trkpt lat="43.74723" lon="3.53142">
        <ele>451</ele>
        <time>2014-04-30T07:20:59Z</time>
      </trkpt>
      <trkpt lat="43.74713" lon="3.53143">
        <ele>452.1</ele>
        <time>2014-04-30T07:21:04Z</time>
      </trkpt>
      <trkpt lat="43.74703" lon="3.53144">
        <ele>452.9</ele>
        <time>2014-04-30T07:21:09Z</time>
      </trkpt>
      <trkpt lat="43.74693" lon="3.5314">
        <ele>453.3</ele>
        <time>2014-04-30T07:21:14Z</time>
      </trkpt>
      <trkpt lat="43.74686" lon="3.5313">
        <ele>454.4</ele>
        <time>2014-04-30T07:21:19Z</time>
      </trkpt>
      <trkpt lat="43.74678" lon="3.53121">
        <ele>454.6</ele>
        <time>2014-04-30T07:21:24Z</time>
      </trkpt>
      <trkpt lat="43.74672" lon="3.5311">
        <ele>454.3</ele>
        <time>2014-04-30T07:21:29Z</time>
      </trkpt>
      <trkpt lat="43.74666" lon="3.53099">
        <ele>455.4</ele>
        <time>2014-04-30T07:21:34Z</time>
      </trkpt>
      <trkpt lat="43.74661" lon="3.53087">
        <ele>456.7</ele>
        <time>2014-04-30T07:21:39Z</time>
      </trkpt>
      <trkpt lat="43.74658" lon="3.53074">
        <ele>457.7</ele>
        <time>2014-04-30T07:21:44Z</time>
      </trkpt>
      <trkpt lat="43.74653" lon="3.53061">
        <ele>459</ele>
        <time>2014-04-30T07:21:50Z</time>
      </trkpt>
      <trkpt lat="43.74646" lon="3.53055">
        <ele>459.3</ele>
        <time>2014-04-30T07:21:56Z</time>
      </trkpt>
      <trkpt lat="43.74646" lon="3.53068">
        <ele>460.4</ele>
        <time>2014-04-30T07:22:04Z</time>
      </trkpt>
      <trkpt lat="43.74647" lon="3.53082">
        <ele>459.7</ele>
        <time>2014-04-30T07:22:09Z</time>
      </trkpt>
      <trkpt lat="43.74646" lon="3.53095">
        <ele>460.6</ele>
        <time>2014-04-30T07:22:14Z</time>
      </trkpt>
      <trkpt lat="43.74646" lon="3.53108">
        <ele>461.6</ele>
        <time>2014-04-30T07:22:20Z</time>
      </trkpt>
      <trkpt lat="43.74646" lon="3.53122">
        <ele>461.5</ele>
        <time>2014-04-30T07:22:26Z</time>
      </trkpt>
      <trkpt lat="43.74643" lon="3.53136">
        <ele>462.6</ele>
        <time>2014-04-30T07:22:32Z</time>
      </trkpt>
      <trkpt lat="43.74639" lon="3.53148">
        <ele>464.2</ele>
        <time>2014-04-30T07:22:37Z</time>
      </trkpt>
      <trkpt lat="43.74636" lon="3.5316">
        <ele>465.7</ele>
        <time>2014-04-30T07:22:42Z</time>
      </trkpt>
      <trkpt lat="43.74632" lon="3.53171">
        <ele>466.9</ele>
        <time>2014-04-30T07:22:47Z</time>
      </trkpt>
      <trkpt lat="43.7463" lon="3.53184">
        <ele>468.3</ele>
        <time>2014-04-30T07:22:52Z</time>
      </trkpt>
      <trkpt lat="43.74633" lon="3.53196">
        <ele>468.6</ele>
        <time>2014-04-30T07:22:57Z</time>
      </trkpt>
      <trkpt lat="43.7464" lon="3.53205">
        <ele>470.6</ele>
        <time>2014-04-30T07:23:03Z</time>
      </trkpt>
      <trkpt lat="43.74645" lon="3.53215">
        <ele>472.2</ele>
        <time>2014-04-30T07:23:09Z</time>
      </trkpt>
      <trkpt lat="43.74647" lon="3.5323">
        <ele>473.4</ele>
        <time>2014-04-30T07:23:16Z</time>
      </trkpt>
      <trkpt lat="43.74646" lon="3.53244">
        <ele>473.5</ele>
        <time>2014-04-30T07:23:23Z</time>
      </trkpt>
      <trkpt lat="43.74644" lon="3.53256">
        <ele>476.2</ele>
        <time>2014-04-30T07:23:29Z</time>
      </trkpt>
      <trkpt lat="43.74642" lon="3.53269">
        <ele>477</ele>
        <time>2014-04-30T07:23:35Z</time>
      </trkpt>
      <trkpt lat="43.74643" lon="3.53282">
        <ele>477.9</ele>
        <time>2014-04-30T07:23:41Z</time>
      </trkpt>
      <trkpt lat="43.74647" lon="3.53294">
        <ele>479.3</ele>
        <time>2014-04-30T07:23:47Z</time>
      </trkpt>
      <trkpt lat="43.74654" lon="3.53304">
        <ele>480.6</ele>
        <time>2014-04-30T07:23:53Z</time>
      </trkpt>
      <trkpt lat="43.74662" lon="3.5331">
        <ele>480.7</ele>
        <time>2014-04-30T07:23:59Z</time>
      </trkpt>
      <trkpt lat="43.74671" lon="3.53311">
        <ele>481.7</ele>
        <time>2014-04-30T07:24:04Z</time>
      </trkpt>
      <trkpt lat="43.7468" lon="3.53309">
        <ele>477.5</ele>
        <time>2014-04-30T07:24:51Z</time>
      </trkpt>
      <trkpt lat="43.74689" lon="3.53303">
        <ele>477.2</ele>
        <time>2014-04-30T07:24:55Z</time>
      </trkpt>
      <trkpt lat="43.74698" lon="3.53295">
        <ele>476.9</ele>
        <time>2014-04-30T07:24:59Z</time>
      </trkpt>
      <trkpt lat="43.74706" lon="3.53289">
        <ele>477</ele>
        <time>2014-04-30T07:25:03Z</time>
      </trkpt>
      <trkpt lat="43.74716" lon="3.53286">
        <ele>476.9</ele>
        <time>2014-04-30T07:25:09Z</time>
      </trkpt>
      <trkpt lat="43.74727" lon="3.5329">
        <ele>477.8</ele>
        <time>2014-04-30T07:25:15Z</time>
      </trkpt>
      <trkpt lat="43.74737" lon="3.5329">
        <ele>479.7</ele>
        <time>2014-04-30T07:25:20Z</time>
      </trkpt>
      <trkpt lat="43.74747" lon="3.53289">
        <ele>481.2</ele>
        <time>2014-04-30T07:25:25Z</time>
      </trkpt>
      <trkpt lat="43.74757" lon="3.53291">
        <ele>481.6</ele>
        <time>2014-04-30T07:25:29Z</time>
      </trkpt>
      <trkpt lat="43.74766" lon="3.53294">
        <ele>481.3</ele>
        <time>2014-04-30T07:25:32Z</time>
      </trkpt>
      <trkpt lat="43.74775" lon="3.53299">
        <ele>480.7</ele>
        <time>2014-04-30T07:25:35Z</time>
      </trkpt>
      <trkpt lat="43.74783" lon="3.53304">
        <ele>480.3</ele>
        <time>2014-04-30T07:25:38Z</time>
      </trkpt>
      <trkpt lat="43.74793" lon="3.53311">
        <ele>480.2</ele>
        <time>2014-04-30T07:25:42Z</time>
      </trkpt>
      <trkpt lat="43.74801" lon="3.53317">
        <ele>480.1</ele>
        <time>2014-04-30T07:25:46Z</time>
      </trkpt>
      <trkpt lat="43.74812" lon="3.53319">
        <ele>480.9</ele>
        <time>2014-04-30T07:25:50Z</time>
      </trkpt>
      <trkpt lat="43.74823" lon="3.53315">
        <ele>480.9</ele>
        <time>2014-04-30T07:25:54Z</time>
      </trkpt>
      <trkpt lat="43.74832" lon="3.53308">
        <ele>480.6</ele>
        <time>2014-04-30T07:25:57Z</time>
      </trkpt>
      <trkpt lat="43.74843" lon="3.53301">
        <ele>479.7</ele>
        <time>2014-04-30T07:26:00Z</time>
      </trkpt>
      <trkpt lat="43.74852" lon="3.53297">
        <ele>478.9</ele>
        <time>2014-04-30T07:26:02Z</time>
      </trkpt>
      <trkpt lat="43.74861" lon="3.53292">
        <ele>478.5</ele>
        <time>2014-04-30T07:26:04Z</time>
      </trkpt>
      <trkpt lat="43.7487" lon="3.53284">
        <ele>478.4</ele>
        <time>2014-04-30T07:26:06Z</time>
      </trkpt>
      <trkpt lat="43.74877" lon="3.53275">
        <ele>478.2</ele>
        <time>2014-04-30T07:26:08Z</time>
      </trkpt>
      <trkpt lat="43.74885" lon="3.53265">
        <ele>478.8</ele>
        <time>2014-04-30T07:26:11Z</time>
      </trkpt>
      <trkpt lat="43.7489" lon="3.53255">
        <ele>478.7</ele>
        <time>2014-04-30T07:26:14Z</time>
      </trkpt>
      <trkpt lat="43.74897" lon="3.53246">
        <ele>479.1</ele>
        <time>2014-04-30T07:26:17Z</time>
      </trkpt>
      <trkpt lat="43.74909" lon="3.5325">
        <ele>479.9</ele>
        <time>2014-04-30T07:26:21Z</time>
      </trkpt>
      <trkpt lat="43.74919" lon="3.53258">
        <ele>478.6</ele>
        <time>2014-04-30T07:26:25Z</time>
      </trkpt>
      <trkpt lat="43.7493" lon="3.53265">
        <ele>476.3</ele>
        <time>2014-04-30T07:26:29Z</time>
      </trkpt>
      <trkpt lat="43.74938" lon="3.53273">
        <ele>475.9</ele>
        <time>2014-04-30T07:26:32Z</time>
      </trkpt>
      <trkpt lat="43.74946" lon="3.53282">
        <ele>476.2</ele>
        <time>2014-04-30T07:26:35Z</time>
      </trkpt>
      <trkpt lat="43.74954" lon="3.53291">
        <ele>476.7</ele>
        <time>2014-04-30T07:26:38Z</time>
      </trkpt>
      <trkpt lat="43.74964" lon="3.53294">
        <ele>478.2</ele>
        <time>2014-04-30T07:26:41Z</time>
      </trkpt>
      <trkpt lat="43.74974" lon="3.53295">
        <ele>477.6</ele>
        <time>2014-04-30T07:26:44Z</time>
      </trkpt>
      <trkpt lat="43.74985" lon="3.53299">
        <ele>478.8</ele>
        <time>2014-04-30T07:26:48Z</time>
      </trkpt>
      <trkpt lat="43.74991" lon="3.53311">
        <ele>479.5</ele>
        <time>2014-04-30T07:26:51Z</time>
      </trkpt>
      <trkpt lat="43.74997" lon="3.53325">
        <ele>480.7</ele>
        <time>2014-04-30T07:26:54Z</time>
      </trkpt>
      <trkpt lat="43.75005" lon="3.53338">
        <ele>479.7</ele>
        <time>2014-04-30T07:26:57Z</time>
      </trkpt>
      <trkpt lat="43.75016" lon="3.53345">
        <ele>479.3</ele>
        <time>2014-04-30T07:27:00Z</time>
      </trkpt>
      <trkpt lat="43.75025" lon="3.53342">
        <ele>480.1</ele>
        <time>2014-04-30T07:27:02Z</time>
      </trkpt>
      <trkpt lat="43.75036" lon="3.53336">
        <ele>480</ele>
        <time>2014-04-30T07:27:05Z</time>
      </trkpt>
      <trkpt lat="43.75047" lon="3.53335">
        <ele>481.1</ele>
        <time>2014-04-30T07:27:08Z</time>
      </trkpt>
      <trkpt lat="43.75059" lon="3.53333">
        <ele>481.9</ele>
        <time>2014-04-30T07:27:11Z</time>
      </trkpt>
      <trkpt lat="43.75068" lon="3.53333">
        <ele>481.4</ele>
        <time>2014-04-30T07:27:14Z</time>
      </trkpt>
      <trkpt lat="43.75078" lon="3.53337">
        <ele>480.8</ele>
        <time>2014-04-30T07:27:17Z</time>
      </trkpt>
      <trkpt lat="43.75088" lon="3.53344">
        <ele>481.5</ele>
        <time>2014-04-30T07:27:20Z</time>
      </trkpt>
      <trkpt lat="43.751" lon="3.53344">
        <ele>482.2</ele>
        <time>2014-04-30T07:27:23Z</time>
      </trkpt>
      <trkpt lat="43.75109" lon="3.53339">
        <ele>482.7</ele>
        <time>2014-04-30T07:27:25Z</time>
      </trkpt>
      <trkpt lat="43.75115" lon="3.53329">
        <ele>482.4</ele>
        <time>2014-04-30T07:27:27Z</time>
      </trkpt>
      <trkpt lat="43.75122" lon="3.53319">
        <ele>481.9</ele>
        <time>2014-04-30T07:27:29Z</time>
      </trkpt>
      <trkpt lat="43.75131" lon="3.53314">
        <ele>481.7</ele>
        <time>2014-04-30T07:27:31Z</time>
      </trkpt>
      <trkpt lat="43.75144" lon="3.53313">
        <ele>480.3</ele>
        <time>2014-04-30T07:27:34Z</time>
      </trkpt>
      <trkpt lat="43.75153" lon="3.53309">
        <ele>479.2</ele>
        <time>2014-04-30T07:27:36Z</time>
      </trkpt>
      <trkpt lat="43.75159" lon="3.53295">
        <ele>479.2</ele>
        <time>2014-04-30T07:27:39Z</time>
      </trkpt>
      <trkpt lat="43.75164" lon="3.53282">
        <ele>480.8</ele>
        <time>2014-04-30T07:27:42Z</time>
      </trkpt>
      <trkpt lat="43.75175" lon="3.53283">
        <ele>482.7</ele>
        <time>2014-04-30T07:27:46Z</time>
      </trkpt>
      <trkpt lat="43.75182" lon="3.53294">
        <ele>482.4</ele>
        <time>2014-04-30T07:27:49Z</time>
      </trkpt>
      <trkpt lat="43.75185" lon="3.53311">
        <ele>482.3</ele>
        <time>2014-04-30T07:27:52Z</time>
      </trkpt>
      <trkpt lat="43.75185" lon="3.53324">
        <ele>481.8</ele>
        <time>2014-04-30T07:27:54Z</time>
      </trkpt>
      <trkpt lat="43.75185" lon="3.53338">
        <ele>481.5</ele>
        <time>2014-04-30T07:27:56Z</time>
      </trkpt>
      <trkpt lat="43.75185" lon="3.53356">
        <ele>480.3</ele>
        <time>2014-04-30T07:27:58Z</time>
      </trkpt>
      <trkpt lat="43.75187" lon="3.53375">
        <ele>478.9</ele>
        <time>2014-04-30T07:28:00Z</time>
      </trkpt>
      <trkpt lat="43.75193" lon="3.53392">
        <ele>478.4</ele>
        <time>2014-04-30T07:28:02Z</time>
      </trkpt>
      <trkpt lat="43.752" lon="3.53406">
        <ele>478.4</ele>
        <time>2014-04-30T07:28:04Z</time>
      </trkpt>
      <trkpt lat="43.75207" lon="3.53419">
        <ele>478.7</ele>
        <time>2014-04-30T07:28:06Z</time>
      </trkpt>
      <trkpt lat="43.75214" lon="3.53429">
        <ele>478.6</ele>
        <time>2014-04-30T07:28:08Z</time>
      </trkpt>
      <trkpt lat="43.75224" lon="3.53435">
        <ele>478.3</ele>
        <time>2014-04-30T07:28:10Z</time>
      </trkpt>
      <trkpt lat="43.75234" lon="3.53433">
        <ele>478</ele>
        <time>2014-04-30T07:28:12Z</time>
      </trkpt>
      <trkpt lat="43.75244" lon="3.53426">
        <ele>478.6</ele>
        <time>2014-04-30T07:28:15Z</time>
      </trkpt>
      <trkpt lat="43.75249" lon="3.53417">
        <ele>478.6</ele>
        <time>2014-04-30T07:28:18Z</time>
      </trkpt>
      <trkpt lat="43.75255" lon="3.53405">
        <ele>478.3</ele>
        <time>2014-04-30T07:28:21Z</time>
      </trkpt>
      <trkpt lat="43.75262" lon="3.53395">
        <ele>478.8</ele>
        <time>2014-04-30T07:28:24Z</time>
      </trkpt>
      <trkpt lat="43.75273" lon="3.53389">
        <ele>478.5</ele>
        <time>2014-04-30T07:28:27Z</time>
      </trkpt>
      <trkpt lat="43.75282" lon="3.53387">
        <ele>477.9</ele>
        <time>2014-04-30T07:28:29Z</time>
      </trkpt>
      <trkpt lat="43.75292" lon="3.53385">
        <ele>478.4</ele>
        <time>2014-04-30T07:28:31Z</time>
      </trkpt>
      <trkpt lat="43.75301" lon="3.5338">
        <ele>478.6</ele>
        <time>2014-04-30T07:28:33Z</time>
      </trkpt>
      <trkpt lat="43.75309" lon="3.53373">
        <ele>478.9</ele>
        <time>2014-04-30T07:28:35Z</time>
      </trkpt>
      <trkpt lat="43.75317" lon="3.53361">
        <ele>478.9</ele>
        <time>2014-04-30T07:28:38Z</time>
      </trkpt>
      <trkpt lat="43.75323" lon="3.53349">
        <ele>479.6</ele>
        <time>2014-04-30T07:28:41Z</time>
      </trkpt>
      <trkpt lat="43.7533" lon="3.53337">
        <ele>479.4</ele>
        <time>2014-04-30T07:28:44Z</time>
      </trkpt>
      <trkpt lat="43.75336" lon="3.53326">
        <ele>479.6</ele>
        <time>2014-04-30T07:28:47Z</time>
      </trkpt>
      <trkpt lat="43.75344" lon="3.53318">
        <ele>480</ele>
        <time>2014-04-30T07:28:50Z</time>
      </trkpt>
      <trkpt lat="43.75353" lon="3.53313">
        <ele>480.8</ele>
        <time>2014-04-30T07:28:53Z</time>
      </trkpt>
      <trkpt lat="43.75362" lon="3.53316">
        <ele>481.3</ele>
        <time>2014-04-30T07:28:56Z</time>
      </trkpt>
      <trkpt lat="43.75371" lon="3.53325">
        <ele>480.7</ele>
        <time>2014-04-30T07:28:59Z</time>
      </trkpt>
      <trkpt lat="43.75384" lon="3.53326">
        <ele>479.7</ele>
        <time>2014-04-30T07:29:02Z</time>
      </trkpt>
      <trkpt lat="43.75394" lon="3.53314">
        <ele>478.9</ele>
        <time>2014-04-30T07:29:05Z</time>
      </trkpt>
      <trkpt lat="43.754" lon="3.533">
        <ele>478.4</ele>
        <time>2014-04-30T07:29:08Z</time>
      </trkpt>
      <trkpt lat="43.75405" lon="3.53287">
        <ele>479.6</ele>
        <time>2014-04-30T07:29:11Z</time>
      </trkpt>
      <trkpt lat="43.75408" lon="3.53273">
        <ele>480</ele>
        <time>2014-04-30T07:29:14Z</time>
      </trkpt>
      <trkpt lat="43.75413" lon="3.53261">
        <ele>480.9</ele>
        <time>2014-04-30T07:29:17Z</time>
      </trkpt>
      <trkpt lat="43.75422" lon="3.53256">
        <ele>481.2</ele>
        <time>2014-04-30T07:29:20Z</time>
      </trkpt>
      <trkpt lat="43.75432" lon="3.53261">
        <ele>482</ele>
        <time>2014-04-30T07:29:24Z</time>
      </trkpt>
      <trkpt lat="43.75438" lon="3.5327">
        <ele>483.1</ele>
        <time>2014-04-30T07:29:28Z</time>
      </trkpt>
      <trkpt lat="43.75443" lon="3.53282">
        <ele>484.9</ele>
        <time>2014-04-30T07:29:33Z</time>
      </trkpt>
      <trkpt lat="43.75446" lon="3.53294">
        <ele>484.6</ele>
        <time>2014-04-30T07:29:38Z</time>
      </trkpt>
      <trkpt lat="43.75449" lon="3.53306">
        <ele>485.3</ele>
        <time>2014-04-30T07:29:43Z</time>
      </trkpt>
      <trkpt lat="43.75449" lon="3.5332">
        <ele>486.4</ele>
        <time>2014-04-30T07:29:49Z</time>
      </trkpt>
      <trkpt lat="43.75455" lon="3.53332">
        <ele>488.6</ele>
        <time>2014-04-30T07:29:55Z</time>
      </trkpt>
      <trkpt lat="43.75463" lon="3.53341">
        <ele>489.4</ele>
        <time>2014-04-30T07:30:00Z</time>
      </trkpt>
      <trkpt lat="43.7547" lon="3.53349">
        <ele>488.9</ele>
        <time>2014-04-30T07:30:04Z</time>
      </trkpt>
      <trkpt lat="43.75478" lon="3.53359">
        <ele>489.9</ele>
        <time>2014-04-30T07:30:09Z</time>
      </trkpt>
      <trkpt lat="43.75481" lon="3.53371">
        <ele>490.7</ele>
        <time>2014-04-30T07:30:14Z</time>
      </trkpt>
      <trkpt lat="43.75484" lon="3.53384">
        <ele>488.4</ele>
        <time>2014-04-30T07:30:18Z</time>
      </trkpt>
      <trkpt lat="43.75489" lon="3.53399">
        <ele>488.5</ele>
        <time>2014-04-30T07:30:22Z</time>
      </trkpt>
      <trkpt lat="43.75493" lon="3.53412">
        <ele>488.5</ele>
        <time>2014-04-30T07:30:25Z</time>
      </trkpt>
      <trkpt lat="43.75497" lon="3.53429">
        <ele>488.4</ele>
        <time>2014-04-30T07:30:28Z</time>
      </trkpt>
      <trkpt lat="43.75502" lon="3.53441">
        <ele>488.1</ele>
        <time>2014-04-30T07:30:30Z</time>
      </trkpt>
      <trkpt lat="43.7551" lon="3.53453">
        <ele>487.6</ele>
        <time>2014-04-30T07:30:32Z</time>
      </trkpt>
      <trkpt lat="43.75518" lon="3.53465">
        <ele>487.1</ele>
        <time>2014-04-30T07:30:34Z</time>
      </trkpt>
      <trkpt lat="43.75525" lon="3.53476">
        <ele>486.8</ele>
        <time>2014-04-30T07:30:36Z</time>
      </trkpt>
      <trkpt lat="43.75535" lon="3.53484">
        <ele>486.8</ele>
        <time>2014-04-30T07:30:39Z</time>
      </trkpt>
      <trkpt lat="43.75544" lon="3.53481">
        <ele>488.8</ele>
        <time>2014-04-30T07:30:43Z</time>
      </trkpt>
      <trkpt lat="43.75552" lon="3.53472">
        <ele>490</ele>
        <time>2014-04-30T07:30:48Z</time>
      </trkpt>
      <trkpt lat="43.75556" lon="3.53459">
        <ele>490.8</ele>
        <time>2014-04-30T07:30:53Z</time>
      </trkpt>
      <trkpt lat="43.75558" lon="3.53444">
        <ele>491.8</ele>
        <time>2014-04-30T07:30:58Z</time>
      </trkpt>
      <trkpt lat="43.75558" lon="3.53432">
        <ele>491.9</ele>
        <time>2014-04-30T07:31:02Z</time>
      </trkpt>
      <trkpt lat="43.75559" lon="3.53418">
        <ele>491</ele>
        <time>2014-04-30T07:31:06Z</time>
      </trkpt>
      <trkpt lat="43.75562" lon="3.53403">
        <ele>492.5</ele>
        <time>2014-04-30T07:31:10Z</time>
      </trkpt>
      <trkpt lat="43.75565" lon="3.5339">
        <ele>493</ele>
        <time>2014-04-30T07:31:13Z</time>
      </trkpt>
      <trkpt lat="43.7557" lon="3.53378">
        <ele>493.1</ele>
        <time>2014-04-30T07:31:16Z</time>
      </trkpt>
      <trkpt lat="43.75577" lon="3.53368">
        <ele>492.9</ele>
        <time>2014-04-30T07:31:19Z</time>
      </trkpt>
      <trkpt lat="43.75585" lon="3.5336">
        <ele>492.9</ele>
        <time>2014-04-30T07:31:23Z</time>
      </trkpt>
      <trkpt lat="43.75593" lon="3.53352">
        <ele>494.8</ele>
        <time>2014-04-30T07:31:27Z</time>
      </trkpt>
      <trkpt lat="43.75602" lon="3.53345">
        <ele>496.7</ele>
        <time>2014-04-30T07:31:31Z</time>
      </trkpt>
      <trkpt lat="43.75612" lon="3.53339">
        <ele>498.1</ele>
        <time>2014-04-30T07:31:35Z</time>
      </trkpt>
      <trkpt lat="43.75621" lon="3.53331">
        <ele>497.6</ele>
        <time>2014-04-30T07:31:39Z</time>
      </trkpt>
      <trkpt lat="43.75631" lon="3.53324">
        <ele>498.5</ele>
        <time>2014-04-30T07:31:43Z</time>
      </trkpt>
      <trkpt lat="43.7564" lon="3.53315">
        <ele>499</ele>
        <time>2014-04-30T07:31:47Z</time>
      </trkpt>
      <trkpt lat="43.75651" lon="3.53311">
        <ele>499.2</ele>
        <time>2014-04-30T07:31:51Z</time>
      </trkpt>
      <trkpt lat="43.75661" lon="3.53317">
        <ele>499.3</ele>
        <time>2014-04-30T07:31:55Z</time>
      </trkpt>
      <trkpt lat="43.75662" lon="3.53333">
        <ele>499.8</ele>
        <time>2014-04-30T07:31:58Z</time>
      </trkpt>
      <trkpt lat="43.75661" lon="3.53346">
        <ele>500.1</ele>
        <time>2014-04-30T07:32:00Z</time>
      </trkpt>
      <trkpt lat="43.75659" lon="3.53358">
        <ele>500.1</ele>
        <time>2014-04-30T07:32:02Z</time>
      </trkpt>
      <trkpt lat="43.75656" lon="3.53371">
        <ele>499.2</ele>
        <time>2014-04-30T07:32:04Z</time>
      </trkpt>
      <trkpt lat="43.75653" lon="3.53385">
        <ele>498</ele>
        <time>2014-04-30T07:32:06Z</time>
      </trkpt>
      <trkpt lat="43.75657" lon="3.53399">
        <ele>497.4</ele>
        <time>2014-04-30T07:32:08Z</time>
      </trkpt>
      <trkpt lat="43.75665" lon="3.53408">
        <ele>497.1</ele>
        <time>2014-04-30T07:32:10Z</time>
      </trkpt>
      <trkpt lat="43.75674" lon="3.53414">
        <ele>497.4</ele>
        <time>2014-04-30T07:32:12Z</time>
      </trkpt>
      <trkpt lat="43.75684" lon="3.53423">
        <ele>497.4</ele>
        <time>2014-04-30T07:32:14Z</time>
      </trkpt>
      <trkpt lat="43.75695" lon="3.53428">
        <ele>497.2</ele>
        <time>2014-04-30T07:32:16Z</time>
      </trkpt>
      <trkpt lat="43.75705" lon="3.53428">
        <ele>497.2</ele>
        <time>2014-04-30T07:32:18Z</time>
      </trkpt>
      <trkpt lat="43.75716" lon="3.53419">
        <ele>496.8</ele>
        <time>2014-04-30T07:32:21Z</time>
      </trkpt>
      <trkpt lat="43.75722" lon="3.53406">
        <ele>496.8</ele>
        <time>2014-04-30T07:32:24Z</time>
      </trkpt>
      <trkpt lat="43.75727" lon="3.53393">
        <ele>496.6</ele>
        <time>2014-04-30T07:32:27Z</time>
      </trkpt>
      <trkpt lat="43.7573" lon="3.53381">
        <ele>497.1</ele>
        <time>2014-04-30T07:32:30Z</time>
      </trkpt>
      <trkpt lat="43.75735" lon="3.53369">
        <ele>498.5</ele>
        <time>2014-04-30T07:32:33Z</time>
      </trkpt>
      <trkpt lat="43.75741" lon="3.53359">
        <ele>499.5</ele>
        <time>2014-04-30T07:32:36Z</time>
      </trkpt>
      <trkpt lat="43.75749" lon="3.53349">
        <ele>499.3</ele>
        <time>2014-04-30T07:32:40Z</time>
      </trkpt>
      <trkpt lat="43.75756" lon="3.5334">
        <ele>499.2</ele>
        <time>2014-04-30T07:32:44Z</time>
      </trkpt>
      <trkpt lat="43.75765" lon="3.53335">
        <ele>499.9</ele>
        <time>2014-04-30T07:32:48Z</time>
      </trkpt>
      <trkpt lat="43.75775" lon="3.53338">
        <ele>500.7</ele>
        <time>2014-04-30T07:32:52Z</time>
      </trkpt>
      <trkpt lat="43.75783" lon="3.53347">
        <ele>500.8</ele>
        <time>2014-04-30T07:32:56Z</time>
      </trkpt>
      <trkpt lat="43.75787" lon="3.5336">
        <ele>501.7</ele>
        <time>2014-04-30T07:33:00Z</time>
      </trkpt>
      <trkpt lat="43.75789" lon="3.53374">
        <ele>502</ele>
        <time>2014-04-30T07:33:05Z</time>
      </trkpt>
      <trkpt lat="43.75792" lon="3.53387">
        <ele>503.4</ele>
        <time>2014-04-30T07:33:37Z</time>
      </trkpt>
      <trkpt lat="43.75797" lon="3.53397">
        <ele>503.4</ele>
        <time>2014-04-30T07:33:40Z</time>
      </trkpt>
      <trkpt lat="43.75803" lon="3.53407">
        <ele>503</ele>
        <time>2014-04-30T07:33:43Z</time>
      </trkpt>
      <trkpt lat="43.75812" lon="3.53418">
        <ele>503.1</ele>
        <time>2014-04-30T07:33:47Z</time>
      </trkpt>
      <trkpt lat="43.75821" lon="3.53428">
        <ele>503.9</ele>
        <time>2014-04-30T07:33:51Z</time>
      </trkpt>
      <trkpt lat="43.75829" lon="3.53439">
        <ele>504.3</ele>
        <time>2014-04-30T07:33:55Z</time>
      </trkpt>
      <trkpt lat="43.75835" lon="3.5345">
        <ele>505.2</ele>
        <time>2014-04-30T07:33:58Z</time>
      </trkpt>
      <trkpt lat="43.75839" lon="3.53465">
        <ele>504.8</ele>
        <time>2014-04-30T07:34:01Z</time>
      </trkpt>
      <trkpt lat="43.75842" lon="3.53482">
        <ele>505.3</ele>
        <time>2014-04-30T07:34:04Z</time>
      </trkpt>
      <trkpt lat="43.75844" lon="3.53495">
        <ele>504.8</ele>
        <time>2014-04-30T07:34:06Z</time>
      </trkpt>
      <trkpt lat="43.75849" lon="3.53506">
        <ele>504.6</ele>
        <time>2014-04-30T07:34:08Z</time>
      </trkpt>
      <trkpt lat="43.7586" lon="3.53511">
        <ele>504.8</ele>
        <time>2014-04-30T07:34:11Z</time>
      </trkpt>
      <trkpt lat="43.7587" lon="3.5351">
        <ele>505.5</ele>
        <time>2014-04-30T07:34:14Z</time>
      </trkpt>
      <trkpt lat="43.75879" lon="3.5351">
        <ele>506.3</ele>
        <time>2014-04-30T07:34:17Z</time>
      </trkpt>
      <trkpt lat="43.75891" lon="3.5351">
        <ele>507.2</ele>
        <time>2014-04-30T07:34:21Z</time>
      </trkpt>
      <trkpt lat="43.759" lon="3.53516">
        <ele>507.6</ele>
        <time>2014-04-30T07:34:24Z</time>
      </trkpt>
      <trkpt lat="43.75904" lon="3.53532">
        <ele>507.6</ele>
        <time>2014-04-30T07:34:27Z</time>
      </trkpt>
      <trkpt lat="43.75901" lon="3.53544">
        <ele>506.9</ele>
        <time>2014-04-30T07:34:29Z</time>
      </trkpt>
      <trkpt lat="43.75893" lon="3.53557">
        <ele>506.7</ele>
        <time>2014-04-30T07:34:31Z</time>
      </trkpt>
      <trkpt lat="43.75885" lon="3.53573">
        <ele>506.8</ele>
        <time>2014-04-30T07:34:33Z</time>
      </trkpt>
      <trkpt lat="43.75876" lon="3.5359">
        <ele>505.6</ele>
        <time>2014-04-30T07:34:35Z</time>
      </trkpt>
      <trkpt lat="43.75871" lon="3.53611">
        <ele>504.3</ele>
        <time>2014-04-30T07:34:37Z</time>
      </trkpt>
      <trkpt lat="43.75868" lon="3.53631">
        <ele>503</ele>
        <time>2014-04-30T07:34:39Z</time>
      </trkpt>
      <trkpt lat="43.75861" lon="3.53648">
        <ele>502</ele>
        <time>2014-04-30T07:34:41Z</time>
      </trkpt>
      <trkpt lat="43.75861" lon="3.53665">
        <ele>501.1</ele>
        <time>2014-04-30T07:34:43Z</time>
      </trkpt>
      <trkpt lat="43.75867" lon="3.53678">
        <ele>500.4</ele>
        <time>2014-04-30T07:34:45Z</time>
      </trkpt>
      <trkpt lat="43.75875" lon="3.53687">
        <ele>499.5</ele>
        <time>2014-04-30T07:34:47Z</time>
      </trkpt>
      <trkpt lat="43.75886" lon="3.53693">
        <ele>499</ele>
        <time>2014-04-30T07:34:50Z</time>
      </trkpt>
      <trkpt lat="43.75896" lon="3.53691">
        <ele>498.5</ele>
        <time>2014-04-30T07:34:56Z</time>
      </trkpt>
      <trkpt lat="43.75907" lon="3.53688">
        <ele>498.1</ele>
        <time>2014-04-30T07:35:01Z</time>
      </trkpt>
      <trkpt lat="43.75917" lon="3.5368">
        <ele>498.6</ele>
        <time>2014-04-30T07:35:05Z</time>
      </trkpt>
      <trkpt lat="43.75926" lon="3.53671">
        <ele>498.7</ele>
        <time>2014-04-30T07:35:09Z</time>
      </trkpt>
      <trkpt lat="43.75934" lon="3.53662">
        <ele>500.5</ele>
        <time>2014-04-30T07:35:13Z</time>
      </trkpt>
      <trkpt lat="43.75943" lon="3.53654">
        <ele>501.2</ele>
        <time>2014-04-30T07:35:17Z</time>
      </trkpt>
      <trkpt lat="43.75954" lon="3.53647">
        <ele>500.7</ele>
        <time>2014-04-30T07:35:21Z</time>
      </trkpt>
      <trkpt lat="43.75964" lon="3.53638">
        <ele>502.6</ele>
        <time>2014-04-30T07:35:25Z</time>
      </trkpt>
      <trkpt lat="43.75971" lon="3.53628">
        <ele>503.6</ele>
        <time>2014-04-30T07:35:29Z</time>
      </trkpt>
      <trkpt lat="43.75979" lon="3.53618">
        <ele>504.3</ele>
        <time>2014-04-30T07:35:33Z</time>
      </trkpt>
      <trkpt lat="43.75986" lon="3.5361">
        <ele>506</ele>
        <time>2014-04-30T07:35:39Z</time>
      </trkpt>
      <trkpt lat="43.75994" lon="3.53599">
        <ele>507.6</ele>
        <time>2014-04-30T07:35:45Z</time>
      </trkpt>
      <trkpt lat="43.76" lon="3.53589">
        <ele>509</ele>
        <time>2014-04-30T07:35:50Z</time>
      </trkpt>
      <trkpt lat="43.76004" lon="3.53577">
        <ele>509.4</ele>
        <time>2014-04-30T07:35:55Z</time>
      </trkpt>
      <trkpt lat="43.76008" lon="3.53564">
        <ele>510.2</ele>
        <time>2014-04-30T07:36:00Z</time>
      </trkpt>
      <trkpt lat="43.76013" lon="3.53552">
        <ele>510.9</ele>
        <time>2014-04-30T07:36:05Z</time>
      </trkpt>
      <trkpt lat="43.76022" lon="3.53546">
        <ele>510.6</ele>
        <time>2014-04-30T07:36:10Z</time>
      </trkpt>
      <trkpt lat="43.76032" lon="3.53541">
        <ele>512.3</ele>
        <time>2014-04-30T07:36:15Z</time>
      </trkpt>
      <trkpt lat="43.76042" lon="3.53534">
        <ele>513.1</ele>
        <time>2014-04-30T07:36:19Z</time>
      </trkpt>
      <trkpt lat="43.76049" lon="3.53526">
        <ele>512.5</ele>
        <time>2014-04-30T07:36:22Z</time>
      </trkpt>
      <trkpt lat="43.76058" lon="3.53513">
        <ele>511.6</ele>
        <time>2014-04-30T07:36:25Z</time>
      </trkpt>
      <trkpt lat="43.76066" lon="3.53503">
        <ele>510.3</ele>
        <time>2014-04-30T07:36:27Z</time>
      </trkpt>
      <trkpt lat="43.76076" lon="3.53491">
        <ele>508.9</ele>
        <time>2014-04-30T07:36:29Z</time>
      </trkpt>
      <trkpt lat="43.76086" lon="3.53478">
        <ele>507.6</ele>
        <time>2014-04-30T07:36:31Z</time>
      </trkpt>
      <trkpt lat="43.76098" lon="3.53466">
        <ele>506.8</ele>
        <time>2014-04-30T07:36:33Z</time>
      </trkpt>
      <trkpt lat="43.7611" lon="3.53455">
        <ele>505.5</ele>
        <time>2014-04-30T07:36:35Z</time>
      </trkpt>
      <trkpt lat="43.76123" lon="3.53445">
        <ele>504.3</ele>
        <time>2014-04-30T07:36:37Z</time>
      </trkpt>
      <trkpt lat="43.76137" lon="3.53437">
        <ele>502.6</ele>
        <time>2014-04-30T07:36:39Z</time>
      </trkpt>
      <trkpt lat="43.76152" lon="3.5343">
        <ele>500.9</ele>
        <time>2014-04-30T07:36:41Z</time>
      </trkpt>
      <trkpt lat="43.76167" lon="3.53427">
        <ele>500</ele>
        <time>2014-04-30T07:36:43Z</time>
      </trkpt>
      <trkpt lat="43.76182" lon="3.53427">
        <ele>499.3</ele>
        <time>2014-04-30T07:36:45Z</time>
      </trkpt>
      <trkpt lat="43.76197" lon="3.53426">
        <ele>498.8</ele>
        <time>2014-04-30T07:36:47Z</time>
      </trkpt>
      <trkpt lat="43.76212" lon="3.53424">
        <ele>496.6</ele>
        <time>2014-04-30T07:36:49Z</time>
      </trkpt>
      <trkpt lat="43.76228" lon="3.53423">
        <ele>494.7</ele>
        <time>2014-04-30T07:36:51Z</time>
      </trkpt>
      <trkpt lat="43.76241" lon="3.53424">
        <ele>493.2</ele>
        <time>2014-04-30T07:36:53Z</time>
      </trkpt>
      <trkpt lat="43.76252" lon="3.53431">
        <ele>491.6</ele>
        <time>2014-04-30T07:36:55Z</time>
      </trkpt>
      <trkpt lat="43.7626" lon="3.53445">
        <ele>490.1</ele>
        <time>2014-04-30T07:36:57Z</time>
      </trkpt>
      <trkpt lat="43.76264" lon="3.53463">
        <ele>487.1</ele>
        <time>2014-04-30T07:36:59Z</time>
      </trkpt>
      <trkpt lat="43.76269" lon="3.53483">
        <ele>485.6</ele>
        <time>2014-04-30T07:37:01Z</time>
      </trkpt>
      <trkpt lat="43.76273" lon="3.53503">
        <ele>484.9</ele>
        <time>2014-04-30T07:37:03Z</time>
      </trkpt>
      <trkpt lat="43.76277" lon="3.53522">
        <ele>483.2</ele>
        <time>2014-04-30T07:37:05Z</time>
      </trkpt>
      <trkpt lat="43.76276" lon="3.53539">
        <ele>481.2</ele>
        <time>2014-04-30T07:37:07Z</time>
      </trkpt>
      <trkpt lat="43.7627" lon="3.53553">
        <ele>479.4</ele>
        <time>2014-04-30T07:37:09Z</time>
      </trkpt>
      <trkpt lat="43.76262" lon="3.53561">
        <ele>478.3</ele>
        <time>2014-04-30T07:37:11Z</time>
      </trkpt>
      <trkpt lat="43.76267" lon="3.53572">
        <ele>476.6</ele>
        <time>2014-04-30T07:37:15Z</time>
      </trkpt>
      <trkpt lat="43.76278" lon="3.53568">
        <ele>476.3</ele>
        <time>2014-04-30T07:37:18Z</time>
      </trkpt>
      <trkpt lat="43.76287" lon="3.5356">
        <ele>475.6</ele>
        <time>2014-04-30T07:37:20Z</time>
      </trkpt>
      <trkpt lat="43.76297" lon="3.53548">
        <ele>474.6</ele>
        <time>2014-04-30T07:37:22Z</time>
      </trkpt>
      <trkpt lat="43.76306" lon="3.53536">
        <ele>472.3</ele>
        <time>2014-04-30T07:37:24Z</time>
      </trkpt>
      <trkpt lat="43.76315" lon="3.53527">
        <ele>470.9</ele>
        <time>2014-04-30T07:37:26Z</time>
      </trkpt>
      <trkpt lat="43.76325" lon="3.53522">
        <ele>470.1</ele>
        <time>2014-04-30T07:37:28Z</time>
      </trkpt>
      <trkpt lat="43.76335" lon="3.53517">
        <ele>468.9</ele>
        <time>2014-04-30T07:37:30Z</time>
      </trkpt>
      <trkpt lat="43.76346" lon="3.53513">
        <ele>467.6</ele>
        <time>2014-04-30T07:37:32Z</time>
      </trkpt>
      <trkpt lat="43.76357" lon="3.53511">
        <ele>465.3</ele>
        <time>2014-04-30T07:37:34Z</time>
      </trkpt>
      <trkpt lat="43.76368" lon="3.53509">
        <ele>463.8</ele>
        <time>2014-04-30T07:37:36Z</time>
      </trkpt>
      <trkpt lat="43.76378" lon="3.53507">
        <ele>462.8</ele>
        <time>2014-04-30T07:37:38Z</time>
      </trkpt>
      <trkpt lat="43.76389" lon="3.53506">
        <ele>463.1</ele>
        <time>2014-04-30T07:37:40Z</time>
      </trkpt>
      <trkpt lat="43.76399" lon="3.53505">
        <ele>463</ele>
        <time>2014-04-30T07:37:42Z</time>
      </trkpt>
      <trkpt lat="43.76409" lon="3.53501">
        <ele>462.6</ele>
        <time>2014-04-30T07:37:44Z</time>
      </trkpt>
      <trkpt lat="43.76418" lon="3.53494">
        <ele>462.2</ele>
        <time>2014-04-30T07:37:46Z</time>
      </trkpt>
      <trkpt lat="43.76426" lon="3.53487">
        <ele>461.7</ele>
        <time>2014-04-30T07:37:48Z</time>
      </trkpt>
      <trkpt lat="43.76434" lon="3.53478">
        <ele>461.9</ele>
        <time>2014-04-30T07:37:50Z</time>
      </trkpt>
      <trkpt lat="43.76439" lon="3.53467">
        <ele>461.9</ele>
        <time>2014-04-30T07:37:52Z</time>
      </trkpt>
      <trkpt lat="43.76443" lon="3.53455">
        <ele>461.5</ele>
        <time>2014-04-30T07:37:55Z</time>
      </trkpt>
      <trkpt lat="43.76449" lon="3.53442">
        <ele>461.5</ele>
        <time>2014-04-30T07:38:00Z</time>
      </trkpt>
      <trkpt lat="43.76455" lon="3.5343">
        <ele>462.6</ele>
        <time>2014-04-30T07:38:05Z</time>
      </trkpt>
      <trkpt lat="43.7646" lon="3.53418">
        <ele>463.4</ele>
        <time>2014-04-30T07:38:09Z</time>
      </trkpt>
      <trkpt lat="43.76463" lon="3.53407">
        <ele>463.9</ele>
        <time>2014-04-30T07:38:13Z</time>
      </trkpt>
      <trkpt lat="43.76469" lon="3.53395">
        <ele>464.9</ele>
        <time>2014-04-30T07:38:45Z</time>
      </trkpt>
      <trkpt lat="43.76477" lon="3.53388">
        <ele>465.1</ele>
        <time>2014-04-30T07:38:50Z</time>
      </trkpt>
      <trkpt lat="43.76486" lon="3.53381">
        <ele>465.5</ele>
        <time>2014-04-30T07:38:57Z</time>
      </trkpt>
      <trkpt lat="43.76495" lon="3.5338">
        <ele>465.8</ele>
        <time>2014-04-30T07:39:03Z</time>
      </trkpt>
      <trkpt lat="43.76506" lon="3.53375">
        <ele>466.2</ele>
        <time>2014-04-30T07:39:08Z</time>
      </trkpt>
      <trkpt lat="43.76513" lon="3.53367">
        <ele>464.9</ele>
        <time>2014-04-30T07:39:12Z</time>
      </trkpt>
      <trkpt lat="43.76522" lon="3.53362">
        <ele>465.5</ele>
        <time>2014-04-30T07:39:16Z</time>
      </trkpt>
      <trkpt lat="43.7653" lon="3.53355">
        <ele>467.2</ele>
        <time>2014-04-30T07:39:20Z</time>
      </trkpt>
      <trkpt lat="43.76541" lon="3.5335">
        <ele>467.3</ele>
        <time>2014-04-30T07:39:25Z</time>
      </trkpt>
      <trkpt lat="43.7655" lon="3.53346">
        <ele>467</ele>
        <time>2014-04-30T07:39:30Z</time>
      </trkpt>
      <trkpt lat="43.7656" lon="3.53343">
        <ele>466.1</ele>
        <time>2014-04-30T07:39:36Z</time>
      </trkpt>
      <trkpt lat="43.76569" lon="3.53338">
        <ele>467</ele>
        <time>2014-04-30T07:39:40Z</time>
      </trkpt>
      <trkpt lat="43.76578" lon="3.53332">
        <ele>467.1</ele>
        <time>2014-04-30T07:39:45Z</time>
      </trkpt>
      <trkpt lat="43.76586" lon="3.53327">
        <ele>467.1</ele>
        <time>2014-04-30T07:39:51Z</time>
      </trkpt>
      <trkpt lat="43.76594" lon="3.53321">
        <ele>467.1</ele>
        <time>2014-04-30T07:39:55Z</time>
      </trkpt>
      <trkpt lat="43.76602" lon="3.53313">
        <ele>465.8</ele>
        <time>2014-04-30T07:39:59Z</time>
      </trkpt>
      <trkpt lat="43.76609" lon="3.53306">
        <ele>466.5</ele>
        <time>2014-04-30T07:40:03Z</time>
      </trkpt>
      <trkpt lat="43.76618" lon="3.53297">
        <ele>467.5</ele>
        <time>2014-04-30T07:40:08Z</time>
      </trkpt>
      <trkpt lat="43.76626" lon="3.53291">
        <ele>468.5</ele>
        <time>2014-04-30T07:40:13Z</time>
      </trkpt>
      <trkpt lat="43.76635" lon="3.53282">
        <ele>468.3</ele>
        <time>2014-04-30T07:40:18Z</time>
      </trkpt>
      <trkpt lat="43.76644" lon="3.53276">
        <ele>469.2</ele>
        <time>2014-04-30T07:40:24Z</time>
      </trkpt>
      <trkpt lat="43.76652" lon="3.53268">
        <ele>469.8</ele>
        <time>2014-04-30T07:40:30Z</time>
      </trkpt>
      <trkpt lat="43.7666" lon="3.53261">
        <ele>471.2</ele>
        <time>2014-04-30T07:40:36Z</time>
      </trkpt>
      <trkpt lat="43.76669" lon="3.53254">
        <ele>470.7</ele>
        <time>2014-04-30T07:40:42Z</time>
      </trkpt>
      <trkpt lat="43.76677" lon="3.53247">
        <ele>472.9</ele>
        <time>2014-04-30T07:41:08Z</time>
      </trkpt>
      <trkpt lat="43.76684" lon="3.53238">
        <ele>472</ele>
        <time>2014-04-30T07:41:12Z</time>
      </trkpt>
      <trkpt lat="43.76693" lon="3.53229">
        <ele>472.7</ele>
        <time>2014-04-30T07:41:17Z</time>
      </trkpt>
      <trkpt lat="43.76701" lon="3.5322">
        <ele>473.3</ele>
        <time>2014-04-30T07:41:23Z</time>
      </trkpt>
      <trkpt lat="43.76708" lon="3.53211">
        <ele>475.2</ele>
        <time>2014-04-30T07:41:28Z</time>
      </trkpt>
      <trkpt lat="43.76717" lon="3.53204">
        <ele>475.5</ele>
        <time>2014-04-30T07:41:32Z</time>
      </trkpt>
      <trkpt lat="43.76727" lon="3.532">
        <ele>474.7</ele>
        <time>2014-04-30T07:41:37Z</time>
      </trkpt>
      <trkpt lat="43.76737" lon="3.53199">
        <ele>474.2</ele>
        <time>2014-04-30T07:41:42Z</time>
      </trkpt>
      <trkpt lat="43.76748" lon="3.53199">
        <ele>474</ele>
        <time>2014-04-30T07:41:48Z</time>
      </trkpt>
      <trkpt lat="43.76757" lon="3.53203">
        <ele>476</ele>
        <time>2014-04-30T07:41:55Z</time>
      </trkpt>
      <trkpt lat="43.76765" lon="3.53212">
        <ele>476.5</ele>
        <time>2014-04-30T07:42:00Z</time>
      </trkpt>
      <trkpt lat="43.76775" lon="3.53214">
        <ele>476.2</ele>
        <time>2014-04-30T07:42:04Z</time>
      </trkpt>
      <trkpt lat="43.76786" lon="3.53213">
        <ele>475.3</ele>
        <time>2014-04-30T07:42:08Z</time>
      </trkpt>
      <trkpt lat="43.76795" lon="3.53214">
        <ele>474.3</ele>
        <time>2014-04-30T07:42:13Z</time>
      </trkpt>
      <trkpt lat="43.76805" lon="3.5321">
        <ele>474.7</ele>
        <time>2014-04-30T07:42:19Z</time>
      </trkpt>
      <trkpt lat="43.76809" lon="3.53198">
        <ele>474.9</ele>
        <time>2014-04-30T07:42:23Z</time>
      </trkpt>
      <trkpt lat="43.76811" lon="3.53185">
        <ele>475.3</ele>
        <time>2014-04-30T07:42:29Z</time>
      </trkpt>
      <trkpt lat="43.76817" lon="3.53175">
        <ele>475</ele>
        <time>2014-04-30T07:42:35Z</time>
      </trkpt>
      <trkpt lat="43.76825" lon="3.53168">
        <ele>477.6</ele>
        <time>2014-04-30T07:42:41Z</time>
      </trkpt>
      <trkpt lat="43.76835" lon="3.53168">
        <ele>478.4</ele>
        <time>2014-04-30T07:42:57Z</time>
      </trkpt>
      <trkpt lat="43.76845" lon="3.53165">
        <ele>478.8</ele>
        <time>2014-04-30T07:43:01Z</time>
      </trkpt>
      <trkpt lat="43.76854" lon="3.53159">
        <ele>479.7</ele>
        <time>2014-04-30T07:43:05Z</time>
      </trkpt>
      <trkpt lat="43.76861" lon="3.53152">
        <ele>479.5</ele>
        <time>2014-04-30T07:43:09Z</time>
      </trkpt>
      <trkpt lat="43.76871" lon="3.53147">
        <ele>479.9</ele>
        <time>2014-04-30T07:43:14Z</time>
      </trkpt>
      <trkpt lat="43.7688" lon="3.53141">
        <ele>480.4</ele>
        <time>2014-04-30T07:43:19Z</time>
      </trkpt>
      <trkpt lat="43.76888" lon="3.53137">
        <ele>481.1</ele>
        <time>2014-04-30T07:43:24Z</time>
      </trkpt>
      <trkpt lat="43.76896" lon="3.53129">
        <ele>482.3</ele>
        <time>2014-04-30T07:43:29Z</time>
      </trkpt>
      <trkpt lat="43.76905" lon="3.53122">
        <ele>483.3</ele>
        <time>2014-04-30T07:43:35Z</time>
      </trkpt>
      <trkpt lat="43.76915" lon="3.5312">
        <ele>483.4</ele>
        <time>2014-04-30T07:43:42Z</time>
      </trkpt>
      <trkpt lat="43.76925" lon="3.53118">
        <ele>483</ele>
        <time>2014-04-30T07:43:50Z</time>
      </trkpt>
      <trkpt lat="43.76934" lon="3.53116">
        <ele>483.2</ele>
        <time>2014-04-30T07:43:55Z</time>
      </trkpt>
      <trkpt lat="43.76945" lon="3.53114">
        <ele>483.8</ele>
        <time>2014-04-30T07:44:01Z</time>
      </trkpt>
      <trkpt lat="43.76953" lon="3.53106">
        <ele>483.4</ele>
        <time>2014-04-30T07:44:08Z</time>
      </trkpt>
      <trkpt lat="43.76956" lon="3.53094">
        <ele>485</ele>
        <time>2014-04-30T07:44:15Z</time>
      </trkpt>
      <trkpt lat="43.7696" lon="3.53081">
        <ele>487</ele>
        <time>2014-04-30T07:44:26Z</time>
      </trkpt>
      <trkpt lat="43.7697" lon="3.53077">
        <ele>486.5</ele>
        <time>2014-04-30T07:44:38Z</time>
      </trkpt>
      <trkpt lat="43.76978" lon="3.53083">
        <ele>485.9</ele>
        <time>2014-04-30T07:44:42Z</time>
      </trkpt>
      <trkpt lat="43.76988" lon="3.53089">
        <ele>486.6</ele>
        <time>2014-04-30T07:44:48Z</time>
      </trkpt>
      <trkpt lat="43.76998" lon="3.53096">
        <ele>485.9</ele>
        <time>2014-04-30T07:44:53Z</time>
      </trkpt>
      <trkpt lat="43.77006" lon="3.53103">
        <ele>486.3</ele>
        <time>2014-04-30T07:44:58Z</time>
      </trkpt>
      <trkpt lat="43.77012" lon="3.53115">
        <ele>486.8</ele>
        <time>2014-04-30T07:45:03Z</time>
      </trkpt>
      <trkpt lat="43.77018" lon="3.53125">
        <ele>486.4</ele>
        <time>2014-04-30T07:45:07Z</time>
      </trkpt>
      <trkpt lat="43.77023" lon="3.53136">
        <ele>485.8</ele>
        <time>2014-04-30T07:45:11Z</time>
      </trkpt>
      <trkpt lat="43.77028" lon="3.53148">
        <ele>486.2</ele>
        <time>2014-04-30T07:45:15Z</time>
      </trkpt>
      <trkpt lat="43.77038" lon="3.53152">
        <ele>487.4</ele>
        <time>2014-04-30T07:45:20Z</time>
      </trkpt>
      <trkpt lat="43.77048" lon="3.53147">
        <ele>488.7</ele>
        <time>2014-04-30T07:45:25Z</time>
      </trkpt>
      <trkpt lat="43.77059" lon="3.53144">
        <ele>491.5</ele>
        <time>2014-04-30T07:45:30Z</time>
      </trkpt>
      <trkpt lat="43.77068" lon="3.53143">
        <ele>492</ele>
        <time>2014-04-30T07:45:35Z</time>
      </trkpt>
      <trkpt lat="43.77077" lon="3.53141">
        <ele>491.6</ele>
        <time>2014-04-30T07:45:40Z</time>
      </trkpt>
      <trkpt lat="43.77086" lon="3.53138">
        <ele>491.8</ele>
        <time>2014-04-30T07:45:45Z</time>
      </trkpt>
      <trkpt lat="43.77096" lon="3.53139">
        <ele>491.1</ele>
        <time>2014-04-30T07:45:50Z</time>
      </trkpt>
      <trkpt lat="43.77105" lon="3.53141">
        <ele>492.2</ele>
        <time>2014-04-30T07:45:56Z</time>
      </trkpt>
      <trkpt lat="43.77116" lon="3.53143">
        <ele>493.3</ele>
        <time>2014-04-30T07:46:02Z</time>
      </trkpt>
      <trkpt lat="43.77127" lon="3.53145">
        <ele>493.3</ele>
        <time>2014-04-30T07:46:07Z</time>
      </trkpt>
      <trkpt lat="43.77136" lon="3.53149">
        <ele>493.8</ele>
        <time>2014-04-30T07:46:12Z</time>
      </trkpt>
      <trkpt lat="43.77145" lon="3.53154">
        <ele>495.3</ele>
        <time>2014-04-30T07:46:17Z</time>
      </trkpt>
      <trkpt lat="43.77152" lon="3.53164">
        <ele>496.6</ele>
        <time>2014-04-30T07:46:22Z</time>
      </trkpt>
      <trkpt lat="43.77158" lon="3.53176">
        <ele>497.6</ele>
        <time>2014-04-30T07:46:27Z</time>
      </trkpt>
      <trkpt lat="43.77164" lon="3.53185">
        <ele>497.6</ele>
        <time>2014-04-30T07:46:32Z</time>
      </trkpt>
      <trkpt lat="43.77174" lon="3.5319">
        <ele>500.6</ele>
        <time>2014-04-30T07:46:38Z</time>
      </trkpt>
      <trkpt lat="43.77183" lon="3.53186">
        <ele>503.5</ele>
        <time>2014-04-30T07:46:44Z</time>
      </trkpt>
      <trkpt lat="43.77193" lon="3.53183">
        <ele>503</ele>
        <time>2014-04-30T07:46:50Z</time>
      </trkpt>
      <trkpt lat="43.77202" lon="3.53187">
        <ele>501.8</ele>
        <time>2014-04-30T07:46:56Z</time>
      </trkpt>
      <trkpt lat="43.77212" lon="3.53184">
        <ele>505.4</ele>
        <time>2014-04-30T07:47:33Z</time>
      </trkpt>
      <trkpt lat="43.77222" lon="3.53191">
        <ele>506.6</ele>
        <time>2014-04-30T07:47:53Z</time>
      </trkpt>
      <trkpt lat="43.77231" lon="3.53202">
        <ele>506.2</ele>
        <time>2014-04-30T07:47:57Z</time>
      </trkpt>
      <trkpt lat="43.77237" lon="3.53214">
        <ele>505.8</ele>
        <time>2014-04-30T07:48:01Z</time>
      </trkpt>
      <trkpt lat="43.77241" lon="3.53224">
        <ele>507.6</ele>
        <time>2014-04-30T07:48:05Z</time>
      </trkpt>
      <trkpt lat="43.77245" lon="3.53237">
        <ele>511.3</ele>
        <time>2014-04-30T07:48:10Z</time>
      </trkpt>
      <trkpt lat="43.77248" lon="3.5325">
        <ele>509.7</ele>
        <time>2014-04-30T07:48:15Z</time>
      </trkpt>
      <trkpt lat="43.77249" lon="3.53266">
        <ele>509.8</ele>
        <time>2014-04-30T07:48:20Z</time>
      </trkpt>
      <trkpt lat="43.77247" lon="3.5328">
        <ele>509.1</ele>
        <time>2014-04-30T07:48:24Z</time>
      </trkpt>
      <trkpt lat="43.77246" lon="3.53294">
        <ele>509.8</ele>
        <time>2014-04-30T07:48:28Z</time>
      </trkpt>
      <trkpt lat="43.77246" lon="3.53306">
        <ele>509.2</ele>
        <time>2014-04-30T07:48:32Z</time>
      </trkpt>
      <trkpt lat="43.77248" lon="3.5332">
        <ele>508.6</ele>
        <time>2014-04-30T07:48:36Z</time>
      </trkpt>
      <trkpt lat="43.77253" lon="3.53334">
        <ele>508.7</ele>
        <time>2014-04-30T07:48:40Z</time>
      </trkpt>
      <trkpt lat="43.7726" lon="3.53348">
        <ele>509.9</ele>
        <time>2014-04-30T07:48:44Z</time>
      </trkpt>
      <trkpt lat="43.77264" lon="3.5336">
        <ele>510.1</ele>
        <time>2014-04-30T07:48:47Z</time>
      </trkpt>
      <trkpt lat="43.77268" lon="3.53376">
        <ele>509.3</ele>
        <time>2014-04-30T07:48:50Z</time>
      </trkpt>
      <trkpt lat="43.7727" lon="3.53394">
        <ele>508.5</ele>
        <time>2014-04-30T07:48:53Z</time>
      </trkpt>
      <trkpt lat="43.77271" lon="3.53407">
        <ele>508.1</ele>
        <time>2014-04-30T07:48:55Z</time>
      </trkpt>
      <trkpt lat="43.77273" lon="3.53421">
        <ele>508.1</ele>
        <time>2014-04-30T07:48:57Z</time>
      </trkpt>
      <trkpt lat="43.77276" lon="3.53436">
        <ele>507.7</ele>
        <time>2014-04-30T07:48:59Z</time>
      </trkpt>
      <trkpt lat="43.77278" lon="3.5345">
        <ele>507.3</ele>
        <time>2014-04-30T07:49:01Z</time>
      </trkpt>
      <trkpt lat="43.77282" lon="3.53463">
        <ele>507.5</ele>
        <time>2014-04-30T07:49:03Z</time>
      </trkpt>
      <trkpt lat="43.77285" lon="3.53476">
        <ele>507.5</ele>
        <time>2014-04-30T07:49:05Z</time>
      </trkpt>
      <trkpt lat="43.77287" lon="3.53489">
        <ele>507.3</ele>
        <time>2014-04-30T07:49:07Z</time>
      </trkpt>
      <trkpt lat="43.7729" lon="3.53501">
        <ele>507.2</ele>
        <time>2014-04-30T07:49:09Z</time>
      </trkpt>
      <trkpt lat="43.77294" lon="3.53518">
        <ele>506.6</ele>
        <time>2014-04-30T07:49:12Z</time>
      </trkpt>
      <trkpt lat="43.77298" lon="3.53535">
        <ele>505.3</ele>
        <time>2014-04-30T07:49:15Z</time>
      </trkpt>
      <trkpt lat="43.77302" lon="3.53552">
        <ele>504.5</ele>
        <time>2014-04-30T07:49:18Z</time>
      </trkpt>
      <trkpt lat="43.77308" lon="3.53566">
        <ele>505</ele>
        <time>2014-04-30T07:49:21Z</time>
      </trkpt>
      <trkpt lat="43.77313" lon="3.53583">
        <ele>505.5</ele>
        <time>2014-04-30T07:49:24Z</time>
      </trkpt>
      <trkpt lat="43.77313" lon="3.53602">
        <ele>505.6</ele>
        <time>2014-04-30T07:49:27Z</time>
      </trkpt>
      <trkpt lat="43.77313" lon="3.53616">
        <ele>504.4</ele>
        <time>2014-04-30T07:49:29Z</time>
      </trkpt>
      <trkpt lat="43.77313" lon="3.5363">
        <ele>503.3</ele>
        <time>2014-04-30T07:49:31Z</time>
      </trkpt>
      <trkpt lat="43.77313" lon="3.53645">
        <ele>502.5</ele>
        <time>2014-04-30T07:49:33Z</time>
      </trkpt>
      <trkpt lat="43.77314" lon="3.53661">
        <ele>502.7</ele>
        <time>2014-04-30T07:49:35Z</time>
      </trkpt>
      <trkpt lat="43.77314" lon="3.53678">
        <ele>502.9</ele>
        <time>2014-04-30T07:49:37Z</time>
      </trkpt>
      <trkpt lat="43.77312" lon="3.53695">
        <ele>503</ele>
        <time>2014-04-30T07:49:39Z</time>
      </trkpt>
      <trkpt lat="43.77314" lon="3.53709">
        <ele>502.4</ele>
        <time>2014-04-30T07:49:41Z</time>
      </trkpt>
      <trkpt lat="43.7732" lon="3.5372">
        <ele>502.4</ele>
        <time>2014-04-30T07:49:45Z</time>
      </trkpt>
      <trkpt lat="43.77327" lon="3.53729">
        <ele>503.1</ele>
        <time>2014-04-30T07:49:50Z</time>
      </trkpt>
      <trkpt lat="43.77334" lon="3.53741">
        <ele>503.7</ele>
        <time>2014-04-30T07:49:55Z</time>
      </trkpt>
      <trkpt lat="43.7734" lon="3.53754">
        <ele>505.2</ele>
        <time>2014-04-30T07:50:00Z</time>
      </trkpt>
      <trkpt lat="43.77347" lon="3.53765">
        <ele>505.1</ele>
        <time>2014-04-30T07:50:04Z</time>
      </trkpt>
      <trkpt lat="43.77356" lon="3.53775">
        <ele>505.5</ele>
        <time>2014-04-30T07:50:08Z</time>
      </trkpt>
      <trkpt lat="43.77363" lon="3.53784">
        <ele>503.3</ele>
        <time>2014-04-30T07:50:43Z</time>
      </trkpt>
      <trkpt lat="43.7737" lon="3.53792">
        <ele>502.9</ele>
        <time>2014-04-30T07:50:46Z</time>
      </trkpt>
      <trkpt lat="43.77376" lon="3.53802">
        <ele>503.2</ele>
        <time>2014-04-30T07:50:50Z</time>
      </trkpt>
      <trkpt lat="43.77383" lon="3.53813">
        <ele>504</ele>
        <time>2014-04-30T07:50:59Z</time>
      </trkpt>
      <trkpt lat="43.77389" lon="3.53824">
        <ele>503.4</ele>
        <time>2014-04-30T07:51:04Z</time>
      </trkpt>
      <trkpt lat="43.77392" lon="3.53838">
        <ele>503.7</ele>
        <time>2014-04-30T07:51:09Z</time>
      </trkpt>
      <trkpt lat="43.77397" lon="3.53848">
        <ele>505</ele>
        <time>2014-04-30T07:51:14Z</time>
      </trkpt>
      <trkpt lat="43.77406" lon="3.53855">
        <ele>504.5</ele>
        <time>2014-04-30T07:51:19Z</time>
      </trkpt>
      <trkpt lat="43.77414" lon="3.53863">
        <ele>504.2</ele>
        <time>2014-04-30T07:51:24Z</time>
      </trkpt>
      <trkpt lat="43.77405" lon="3.53854">
        <ele>505.5</ele>
        <time>2014-04-30T07:51:53Z</time>
      </trkpt>
      <trkpt lat="43.77397" lon="3.53848">
        <ele>506.3</ele>
        <time>2014-04-30T07:51:57Z</time>
      </trkpt>
      <trkpt lat="43.77392" lon="3.53833">
        <ele>505.7</ele>
        <time>2014-04-30T07:52:01Z</time>
      </trkpt>
      <trkpt lat="43.77386" lon="3.53821">
        <ele>505.4</ele>
        <time>2014-04-30T07:52:04Z</time>
      </trkpt>
      <trkpt lat="43.77378" lon="3.53809">
        <ele>505.1</ele>
        <time>2014-04-30T07:52:07Z</time>
      </trkpt>
      <trkpt lat="43.77371" lon="3.53799">
        <ele>504.3</ele>
        <time>2014-04-30T07:52:10Z</time>
      </trkpt>
      <trkpt lat="43.77363" lon="3.5379">
        <ele>504.4</ele>
        <time>2014-04-30T07:52:14Z</time>
      </trkpt>
      <trkpt lat="43.77368" lon="3.53779">
        <ele>503.9</ele>
        <time>2014-04-30T07:52:29Z</time>
      </trkpt>
      <trkpt lat="43.7738" lon="3.53774">
        <ele>504</ele>
        <time>2014-04-30T07:52:33Z</time>
      </trkpt>
      <trkpt lat="43.77388" lon="3.5377">
        <ele>504.5</ele>
        <time>2014-04-30T07:52:36Z</time>
      </trkpt>
      <trkpt lat="43.774" lon="3.53764">
        <ele>504.7</ele>
        <time>2014-04-30T07:52:40Z</time>
      </trkpt>
      <trkpt lat="43.77411" lon="3.5376">
        <ele>504.1</ele>
        <time>2014-04-30T07:52:44Z</time>
      </trkpt>
      <trkpt lat="43.77421" lon="3.53753">
        <ele>505.3</ele>
        <time>2014-04-30T07:52:48Z</time>
      </trkpt>
      <trkpt lat="43.7743" lon="3.53746">
        <ele>506.5</ele>
        <time>2014-04-30T07:52:52Z</time>
      </trkpt>
      <trkpt lat="43.77438" lon="3.53736">
        <ele>507.3</ele>
        <time>2014-04-30T07:52:56Z</time>
      </trkpt>
      <trkpt lat="43.77447" lon="3.53727">
        <ele>508.7</ele>
        <time>2014-04-30T07:53:00Z</time>
      </trkpt>
      <trkpt lat="43.77458" lon="3.53723">
        <ele>509.1</ele>
        <time>2014-04-30T07:53:04Z</time>
      </trkpt>
      <trkpt lat="43.77469" lon="3.53725">
        <ele>510.4</ele>
        <time>2014-04-30T07:53:08Z</time>
      </trkpt>
      <trkpt lat="43.7748" lon="3.53729">
        <ele>511.4</ele>
        <time>2014-04-30T07:53:12Z</time>
      </trkpt>
      <trkpt lat="43.77492" lon="3.53733">
        <ele>511.7</ele>
        <time>2014-04-30T07:53:16Z</time>
      </trkpt>
      <trkpt lat="43.77502" lon="3.53736">
        <ele>512.3</ele>
        <time>2014-04-30T07:53:20Z</time>
      </trkpt>
      <trkpt lat="43.77513" lon="3.53739">
        <ele>513</ele>
        <time>2014-04-30T07:53:24Z</time>
      </trkpt>
      <trkpt lat="43.77523" lon="3.5374">
        <ele>513.9</ele>
        <time>2014-04-30T07:53:28Z</time>
      </trkpt>
      <trkpt lat="43.77533" lon="3.53741">
        <ele>513.8</ele>
        <time>2014-04-30T07:53:32Z</time>
      </trkpt>
      <trkpt lat="43.77544" lon="3.53743">
        <ele>516</ele>
        <time>2014-04-30T07:53:36Z</time>
      </trkpt>
      <trkpt lat="43.77553" lon="3.53749">
        <ele>516.1</ele>
        <time>2014-04-30T07:53:40Z</time>
      </trkpt>
      <trkpt lat="43.77563" lon="3.53756">
        <ele>516.3</ele>
        <time>2014-04-30T07:53:44Z</time>
      </trkpt>
      <trkpt lat="43.77572" lon="3.53763">
        <ele>517.4</ele>
        <time>2014-04-30T07:53:48Z</time>
      </trkpt>
      <trkpt lat="43.77581" lon="3.53771">
        <ele>518.7</ele>
        <time>2014-04-30T07:53:52Z</time>
      </trkpt>
      <trkpt lat="43.77591" lon="3.53776">
        <ele>519.4</ele>
        <time>2014-04-30T07:53:56Z</time>
      </trkpt>
      <trkpt lat="43.77601" lon="3.53779">
        <ele>519.4</ele>
        <time>2014-04-30T07:54:01Z</time>
      </trkpt>
      <trkpt lat="43.77611" lon="3.5378">
        <ele>522</ele>
        <time>2014-04-30T07:54:06Z</time>
      </trkpt>
      <trkpt lat="43.77621" lon="3.53783">
        <ele>522.5</ele>
        <time>2014-04-30T07:54:11Z</time>
      </trkpt>
      <trkpt lat="43.7763" lon="3.53785">
        <ele>523.7</ele>
        <time>2014-04-30T07:54:16Z</time>
      </trkpt>
      <trkpt lat="43.7764" lon="3.53788">
        <ele>524.7</ele>
        <time>2014-04-30T07:54:21Z</time>
      </trkpt>
      <trkpt lat="43.77649" lon="3.53789">
        <ele>527</ele>
        <time>2014-04-30T07:54:26Z</time>
      </trkpt>
      <trkpt lat="43.77659" lon="3.5379">
        <ele>527</ele>
        <time>2014-04-30T07:54:34Z</time>
      </trkpt>
      <trkpt lat="43.77669" lon="3.53789">
        <ele>529.9</ele>
        <time>2014-04-30T07:54:55Z</time>
      </trkpt>
      <trkpt lat="43.77678" lon="3.53783">
        <ele>530.5</ele>
        <time>2014-04-30T07:55:03Z</time>
      </trkpt>
      <trkpt lat="43.77686" lon="3.53775">
        <ele>531.8</ele>
        <time>2014-04-30T07:55:09Z</time>
      </trkpt>
      <trkpt lat="43.77698" lon="3.53777">
        <ele>537.8</ele>
        <time>2014-04-30T07:56:02Z</time>
      </trkpt>
      <trkpt lat="43.77708" lon="3.53778">
        <ele>537.2</ele>
        <time>2014-04-30T07:56:06Z</time>
      </trkpt>
      <trkpt lat="43.7772" lon="3.53777">
        <ele>542.8</ele>
        <time>2014-04-30T07:57:03Z</time>
      </trkpt>
      <trkpt lat="43.7773" lon="3.53778">
        <ele>542.8</ele>
        <time>2014-04-30T07:57:06Z</time>
      </trkpt>
      <trkpt lat="43.7774" lon="3.53781">
        <ele>546.4</ele>
        <time>2014-04-30T07:57:21Z</time>
      </trkpt>
      <trkpt lat="43.77751" lon="3.53782">
        <ele>549.7</ele>
        <time>2014-04-30T07:57:40Z</time>
      </trkpt>
      <trkpt lat="43.77761" lon="3.53783">
        <ele>550</ele>
        <time>2014-04-30T07:57:43Z</time>
      </trkpt>
      <trkpt lat="43.77771" lon="3.53786">
        <ele>551.3</ele>
        <time>2014-04-30T07:57:49Z</time>
      </trkpt>
      <trkpt lat="43.77782" lon="3.53792">
        <ele>552.2</ele>
        <time>2014-04-30T07:57:59Z</time>
      </trkpt>
      <trkpt lat="43.77792" lon="3.53797">
        <ele>556.2</ele>
        <time>2014-04-30T07:58:30Z</time>
      </trkpt>
      <trkpt lat="43.77802" lon="3.53802">
        <ele>557.7</ele>
        <time>2014-04-30T07:58:42Z</time>
      </trkpt>
      <trkpt lat="43.77812" lon="3.53808">
        <ele>557.5</ele>
        <time>2014-04-30T07:58:45Z</time>
      </trkpt>
      <trkpt lat="43.77821" lon="3.53815">
        <ele>559</ele>
        <time>2014-04-30T07:58:52Z</time>
      </trkpt>
      <trkpt lat="43.77831" lon="3.53821">
        <ele>561.7</ele>
        <time>2014-04-30T07:59:05Z</time>
      </trkpt>
      <trkpt lat="43.7784" lon="3.53825">
        <ele>564.5</ele>
        <time>2014-04-30T07:59:50Z</time>
      </trkpt>
      <trkpt lat="43.77851" lon="3.53822">
        <ele>570.1</ele>
        <time>2014-04-30T08:00:14Z</time>
      </trkpt>
      <trkpt lat="43.7786" lon="3.5382">
        <ele>570.2</ele>
        <time>2014-04-30T08:00:17Z</time>
      </trkpt>
      <trkpt lat="43.7787" lon="3.53817">
        <ele>573.6</ele>
        <time>2014-04-30T08:00:37Z</time>
      </trkpt>
      <trkpt lat="43.77878" lon="3.53812">
        <ele>575.4</ele>
        <time>2014-04-30T08:00:57Z</time>
      </trkpt>
      <trkpt lat="43.77889" lon="3.53808">
        <ele>581.2</ele>
        <time>2014-04-30T08:01:22Z</time>
      </trkpt>
      <trkpt lat="43.77898" lon="3.53808">
        <ele>582.9</ele>
        <time>2014-04-30T08:01:40Z</time>
      </trkpt>
      <trkpt lat="43.77908" lon="3.53809">
        <ele>584</ele>
        <time>2014-04-30T08:01:43Z</time>
      </trkpt>
      <trkpt lat="43.77917" lon="3.53815">
        <ele>587.3</ele>
        <time>2014-04-30T08:02:21Z</time>
      </trkpt>
      <trkpt lat="43.77927" lon="3.53822">
        <ele>586.8</ele>
        <time>2014-04-30T08:02:33Z</time>
      </trkpt>
      <trkpt lat="43.77935" lon="3.5383">
        <ele>586.9</ele>
        <time>2014-04-30T08:02:36Z</time>
      </trkpt>
      <trkpt lat="43.77944" lon="3.5384">
        <ele>587.6</ele>
        <time>2014-04-30T08:02:40Z</time>
      </trkpt>
      <trkpt lat="43.77955" lon="3.53846">
        <ele>587.9</ele>
        <time>2014-04-30T08:03:11Z</time>
      </trkpt>
      <trkpt lat="43.77966" lon="3.53852">
        <ele>592.9</ele>
        <time>2014-04-30T08:03:29Z</time>
      </trkpt>
      <trkpt lat="43.77975" lon="3.53856">
        <ele>592.4</ele>
        <time>2014-04-30T08:03:32Z</time>
      </trkpt>
      <trkpt lat="43.77986" lon="3.5386">
        <ele>592.4</ele>
        <time>2014-04-30T08:03:46Z</time>
      </trkpt>
      <trkpt lat="43.77996" lon="3.53864">
        <ele>592.5</ele>
        <time>2014-04-30T08:03:49Z</time>
      </trkpt>
      <trkpt lat="43.78006" lon="3.53866">
        <ele>592</ele>
        <time>2014-04-30T08:03:52Z</time>
      </trkpt>
      <trkpt lat="43.78017" lon="3.53866">
        <ele>591.4</ele>
        <time>2014-04-30T08:03:56Z</time>
      </trkpt>
      <trkpt lat="43.78026" lon="3.53868">
        <ele>591.9</ele>
        <time>2014-04-30T08:04:00Z</time>
      </trkpt>
      <trkpt lat="43.78036" lon="3.53867">
        <ele>592.7</ele>
        <time>2014-04-30T08:04:05Z</time>
      </trkpt>
      <trkpt lat="43.78045" lon="3.53867">
        <ele>594.2</ele>
        <time>2014-04-30T08:04:18Z</time>
      </trkpt>
      <trkpt lat="43.78054" lon="3.53868">
        <ele>595.8</ele>
        <time>2014-04-30T08:04:22Z</time>
      </trkpt>
      <trkpt lat="43.78063" lon="3.53871">
        <ele>597.3</ele>
        <time>2014-04-30T08:04:26Z</time>
      </trkpt>
      <trkpt lat="43.78073" lon="3.5387">
        <ele>600.2</ele>
        <time>2014-04-30T08:04:31Z</time>
      </trkpt>
      <trkpt lat="43.78083" lon="3.53876">
        <ele>603</ele>
        <time>2014-04-30T08:05:48Z</time>
      </trkpt>
      <trkpt lat="43.78094" lon="3.53881">
        <ele>603.8</ele>
        <time>2014-04-30T08:05:51Z</time>
      </trkpt>
      <trkpt lat="43.78104" lon="3.53884">
        <ele>604.9</ele>
        <time>2014-04-30T08:05:54Z</time>
      </trkpt>
      <trkpt lat="43.78113" lon="3.53885">
        <ele>608.4</ele>
        <time>2014-04-30T08:06:18Z</time>
      </trkpt>
      <trkpt lat="43.78123" lon="3.53885">
        <ele>612.6</ele>
        <time>2014-04-30T08:06:34Z</time>
      </trkpt>
      <trkpt lat="43.78132" lon="3.53885">
        <ele>613.5</ele>
        <time>2014-04-30T08:06:37Z</time>
      </trkpt>
      <trkpt lat="43.78143" lon="3.53886">
        <ele>616.1</ele>
        <time>2014-04-30T08:06:52Z</time>
      </trkpt>
      <trkpt lat="43.78154" lon="3.53885">
        <ele>617.2</ele>
        <time>2014-04-30T08:07:16Z</time>
      </trkpt>
      <trkpt lat="43.78164" lon="3.53885">
        <ele>619.5</ele>
        <time>2014-04-30T08:07:32Z</time>
      </trkpt>
      <trkpt lat="43.78174" lon="3.53886">
        <ele>619.1</ele>
        <time>2014-04-30T08:07:35Z</time>
      </trkpt>
      <trkpt lat="43.78183" lon="3.53886">
        <ele>623.1</ele>
        <time>2014-04-30T08:07:51Z</time>
      </trkpt>
      <trkpt lat="43.78194" lon="3.53886">
        <ele>625.7</ele>
        <time>2014-04-30T08:08:11Z</time>
      </trkpt>
      <trkpt lat="43.78203" lon="3.53885">
        <ele>629.4</ele>
        <time>2014-04-30T08:08:45Z</time>
      </trkpt>
      <trkpt lat="43.78212" lon="3.53885">
        <ele>630.7</ele>
        <time>2014-04-30T08:09:01Z</time>
      </trkpt>
      <trkpt lat="43.78224" lon="3.53886">
        <ele>635.9</ele>
        <time>2014-04-30T08:09:30Z</time>
      </trkpt>
      <trkpt lat="43.78234" lon="3.53883">
        <ele>643.2</ele>
        <time>2014-04-30T08:10:09Z</time>
      </trkpt>
      <trkpt lat="43.78244" lon="3.53876">
        <ele>648.9</ele>
        <time>2014-04-30T08:10:55Z</time>
      </trkpt>
      <trkpt lat="43.78254" lon="3.53872">
        <ele>656.3</ele>
        <time>2014-04-30T08:11:38Z</time>
      </trkpt>
      <trkpt lat="43.78264" lon="3.53868">
        <ele>662.8</ele>
        <time>2014-04-30T08:12:15Z</time>
      </trkpt>
      <trkpt lat="43.78275" lon="3.53869">
        <ele>668.4</ele>
        <time>2014-04-30T08:13:02Z</time>
      </trkpt>
      <trkpt lat="43.78284" lon="3.53876">
        <ele>672.4</ele>
        <time>2014-04-30T08:13:22Z</time>
      </trkpt>
      <trkpt lat="43.78294" lon="3.53887">
        <ele>675.1</ele>
        <time>2014-04-30T08:13:39Z</time>
      </trkpt>
      <trkpt lat="43.78301" lon="3.53895">
        <ele>676</ele>
        <time>2014-04-30T08:13:42Z</time>
      </trkpt>
      <trkpt lat="43.78309" lon="3.53902">
        <ele>679.6</ele>
        <time>2014-04-30T08:14:16Z</time>
      </trkpt>
      <trkpt lat="43.78316" lon="3.53909">
        <ele>682</ele>
        <time>2014-04-30T08:14:32Z</time>
      </trkpt>
      <trkpt lat="43.78325" lon="3.53915">
        <ele>684.7</ele>
        <time>2014-04-30T08:14:48Z</time>
      </trkpt>
      <trkpt lat="43.78333" lon="3.53921">
        <ele>684</ele>
        <time>2014-04-30T08:14:51Z</time>
      </trkpt>
      <trkpt lat="43.78341" lon="3.53929">
        <ele>688.9</ele>
        <time>2014-04-30T08:15:08Z</time>
      </trkpt>
      <trkpt lat="43.78349" lon="3.53937">
        <ele>687.3</ele>
        <time>2014-04-30T08:15:31Z</time>
      </trkpt>
      <trkpt lat="43.78357" lon="3.53945">
        <ele>691</ele>
        <time>2014-04-30T08:16:09Z</time>
      </trkpt>
      <trkpt lat="43.78365" lon="3.53955">
        <ele>690.2</ele>
        <time>2014-04-30T08:16:12Z</time>
      </trkpt>
      <trkpt lat="43.78373" lon="3.53966">
        <ele>690.5</ele>
        <time>2014-04-30T08:16:15Z</time>
      </trkpt>
      <trkpt lat="43.78382" lon="3.53975">
        <ele>691.1</ele>
        <time>2014-04-30T08:16:25Z</time>
      </trkpt>
      <trkpt lat="43.7839" lon="3.53983">
        <ele>691.9</ele>
        <time>2014-04-30T08:16:28Z</time>
      </trkpt>
      <trkpt lat="43.78396" lon="3.53992">
        <ele>692.1</ele>
        <time>2014-04-30T08:16:32Z</time>
      </trkpt>
      <trkpt lat="43.78404" lon="3.53998">
        <ele>699.8</ele>
        <time>2014-04-30T08:17:27Z</time>
      </trkpt>
      <trkpt lat="43.78412" lon="3.54005">
        <ele>699.6</ele>
        <time>2014-04-30T08:17:47Z</time>
      </trkpt>
      <trkpt lat="43.7842" lon="3.54013">
        <ele>700.1</ele>
        <time>2014-04-30T08:18:50Z</time>
      </trkpt>
      <trkpt lat="43.7843" lon="3.54022">
        <ele>701.8</ele>
        <time>2014-04-30T08:19:02Z</time>
      </trkpt>
      <trkpt lat="43.78438" lon="3.54031">
        <ele>701.9</ele>
        <time>2014-04-30T08:19:05Z</time>
      </trkpt>
      <trkpt lat="43.78446" lon="3.5404">
        <ele>700.8</ele>
        <time>2014-04-30T08:19:08Z</time>
      </trkpt>
      <trkpt lat="43.78452" lon="3.54051">
        <ele>699.5</ele>
        <time>2014-04-30T08:19:11Z</time>
      </trkpt>
      <trkpt lat="43.7846" lon="3.54059">
        <ele>699.7</ele>
        <time>2014-04-30T08:19:14Z</time>
      </trkpt>
      <trkpt lat="43.78495" lon="3.54089">
        <ele>700</ele>
        <time>2014-04-30T08:22:45Z</time>
      </trkpt>
      <trkpt lat="43.78508" lon="3.54095">
        <ele>698.3</ele>
        <time>2014-04-30T08:22:50Z</time>
      </trkpt>
      <trkpt lat="43.78519" lon="3.54098">
        <ele>698.3</ele>
        <time>2014-04-30T08:22:54Z</time>
      </trkpt>
      <trkpt lat="43.78528" lon="3.54098">
        <ele>698.1</ele>
        <time>2014-04-30T08:22:58Z</time>
      </trkpt>
      <trkpt lat="43.78537" lon="3.541">
        <ele>699.2</ele>
        <time>2014-04-30T08:23:13Z</time>
      </trkpt>
      <trkpt lat="43.78547" lon="3.541">
        <ele>698.6</ele>
        <time>2014-04-30T08:23:18Z</time>
      </trkpt>
      <trkpt lat="43.78556" lon="3.541">
        <ele>699.8</ele>
        <time>2014-04-30T08:23:36Z</time>
      </trkpt>
      <trkpt lat="43.78567" lon="3.54098">
        <ele>699.7</ele>
        <time>2014-04-30T08:23:41Z</time>
      </trkpt>
      <trkpt lat="43.78576" lon="3.54095">
        <ele>699.1</ele>
        <time>2014-04-30T08:23:46Z</time>
      </trkpt>
      <trkpt lat="43.78586" lon="3.54095">
        <ele>697.4</ele>
        <time>2014-04-30T08:23:51Z</time>
      </trkpt>
      <trkpt lat="43.78595" lon="3.54098">
        <ele>695.6</ele>
        <time>2014-04-30T08:23:56Z</time>
      </trkpt>
      <trkpt lat="43.78605" lon="3.54094">
        <ele>694.5</ele>
        <time>2014-04-30T08:24:02Z</time>
      </trkpt>
      <trkpt lat="43.78614" lon="3.54097">
        <ele>692</ele>
        <time>2014-04-30T08:24:07Z</time>
      </trkpt>
      <trkpt lat="43.78623" lon="3.54103">
        <ele>689.5</ele>
        <time>2014-04-30T08:24:12Z</time>
      </trkpt>
      <trkpt lat="43.78631" lon="3.5411">
        <ele>686.8</ele>
        <time>2014-04-30T08:24:16Z</time>
      </trkpt>
      <trkpt lat="43.78637" lon="3.54121">
        <ele>684.6</ele>
        <time>2014-04-30T08:24:19Z</time>
      </trkpt>
      <trkpt lat="43.78645" lon="3.54128">
        <ele>682</ele>
        <time>2014-04-30T08:24:23Z</time>
      </trkpt>
      <trkpt lat="43.78652" lon="3.54136">
        <ele>681.9</ele>
        <time>2014-04-30T08:24:28Z</time>
      </trkpt>
      <trkpt lat="43.78659" lon="3.54148">
        <ele>685.6</ele>
        <time>2014-04-30T08:25:00Z</time>
      </trkpt>
      <trkpt lat="43.78663" lon="3.54159">
        <ele>685.9</ele>
        <time>2014-04-30T08:25:03Z</time>
      </trkpt>
      <trkpt lat="43.78669" lon="3.5417">
        <ele>685.5</ele>
        <time>2014-04-30T08:25:07Z</time>
      </trkpt>
      <trkpt lat="43.78676" lon="3.5418">
        <ele>685.2</ele>
        <time>2014-04-30T08:25:11Z</time>
      </trkpt>
      <trkpt lat="43.7868" lon="3.54194">
        <ele>685.9</ele>
        <time>2014-04-30T08:25:16Z</time>
      </trkpt>
      <trkpt lat="43.78685" lon="3.54207">
        <ele>687.6</ele>
        <time>2014-04-30T08:25:21Z</time>
      </trkpt>
      <trkpt lat="43.7869" lon="3.54219">
        <ele>686</ele>
        <time>2014-04-30T08:25:26Z</time>
      </trkpt>
      <trkpt lat="43.78693" lon="3.54234">
        <ele>686.5</ele>
        <time>2014-04-30T08:25:30Z</time>
      </trkpt>
      <trkpt lat="43.78696" lon="3.54246">
        <ele>687.1</ele>
        <time>2014-04-30T08:25:33Z</time>
      </trkpt>
      <trkpt lat="43.78703" lon="3.54256">
        <ele>686.1</ele>
        <time>2014-04-30T08:25:37Z</time>
      </trkpt>
      <trkpt lat="43.7871" lon="3.54265">
        <ele>686.9</ele>
        <time>2014-04-30T08:25:42Z</time>
      </trkpt>
      <trkpt lat="43.78716" lon="3.54278">
        <ele>686.1</ele>
        <time>2014-04-30T08:25:46Z</time>
      </trkpt>
      <trkpt lat="43.78725" lon="3.54282">
        <ele>685.7</ele>
        <time>2014-04-30T08:25:50Z</time>
      </trkpt>
      <trkpt lat="43.78734" lon="3.54284">
        <ele>687.1</ele>
        <time>2014-04-30T08:25:55Z</time>
      </trkpt>
      <trkpt lat="43.78743" lon="3.54284">
        <ele>689</ele>
        <time>2014-04-30T08:26:00Z</time>
      </trkpt>
      <trkpt lat="43.78753" lon="3.54281">
        <ele>689.6</ele>
        <time>2014-04-30T08:26:06Z</time>
      </trkpt>
      <trkpt lat="43.78762" lon="3.54281">
        <ele>690.3</ele>
        <time>2014-04-30T08:26:11Z</time>
      </trkpt>
      <trkpt lat="43.78772" lon="3.54282">
        <ele>691.7</ele>
        <time>2014-04-30T08:26:16Z</time>
      </trkpt>
      <trkpt lat="43.78781" lon="3.54284">
        <ele>691.9</ele>
        <time>2014-04-30T08:26:21Z</time>
      </trkpt>
      <trkpt lat="43.78791" lon="3.54288">
        <ele>692.7</ele>
        <time>2014-04-30T08:26:27Z</time>
      </trkpt>
      <trkpt lat="43.78801" lon="3.54287">
        <ele>693.7</ele>
        <time>2014-04-30T08:26:34Z</time>
      </trkpt>
      <trkpt lat="43.7881" lon="3.54286">
        <ele>695.8</ele>
        <time>2014-04-30T08:26:40Z</time>
      </trkpt>
      <trkpt lat="43.78822" lon="3.54288">
        <ele>702.8</ele>
        <time>2014-04-30T08:27:13Z</time>
      </trkpt>
      <trkpt lat="43.78832" lon="3.54291">
        <ele>703.3</ele>
        <time>2014-04-30T08:27:24Z</time>
      </trkpt>
      <trkpt lat="43.78843" lon="3.54295">
        <ele>704.1</ele>
        <time>2014-04-30T08:27:27Z</time>
      </trkpt>
      <trkpt lat="43.78854" lon="3.54301">
        <ele>706.8</ele>
        <time>2014-04-30T08:27:37Z</time>
      </trkpt>
      <trkpt lat="43.78864" lon="3.54306">
        <ele>707</ele>
        <time>2014-04-30T08:27:40Z</time>
      </trkpt>
      <trkpt lat="43.78875" lon="3.5431">
        <ele>708.2</ele>
        <time>2014-04-30T08:27:45Z</time>
      </trkpt>
      <trkpt lat="43.78885" lon="3.54315">
        <ele>707.9</ele>
        <time>2014-04-30T08:27:49Z</time>
      </trkpt>
      <trkpt lat="43.78895" lon="3.54318">
        <ele>708.3</ele>
        <time>2014-04-30T08:27:53Z</time>
      </trkpt>
      <trkpt lat="43.78904" lon="3.54321">
        <ele>707.8</ele>
        <time>2014-04-30T08:27:57Z</time>
      </trkpt>
      <trkpt lat="43.78914" lon="3.54323">
        <ele>708.5</ele>
        <time>2014-04-30T08:28:02Z</time>
      </trkpt>
      <trkpt lat="43.78925" lon="3.54323">
        <ele>708.9</ele>
        <time>2014-04-30T08:28:08Z</time>
      </trkpt>
      <trkpt lat="43.78935" lon="3.54324">
        <ele>711</ele>
        <time>2014-04-30T08:28:14Z</time>
      </trkpt>
      <trkpt lat="43.78945" lon="3.54325">
        <ele>713</ele>
        <time>2014-04-30T08:28:20Z</time>
      </trkpt>
      <trkpt lat="43.78955" lon="3.54325">
        <ele>714.6</ele>
        <time>2014-04-30T08:28:26Z</time>
      </trkpt>
      <trkpt lat="43.78965" lon="3.54323">
        <ele>715.4</ele>
        <time>2014-04-30T08:28:32Z</time>
      </trkpt>
      <trkpt lat="43.78975" lon="3.54323">
        <ele>717.3</ele>
        <time>2014-04-30T08:28:38Z</time>
      </trkpt>
      <trkpt lat="43.78984" lon="3.54322">
        <ele>717.1</ele>
        <time>2014-04-30T08:28:44Z</time>
      </trkpt>
      <trkpt lat="43.78994" lon="3.54321">
        <ele>719</ele>
        <time>2014-04-30T08:28:50Z</time>
      </trkpt>
      <trkpt lat="43.79003" lon="3.54321">
        <ele>719</ele>
        <time>2014-04-30T08:28:56Z</time>
      </trkpt>
      <trkpt lat="43.79013" lon="3.5432">
        <ele>719.6</ele>
        <time>2014-04-30T08:29:02Z</time>
      </trkpt>
      <trkpt lat="43.79023" lon="3.5432">
        <ele>719</ele>
        <time>2014-04-30T08:29:08Z</time>
      </trkpt>
      <trkpt lat="43.79032" lon="3.54321">
        <ele>721.1</ele>
        <time>2014-04-30T08:29:14Z</time>
      </trkpt>
      <trkpt lat="43.79042" lon="3.54322">
        <ele>722</ele>
        <time>2014-04-30T08:29:20Z</time>
      </trkpt>
      <trkpt lat="43.79051" lon="3.54323">
        <ele>723.1</ele>
        <time>2014-04-30T08:29:25Z</time>
      </trkpt>
      <trkpt lat="43.79062" lon="3.54325">
        <ele>723</ele>
        <time>2014-04-30T08:29:31Z</time>
      </trkpt>
      <trkpt lat="43.79071" lon="3.54326">
        <ele>722.9</ele>
        <time>2014-04-30T08:29:36Z</time>
      </trkpt>
      <trkpt lat="43.79081" lon="3.54326">
        <ele>723.8</ele>
        <time>2014-04-30T08:29:41Z</time>
      </trkpt>
      <trkpt lat="43.79091" lon="3.54323">
        <ele>724</ele>
        <time>2014-04-30T08:29:46Z</time>
      </trkpt>
      <trkpt lat="43.79101" lon="3.54319">
        <ele>724</ele>
        <time>2014-04-30T08:29:51Z</time>
      </trkpt>
      <trkpt lat="43.7911" lon="3.54318">
        <ele>725.1</ele>
        <time>2014-04-30T08:29:56Z</time>
      </trkpt>
      <trkpt lat="43.7912" lon="3.54321">
        <ele>726.1</ele>
        <time>2014-04-30T08:30:01Z</time>
      </trkpt>
      <trkpt lat="43.79129" lon="3.54322">
        <ele>727.6</ele>
        <time>2014-04-30T08:30:06Z</time>
      </trkpt>
      <trkpt lat="43.79139" lon="3.54324">
        <ele>729.2</ele>
        <time>2014-04-30T08:30:12Z</time>
      </trkpt>
      <trkpt lat="43.7915" lon="3.54326">
        <ele>729.8</ele>
        <time>2014-04-30T08:30:21Z</time>
      </trkpt>
      <trkpt lat="43.79159" lon="3.5433">
        <ele>730.6</ele>
        <time>2014-04-30T08:30:25Z</time>
      </trkpt>
      <trkpt lat="43.79169" lon="3.54333">
        <ele>730.5</ele>
        <time>2014-04-30T08:30:30Z</time>
      </trkpt>
      <trkpt lat="43.79179" lon="3.54338">
        <ele>730.6</ele>
        <time>2014-04-30T08:30:35Z</time>
      </trkpt>
      <trkpt lat="43.79187" lon="3.54345">
        <ele>730.8</ele>
        <time>2014-04-30T08:30:40Z</time>
      </trkpt>
      <trkpt lat="43.79195" lon="3.54352">
        <ele>731.2</ele>
        <time>2014-04-30T08:30:45Z</time>
      </trkpt>
      <trkpt lat="43.79203" lon="3.54361">
        <ele>732.1</ele>
        <time>2014-04-30T08:30:50Z</time>
      </trkpt>
      <trkpt lat="43.79211" lon="3.54369">
        <ele>733.5</ele>
        <time>2014-04-30T08:30:55Z</time>
      </trkpt>
      <trkpt lat="43.79217" lon="3.5438">
        <ele>733.2</ele>
        <time>2014-04-30T08:31:00Z</time>
      </trkpt>
      <trkpt lat="43.79224" lon="3.5439">
        <ele>734.7</ele>
        <time>2014-04-30T08:31:05Z</time>
      </trkpt>
      <trkpt lat="43.79233" lon="3.544">
        <ele>735.7</ele>
        <time>2014-04-30T08:31:10Z</time>
      </trkpt>
      <trkpt lat="43.79241" lon="3.5441">
        <ele>734.8</ele>
        <time>2014-04-30T08:31:15Z</time>
      </trkpt>
      <trkpt lat="43.79246" lon="3.54422">
        <ele>735.1</ele>
        <time>2014-04-30T08:31:19Z</time>
      </trkpt>
      <trkpt lat="43.79251" lon="3.54432">
        <ele>736.2</ele>
        <time>2014-04-30T08:31:22Z</time>
      </trkpt>
      <trkpt lat="43.79256" lon="3.54444">
        <ele>736.1</ele>
        <time>2014-04-30T08:31:25Z</time>
      </trkpt>
      <trkpt lat="43.79262" lon="3.54458">
        <ele>735.6</ele>
        <time>2014-04-30T08:31:28Z</time>
      </trkpt>
      <trkpt lat="43.79269" lon="3.54471">
        <ele>734.5</ele>
        <time>2014-04-30T08:31:31Z</time>
      </trkpt>
      <trkpt lat="43.79274" lon="3.54483">
        <ele>734.6</ele>
        <time>2014-04-30T08:31:34Z</time>
      </trkpt>
      <trkpt lat="43.79279" lon="3.54494">
        <ele>734.5</ele>
        <time>2014-04-30T08:31:38Z</time>
      </trkpt>
      <trkpt lat="43.79286" lon="3.54506">
        <ele>733.9</ele>
        <time>2014-04-30T08:31:42Z</time>
      </trkpt>
      <trkpt lat="43.79291" lon="3.54518">
        <ele>733.8</ele>
        <time>2014-04-30T08:31:46Z</time>
      </trkpt>
      <trkpt lat="43.79297" lon="3.54528">
        <ele>733.8</ele>
        <time>2014-04-30T08:31:50Z</time>
      </trkpt>
      <trkpt lat="43.79303" lon="3.54538">
        <ele>734.9</ele>
        <time>2014-04-30T08:31:54Z</time>
      </trkpt>
      <trkpt lat="43.79309" lon="3.54549">
        <ele>736.4</ele>
        <time>2014-04-30T08:31:58Z</time>
      </trkpt>
      <trkpt lat="43.79313" lon="3.54561">
        <ele>737.1</ele>
        <time>2014-04-30T08:32:02Z</time>
      </trkpt>
      <trkpt lat="43.79316" lon="3.54574">
        <ele>738.6</ele>
        <time>2014-04-30T08:32:06Z</time>
      </trkpt>
      <trkpt lat="43.7932" lon="3.54587">
        <ele>738.6</ele>
        <time>2014-04-30T08:32:10Z</time>
      </trkpt>
      <trkpt lat="43.79325" lon="3.54598">
        <ele>738.3</ele>
        <time>2014-04-30T08:32:14Z</time>
      </trkpt>
      <trkpt lat="43.79331" lon="3.54609">
        <ele>739</ele>
        <time>2014-04-30T08:32:18Z</time>
      </trkpt>
      <trkpt lat="43.79337" lon="3.54617">
        <ele>739.6</ele>
        <time>2014-04-30T08:32:22Z</time>
      </trkpt>
      <trkpt lat="43.79344" lon="3.54628">
        <ele>739.9</ele>
        <time>2014-04-30T08:32:28Z</time>
      </trkpt>
      <trkpt lat="43.79349" lon="3.5464">
        <ele>739</ele>
        <time>2014-04-30T08:32:33Z</time>
      </trkpt>
      <trkpt lat="43.79356" lon="3.5465">
        <ele>739</ele>
        <time>2014-04-30T08:32:37Z</time>
      </trkpt>
      <trkpt lat="43.79364" lon="3.54662">
        <ele>739</ele>
        <time>2014-04-30T08:32:41Z</time>
      </trkpt>
      <trkpt lat="43.79372" lon="3.54669">
        <ele>738.2</ele>
        <time>2014-04-30T08:32:44Z</time>
      </trkpt>
      <trkpt lat="43.79381" lon="3.54677">
        <ele>737.7</ele>
        <time>2014-04-30T08:32:47Z</time>
      </trkpt>
      <trkpt lat="43.79392" lon="3.54685">
        <ele>737.6</ele>
        <time>2014-04-30T08:32:50Z</time>
      </trkpt>
      <trkpt lat="43.79403" lon="3.54692">
        <ele>737.6</ele>
        <time>2014-04-30T08:32:53Z</time>
      </trkpt>
      <trkpt lat="43.79415" lon="3.54699">
        <ele>737.6</ele>
        <time>2014-04-30T08:32:56Z</time>
      </trkpt>
      <trkpt lat="43.79427" lon="3.54708">
        <ele>737.4</ele>
        <time>2014-04-30T08:32:59Z</time>
      </trkpt>
      <trkpt lat="43.79436" lon="3.54717">
        <ele>736.7</ele>
        <time>2014-04-30T08:33:02Z</time>
      </trkpt>
      <trkpt lat="43.79443" lon="3.54726">
        <ele>736.2</ele>
        <time>2014-04-30T08:33:04Z</time>
      </trkpt>
      <trkpt lat="43.79449" lon="3.54735">
        <ele>735.2</ele>
        <time>2014-04-30T08:33:06Z</time>
      </trkpt>
      <trkpt lat="43.79455" lon="3.54745">
        <ele>734.2</ele>
        <time>2014-04-30T08:33:08Z</time>
      </trkpt>
      <trkpt lat="43.79463" lon="3.5476">
        <ele>732.4</ele>
        <time>2014-04-30T08:33:11Z</time>
      </trkpt>
      <trkpt lat="43.7947" lon="3.54775">
        <ele>730.9</ele>
        <time>2014-04-30T08:33:14Z</time>
      </trkpt>
      <trkpt lat="43.79475" lon="3.54787">
        <ele>730</ele>
        <time>2014-04-30T08:33:16Z</time>
      </trkpt>
      <trkpt lat="43.7948" lon="3.54797">
        <ele>729</ele>
        <time>2014-04-30T08:33:18Z</time>
      </trkpt>
      <trkpt lat="43.79487" lon="3.54807">
        <ele>728.1</ele>
        <time>2014-04-30T08:33:20Z</time>
      </trkpt>
      <trkpt lat="43.79497" lon="3.54814">
        <ele>726.1</ele>
        <time>2014-04-30T08:33:22Z</time>
      </trkpt>
      <trkpt lat="43.79506" lon="3.5482">
        <ele>725.3</ele>
        <time>2014-04-30T08:33:24Z</time>
      </trkpt>
      <trkpt lat="43.79514" lon="3.54829">
        <ele>725</ele>
        <time>2014-04-30T08:33:26Z</time>
      </trkpt>
      <trkpt lat="43.79523" lon="3.54839">
        <ele>723.5</ele>
        <time>2014-04-30T08:33:28Z</time>
      </trkpt>
      <trkpt lat="43.79532" lon="3.54847">
        <ele>722.7</ele>
        <time>2014-04-30T08:33:30Z</time>
      </trkpt>
      <trkpt lat="43.7954" lon="3.54857">
        <ele>722.3</ele>
        <time>2014-04-30T08:33:33Z</time>
      </trkpt>
      <trkpt lat="43.79545" lon="3.54871">
        <ele>720.6</ele>
        <time>2014-04-30T08:33:36Z</time>
      </trkpt>
      <trkpt lat="43.79549" lon="3.54882">
        <ele>720.1</ele>
        <time>2014-04-30T08:33:38Z</time>
      </trkpt>
      <trkpt lat="43.79555" lon="3.54895">
        <ele>719.3</ele>
        <time>2014-04-30T08:33:40Z</time>
      </trkpt>
      <trkpt lat="43.7956" lon="3.54908">
        <ele>718.4</ele>
        <time>2014-04-30T08:33:42Z</time>
      </trkpt>
      <trkpt lat="43.79565" lon="3.54922">
        <ele>716.6</ele>
        <time>2014-04-30T08:33:44Z</time>
      </trkpt>
      <trkpt lat="43.79572" lon="3.54935">
        <ele>715.7</ele>
        <time>2014-04-30T08:33:46Z</time>
      </trkpt>
      <trkpt lat="43.79579" lon="3.54948">
        <ele>714.5</ele>
        <time>2014-04-30T08:33:48Z</time>
      </trkpt>
      <trkpt lat="43.79584" lon="3.5496">
        <ele>713.2</ele>
        <time>2014-04-30T08:33:50Z</time>
      </trkpt>
      <trkpt lat="43.79587" lon="3.54976">
        <ele>712.2</ele>
        <time>2014-04-30T08:33:53Z</time>
      </trkpt>
      <trkpt lat="43.79588" lon="3.54989">
        <ele>712.1</ele>
        <time>2014-04-30T08:33:56Z</time>
      </trkpt>
      <trkpt lat="43.79593" lon="3.55">
        <ele>711.2</ele>
        <time>2014-04-30T08:33:59Z</time>
      </trkpt>
      <trkpt lat="43.79601" lon="3.55007">
        <ele>710.6</ele>
        <time>2014-04-30T08:34:02Z</time>
      </trkpt>
      <trkpt lat="43.7961" lon="3.55012">
        <ele>709.5</ele>
        <time>2014-04-30T08:34:06Z</time>
      </trkpt>
      <trkpt lat="43.79621" lon="3.55014">
        <ele>708.9</ele>
        <time>2014-04-30T08:34:11Z</time>
      </trkpt>
      <trkpt lat="43.79631" lon="3.55015">
        <ele>709.1</ele>
        <time>2014-04-30T08:34:15Z</time>
      </trkpt>
      <trkpt lat="43.79641" lon="3.55014">
        <ele>709.1</ele>
        <time>2014-04-30T08:34:18Z</time>
      </trkpt>
      <trkpt lat="43.79652" lon="3.55015">
        <ele>709</ele>
        <time>2014-04-30T08:34:21Z</time>
      </trkpt>
      <trkpt lat="43.79664" lon="3.55016">
        <ele>708.4</ele>
        <time>2014-04-30T08:34:24Z</time>
      </trkpt>
      <trkpt lat="43.79678" lon="3.55019">
        <ele>708.6</ele>
        <time>2014-04-30T08:34:27Z</time>
      </trkpt>
      <trkpt lat="43.79691" lon="3.55019">
        <ele>708.1</ele>
        <time>2014-04-30T08:34:30Z</time>
      </trkpt>
      <trkpt lat="43.79701" lon="3.55023">
        <ele>708</ele>
        <time>2014-04-30T08:34:33Z</time>
      </trkpt>
      <trkpt lat="43.79712" lon="3.55028">
        <ele>709.1</ele>
        <time>2014-04-30T08:34:36Z</time>
      </trkpt>
      <trkpt lat="43.79721" lon="3.55039">
        <ele>709.1</ele>
        <time>2014-04-30T08:34:39Z</time>
      </trkpt>
      <trkpt lat="43.79726" lon="3.55053">
        <ele>708.3</ele>
        <time>2014-04-30T08:34:42Z</time>
      </trkpt>
      <trkpt lat="43.7973" lon="3.55069">
        <ele>708.6</ele>
        <time>2014-04-30T08:34:45Z</time>
      </trkpt>
      <trkpt lat="43.79735" lon="3.55085">
        <ele>708.9</ele>
        <time>2014-04-30T08:34:48Z</time>
      </trkpt>
      <trkpt lat="43.79739" lon="3.55101">
        <ele>708.8</ele>
        <time>2014-04-30T08:34:51Z</time>
      </trkpt>
      <trkpt lat="43.79744" lon="3.55114">
        <ele>708.7</ele>
        <time>2014-04-30T08:34:54Z</time>
      </trkpt>
      <trkpt lat="43.79752" lon="3.55125">
        <ele>708.4</ele>
        <time>2014-04-30T08:34:57Z</time>
      </trkpt>
      <trkpt lat="43.79763" lon="3.55133">
        <ele>708.2</ele>
        <time>2014-04-30T08:35:00Z</time>
      </trkpt>
      <trkpt lat="43.79776" lon="3.55139">
        <ele>708.1</ele>
        <time>2014-04-30T08:35:03Z</time>
      </trkpt>
      <trkpt lat="43.79787" lon="3.55147">
        <ele>708.6</ele>
        <time>2014-04-30T08:35:06Z</time>
      </trkpt>
      <trkpt lat="43.79798" lon="3.55156">
        <ele>710</ele>
        <time>2014-04-30T08:35:09Z</time>
      </trkpt>
      <trkpt lat="43.79805" lon="3.55164">
        <ele>709.3</ele>
        <time>2014-04-30T08:35:11Z</time>
      </trkpt>
      <trkpt lat="43.79814" lon="3.55176">
        <ele>708.2</ele>
        <time>2014-04-30T08:35:14Z</time>
      </trkpt>
      <trkpt lat="43.79822" lon="3.55186">
        <ele>707.8</ele>
        <time>2014-04-30T08:35:17Z</time>
      </trkpt>
      <trkpt lat="43.79831" lon="3.55196">
        <ele>707.8</ele>
        <time>2014-04-30T08:35:20Z</time>
      </trkpt>
      <trkpt lat="43.79838" lon="3.55207">
        <ele>707.9</ele>
        <time>2014-04-30T08:35:23Z</time>
      </trkpt>
      <trkpt lat="43.79846" lon="3.55219">
        <ele>707.8</ele>
        <time>2014-04-30T08:35:26Z</time>
      </trkpt>
      <trkpt lat="43.79853" lon="3.55232">
        <ele>707.6</ele>
        <time>2014-04-30T08:35:29Z</time>
      </trkpt>
      <trkpt lat="43.79861" lon="3.55243">
        <ele>707.7</ele>
        <time>2014-04-30T08:35:32Z</time>
      </trkpt>
      <trkpt lat="43.7987" lon="3.55253">
        <ele>708.2</ele>
        <time>2014-04-30T08:35:35Z</time>
      </trkpt>
      <trkpt lat="43.79878" lon="3.55262">
        <ele>708.6</ele>
        <time>2014-04-30T08:35:38Z</time>
      </trkpt>
      <trkpt lat="43.79887" lon="3.55269">
        <ele>707.6</ele>
        <time>2014-04-30T08:36:38Z</time>
      </trkpt>
      <trkpt lat="43.79895" lon="3.55275">
        <ele>707.8</ele>
        <time>2014-04-30T08:36:42Z</time>
      </trkpt>
      <trkpt lat="43.79904" lon="3.55285">
        <ele>706.2</ele>
        <time>2014-04-30T08:36:47Z</time>
      </trkpt>
      <trkpt lat="43.79911" lon="3.55295">
        <ele>705.9</ele>
        <time>2014-04-30T08:36:50Z</time>
      </trkpt>
      <trkpt lat="43.79918" lon="3.55307">
        <ele>705.9</ele>
        <time>2014-04-30T08:36:53Z</time>
      </trkpt>
      <trkpt lat="43.79926" lon="3.55321">
        <ele>706.6</ele>
        <time>2014-04-30T08:36:56Z</time>
      </trkpt>
      <trkpt lat="43.79931" lon="3.55333">
        <ele>706.4</ele>
        <time>2014-04-30T08:36:58Z</time>
      </trkpt>
      <trkpt lat="43.79937" lon="3.55345">
        <ele>705.8</ele>
        <time>2014-04-30T08:37:00Z</time>
      </trkpt>
      <trkpt lat="43.79945" lon="3.55358">
        <ele>704.4</ele>
        <time>2014-04-30T08:37:02Z</time>
      </trkpt>
      <trkpt lat="43.79952" lon="3.55373">
        <ele>703.6</ele>
        <time>2014-04-30T08:37:04Z</time>
      </trkpt>
      <trkpt lat="43.79957" lon="3.55389">
        <ele>702.5</ele>
        <time>2014-04-30T08:37:06Z</time>
      </trkpt>
      <trkpt lat="43.79964" lon="3.55404">
        <ele>701.6</ele>
        <time>2014-04-30T08:37:08Z</time>
      </trkpt>
      <trkpt lat="43.79972" lon="3.55418">
        <ele>701</ele>
        <time>2014-04-30T08:37:10Z</time>
      </trkpt>
      <trkpt lat="43.7998" lon="3.55432">
        <ele>699.6</ele>
        <time>2014-04-30T08:37:12Z</time>
      </trkpt>
      <trkpt lat="43.79987" lon="3.55446">
        <ele>699.2</ele>
        <time>2014-04-30T08:37:14Z</time>
      </trkpt>
      <trkpt lat="43.79992" lon="3.55462">
        <ele>699.3</ele>
        <time>2014-04-30T08:37:16Z</time>
      </trkpt>
      <trkpt lat="43.79997" lon="3.55475">
        <ele>698.4</ele>
        <time>2014-04-30T08:37:18Z</time>
      </trkpt>
      <trkpt lat="43.80004" lon="3.55487">
        <ele>697.6</ele>
        <time>2014-04-30T08:37:20Z</time>
      </trkpt>
      <trkpt lat="43.80012" lon="3.55501">
        <ele>696.7</ele>
        <time>2014-04-30T08:37:23Z</time>
      </trkpt>
      <trkpt lat="43.80018" lon="3.55513">
        <ele>698.2</ele>
        <time>2014-04-30T08:37:26Z</time>
      </trkpt>
      <trkpt lat="43.80024" lon="3.55527">
        <ele>698.1</ele>
        <time>2014-04-30T08:37:29Z</time>
      </trkpt>
      <trkpt lat="43.80029" lon="3.55541">
        <ele>699.3</ele>
        <time>2014-04-30T08:37:32Z</time>
      </trkpt>
      <trkpt lat="43.80036" lon="3.55553">
        <ele>698.2</ele>
        <time>2014-04-30T08:37:35Z</time>
      </trkpt>
      <trkpt lat="43.80043" lon="3.55564">
        <ele>698.4</ele>
        <time>2014-04-30T08:37:38Z</time>
      </trkpt>
      <trkpt lat="43.80051" lon="3.55575">
        <ele>698.3</ele>
        <time>2014-04-30T08:37:41Z</time>
      </trkpt>
      <trkpt lat="43.80059" lon="3.55589">
        <ele>698.8</ele>
        <time>2014-04-30T08:37:44Z</time>
      </trkpt>
      <trkpt lat="43.80065" lon="3.55605">
        <ele>697.2</ele>
        <time>2014-04-30T08:37:47Z</time>
      </trkpt>
      <trkpt lat="43.80071" lon="3.55614">
        <ele>697.1</ele>
        <time>2014-04-30T08:37:49Z</time>
      </trkpt>
      <trkpt lat="43.8008" lon="3.55621">
        <ele>697.5</ele>
        <time>2014-04-30T08:37:51Z</time>
      </trkpt>
      <trkpt lat="43.80088" lon="3.55629">
        <ele>697.4</ele>
        <time>2014-04-30T08:37:53Z</time>
      </trkpt>
      <trkpt lat="43.80096" lon="3.55637">
        <ele>697.4</ele>
        <time>2014-04-30T08:37:55Z</time>
      </trkpt>
      <trkpt lat="43.80104" lon="3.55648">
        <ele>696.1</ele>
        <time>2014-04-30T08:37:58Z</time>
      </trkpt>
      <trkpt lat="43.80106" lon="3.55665">
        <ele>692.9</ele>
        <time>2014-04-30T08:38:01Z</time>
      </trkpt>
      <trkpt lat="43.80101" lon="3.55676">
        <ele>691.4</ele>
        <time>2014-04-30T08:38:04Z</time>
      </trkpt>
      <trkpt lat="43.80094" lon="3.55684">
        <ele>690</ele>
        <time>2014-04-30T08:38:10Z</time>
      </trkpt>
      <trkpt lat="43.80093" lon="3.55698">
        <ele>691.2</ele>
        <time>2014-04-30T08:38:16Z</time>
      </trkpt>
      <trkpt lat="43.801" lon="3.5571">
        <ele>691.5</ele>
        <time>2014-04-30T08:38:20Z</time>
      </trkpt>
      <trkpt lat="43.80099" lon="3.55725">
        <ele>689.8</ele>
        <time>2014-04-30T08:38:23Z</time>
      </trkpt>
      <trkpt lat="43.80094" lon="3.55738">
        <ele>689.1</ele>
        <time>2014-04-30T08:38:28Z</time>
      </trkpt>
      <trkpt lat="43.80086" lon="3.55748">
        <ele>689.7</ele>
        <time>2014-04-30T08:38:34Z</time>
      </trkpt>
      <trkpt lat="43.80079" lon="3.55758">
        <ele>689.8</ele>
        <time>2014-04-30T08:38:38Z</time>
      </trkpt>
      <trkpt lat="43.80071" lon="3.55768">
        <ele>690.8</ele>
        <time>2014-04-30T08:38:43Z</time>
      </trkpt>
      <trkpt lat="43.80068" lon="3.5578">
        <ele>690.9</ele>
        <time>2014-04-30T08:38:47Z</time>
      </trkpt>
      <trkpt lat="43.80072" lon="3.55791">
        <ele>690.1</ele>
        <time>2014-04-30T08:38:50Z</time>
      </trkpt>
      <trkpt lat="43.80081" lon="3.55801">
        <ele>689.5</ele>
        <time>2014-04-30T08:38:53Z</time>
      </trkpt>
      <trkpt lat="43.80088" lon="3.55809">
        <ele>689.3</ele>
        <time>2014-04-30T08:38:56Z</time>
      </trkpt>
      <trkpt lat="43.801" lon="3.55814">
        <ele>687.8</ele>
        <time>2014-04-30T08:39:00Z</time>
      </trkpt>
      <trkpt lat="43.8011" lon="3.5582">
        <ele>686.8</ele>
        <time>2014-04-30T08:39:03Z</time>
      </trkpt>
      <trkpt lat="43.8012" lon="3.55822">
        <ele>686</ele>
        <time>2014-04-30T08:39:06Z</time>
      </trkpt>
      <trkpt lat="43.80132" lon="3.5583">
        <ele>684.8</ele>
        <time>2014-04-30T08:39:09Z</time>
      </trkpt>
      <trkpt lat="43.80142" lon="3.55839">
        <ele>683.9</ele>
        <time>2014-04-30T08:39:11Z</time>
      </trkpt>
      <trkpt lat="43.80151" lon="3.55852">
        <ele>681.9</ele>
        <time>2014-04-30T08:39:13Z</time>
      </trkpt>
      <trkpt lat="43.8016" lon="3.55865">
        <ele>680.6</ele>
        <time>2014-04-30T08:39:15Z</time>
      </trkpt>
      <trkpt lat="43.80169" lon="3.55878">
        <ele>679.7</ele>
        <time>2014-04-30T08:39:17Z</time>
      </trkpt>
      <trkpt lat="43.80177" lon="3.55891">
        <ele>678</ele>
        <time>2014-04-30T08:39:20Z</time>
      </trkpt>
      <trkpt lat="43.8018" lon="3.55903">
        <ele>677.3</ele>
        <time>2014-04-30T08:42:11Z</time>
      </trkpt>
      <trkpt lat="43.80183" lon="3.55916">
        <ele>677.8</ele>
        <time>2014-04-30T08:42:16Z</time>
      </trkpt>
      <trkpt lat="43.80188" lon="3.55931">
        <ele>678.3</ele>
        <time>2014-04-30T08:42:21Z</time>
      </trkpt>
      <trkpt lat="43.80194" lon="3.55943">
        <ele>678.2</ele>
        <time>2014-04-30T08:42:25Z</time>
      </trkpt>
      <trkpt lat="43.802" lon="3.55953">
        <ele>678.7</ele>
        <time>2014-04-30T08:42:28Z</time>
      </trkpt>
      <trkpt lat="43.80206" lon="3.55967">
        <ele>678.7</ele>
        <time>2014-04-30T08:42:31Z</time>
      </trkpt>
      <trkpt lat="43.80213" lon="3.5598">
        <ele>678.6</ele>
        <time>2014-04-30T08:42:34Z</time>
      </trkpt>
      <trkpt lat="43.80223" lon="3.55991">
        <ele>678</ele>
        <time>2014-04-30T08:42:37Z</time>
      </trkpt>
      <trkpt lat="43.80233" lon="3.56002">
        <ele>677.8</ele>
        <time>2014-04-30T08:42:40Z</time>
      </trkpt>
      <trkpt lat="43.80242" lon="3.56011">
        <ele>677.5</ele>
        <time>2014-04-30T08:42:43Z</time>
      </trkpt>
      <trkpt lat="43.80251" lon="3.56021">
        <ele>677.3</ele>
        <time>2014-04-30T08:42:46Z</time>
      </trkpt>
      <trkpt lat="43.8026" lon="3.56028">
        <ele>677</ele>
        <time>2014-04-30T08:42:49Z</time>
      </trkpt>
      <trkpt lat="43.80272" lon="3.56036">
        <ele>676.5</ele>
        <time>2014-04-30T08:42:52Z</time>
      </trkpt>
      <trkpt lat="43.80282" lon="3.56045">
        <ele>677.3</ele>
        <time>2014-04-30T08:42:55Z</time>
      </trkpt>
      <trkpt lat="43.80291" lon="3.56057">
        <ele>676.3</ele>
        <time>2014-04-30T08:42:58Z</time>
      </trkpt>
      <trkpt lat="43.803" lon="3.56065">
        <ele>676.7</ele>
        <time>2014-04-30T08:43:01Z</time>
      </trkpt>
      <trkpt lat="43.80313" lon="3.56069">
        <ele>676.6</ele>
        <time>2014-04-30T08:43:04Z</time>
      </trkpt>
      <trkpt lat="43.80324" lon="3.56069">
        <ele>675.6</ele>
        <time>2014-04-30T08:43:07Z</time>
      </trkpt>
      <trkpt lat="43.80336" lon="3.56072">
        <ele>674.6</ele>
        <time>2014-04-30T08:43:12Z</time>
      </trkpt>
      <trkpt lat="43.80343" lon="3.5608">
        <ele>674</ele>
        <time>2014-04-30T08:43:14Z</time>
      </trkpt>
      <trkpt lat="43.80351" lon="3.56087">
        <ele>673.1</ele>
        <time>2014-04-30T08:43:16Z</time>
      </trkpt>
      <trkpt lat="43.8036" lon="3.56095">
        <ele>672</ele>
        <time>2014-04-30T08:43:18Z</time>
      </trkpt>
      <trkpt lat="43.8037" lon="3.56104">
        <ele>671.1</ele>
        <time>2014-04-30T08:43:20Z</time>
      </trkpt>
      <trkpt lat="43.80379" lon="3.56109">
        <ele>669.4</ele>
        <time>2014-04-30T08:43:22Z</time>
      </trkpt>
      <trkpt lat="43.80388" lon="3.56113">
        <ele>668.3</ele>
        <time>2014-04-30T08:43:24Z</time>
      </trkpt>
      <trkpt lat="43.80398" lon="3.56117">
        <ele>667.4</ele>
        <time>2014-04-30T08:43:26Z</time>
      </trkpt>
      <trkpt lat="43.8041" lon="3.5612">
        <ele>666.7</ele>
        <time>2014-04-30T08:43:28Z</time>
      </trkpt>
      <trkpt lat="43.80421" lon="3.56123">
        <ele>666.1</ele>
        <time>2014-04-30T08:43:30Z</time>
      </trkpt>
      <trkpt lat="43.80433" lon="3.56126">
        <ele>664.8</ele>
        <time>2014-04-30T08:43:32Z</time>
      </trkpt>
      <trkpt lat="43.80445" lon="3.5613">
        <ele>663.8</ele>
        <time>2014-04-30T08:43:34Z</time>
      </trkpt>
      <trkpt lat="43.80456" lon="3.56134">
        <ele>663.1</ele>
        <time>2014-04-30T08:43:36Z</time>
      </trkpt>
      <trkpt lat="43.80467" lon="3.56137">
        <ele>661.9</ele>
        <time>2014-04-30T08:43:38Z</time>
      </trkpt>
      <trkpt lat="43.80479" lon="3.56141">
        <ele>661.4</ele>
        <time>2014-04-30T08:43:40Z</time>
      </trkpt>
      <trkpt lat="43.80491" lon="3.56145">
        <ele>661.2</ele>
        <time>2014-04-30T08:43:42Z</time>
      </trkpt>
      <trkpt lat="43.80502" lon="3.56148">
        <ele>660.5</ele>
        <time>2014-04-30T08:43:44Z</time>
      </trkpt>
      <trkpt lat="43.80513" lon="3.56151">
        <ele>659.8</ele>
        <time>2014-04-30T08:43:46Z</time>
      </trkpt>
      <trkpt lat="43.80524" lon="3.56155">
        <ele>659.8</ele>
        <time>2014-04-30T08:43:48Z</time>
      </trkpt>
      <trkpt lat="43.80533" lon="3.56161">
        <ele>659.7</ele>
        <time>2014-04-30T08:43:50Z</time>
      </trkpt>
      <trkpt lat="43.80541" lon="3.56167">
        <ele>659.5</ele>
        <time>2014-04-30T08:43:52Z</time>
      </trkpt>
      <trkpt lat="43.80553" lon="3.56168">
        <ele>659.6</ele>
        <time>2014-04-30T08:43:55Z</time>
      </trkpt>
      <trkpt lat="43.80562" lon="3.56171">
        <ele>658.3</ele>
        <time>2014-04-30T08:43:58Z</time>
      </trkpt>
      <trkpt lat="43.80572" lon="3.56174">
        <ele>657.7</ele>
        <time>2014-04-30T08:44:01Z</time>
      </trkpt>
      <trkpt lat="43.80582" lon="3.56175">
        <ele>658.4</ele>
        <time>2014-04-30T08:44:04Z</time>
      </trkpt>
      <trkpt lat="43.80591" lon="3.56174">
        <ele>659.4</ele>
        <time>2014-04-30T08:44:07Z</time>
      </trkpt>
      <trkpt lat="43.80596" lon="3.56163">
        <ele>659.8</ele>
        <time>2014-04-30T08:44:10Z</time>
      </trkpt>
      <trkpt lat="43.80605" lon="3.56155">
        <ele>660.2</ele>
        <time>2014-04-30T08:44:13Z</time>
      </trkpt>
      <trkpt lat="43.8061" lon="3.56168">
        <ele>663.7</ele>
        <time>2014-04-30T08:44:29Z</time>
      </trkpt>
      <trkpt lat="43.80606" lon="3.56182">
        <ele>664.8</ele>
        <time>2014-04-30T08:44:34Z</time>
      </trkpt>
      <trkpt lat="43.806" lon="3.56194">
        <ele>663.4</ele>
        <time>2014-04-30T08:44:38Z</time>
      </trkpt>
      <trkpt lat="43.80595" lon="3.56206">
        <ele>662.9</ele>
        <time>2014-04-30T08:44:41Z</time>
      </trkpt>
      <trkpt lat="43.80595" lon="3.56219">
        <ele>663</ele>
        <time>2014-04-30T08:44:44Z</time>
      </trkpt>
      <trkpt lat="43.80597" lon="3.56233">
        <ele>663</ele>
        <time>2014-04-30T08:44:49Z</time>
      </trkpt>
      <trkpt lat="43.80591" lon="3.56243">
        <ele>662.3</ele>
        <time>2014-04-30T08:46:12Z</time>
      </trkpt>
      <trkpt lat="43.8058" lon="3.5624">
        <ele>661.4</ele>
        <time>2014-04-30T08:46:19Z</time>
      </trkpt>
      <trkpt lat="43.8057" lon="3.5624">
        <ele>660.6</ele>
        <time>2014-04-30T08:46:23Z</time>
      </trkpt>
      <trkpt lat="43.8056" lon="3.56236">
        <ele>660.6</ele>
        <time>2014-04-30T08:46:27Z</time>
      </trkpt>
      <trkpt lat="43.80551" lon="3.56231">
        <ele>662.2</ele>
        <time>2014-04-30T08:46:32Z</time>
      </trkpt>
      <trkpt lat="43.80541" lon="3.56226">
        <ele>661.4</ele>
        <time>2014-04-30T08:46:37Z</time>
      </trkpt>
      <trkpt lat="43.8055" lon="3.5623">
        <ele>659.1</ele>
        <time>2014-04-30T08:48:09Z</time>
      </trkpt>
      <trkpt lat="43.80559" lon="3.56237">
        <ele>659.4</ele>
        <time>2014-04-30T08:48:15Z</time>
      </trkpt>
      <trkpt lat="43.80569" lon="3.56238">
        <ele>658.3</ele>
        <time>2014-04-30T08:48:19Z</time>
      </trkpt>
      <trkpt lat="43.80578" lon="3.56242">
        <ele>658.2</ele>
        <time>2014-04-30T08:48:24Z</time>
      </trkpt>
      <trkpt lat="43.80587" lon="3.56246">
        <ele>661.6</ele>
        <time>2014-04-30T08:48:44Z</time>
      </trkpt>
      <trkpt lat="43.80594" lon="3.56257">
        <ele>662.4</ele>
        <time>2014-04-30T08:48:48Z</time>
      </trkpt>
      <trkpt lat="43.80605" lon="3.56267">
        <ele>661.5</ele>
        <time>2014-04-30T08:48:51Z</time>
      </trkpt>
      <trkpt lat="43.80615" lon="3.56274">
        <ele>660.5</ele>
        <time>2014-04-30T08:48:54Z</time>
      </trkpt>
      <trkpt lat="43.80626" lon="3.56279">
        <ele>659.1</ele>
        <time>2014-04-30T08:48:57Z</time>
      </trkpt>
      <trkpt lat="43.80638" lon="3.56286">
        <ele>658</ele>
        <time>2014-04-30T08:49:00Z</time>
      </trkpt>
      <trkpt lat="43.80647" lon="3.56285">
        <ele>657.6</ele>
        <time>2014-04-30T08:49:02Z</time>
      </trkpt>
      <trkpt lat="43.80658" lon="3.56285">
        <ele>657.1</ele>
        <time>2014-04-30T08:49:04Z</time>
      </trkpt>
      <trkpt lat="43.80671" lon="3.56284">
        <ele>656</ele>
        <time>2014-04-30T08:49:06Z</time>
      </trkpt>
      <trkpt lat="43.80683" lon="3.5628">
        <ele>654.7</ele>
        <time>2014-04-30T08:49:08Z</time>
      </trkpt>
      <trkpt lat="43.80693" lon="3.56275">
        <ele>653.6</ele>
        <time>2014-04-30T08:49:10Z</time>
      </trkpt>
      <trkpt lat="43.80705" lon="3.56271">
        <ele>653.5</ele>
        <time>2014-04-30T08:49:13Z</time>
      </trkpt>
      <trkpt lat="43.80717" lon="3.56266">
        <ele>653.2</ele>
        <time>2014-04-30T08:49:16Z</time>
      </trkpt>
      <trkpt lat="43.80727" lon="3.56262">
        <ele>653</ele>
        <time>2014-04-30T08:49:19Z</time>
      </trkpt>
      <trkpt lat="43.80735" lon="3.56258">
        <ele>653.1</ele>
        <time>2014-04-30T08:49:22Z</time>
      </trkpt>
      <trkpt lat="43.80748" lon="3.56262">
        <ele>652.4</ele>
        <time>2014-04-30T08:49:25Z</time>
      </trkpt>
      <trkpt lat="43.80758" lon="3.56268">
        <ele>651.3</ele>
        <time>2014-04-30T08:49:27Z</time>
      </trkpt>
      <trkpt lat="43.80768" lon="3.56277">
        <ele>651.1</ele>
        <time>2014-04-30T08:49:30Z</time>
      </trkpt>
      <trkpt lat="43.80778" lon="3.56284">
        <ele>649.5</ele>
        <time>2014-04-30T08:49:33Z</time>
      </trkpt>
      <trkpt lat="43.80789" lon="3.56282">
        <ele>648.3</ele>
        <time>2014-04-30T08:49:36Z</time>
      </trkpt>
      <trkpt lat="43.80801" lon="3.56285">
        <ele>647.5</ele>
        <time>2014-04-30T08:49:39Z</time>
      </trkpt>
      <trkpt lat="43.80814" lon="3.56289">
        <ele>646.7</ele>
        <time>2014-04-30T08:49:42Z</time>
      </trkpt>
      <trkpt lat="43.80824" lon="3.56292">
        <ele>646.4</ele>
        <time>2014-04-30T08:49:45Z</time>
      </trkpt>
      <trkpt lat="43.80833" lon="3.56298">
        <ele>646.9</ele>
        <time>2014-04-30T08:49:51Z</time>
      </trkpt>
      <trkpt lat="43.80841" lon="3.56306">
        <ele>647.2</ele>
        <time>2014-04-30T08:49:58Z</time>
      </trkpt>
      <trkpt lat="43.80849" lon="3.56313">
        <ele>648.2</ele>
        <time>2014-04-30T08:50:02Z</time>
      </trkpt>
      <trkpt lat="43.80858" lon="3.5632">
        <ele>648.2</ele>
        <time>2014-04-30T08:50:06Z</time>
      </trkpt>
      <trkpt lat="43.80864" lon="3.5633">
        <ele>648.2</ele>
        <time>2014-04-30T08:50:10Z</time>
      </trkpt>
      <trkpt lat="43.80869" lon="3.56343">
        <ele>649.7</ele>
        <time>2014-04-30T08:50:15Z</time>
      </trkpt>
      <trkpt lat="43.80871" lon="3.56357">
        <ele>651.2</ele>
        <time>2014-04-30T08:50:19Z</time>
      </trkpt>
      <trkpt lat="43.80876" lon="3.56368">
        <ele>652.9</ele>
        <time>2014-04-30T08:50:23Z</time>
      </trkpt>
      <trkpt lat="43.80882" lon="3.5638">
        <ele>654.7</ele>
        <time>2014-04-30T08:50:27Z</time>
      </trkpt>
      <trkpt lat="43.80888" lon="3.56391">
        <ele>654.5</ele>
        <time>2014-04-30T08:50:31Z</time>
      </trkpt>
      <trkpt lat="43.80892" lon="3.56405">
        <ele>657.1</ele>
        <time>2014-04-30T08:50:36Z</time>
      </trkpt>
      <trkpt lat="43.80895" lon="3.5642">
        <ele>658.4</ele>
        <time>2014-04-30T08:50:40Z</time>
      </trkpt>
      <trkpt lat="43.80899" lon="3.56434">
        <ele>658.9</ele>
        <time>2014-04-30T08:50:44Z</time>
      </trkpt>
      <trkpt lat="43.80901" lon="3.56446">
        <ele>658.7</ele>
        <time>2014-04-30T08:50:47Z</time>
      </trkpt>
      <trkpt lat="43.80907" lon="3.56459">
        <ele>658.5</ele>
        <time>2014-04-30T08:50:51Z</time>
      </trkpt>
      <trkpt lat="43.80915" lon="3.56469">
        <ele>657.7</ele>
        <time>2014-04-30T08:50:55Z</time>
      </trkpt>
      <trkpt lat="43.8092" lon="3.56483">
        <ele>658</ele>
        <time>2014-04-30T08:50:59Z</time>
      </trkpt>
      <trkpt lat="43.80925" lon="3.56494">
        <ele>658.5</ele>
        <time>2014-04-30T08:51:02Z</time>
      </trkpt>
      <trkpt lat="43.80927" lon="3.5651">
        <ele>659</ele>
        <time>2014-04-30T08:51:06Z</time>
      </trkpt>
      <trkpt lat="43.80931" lon="3.56528">
        <ele>658.3</ele>
        <time>2014-04-30T08:51:09Z</time>
      </trkpt>
      <trkpt lat="43.80933" lon="3.56542">
        <ele>657.5</ele>
        <time>2014-04-30T08:51:11Z</time>
      </trkpt>
      <trkpt lat="43.80931" lon="3.5656">
        <ele>657</ele>
        <time>2014-04-30T08:51:13Z</time>
      </trkpt>
      <trkpt lat="43.8093" lon="3.5658">
        <ele>655.9</ele>
        <time>2014-04-30T08:51:15Z</time>
      </trkpt>
      <trkpt lat="43.80928" lon="3.56599">
        <ele>654.7</ele>
        <time>2014-04-30T08:51:17Z</time>
      </trkpt>
      <trkpt lat="43.80926" lon="3.56614">
        <ele>652.6</ele>
        <time>2014-04-30T08:51:20Z</time>
      </trkpt>
      <trkpt lat="43.8093" lon="3.56632">
        <ele>650.7</ele>
        <time>2014-04-30T08:51:23Z</time>
      </trkpt>
      <trkpt lat="43.80933" lon="3.56644">
        <ele>649.9</ele>
        <time>2014-04-30T08:51:25Z</time>
      </trkpt>
      <trkpt lat="43.80938" lon="3.56656">
        <ele>648</ele>
        <time>2014-04-30T08:51:27Z</time>
      </trkpt>
      <trkpt lat="43.80947" lon="3.56667">
        <ele>647.7</ele>
        <time>2014-04-30T08:51:30Z</time>
      </trkpt>
      <trkpt lat="43.80956" lon="3.56675">
        <ele>648.2</ele>
        <time>2014-04-30T08:51:34Z</time>
      </trkpt>
      <trkpt lat="43.80964" lon="3.56681">
        <ele>649.8</ele>
        <time>2014-04-30T08:51:46Z</time>
      </trkpt>
      <trkpt lat="43.80972" lon="3.56686">
        <ele>650.4</ele>
        <time>2014-04-30T08:51:51Z</time>
      </trkpt>
      <trkpt lat="43.8098" lon="3.56693">
        <ele>652.5</ele>
        <time>2014-04-30T08:52:00Z</time>
      </trkpt>
      <trkpt lat="43.80989" lon="3.567">
        <ele>654.7</ele>
        <time>2014-04-30T08:52:05Z</time>
      </trkpt>
      <trkpt lat="43.80993" lon="3.56711">
        <ele>655.8</ele>
        <time>2014-04-30T08:52:10Z</time>
      </trkpt>
      <trkpt lat="43.80999" lon="3.56722">
        <ele>655.4</ele>
        <time>2014-04-30T08:52:15Z</time>
      </trkpt>
      <trkpt lat="43.81005" lon="3.56733">
        <ele>655.8</ele>
        <time>2014-04-30T08:52:20Z</time>
      </trkpt>
      <trkpt lat="43.81011" lon="3.56743">
        <ele>657.9</ele>
        <time>2014-04-30T08:52:29Z</time>
      </trkpt>
      <trkpt lat="43.81018" lon="3.56754">
        <ele>657.7</ele>
        <time>2014-04-30T08:52:36Z</time>
      </trkpt>
      <trkpt lat="43.81025" lon="3.56762">
        <ele>658.6</ele>
        <time>2014-04-30T08:52:44Z</time>
      </trkpt>
      <trkpt lat="43.81035" lon="3.56768">
        <ele>666.7</ele>
        <time>2014-04-30T08:53:27Z</time>
      </trkpt>
      <trkpt lat="43.81044" lon="3.5677">
        <ele>669.9</ele>
        <time>2014-04-30T08:53:44Z</time>
      </trkpt>
      <trkpt lat="43.81053" lon="3.56775">
        <ele>670.9</ele>
        <time>2014-04-30T08:53:47Z</time>
      </trkpt>
      <trkpt lat="43.81062" lon="3.56779">
        <ele>671.6</ele>
        <time>2014-04-30T08:54:05Z</time>
      </trkpt>
      <trkpt lat="43.81071" lon="3.56782">
        <ele>675.2</ele>
        <time>2014-04-30T08:54:30Z</time>
      </trkpt>
      <trkpt lat="43.81081" lon="3.56786">
        <ele>676.3</ele>
        <time>2014-04-30T08:54:45Z</time>
      </trkpt>
      <trkpt lat="43.81089" lon="3.56792">
        <ele>676.6</ele>
        <time>2014-04-30T08:54:48Z</time>
      </trkpt>
      <trkpt lat="43.81098" lon="3.568">
        <ele>677.5</ele>
        <time>2014-04-30T08:54:58Z</time>
      </trkpt>
      <trkpt lat="43.81108" lon="3.56809">
        <ele>677.2</ele>
        <time>2014-04-30T08:55:02Z</time>
      </trkpt>
      <trkpt lat="43.81117" lon="3.56816">
        <ele>677.1</ele>
        <time>2014-04-30T08:55:06Z</time>
      </trkpt>
      <trkpt lat="43.81126" lon="3.56824">
        <ele>678.1</ele>
        <time>2014-04-30T08:55:11Z</time>
      </trkpt>
      <trkpt lat="43.81135" lon="3.56831">
        <ele>678</ele>
        <time>2014-04-30T08:55:16Z</time>
      </trkpt>
      <trkpt lat="43.81143" lon="3.56838">
        <ele>677.5</ele>
        <time>2014-04-30T08:55:21Z</time>
      </trkpt>
      <trkpt lat="43.81152" lon="3.56843">
        <ele>678.1</ele>
        <time>2014-04-30T08:55:28Z</time>
      </trkpt>
      <trkpt lat="43.81161" lon="3.56852">
        <ele>678.6</ele>
        <time>2014-04-30T08:55:42Z</time>
      </trkpt>
      <trkpt lat="43.81169" lon="3.56858">
        <ele>678.3</ele>
        <time>2014-04-30T08:55:46Z</time>
      </trkpt>
      <trkpt lat="43.81177" lon="3.56864">
        <ele>677.7</ele>
        <time>2014-04-30T08:55:51Z</time>
      </trkpt>
      <trkpt lat="43.81187" lon="3.56871">
        <ele>678.5</ele>
        <time>2014-04-30T08:55:59Z</time>
      </trkpt>
      <trkpt lat="43.81195" lon="3.56879">
        <ele>678.9</ele>
        <time>2014-04-30T08:56:04Z</time>
      </trkpt>
      <trkpt lat="43.81203" lon="3.56887">
        <ele>678.3</ele>
        <time>2014-04-30T08:56:09Z</time>
      </trkpt>
      <trkpt lat="43.81213" lon="3.56894">
        <ele>681.5</ele>
        <time>2014-04-30T08:57:25Z</time>
      </trkpt>
      <trkpt lat="43.81221" lon="3.56904">
        <ele>682.6</ele>
        <time>2014-04-30T08:57:29Z</time>
      </trkpt>
      <trkpt lat="43.81229" lon="3.56913">
        <ele>682.3</ele>
        <time>2014-04-30T08:57:33Z</time>
      </trkpt>
      <trkpt lat="43.81236" lon="3.5692">
        <ele>682.8</ele>
        <time>2014-04-30T08:57:37Z</time>
      </trkpt>
      <trkpt lat="43.81243" lon="3.56929">
        <ele>683.4</ele>
        <time>2014-04-30T08:57:41Z</time>
      </trkpt>
      <trkpt lat="43.81251" lon="3.56939">
        <ele>683</ele>
        <time>2014-04-30T08:57:45Z</time>
      </trkpt>
      <trkpt lat="43.81258" lon="3.56951">
        <ele>683.3</ele>
        <time>2014-04-30T08:57:49Z</time>
      </trkpt>
      <trkpt lat="43.81266" lon="3.56961">
        <ele>682.2</ele>
        <time>2014-04-30T08:57:54Z</time>
      </trkpt>
      <trkpt lat="43.81268" lon="3.56974">
        <ele>682.4</ele>
        <time>2014-04-30T08:57:59Z</time>
      </trkpt>
      <trkpt lat="43.81275" lon="3.56983">
        <ele>681.8</ele>
        <time>2014-04-30T08:58:04Z</time>
      </trkpt>
      <trkpt lat="43.81282" lon="3.56994">
        <ele>683.8</ele>
        <time>2014-04-30T08:58:10Z</time>
      </trkpt>
      <trkpt lat="43.81288" lon="3.57005">
        <ele>683.5</ele>
        <time>2014-04-30T08:58:16Z</time>
      </trkpt>
      <trkpt lat="43.81297" lon="3.57013">
        <ele>684</ele>
        <time>2014-04-30T08:58:23Z</time>
      </trkpt>
      <trkpt lat="43.81304" lon="3.57023">
        <ele>683.9</ele>
        <time>2014-04-30T08:58:29Z</time>
      </trkpt>
      <trkpt lat="43.81313" lon="3.57031">
        <ele>684.6</ele>
        <time>2014-04-30T08:58:35Z</time>
      </trkpt>
      <trkpt lat="43.81319" lon="3.57041">
        <ele>684.7</ele>
        <time>2014-04-30T08:58:40Z</time>
      </trkpt>
      <trkpt lat="43.81329" lon="3.57046">
        <ele>685.9</ele>
        <time>2014-04-30T08:58:46Z</time>
      </trkpt>
      <trkpt lat="43.81337" lon="3.57052">
        <ele>686</ele>
        <time>2014-04-30T08:58:51Z</time>
      </trkpt>
      <trkpt lat="43.81345" lon="3.5706">
        <ele>686.2</ele>
        <time>2014-04-30T08:58:56Z</time>
      </trkpt>
      <trkpt lat="43.81354" lon="3.57065">
        <ele>686.8</ele>
        <time>2014-04-30T08:59:43Z</time>
      </trkpt>
      <trkpt lat="43.81363" lon="3.57073">
        <ele>686.4</ele>
        <time>2014-04-30T08:59:48Z</time>
      </trkpt>
      <trkpt lat="43.8137" lon="3.57081">
        <ele>686.7</ele>
        <time>2014-04-30T08:59:52Z</time>
      </trkpt>
      <trkpt lat="43.81376" lon="3.57091">
        <ele>686.1</ele>
        <time>2014-04-30T08:59:57Z</time>
      </trkpt>
      <trkpt lat="43.81383" lon="3.571">
        <ele>686.5</ele>
        <time>2014-04-30T09:00:03Z</time>
      </trkpt>
      <trkpt lat="43.8139" lon="3.57111">
        <ele>687.2</ele>
        <time>2014-04-30T09:00:09Z</time>
      </trkpt>
      <trkpt lat="43.81394" lon="3.57123">
        <ele>688</ele>
        <time>2014-04-30T09:00:15Z</time>
      </trkpt>
      <trkpt lat="43.81401" lon="3.57133">
        <ele>689</ele>
        <time>2014-04-30T09:00:20Z</time>
      </trkpt>
      <trkpt lat="43.81408" lon="3.57143">
        <ele>689.6</ele>
        <time>2014-04-30T09:00:25Z</time>
      </trkpt>
      <trkpt lat="43.81416" lon="3.57152">
        <ele>690.1</ele>
        <time>2014-04-30T09:00:30Z</time>
      </trkpt>
      <trkpt lat="43.81423" lon="3.57161">
        <ele>691.5</ele>
        <time>2014-04-30T09:00:35Z</time>
      </trkpt>
      <trkpt lat="43.81429" lon="3.5717">
        <ele>693.4</ele>
        <time>2014-04-30T09:00:41Z</time>
      </trkpt>
      <trkpt lat="43.81436" lon="3.57182">
        <ele>691.2</ele>
        <time>2014-04-30T09:01:29Z</time>
      </trkpt>
      <trkpt lat="43.81446" lon="3.57188">
        <ele>690.5</ele>
        <time>2014-04-30T09:01:34Z</time>
      </trkpt>
      <trkpt lat="43.81455" lon="3.5719">
        <ele>690.3</ele>
        <time>2014-04-30T09:01:38Z</time>
      </trkpt>
      <trkpt lat="43.81466" lon="3.57188">
        <ele>690.5</ele>
        <time>2014-04-30T09:01:44Z</time>
      </trkpt>
      <trkpt lat="43.81476" lon="3.57188">
        <ele>690.8</ele>
        <time>2014-04-30T09:01:48Z</time>
      </trkpt>
      <trkpt lat="43.81485" lon="3.5719">
        <ele>690.7</ele>
        <time>2014-04-30T09:01:51Z</time>
      </trkpt>
      <trkpt lat="43.81494" lon="3.57192">
        <ele>690.9</ele>
        <time>2014-04-30T09:01:54Z</time>
      </trkpt>
      <trkpt lat="43.81505" lon="3.5719">
        <ele>690.2</ele>
        <time>2014-04-30T09:01:58Z</time>
      </trkpt>
      <trkpt lat="43.81516" lon="3.57189">
        <ele>690</ele>
        <time>2014-04-30T09:02:02Z</time>
      </trkpt>
      <trkpt lat="43.81527" lon="3.57193">
        <ele>690.4</ele>
        <time>2014-04-30T09:02:06Z</time>
      </trkpt>
      <trkpt lat="43.81535" lon="3.57186">
        <ele>690.7</ele>
        <time>2014-04-30T09:02:10Z</time>
      </trkpt>
      <trkpt lat="43.81545" lon="3.57181">
        <ele>691.3</ele>
        <time>2014-04-30T09:02:15Z</time>
      </trkpt>
      <trkpt lat="43.81554" lon="3.57183">
        <ele>692</ele>
        <time>2014-04-30T09:02:19Z</time>
      </trkpt>
      <trkpt lat="43.81563" lon="3.57187">
        <ele>692.1</ele>
        <time>2014-04-30T09:02:23Z</time>
      </trkpt>
      <trkpt lat="43.81572" lon="3.57184">
        <ele>692.3</ele>
        <time>2014-04-30T09:02:27Z</time>
      </trkpt>
      <trkpt lat="43.81579" lon="3.57174">
        <ele>693.5</ele>
        <time>2014-04-30T09:02:32Z</time>
      </trkpt>
      <trkpt lat="43.81588" lon="3.57169">
        <ele>695.1</ele>
        <time>2014-04-30T09:02:38Z</time>
      </trkpt>
      <trkpt lat="43.81598" lon="3.57173">
        <ele>696.2</ele>
        <time>2014-04-30T09:02:43Z</time>
      </trkpt>
      <trkpt lat="43.81608" lon="3.57177">
        <ele>697.2</ele>
        <time>2014-04-30T09:02:48Z</time>
      </trkpt>
      <trkpt lat="43.81616" lon="3.57181">
        <ele>697.7</ele>
        <time>2014-04-30T09:02:52Z</time>
      </trkpt>
      <trkpt lat="43.81625" lon="3.57186">
        <ele>698.5</ele>
        <time>2014-04-30T09:02:56Z</time>
      </trkpt>
      <trkpt lat="43.81635" lon="3.57189">
        <ele>698.8</ele>
        <time>2014-04-30T09:03:01Z</time>
      </trkpt>
      <trkpt lat="43.81646" lon="3.57192">
        <ele>698.1</ele>
        <time>2014-04-30T09:03:06Z</time>
      </trkpt>
      <trkpt lat="43.81654" lon="3.572">
        <ele>698.4</ele>
        <time>2014-04-30T09:03:10Z</time>
      </trkpt>
      <trkpt lat="43.81663" lon="3.57201">
        <ele>699.4</ele>
        <time>2014-04-30T09:03:15Z</time>
      </trkpt>
      <trkpt lat="43.81673" lon="3.572">
        <ele>699</ele>
        <time>2014-04-30T09:03:21Z</time>
      </trkpt>
      <trkpt lat="43.81683" lon="3.57201">
        <ele>697.9</ele>
        <time>2014-04-30T09:03:26Z</time>
      </trkpt>
      <trkpt lat="43.81692" lon="3.57204">
        <ele>698.1</ele>
        <time>2014-04-30T09:03:31Z</time>
      </trkpt>
      <trkpt lat="43.81703" lon="3.57202">
        <ele>697.6</ele>
        <time>2014-04-30T09:03:36Z</time>
      </trkpt>
      <trkpt lat="43.81713" lon="3.57198">
        <ele>697.6</ele>
        <time>2014-04-30T09:03:40Z</time>
      </trkpt>
      <trkpt lat="43.81723" lon="3.57194">
        <ele>697.9</ele>
        <time>2014-04-30T09:03:44Z</time>
      </trkpt>
      <trkpt lat="43.81734" lon="3.5719">
        <ele>696.9</ele>
        <time>2014-04-30T09:03:48Z</time>
      </trkpt>
      <trkpt lat="43.81745" lon="3.5719">
        <ele>695.4</ele>
        <time>2014-04-30T09:03:51Z</time>
      </trkpt>
      <trkpt lat="43.81754" lon="3.57186">
        <ele>693.6</ele>
        <time>2014-04-30T09:03:54Z</time>
      </trkpt>
      <trkpt lat="43.81763" lon="3.57183">
        <ele>692.9</ele>
        <time>2014-04-30T09:03:57Z</time>
      </trkpt>
      <trkpt lat="43.81774" lon="3.57183">
        <ele>691.8</ele>
        <time>2014-04-30T09:04:01Z</time>
      </trkpt>
      <trkpt lat="43.81783" lon="3.5718">
        <ele>693</ele>
        <time>2014-04-30T09:04:06Z</time>
      </trkpt>
      <trkpt lat="43.81792" lon="3.57172">
        <ele>691</ele>
        <time>2014-04-30T09:04:11Z</time>
      </trkpt>
      <trkpt lat="43.81803" lon="3.57169">
        <ele>691.5</ele>
        <time>2014-04-30T09:04:16Z</time>
      </trkpt>
      <trkpt lat="43.81809" lon="3.57159">
        <ele>691.4</ele>
        <time>2014-04-30T09:04:22Z</time>
      </trkpt>
      <trkpt lat="43.81819" lon="3.57156">
        <ele>691.6</ele>
        <time>2014-04-30T09:04:27Z</time>
      </trkpt>
      <trkpt lat="43.81829" lon="3.57154">
        <ele>689.8</ele>
        <time>2014-04-30T09:04:32Z</time>
      </trkpt>
      <trkpt lat="43.81839" lon="3.57155">
        <ele>688</ele>
        <time>2014-04-30T09:04:38Z</time>
      </trkpt>
      <trkpt lat="43.81849" lon="3.57149">
        <ele>687.2</ele>
        <time>2014-04-30T09:04:44Z</time>
      </trkpt>
      <trkpt lat="43.81859" lon="3.57145">
        <ele>686.9</ele>
        <time>2014-04-30T09:04:50Z</time>
      </trkpt>
      <trkpt lat="43.81869" lon="3.57145">
        <ele>686.5</ele>
        <time>2014-04-30T09:04:55Z</time>
      </trkpt>
      <trkpt lat="43.81879" lon="3.57139">
        <ele>686.5</ele>
        <time>2014-04-30T09:05:01Z</time>
      </trkpt>
      <trkpt lat="43.81888" lon="3.57131">
        <ele>684.9</ele>
        <time>2014-04-30T09:05:06Z</time>
      </trkpt>
      <trkpt lat="43.81898" lon="3.57128">
        <ele>685.3</ele>
        <time>2014-04-30T09:05:11Z</time>
      </trkpt>
      <trkpt lat="43.81907" lon="3.57137">
        <ele>684.4</ele>
        <time>2014-04-30T09:05:15Z</time>
      </trkpt>
      <trkpt lat="43.81913" lon="3.5715">
        <ele>684.9</ele>
        <time>2014-04-30T09:05:19Z</time>
      </trkpt>
      <trkpt lat="43.81923" lon="3.57151">
        <ele>684.7</ele>
        <time>2014-04-30T09:05:24Z</time>
      </trkpt>
      <trkpt lat="43.81935" lon="3.57148">
        <ele>684.2</ele>
        <time>2014-04-30T09:06:20Z</time>
      </trkpt>
      <trkpt lat="43.81946" lon="3.57144">
        <ele>683.5</ele>
        <time>2014-04-30T09:06:40Z</time>
      </trkpt>
      <trkpt lat="43.81956" lon="3.57135">
        <ele>682.7</ele>
        <time>2014-04-30T09:06:46Z</time>
      </trkpt>
      <trkpt lat="43.81966" lon="3.57127">
        <ele>682.2</ele>
        <time>2014-04-30T09:06:49Z</time>
      </trkpt>
      <trkpt lat="43.81975" lon="3.57121">
        <ele>681.8</ele>
        <time>2014-04-30T09:06:52Z</time>
      </trkpt>
      <trkpt lat="43.81984" lon="3.57113">
        <ele>681.7</ele>
        <time>2014-04-30T09:06:56Z</time>
      </trkpt>
      <trkpt lat="43.81993" lon="3.57104">
        <ele>682.5</ele>
        <time>2014-04-30T09:07:00Z</time>
      </trkpt>
      <trkpt lat="43.82002" lon="3.57095">
        <ele>682.1</ele>
        <time>2014-04-30T09:07:04Z</time>
      </trkpt>
      <trkpt lat="43.8201" lon="3.57087">
        <ele>680.7</ele>
        <time>2014-04-30T09:07:08Z</time>
      </trkpt>
      <trkpt lat="43.82021" lon="3.57085">
        <ele>680.5</ele>
        <time>2014-04-30T09:07:12Z</time>
      </trkpt>
      <trkpt lat="43.82033" lon="3.5709">
        <ele>680.6</ele>
        <time>2014-04-30T09:07:17Z</time>
      </trkpt>
      <trkpt lat="43.82041" lon="3.571">
        <ele>679</ele>
        <time>2014-04-30T09:07:20Z</time>
      </trkpt>
      <trkpt lat="43.82043" lon="3.57112">
        <ele>677.1</ele>
        <time>2014-04-30T09:07:23Z</time>
      </trkpt>
      <trkpt lat="43.82049" lon="3.57126">
        <ele>676.2</ele>
        <time>2014-04-30T09:07:28Z</time>
      </trkpt>
      <trkpt lat="43.82049" lon="3.57142">
        <ele>675.2</ele>
        <time>2014-04-30T09:07:33Z</time>
      </trkpt>
      <trkpt lat="43.82054" lon="3.57155">
        <ele>674.6</ele>
        <time>2014-04-30T09:07:38Z</time>
      </trkpt>
      <trkpt lat="43.8206" lon="3.57167">
        <ele>673.9</ele>
        <time>2014-04-30T09:07:42Z</time>
      </trkpt>
      <trkpt lat="43.82067" lon="3.57177">
        <ele>672.6</ele>
        <time>2014-04-30T09:07:46Z</time>
      </trkpt>
      <trkpt lat="43.82075" lon="3.57186">
        <ele>671.4</ele>
        <time>2014-04-30T09:07:50Z</time>
      </trkpt>
      <trkpt lat="43.82082" lon="3.57196">
        <ele>671.1</ele>
        <time>2014-04-30T09:07:54Z</time>
      </trkpt>
      <trkpt lat="43.82091" lon="3.57203">
        <ele>670.1</ele>
        <time>2014-04-30T09:07:59Z</time>
      </trkpt>
      <trkpt lat="43.82101" lon="3.57208">
        <ele>668.8</ele>
        <time>2014-04-30T09:08:04Z</time>
      </trkpt>
      <trkpt lat="43.82109" lon="3.57216">
        <ele>666.6</ele>
        <time>2014-04-30T09:08:08Z</time>
      </trkpt>
      <trkpt lat="43.82118" lon="3.57223">
        <ele>668.4</ele>
        <time>2014-04-30T09:08:15Z</time>
      </trkpt>
      <trkpt lat="43.82128" lon="3.57231">
        <ele>668.3</ele>
        <time>2014-04-30T09:08:20Z</time>
      </trkpt>
      <trkpt lat="43.82137" lon="3.57237">
        <ele>668.6</ele>
        <time>2014-04-30T09:08:26Z</time>
      </trkpt>
      <trkpt lat="43.82147" lon="3.5724">
        <ele>668.4</ele>
        <time>2014-04-30T09:08:33Z</time>
      </trkpt>
      <trkpt lat="43.82156" lon="3.57246">
        <ele>668</ele>
        <time>2014-04-30T09:08:37Z</time>
      </trkpt>
      <trkpt lat="43.82166" lon="3.57247">
        <ele>666.6</ele>
        <time>2014-04-30T09:08:43Z</time>
      </trkpt>
      <trkpt lat="43.82177" lon="3.57247">
        <ele>668.5</ele>
        <time>2014-04-30T09:08:49Z</time>
      </trkpt>
      <trkpt lat="43.82184" lon="3.57259">
        <ele>668.6</ele>
        <time>2014-04-30T09:08:54Z</time>
      </trkpt>
      <trkpt lat="43.82191" lon="3.57267">
        <ele>668.9</ele>
        <time>2014-04-30T09:09:00Z</time>
      </trkpt>
      <trkpt lat="43.82199" lon="3.57276">
        <ele>670.1</ele>
        <time>2014-04-30T09:09:08Z</time>
      </trkpt>
      <trkpt lat="43.82203" lon="3.57288">
        <ele>668.6</ele>
        <time>2014-04-30T09:09:12Z</time>
      </trkpt>
      <trkpt lat="43.82207" lon="3.573">
        <ele>667</ele>
        <time>2014-04-30T09:09:16Z</time>
      </trkpt>
      <trkpt lat="43.82211" lon="3.57315">
        <ele>667.3</ele>
        <time>2014-04-30T09:09:20Z</time>
      </trkpt>
      <trkpt lat="43.82214" lon="3.57331">
        <ele>667.4</ele>
        <time>2014-04-30T09:09:23Z</time>
      </trkpt>
      <trkpt lat="43.82216" lon="3.57349">
        <ele>666.2</ele>
        <time>2014-04-30T09:09:26Z</time>
      </trkpt>
      <trkpt lat="43.82216" lon="3.57361">
        <ele>665.3</ele>
        <time>2014-04-30T09:09:29Z</time>
      </trkpt>
      <trkpt lat="43.82207" lon="3.57364">
        <ele>662.3</ele>
        <time>2014-04-30T09:10:26Z</time>
      </trkpt>
      <trkpt lat="43.82199" lon="3.57356">
        <ele>661.4</ele>
        <time>2014-04-30T09:10:30Z</time>
      </trkpt>
      <trkpt lat="43.82188" lon="3.57358">
        <ele>655.1</ele>
        <time>2014-04-30T09:11:17Z</time>
      </trkpt>
      <trkpt lat="43.82181" lon="3.57368">
        <ele>653.2</ele>
        <time>2014-04-30T09:11:21Z</time>
      </trkpt>
      <trkpt lat="43.82174" lon="3.57376">
        <ele>650.6</ele>
        <time>2014-04-30T09:11:25Z</time>
      </trkpt>
      <trkpt lat="43.82166" lon="3.57386">
        <ele>646.3</ele>
        <time>2014-04-30T09:11:35Z</time>
      </trkpt>
      <trkpt lat="43.82163" lon="3.57398">
        <ele>643.4</ele>
        <time>2014-04-30T09:11:40Z</time>
      </trkpt>
      <trkpt lat="43.82167" lon="3.57409">
        <ele>641.7</ele>
        <time>2014-04-30T09:11:45Z</time>
      </trkpt>
      <trkpt lat="43.82172" lon="3.57421">
        <ele>640.7</ele>
        <time>2014-04-30T09:11:52Z</time>
      </trkpt>
      <trkpt lat="43.82162" lon="3.57421">
        <ele>637.9</ele>
        <time>2014-04-30T09:12:11Z</time>
      </trkpt>
      <trkpt lat="43.82158" lon="3.57433">
        <ele>633.4</ele>
        <time>2014-04-30T09:13:11Z</time>
      </trkpt>
      <trkpt lat="43.82163" lon="3.57444">
        <ele>630.9</ele>
        <time>2014-04-30T09:13:16Z</time>
      </trkpt>
      <trkpt lat="43.82159" lon="3.57456">
        <ele>624.9</ele>
        <time>2014-04-30T09:13:47Z</time>
      </trkpt>
      <trkpt lat="43.82161" lon="3.5747">
        <ele>622.5</ele>
        <time>2014-04-30T09:13:54Z</time>
      </trkpt>
      <trkpt lat="43.82155" lon="3.57481">
        <ele>614.1</ele>
        <time>2014-04-30T09:14:37Z</time>
      </trkpt>
      <trkpt lat="43.82154" lon="3.57495">
        <ele>611.8</ele>
        <time>2014-04-30T09:14:42Z</time>
      </trkpt>
      <trkpt lat="43.82156" lon="3.57509">
        <ele>609.7</ele>
        <time>2014-04-30T09:14:48Z</time>
      </trkpt>
      <trkpt lat="43.82145" lon="3.57504">
        <ele>608.1</ele>
        <time>2014-04-30T09:14:56Z</time>
      </trkpt>
      <trkpt lat="43.82138" lon="3.5749">
        <ele>606.1</ele>
        <time>2014-04-30T09:15:00Z</time>
      </trkpt>
      <trkpt lat="43.82131" lon="3.5748">
        <ele>604.7</ele>
        <time>2014-04-30T09:15:04Z</time>
      </trkpt>
      <trkpt lat="43.82122" lon="3.57473">
        <ele>603.4</ele>
        <time>2014-04-30T09:15:09Z</time>
      </trkpt>
      <trkpt lat="43.82114" lon="3.57466">
        <ele>602.1</ele>
        <time>2014-04-30T09:15:14Z</time>
      </trkpt>
      <trkpt lat="43.82107" lon="3.57458">
        <ele>600.1</ele>
        <time>2014-04-30T09:15:18Z</time>
      </trkpt>
      <trkpt lat="43.82099" lon="3.5745">
        <ele>598</ele>
        <time>2014-04-30T09:15:24Z</time>
      </trkpt>
      <trkpt lat="43.82103" lon="3.57462">
        <ele>595.9</ele>
        <time>2014-04-30T09:15:43Z</time>
      </trkpt>
      <trkpt lat="43.82107" lon="3.57473">
        <ele>594.5</ele>
        <time>2014-04-30T09:15:47Z</time>
      </trkpt>
      <trkpt lat="43.82097" lon="3.5747">
        <ele>592.8</ele>
        <time>2014-04-30T09:15:56Z</time>
      </trkpt>
      <trkpt lat="43.82089" lon="3.57461">
        <ele>590.7</ele>
        <time>2014-04-30T09:16:01Z</time>
      </trkpt>
      <trkpt lat="43.8208" lon="3.57453">
        <ele>589.1</ele>
        <time>2014-04-30T09:16:06Z</time>
      </trkpt>
      <trkpt lat="43.82071" lon="3.57449">
        <ele>587.2</ele>
        <time>2014-04-30T09:16:09Z</time>
      </trkpt>
      <trkpt lat="43.82062" lon="3.57443">
        <ele>586.2</ele>
        <time>2014-04-30T09:16:12Z</time>
      </trkpt>
      <trkpt lat="43.82053" lon="3.57437">
        <ele>585</ele>
        <time>2014-04-30T09:16:17Z</time>
      </trkpt>
      <trkpt lat="43.82047" lon="3.57426">
        <ele>583.9</ele>
        <time>2014-04-30T09:16:21Z</time>
      </trkpt>
      <trkpt lat="43.82037" lon="3.57423">
        <ele>582.4</ele>
        <time>2014-04-30T09:16:27Z</time>
      </trkpt>
      <trkpt lat="43.82026" lon="3.57428">
        <ele>574.4</ele>
        <time>2014-04-30T09:16:54Z</time>
      </trkpt>
      <trkpt lat="43.82017" lon="3.5743">
        <ele>573.1</ele>
        <time>2014-04-30T09:16:58Z</time>
      </trkpt>
      <trkpt lat="43.82007" lon="3.57435">
        <ele>571.3</ele>
        <time>2014-04-30T09:17:03Z</time>
      </trkpt>
      <trkpt lat="43.82" lon="3.57444">
        <ele>570</ele>
        <time>2014-04-30T09:17:07Z</time>
      </trkpt>
      <trkpt lat="43.8199" lon="3.57447">
        <ele>569.1</ele>
        <time>2014-04-30T09:17:11Z</time>
      </trkpt>
      <trkpt lat="43.8198" lon="3.57455">
        <ele>567.6</ele>
        <time>2014-04-30T09:17:15Z</time>
      </trkpt>
      <trkpt lat="43.81971" lon="3.57463">
        <ele>567.2</ele>
        <time>2014-04-30T09:17:19Z</time>
      </trkpt>
      <trkpt lat="43.81962" lon="3.57469">
        <ele>565.9</ele>
        <time>2014-04-30T09:17:24Z</time>
      </trkpt>
      <trkpt lat="43.81951" lon="3.57472">
        <ele>564.9</ele>
        <time>2014-04-30T09:17:29Z</time>
      </trkpt>
      <trkpt lat="43.81942" lon="3.57475">
        <ele>564.1</ele>
        <time>2014-04-30T09:17:35Z</time>
      </trkpt>
      <trkpt lat="43.81951" lon="3.57479">
        <ele>558.7</ele>
        <time>2014-04-30T09:17:57Z</time>
      </trkpt>
      <trkpt lat="43.81942" lon="3.57483">
        <ele>559</ele>
        <time>2014-04-30T09:18:06Z</time>
      </trkpt>
      <trkpt lat="43.81931" lon="3.57479">
        <ele>557.3</ele>
        <time>2014-04-30T09:18:10Z</time>
      </trkpt>
      <trkpt lat="43.81921" lon="3.57475">
        <ele>555.9</ele>
        <time>2014-04-30T09:18:15Z</time>
      </trkpt>
      <trkpt lat="43.81912" lon="3.57476">
        <ele>553.6</ele>
        <time>2014-04-30T09:18:19Z</time>
      </trkpt>
      <trkpt lat="43.81903" lon="3.57479">
        <ele>549.7</ele>
        <time>2014-04-30T09:18:25Z</time>
      </trkpt>
      <trkpt lat="43.81896" lon="3.57489">
        <ele>547.6</ele>
        <time>2014-04-30T09:18:30Z</time>
      </trkpt>
      <trkpt lat="43.81892" lon="3.57503">
        <ele>546.5</ele>
        <time>2014-04-30T09:18:36Z</time>
      </trkpt>
      <trkpt lat="43.81891" lon="3.57518">
        <ele>545.2</ele>
        <time>2014-04-30T09:18:42Z</time>
      </trkpt>
      <trkpt lat="43.81888" lon="3.57529">
        <ele>542.9</ele>
        <time>2014-04-30T09:18:46Z</time>
      </trkpt>
      <trkpt lat="43.81884" lon="3.57541">
        <ele>539.4</ele>
        <time>2014-04-30T09:18:53Z</time>
      </trkpt>
      <trkpt lat="43.81878" lon="3.57554">
        <ele>537.1</ele>
        <time>2014-04-30T09:19:15Z</time>
      </trkpt>
      <trkpt lat="43.81872" lon="3.57565">
        <ele>536.3</ele>
        <time>2014-04-30T09:19:19Z</time>
      </trkpt>
      <trkpt lat="43.81863" lon="3.57573">
        <ele>534.8</ele>
        <time>2014-04-30T09:19:23Z</time>
      </trkpt>
      <trkpt lat="43.81852" lon="3.57576">
        <ele>533</ele>
        <time>2014-04-30T09:19:27Z</time>
      </trkpt>
      <trkpt lat="43.81843" lon="3.57583">
        <ele>531</ele>
        <time>2014-04-30T09:19:30Z</time>
      </trkpt>
      <trkpt lat="43.81834" lon="3.57588">
        <ele>529.1</ele>
        <time>2014-04-30T09:19:34Z</time>
      </trkpt>
      <trkpt lat="43.81826" lon="3.57593">
        <ele>526.7</ele>
        <time>2014-04-30T09:19:38Z</time>
      </trkpt>
      <trkpt lat="43.81817" lon="3.57598">
        <ele>523.1</ele>
        <time>2014-04-30T09:19:45Z</time>
      </trkpt>
      <trkpt lat="43.81827" lon="3.57602">
        <ele>521.8</ele>
        <time>2014-04-30T09:19:54Z</time>
      </trkpt>
      <trkpt lat="43.81837" lon="3.57605">
        <ele>520.9</ele>
        <time>2014-04-30T09:19:58Z</time>
      </trkpt>
      <trkpt lat="43.81848" lon="3.57608">
        <ele>519.3</ele>
        <time>2014-04-30T09:20:04Z</time>
      </trkpt>
      <trkpt lat="43.81858" lon="3.5761">
        <ele>519.8</ele>
        <time>2014-04-30T09:20:09Z</time>
      </trkpt>
      <trkpt lat="43.81867" lon="3.57614">
        <ele>517.8</ele>
        <time>2014-04-30T09:20:13Z</time>
      </trkpt>
      <trkpt lat="43.81861" lon="3.57623">
        <ele>514.3</ele>
        <time>2014-04-30T09:20:27Z</time>
      </trkpt>
      <trkpt lat="43.81851" lon="3.57629">
        <ele>511.7</ele>
        <time>2014-04-30T09:20:32Z</time>
      </trkpt>
      <trkpt lat="43.81856" lon="3.57639">
        <ele>508.2</ele>
        <time>2014-04-30T09:20:50Z</time>
      </trkpt>
      <trkpt lat="43.81865" lon="3.57648">
        <ele>504.1</ele>
        <time>2014-04-30T09:20:57Z</time>
      </trkpt>
      <trkpt lat="43.81874" lon="3.57654">
        <ele>503.9</ele>
        <time>2014-04-30T09:21:02Z</time>
      </trkpt>
      <trkpt lat="43.81883" lon="3.57652">
        <ele>503.6</ele>
        <time>2014-04-30T09:21:06Z</time>
      </trkpt>
      <trkpt lat="43.81881" lon="3.57665">
        <ele>499.9</ele>
        <time>2014-04-30T09:21:17Z</time>
      </trkpt>
      <trkpt lat="43.81885" lon="3.57677">
        <ele>493.6</ele>
        <time>2014-04-30T09:21:33Z</time>
      </trkpt>
      <trkpt lat="43.81879" lon="3.57686">
        <ele>491.8</ele>
        <time>2014-04-30T09:21:38Z</time>
      </trkpt>
      <trkpt lat="43.8187" lon="3.57694">
        <ele>489.8</ele>
        <time>2014-04-30T09:21:43Z</time>
      </trkpt>
      <trkpt lat="43.8186" lon="3.57696">
        <ele>487.7</ele>
        <time>2014-04-30T09:21:47Z</time>
      </trkpt>
      <trkpt lat="43.81851" lon="3.57698">
        <ele>482.9</ele>
        <time>2014-04-30T09:22:06Z</time>
      </trkpt>
      <trkpt lat="43.81841" lon="3.57699">
        <ele>482.3</ele>
        <time>2014-04-30T09:22:11Z</time>
      </trkpt>
      <trkpt lat="43.81831" lon="3.577">
        <ele>480.1</ele>
        <time>2014-04-30T09:22:16Z</time>
      </trkpt>
      <trkpt lat="43.81837" lon="3.5771">
        <ele>477.6</ele>
        <time>2014-04-30T09:22:27Z</time>
      </trkpt>
      <trkpt lat="43.81831" lon="3.5772">
        <ele>474.6</ele>
        <time>2014-04-30T09:22:32Z</time>
      </trkpt>
      <trkpt lat="43.8183" lon="3.57733">
        <ele>472.6</ele>
        <time>2014-04-30T09:22:38Z</time>
      </trkpt>
      <trkpt lat="43.81829" lon="3.57748">
        <ele>453.9</ele>
        <time>2014-04-30T09:23:41Z</time>
      </trkpt>
      <trkpt lat="43.81833" lon="3.57759">
        <ele>454</ele>
        <time>2014-04-30T09:23:44Z</time>
      </trkpt>
      <trkpt lat="43.81833" lon="3.57775">
        <ele>450.2</ele>
        <time>2014-04-30T09:24:02Z</time>
      </trkpt>
      <trkpt lat="43.81834" lon="3.57792">
        <ele>448.5</ele>
        <time>2014-04-30T09:24:05Z</time>
      </trkpt>
      <trkpt lat="43.81834" lon="3.57807">
        <ele>446.7</ele>
        <time>2014-04-30T09:24:09Z</time>
      </trkpt>
      <trkpt lat="43.81834" lon="3.5782">
        <ele>445.3</ele>
        <time>2014-04-30T09:24:12Z</time>
      </trkpt>
      <trkpt lat="43.81831" lon="3.57833">
        <ele>443.7</ele>
        <time>2014-04-30T09:24:16Z</time>
      </trkpt>
      <trkpt lat="43.81828" lon="3.57846">
        <ele>441.1</ele>
        <time>2014-04-30T09:24:21Z</time>
      </trkpt>
      <trkpt lat="43.81837" lon="3.5785">
        <ele>439.5</ele>
        <time>2014-04-30T09:24:27Z</time>
      </trkpt>
      <trkpt lat="43.81838" lon="3.57863">
        <ele>437.3</ele>
        <time>2014-04-30T09:24:34Z</time>
      </trkpt>
      <trkpt lat="43.81834" lon="3.57875">
        <ele>435.8</ele>
        <time>2014-04-30T09:24:37Z</time>
      </trkpt>
      <trkpt lat="43.81828" lon="3.57889">
        <ele>433.4</ele>
        <time>2014-04-30T09:24:41Z</time>
      </trkpt>
      <trkpt lat="43.81821" lon="3.57901">
        <ele>430.5</ele>
        <time>2014-04-30T09:24:45Z</time>
      </trkpt>
      <trkpt lat="43.81813" lon="3.57909">
        <ele>428.1</ele>
        <time>2014-04-30T09:24:49Z</time>
      </trkpt>
      <trkpt lat="43.81806" lon="3.57917">
        <ele>426.9</ele>
        <time>2014-04-30T09:24:53Z</time>
      </trkpt>
      <trkpt lat="43.81798" lon="3.57924">
        <ele>425.1</ele>
        <time>2014-04-30T09:24:58Z</time>
      </trkpt>
      <trkpt lat="43.81802" lon="3.57938">
        <ele>422.7</ele>
        <time>2014-04-30T09:25:04Z</time>
      </trkpt>
      <trkpt lat="43.81811" lon="3.57943">
        <ele>420.6</ele>
        <time>2014-04-30T09:25:08Z</time>
      </trkpt>
      <trkpt lat="43.8182" lon="3.57946">
        <ele>419</ele>
        <time>2014-04-30T09:25:13Z</time>
      </trkpt>
      <trkpt lat="43.81817" lon="3.57958">
        <ele>415.2</ele>
        <time>2014-04-30T09:25:25Z</time>
      </trkpt>
      <trkpt lat="43.81808" lon="3.57968">
        <ele>413.1</ele>
        <time>2014-04-30T09:25:30Z</time>
      </trkpt>
      <trkpt lat="43.818" lon="3.57974">
        <ele>411.2</ele>
        <time>2014-04-30T09:25:34Z</time>
      </trkpt>
      <trkpt lat="43.8179" lon="3.57975">
        <ele>409.3</ele>
        <time>2014-04-30T09:25:39Z</time>
      </trkpt>
      <trkpt lat="43.81779" lon="3.57978">
        <ele>407.8</ele>
        <time>2014-04-30T09:25:44Z</time>
      </trkpt>
      <trkpt lat="43.81772" lon="3.57987">
        <ele>405.1</ele>
        <time>2014-04-30T09:25:49Z</time>
      </trkpt>
      <trkpt lat="43.81769" lon="3.57999">
        <ele>402.2</ele>
        <time>2014-04-30T09:25:54Z</time>
      </trkpt>
      <trkpt lat="43.81776" lon="3.58007">
        <ele>398</ele>
        <time>2014-04-30T09:26:01Z</time>
      </trkpt>
      <trkpt lat="43.81785" lon="3.5801">
        <ele>395</ele>
        <time>2014-04-30T09:26:06Z</time>
      </trkpt>
      <trkpt lat="43.8178" lon="3.58023">
        <ele>392.9</ele>
        <time>2014-04-30T09:26:13Z</time>
      </trkpt>
      <trkpt lat="43.81775" lon="3.58035">
        <ele>389</ele>
        <time>2014-04-30T09:26:18Z</time>
      </trkpt>
      <trkpt lat="43.8177" lon="3.58046">
        <ele>387.5</ele>
        <time>2014-04-30T09:26:22Z</time>
      </trkpt>
      <trkpt lat="43.81766" lon="3.58057">
        <ele>387.2</ele>
        <time>2014-04-30T09:26:27Z</time>
      </trkpt>
      <trkpt lat="43.81775" lon="3.58059">
        <ele>382.2</ele>
        <time>2014-04-30T09:26:47Z</time>
      </trkpt>
      <trkpt lat="43.81785" lon="3.58061">
        <ele>381.5</ele>
        <time>2014-04-30T09:26:51Z</time>
      </trkpt>
      <trkpt lat="43.81794" lon="3.58065">
        <ele>379.6</ele>
        <time>2014-04-30T09:26:54Z</time>
      </trkpt>
      <trkpt lat="43.81803" lon="3.58069">
        <ele>378.1</ele>
        <time>2014-04-30T09:26:58Z</time>
      </trkpt>
      <trkpt lat="43.81812" lon="3.58075">
        <ele>377.6</ele>
        <time>2014-04-30T09:27:03Z</time>
      </trkpt>
      <trkpt lat="43.81805" lon="3.58082">
        <ele>376</ele>
        <time>2014-04-30T09:27:10Z</time>
      </trkpt>
      <trkpt lat="43.81798" lon="3.58092">
        <ele>375.3</ele>
        <time>2014-04-30T09:27:15Z</time>
      </trkpt>
      <trkpt lat="43.81794" lon="3.58104">
        <ele>372.3</ele>
        <time>2014-04-30T09:27:23Z</time>
      </trkpt>
      <trkpt lat="43.81789" lon="3.58115">
        <ele>369.8</ele>
        <time>2014-04-30T09:27:27Z</time>
      </trkpt>
      <trkpt lat="43.81783" lon="3.58127">
        <ele>367.4</ele>
        <time>2014-04-30T09:27:32Z</time>
      </trkpt>
      <trkpt lat="43.81777" lon="3.5814">
        <ele>365.4</ele>
        <time>2014-04-30T09:27:37Z</time>
      </trkpt>
      <trkpt lat="43.8177" lon="3.58152">
        <ele>362.2</ele>
        <time>2014-04-30T09:27:43Z</time>
      </trkpt>
      <trkpt lat="43.81764" lon="3.58164">
        <ele>361</ele>
        <time>2014-04-30T09:27:47Z</time>
      </trkpt>
      <trkpt lat="43.81757" lon="3.58176">
        <ele>358.8</ele>
        <time>2014-04-30T09:27:52Z</time>
      </trkpt>
      <trkpt lat="43.81751" lon="3.58186">
        <ele>357.9</ele>
        <time>2014-04-30T09:27:56Z</time>
      </trkpt>
      <trkpt lat="43.81745" lon="3.58199">
        <ele>356.6</ele>
        <time>2014-04-30T09:28:00Z</time>
      </trkpt>
      <trkpt lat="43.81739" lon="3.5821">
        <ele>354.5</ele>
        <time>2014-04-30T09:28:05Z</time>
      </trkpt>
      <trkpt lat="43.81733" lon="3.58219">
        <ele>353</ele>
        <time>2014-04-30T09:28:09Z</time>
      </trkpt>
      <trkpt lat="43.81726" lon="3.58231">
        <ele>351</ele>
        <time>2014-04-30T09:28:14Z</time>
      </trkpt>
      <trkpt lat="43.8172" lon="3.58243">
        <ele>348.8</ele>
        <time>2014-04-30T09:28:19Z</time>
      </trkpt>
      <trkpt lat="43.81714" lon="3.58254">
        <ele>346.4</ele>
        <time>2014-04-30T09:28:24Z</time>
      </trkpt>
      <trkpt lat="43.81708" lon="3.58264">
        <ele>345.8</ele>
        <time>2014-04-30T09:28:28Z</time>
      </trkpt>
      <trkpt lat="43.81701" lon="3.58274">
        <ele>342.9</ele>
        <time>2014-04-30T09:28:39Z</time>
      </trkpt>
      <trkpt lat="43.81696" lon="3.58287">
        <ele>342</ele>
        <time>2014-04-30T09:28:44Z</time>
      </trkpt>
      <trkpt lat="43.81689" lon="3.58295">
        <ele>339.9</ele>
        <time>2014-04-30T09:28:49Z</time>
      </trkpt>
      <trkpt lat="43.81682" lon="3.58306">
        <ele>336.3</ele>
        <time>2014-04-30T09:28:55Z</time>
      </trkpt>
      <trkpt lat="43.81673" lon="3.58312">
        <ele>334</ele>
        <time>2014-04-30T09:29:00Z</time>
      </trkpt>
      <trkpt lat="43.81665" lon="3.58321">
        <ele>320.9</ele>
        <time>2014-04-30T09:30:00Z</time>
      </trkpt>
      <trkpt lat="43.8166" lon="3.58332">
        <ele>320.2</ele>
        <time>2014-04-30T09:30:03Z</time>
      </trkpt>
      <trkpt lat="43.81654" lon="3.58341">
        <ele>317.5</ele>
        <time>2014-04-30T09:30:07Z</time>
      </trkpt>
      <trkpt lat="43.81652" lon="3.58353">
        <ele>309.1</ele>
        <time>2014-04-30T09:30:52Z</time>
      </trkpt>
      <trkpt lat="43.81652" lon="3.58367">
        <ele>306.5</ele>
        <time>2014-04-30T09:31:03Z</time>
      </trkpt>
      <trkpt lat="43.81655" lon="3.58382">
        <ele>305.3</ele>
        <time>2014-04-30T09:31:06Z</time>
      </trkpt>
      <trkpt lat="43.81659" lon="3.58395">
        <ele>303.6</ele>
        <time>2014-04-30T09:31:09Z</time>
      </trkpt>
      <trkpt lat="43.81663" lon="3.58407">
        <ele>300.7</ele>
        <time>2014-04-30T09:31:13Z</time>
      </trkpt>
      <trkpt lat="43.81661" lon="3.58422">
        <ele>294.5</ele>
        <time>2014-04-30T09:32:04Z</time>
      </trkpt>
      <trkpt lat="43.81656" lon="3.58435">
        <ele>294.1</ele>
        <time>2014-04-30T09:32:08Z</time>
      </trkpt>
      <trkpt lat="43.81649" lon="3.58447">
        <ele>292.3</ele>
        <time>2014-04-30T09:32:12Z</time>
      </trkpt>
      <trkpt lat="43.81641" lon="3.58458">
        <ele>290.7</ele>
        <time>2014-04-30T09:32:16Z</time>
      </trkpt>
      <trkpt lat="43.81634" lon="3.58469">
        <ele>289.2</ele>
        <time>2014-04-30T09:32:20Z</time>
      </trkpt>
      <trkpt lat="43.81626" lon="3.58479">
        <ele>286.8</ele>
        <time>2014-04-30T09:32:23Z</time>
      </trkpt>
      <trkpt lat="43.81618" lon="3.58489">
        <ele>283.3</ele>
        <time>2014-04-30T09:32:27Z</time>
      </trkpt>
      <trkpt lat="43.81617" lon="3.58502">
        <ele>279.9</ele>
        <time>2014-04-30T09:32:59Z</time>
      </trkpt>
      <trkpt lat="43.81612" lon="3.58514">
        <ele>278.3</ele>
        <time>2014-04-30T09:33:05Z</time>
      </trkpt>
      <trkpt lat="43.81603" lon="3.58523">
        <ele>277.2</ele>
        <time>2014-04-30T09:33:09Z</time>
      </trkpt>
      <trkpt lat="43.81605" lon="3.58537">
        <ele>275.2</ele>
        <time>2014-04-30T09:33:14Z</time>
      </trkpt>
      <trkpt lat="43.81609" lon="3.5855">
        <ele>272.5</ele>
        <time>2014-04-30T09:33:18Z</time>
      </trkpt>
      <trkpt lat="43.81597" lon="3.58554">
        <ele>271.7</ele>
        <time>2014-04-30T09:33:22Z</time>
      </trkpt>
      <trkpt lat="43.81588" lon="3.58555">
        <ele>271.9</ele>
        <time>2014-04-30T09:33:24Z</time>
      </trkpt>
      <trkpt lat="43.81578" lon="3.58559">
        <ele>270.2</ele>
        <time>2014-04-30T09:33:27Z</time>
      </trkpt>
      <trkpt lat="43.81583" lon="3.58572">
        <ele>267.5</ele>
        <time>2014-04-30T09:33:31Z</time>
      </trkpt>
      <trkpt lat="43.81574" lon="3.58581">
        <ele>265.2</ele>
        <time>2014-04-30T09:33:36Z</time>
      </trkpt>
      <trkpt lat="43.81563" lon="3.58579">
        <ele>262.8</ele>
        <time>2014-04-30T09:33:39Z</time>
      </trkpt>
      <trkpt lat="43.81552" lon="3.58584">
        <ele>260.5</ele>
        <time>2014-04-30T09:33:43Z</time>
      </trkpt>
      <trkpt lat="43.81558" lon="3.58597">
        <ele>258.3</ele>
        <time>2014-04-30T09:33:47Z</time>
      </trkpt>
      <trkpt lat="43.81569" lon="3.58604">
        <ele>256.8</ele>
        <time>2014-04-30T09:33:50Z</time>
      </trkpt>
      <trkpt lat="43.81579" lon="3.58611">
        <ele>255.3</ele>
        <time>2014-04-30T09:33:53Z</time>
      </trkpt>
      <trkpt lat="43.81585" lon="3.58623">
        <ele>254.7</ele>
        <time>2014-04-30T09:33:57Z</time>
      </trkpt>
      <trkpt lat="43.81577" lon="3.58631">
        <ele>253.5</ele>
        <time>2014-04-30T09:34:01Z</time>
      </trkpt>
      <trkpt lat="43.81565" lon="3.58634">
        <ele>252.5</ele>
        <time>2014-04-30T09:34:04Z</time>
      </trkpt>
      <trkpt lat="43.81553" lon="3.58639">
        <ele>251.2</ele>
        <time>2014-04-30T09:34:07Z</time>
      </trkpt>
      <trkpt lat="43.81545" lon="3.58644">
        <ele>249.5</ele>
        <time>2014-04-30T09:34:09Z</time>
      </trkpt>
      <trkpt lat="43.81535" lon="3.58649">
        <ele>247.3</ele>
        <time>2014-04-30T09:34:12Z</time>
      </trkpt>
      <trkpt lat="43.81525" lon="3.58648">
        <ele>244.6</ele>
        <time>2014-04-30T09:34:15Z</time>
      </trkpt>
      <trkpt lat="43.81515" lon="3.58648">
        <ele>242.7</ele>
        <time>2014-04-30T09:34:17Z</time>
      </trkpt>
      <trkpt lat="43.81503" lon="3.58647">
        <ele>240.9</ele>
        <time>2014-04-30T09:34:19Z</time>
      </trkpt>
      <trkpt lat="43.81492" lon="3.58643">
        <ele>239.3</ele>
        <time>2014-04-30T09:34:21Z</time>
      </trkpt>
      <trkpt lat="43.81482" lon="3.5864">
        <ele>238.1</ele>
        <time>2014-04-30T09:34:23Z</time>
      </trkpt>
      <trkpt lat="43.81472" lon="3.58638">
        <ele>237.2</ele>
        <time>2014-04-30T09:34:25Z</time>
      </trkpt>
      <trkpt lat="43.81461" lon="3.58637">
        <ele>236.5</ele>
        <time>2014-04-30T09:34:28Z</time>
      </trkpt>
      <trkpt lat="43.81451" lon="3.58637">
        <ele>234.1</ele>
        <time>2014-04-30T09:34:31Z</time>
      </trkpt>
      <trkpt lat="43.81439" lon="3.58638">
        <ele>232.9</ele>
        <time>2014-04-30T09:34:34Z</time>
      </trkpt>
      <trkpt lat="43.81426" lon="3.5864">
        <ele>231</ele>
        <time>2014-04-30T09:34:37Z</time>
      </trkpt>
      <trkpt lat="43.81413" lon="3.58643">
        <ele>229.7</ele>
        <time>2014-04-30T09:34:40Z</time>
      </trkpt>
      <trkpt lat="43.81402" lon="3.58651">
        <ele>228.6</ele>
        <time>2014-04-30T09:34:43Z</time>
      </trkpt>
      <trkpt lat="43.81394" lon="3.58661">
        <ele>227.3</ele>
        <time>2014-04-30T09:34:45Z</time>
      </trkpt>
      <trkpt lat="43.81382" lon="3.58671">
        <ele>225.9</ele>
        <time>2014-04-30T09:34:47Z</time>
      </trkpt>
      <trkpt lat="43.81369" lon="3.58682">
        <ele>224.4</ele>
        <time>2014-04-30T09:34:49Z</time>
      </trkpt>
      <trkpt lat="43.81357" lon="3.58692">
        <ele>222.4</ele>
        <time>2014-04-30T09:34:51Z</time>
      </trkpt>
      <trkpt lat="43.81347" lon="3.587">
        <ele>220.5</ele>
        <time>2014-04-30T09:34:53Z</time>
      </trkpt>
      <trkpt lat="43.81336" lon="3.58708">
        <ele>218.4</ele>
        <time>2014-04-30T09:34:56Z</time>
      </trkpt>
      <trkpt lat="43.81327" lon="3.58715">
        <ele>217.2</ele>
        <time>2014-04-30T09:34:59Z</time>
      </trkpt>
      <trkpt lat="43.8132" lon="3.58724">
        <ele>216.4</ele>
        <time>2014-04-30T09:35:02Z</time>
      </trkpt>
      <trkpt lat="43.8131" lon="3.58734">
        <ele>215.4</ele>
        <time>2014-04-30T09:35:05Z</time>
      </trkpt>
      <trkpt lat="43.81301" lon="3.5874">
        <ele>214</ele>
        <time>2014-04-30T09:35:08Z</time>
      </trkpt>
      <trkpt lat="43.81292" lon="3.58751">
        <ele>213.1</ele>
        <time>2014-04-30T09:35:11Z</time>
      </trkpt>
      <trkpt lat="43.81286" lon="3.58762">
        <ele>212.6</ele>
        <time>2014-04-30T09:35:13Z</time>
      </trkpt>
      <trkpt lat="43.81281" lon="3.58774">
        <ele>212</ele>
        <time>2014-04-30T09:35:15Z</time>
      </trkpt>
      <trkpt lat="43.81274" lon="3.58787">
        <ele>210.2</ele>
        <time>2014-04-30T09:35:18Z</time>
      </trkpt>
      <trkpt lat="43.81267" lon="3.58796">
        <ele>207.2</ele>
        <time>2014-04-30T09:35:23Z</time>
      </trkpt>
      <trkpt lat="43.81269" lon="3.58808">
        <ele>205.7</ele>
        <time>2014-04-30T09:35:27Z</time>
      </trkpt>
      <trkpt lat="43.81273" lon="3.58819">
        <ele>203.4</ele>
        <time>2014-04-30T09:35:32Z</time>
      </trkpt>
      <trkpt lat="43.81269" lon="3.5883">
        <ele>201.6</ele>
        <time>2014-04-30T09:35:38Z</time>
      </trkpt>
      <trkpt lat="43.81262" lon="3.58839">
        <ele>200.3</ele>
        <time>2014-04-30T09:35:43Z</time>
      </trkpt>
      <trkpt lat="43.81256" lon="3.58852">
        <ele>198.8</ele>
        <time>2014-04-30T09:35:49Z</time>
      </trkpt>
      <trkpt lat="43.81257" lon="3.58865">
        <ele>197.6</ele>
        <time>2014-04-30T09:35:56Z</time>
      </trkpt>
      <trkpt lat="43.81261" lon="3.58878">
        <ele>194</ele>
        <time>2014-04-30T09:36:03Z</time>
      </trkpt>
      <trkpt lat="43.8126" lon="3.58892">
        <ele>191.9</ele>
        <time>2014-04-30T09:36:09Z</time>
      </trkpt>
      <trkpt lat="43.8126" lon="3.58908">
        <ele>189</ele>
        <time>2014-04-30T09:36:15Z</time>
      </trkpt>
      <trkpt lat="43.81266" lon="3.58921">
        <ele>187.7</ele>
        <time>2014-04-30T09:36:19Z</time>
      </trkpt>
      <trkpt lat="43.8127" lon="3.58933">
        <ele>186.3</ele>
        <time>2014-04-30T09:36:23Z</time>
      </trkpt>
      <trkpt lat="43.81269" lon="3.58947">
        <ele>184.4</ele>
        <time>2014-04-30T09:36:28Z</time>
      </trkpt>
      <trkpt lat="43.81269" lon="3.58962">
        <ele>183.7</ele>
        <time>2014-04-30T09:36:33Z</time>
      </trkpt>
      <trkpt lat="43.81269" lon="3.58976">
        <ele>182.4</ele>
        <time>2014-04-30T09:36:37Z</time>
      </trkpt>
      <trkpt lat="43.8127" lon="3.5899">
        <ele>180.7</ele>
        <time>2014-04-30T09:36:42Z</time>
      </trkpt>
      <trkpt lat="43.8127" lon="3.59005">
        <ele>180</ele>
        <time>2014-04-30T09:36:46Z</time>
      </trkpt>
      <trkpt lat="43.81265" lon="3.59017">
        <ele>179.8</ele>
        <time>2014-04-30T09:36:51Z</time>
      </trkpt>
      <trkpt lat="43.81271" lon="3.59029">
        <ele>175.4</ele>
        <time>2014-04-30T09:37:16Z</time>
      </trkpt>
      <trkpt lat="43.81279" lon="3.59036">
        <ele>175.2</ele>
        <time>2014-04-30T09:37:19Z</time>
      </trkpt>
      <trkpt lat="43.81289" lon="3.59043">
        <ele>174.5</ele>
        <time>2014-04-30T09:37:22Z</time>
      </trkpt>
      <trkpt lat="43.81301" lon="3.59042">
        <ele>174.2</ele>
        <time>2014-04-30T09:37:25Z</time>
      </trkpt>
      <trkpt lat="43.81312" lon="3.59043">
        <ele>173</ele>
        <time>2014-04-30T09:37:28Z</time>
      </trkpt>
      <trkpt lat="43.81325" lon="3.59047">
        <ele>172.5</ele>
        <time>2014-04-30T09:37:31Z</time>
      </trkpt>
      <trkpt lat="43.81334" lon="3.59057">
        <ele>172.6</ele>
        <time>2014-04-30T09:37:34Z</time>
      </trkpt>
      <trkpt lat="43.8134" lon="3.59071">
        <ele>170.4</ele>
        <time>2014-04-30T09:40:03Z</time>
      </trkpt>
      <trkpt lat="43.81343" lon="3.59087">
        <ele>170.9</ele>
        <time>2014-04-30T09:40:06Z</time>
      </trkpt>
      <trkpt lat="43.81346" lon="3.59102">
        <ele>170.8</ele>
        <time>2014-04-30T09:40:09Z</time>
      </trkpt>
      <trkpt lat="43.8135" lon="3.59116">
        <ele>170.5</ele>
        <time>2014-04-30T09:40:12Z</time>
      </trkpt>
      <trkpt lat="43.81357" lon="3.59129">
        <ele>169.9</ele>
        <time>2014-04-30T09:40:16Z</time>
      </trkpt>
      <trkpt lat="43.81363" lon="3.59139">
        <ele>171.3</ele>
        <time>2014-04-30T09:40:20Z</time>
      </trkpt>
      <trkpt lat="43.8137" lon="3.59151">
        <ele>171.6</ele>
        <time>2014-04-30T09:40:25Z</time>
      </trkpt>
      <trkpt lat="43.81377" lon="3.59159">
        <ele>170.6</ele>
        <time>2014-04-30T09:40:30Z</time>
      </trkpt>
      <trkpt lat="43.81384" lon="3.59167">
        <ele>169.7</ele>
        <time>2014-04-30T09:40:35Z</time>
      </trkpt>
      <trkpt lat="43.81393" lon="3.59177">
        <ele>170.7</ele>
        <time>2014-04-30T09:40:40Z</time>
      </trkpt>
      <trkpt lat="43.814" lon="3.59186">
        <ele>172.1</ele>
        <time>2014-04-30T09:40:46Z</time>
      </trkpt>
      <trkpt lat="43.81406" lon="3.59196">
        <ele>173.4</ele>
        <time>2014-04-30T09:40:52Z</time>
      </trkpt>
      <trkpt lat="43.814" lon="3.59184">
        <ele>174.7</ele>
        <time>2014-04-30T09:41:41Z</time>
      </trkpt>
      <trkpt lat="43.81393" lon="3.59173">
        <ele>173.1</ele>
        <time>2014-04-30T09:41:46Z</time>
      </trkpt>
      <trkpt lat="43.81384" lon="3.59166">
        <ele>172.2</ele>
        <time>2014-04-30T09:41:49Z</time>
      </trkpt>
      <trkpt lat="43.81377" lon="3.59156">
        <ele>171.2</ele>
        <time>2014-04-30T09:41:52Z</time>
      </trkpt>
      <trkpt lat="43.81372" lon="3.59146">
        <ele>170.5</ele>
        <time>2014-04-30T09:41:55Z</time>
      </trkpt>
      <trkpt lat="43.81365" lon="3.59135">
        <ele>170</ele>
        <time>2014-04-30T09:42:00Z</time>
      </trkpt>
      <trkpt lat="43.81359" lon="3.59122">
        <ele>169.3</ele>
        <time>2014-04-30T09:45:04Z</time>
      </trkpt>
      <trkpt lat="43.81355" lon="3.59108">
        <ele>168.6</ele>
        <time>2014-04-30T09:45:08Z</time>
      </trkpt>
      <trkpt lat="43.81351" lon="3.59095">
        <ele>168.3</ele>
        <time>2014-04-30T09:45:12Z</time>
      </trkpt>
      <trkpt lat="43.81346" lon="3.59084">
        <ele>169.2</ele>
        <time>2014-04-30T09:45:16Z</time>
      </trkpt>
      <trkpt lat="43.81343" lon="3.59072">
        <ele>169.3</ele>
        <time>2014-04-30T09:45:20Z</time>
      </trkpt>
      <trkpt lat="43.81337" lon="3.59062">
        <ele>169.5</ele>
        <time>2014-04-30T09:45:24Z</time>
      </trkpt>
      <trkpt lat="43.81327" lon="3.59057">
        <ele>169.9</ele>
        <time>2014-04-30T09:45:28Z</time>
      </trkpt>
      <trkpt lat="43.81317" lon="3.59055">
        <ele>170.1</ele>
        <time>2014-04-30T09:45:32Z</time>
      </trkpt>
      <trkpt lat="43.81308" lon="3.59057">
        <ele>169.9</ele>
        <time>2014-04-30T09:45:36Z</time>
      </trkpt>
      <trkpt lat="43.81297" lon="3.59059">
        <ele>170.8</ele>
        <time>2014-04-30T09:45:41Z</time>
      </trkpt>
      <trkpt lat="43.81287" lon="3.59055">
        <ele>171.4</ele>
        <time>2014-04-30T09:45:46Z</time>
      </trkpt>
      <trkpt lat="43.81277" lon="3.5905">
        <ele>171.6</ele>
        <time>2014-04-30T09:45:51Z</time>
      </trkpt>
      <trkpt lat="43.81268" lon="3.59046">
        <ele>173.4</ele>
        <time>2014-04-30T09:45:56Z</time>
      </trkpt>
      <trkpt lat="43.81259" lon="3.59053">
        <ele>174.3</ele>
        <time>2014-04-30T09:46:12Z</time>
      </trkpt>
      <trkpt lat="43.81258" lon="3.59069">
        <ele>173.9</ele>
        <time>2014-04-30T09:46:15Z</time>
      </trkpt>
      <trkpt lat="43.81258" lon="3.59084">
        <ele>173.2</ele>
        <time>2014-04-30T09:46:17Z</time>
      </trkpt>
      <trkpt lat="43.81257" lon="3.591">
        <ele>172.6</ele>
        <time>2014-04-30T09:46:19Z</time>
      </trkpt>
      <trkpt lat="43.81252" lon="3.59112">
        <ele>170.9</ele>
        <time>2014-04-30T09:46:21Z</time>
      </trkpt>
      <trkpt lat="43.81242" lon="3.59117">
        <ele>170</ele>
        <time>2014-04-30T09:46:23Z</time>
      </trkpt>
      <trkpt lat="43.81233" lon="3.59121">
        <ele>170</ele>
        <time>2014-04-30T09:46:25Z</time>
      </trkpt>
      <trkpt lat="43.81223" lon="3.59125">
        <ele>169.9</ele>
        <time>2014-04-30T09:46:27Z</time>
      </trkpt>
      <trkpt lat="43.81214" lon="3.59128">
        <ele>169.8</ele>
        <time>2014-04-30T09:46:29Z</time>
      </trkpt>
      <trkpt lat="43.81202" lon="3.59133">
        <ele>168.5</ele>
        <time>2014-04-30T09:46:32Z</time>
      </trkpt>
      <trkpt lat="43.81191" lon="3.59137">
        <ele>168.3</ele>
        <time>2014-04-30T09:46:35Z</time>
      </trkpt>
      <trkpt lat="43.81181" lon="3.59142">
        <ele>168.6</ele>
        <time>2014-04-30T09:46:38Z</time>
      </trkpt>
      <trkpt lat="43.8117" lon="3.59147">
        <ele>169</ele>
        <time>2014-04-30T09:46:42Z</time>
      </trkpt>
      <trkpt lat="43.81161" lon="3.59151">
        <ele>168.9</ele>
        <time>2014-04-30T09:46:45Z</time>
      </trkpt>
      <trkpt lat="43.81152" lon="3.59156">
        <ele>169.2</ele>
        <time>2014-04-30T09:46:48Z</time>
      </trkpt>
      <trkpt lat="43.81143" lon="3.59161">
        <ele>169.6</ele>
        <time>2014-04-30T09:46:51Z</time>
      </trkpt>
      <trkpt lat="43.81134" lon="3.59165">
        <ele>169.4</ele>
        <time>2014-04-30T09:46:54Z</time>
      </trkpt>
      <trkpt lat="43.81125" lon="3.59168">
        <ele>168.4</ele>
        <time>2014-04-30T09:46:57Z</time>
      </trkpt>
      <trkpt lat="43.81116" lon="3.59172">
        <ele>168.8</ele>
        <time>2014-04-30T09:47:01Z</time>
      </trkpt>
      <trkpt lat="43.81112" lon="3.59183">
        <ele>169.1</ele>
        <time>2014-04-30T09:47:06Z</time>
      </trkpt>
      <trkpt lat="43.8111" lon="3.59198">
        <ele>169.2</ele>
        <time>2014-04-30T09:47:10Z</time>
      </trkpt>
      <trkpt lat="43.81102" lon="3.59201">
        <ele>169.9</ele>
        <time>2014-04-30T09:47:13Z</time>
      </trkpt>
      <trkpt lat="43.81091" lon="3.59201">
        <ele>170.2</ele>
        <time>2014-04-30T09:47:16Z</time>
      </trkpt>
      <trkpt lat="43.8108" lon="3.59202">
        <ele>170.3</ele>
        <time>2014-04-30T09:47:19Z</time>
      </trkpt>
      <trkpt lat="43.81069" lon="3.59205">
        <ele>169.9</ele>
        <time>2014-04-30T09:47:22Z</time>
      </trkpt>
      <trkpt lat="43.81058" lon="3.59209">
        <ele>169.6</ele>
        <time>2014-04-30T09:47:25Z</time>
      </trkpt>
      <trkpt lat="43.81049" lon="3.59215">
        <ele>169.7</ele>
        <time>2014-04-30T09:47:28Z</time>
      </trkpt>
      <trkpt lat="43.8104" lon="3.5922">
        <ele>169.8</ele>
        <time>2014-04-30T09:47:31Z</time>
      </trkpt>
      <trkpt lat="43.81032" lon="3.59225">
        <ele>169.1</ele>
        <time>2014-04-30T09:47:34Z</time>
      </trkpt>
      <trkpt lat="43.81021" lon="3.5923">
        <ele>167.9</ele>
        <time>2014-04-30T09:47:38Z</time>
      </trkpt>
      <trkpt lat="43.81013" lon="3.59234">
        <ele>168.4</ele>
        <time>2014-04-30T09:48:02Z</time>
      </trkpt>
      <trkpt lat="43.81003" lon="3.59242">
        <ele>170.8</ele>
        <time>2014-04-30T09:48:49Z</time>
      </trkpt>
      <trkpt lat="43.80995" lon="3.59249">
        <ele>170.4</ele>
        <time>2014-04-30T09:48:52Z</time>
      </trkpt>
      <trkpt lat="43.80988" lon="3.59257">
        <ele>170.4</ele>
        <time>2014-04-30T09:48:55Z</time>
      </trkpt>
      <trkpt lat="43.80981" lon="3.59265">
        <ele>169.9</ele>
        <time>2014-04-30T09:48:58Z</time>
      </trkpt>
      <trkpt lat="43.80974" lon="3.59274">
        <ele>170.1</ele>
        <time>2014-04-30T09:49:01Z</time>
      </trkpt>
      <trkpt lat="43.80967" lon="3.59283">
        <ele>171.4</ele>
        <time>2014-04-30T09:49:04Z</time>
      </trkpt>
      <trkpt lat="43.8096" lon="3.59292">
        <ele>171.1</ele>
        <time>2014-04-30T09:49:07Z</time>
      </trkpt>
      <trkpt lat="43.80953" lon="3.59301">
        <ele>171</ele>
        <time>2014-04-30T09:49:10Z</time>
      </trkpt>
      <trkpt lat="43.80943" lon="3.59311">
        <ele>171.2</ele>
        <time>2014-04-30T09:49:14Z</time>
      </trkpt>
      <trkpt lat="43.80934" lon="3.59316">
        <ele>171.5</ele>
        <time>2014-04-30T09:49:17Z</time>
      </trkpt>
      <trkpt lat="43.80923" lon="3.59316">
        <ele>171.7</ele>
        <time>2014-04-30T09:49:20Z</time>
      </trkpt>
      <trkpt lat="43.80913" lon="3.59317">
        <ele>172.2</ele>
        <time>2014-04-30T09:49:23Z</time>
      </trkpt>
      <trkpt lat="43.80902" lon="3.59318">
        <ele>172.2</ele>
        <time>2014-04-30T09:49:26Z</time>
      </trkpt>
      <trkpt lat="43.80891" lon="3.59319">
        <ele>171.9</ele>
        <time>2014-04-30T09:49:29Z</time>
      </trkpt>
      <trkpt lat="43.80881" lon="3.5932">
        <ele>172</ele>
        <time>2014-04-30T09:49:32Z</time>
      </trkpt>
      <trkpt lat="43.80871" lon="3.59321">
        <ele>172.3</ele>
        <time>2014-04-30T09:49:35Z</time>
      </trkpt>
      <trkpt lat="43.80861" lon="3.59321">
        <ele>173.2</ele>
        <time>2014-04-30T09:49:38Z</time>
      </trkpt>
      <trkpt lat="43.80851" lon="3.59321">
        <ele>174</ele>
        <time>2014-04-30T09:49:41Z</time>
      </trkpt>
      <trkpt lat="43.80841" lon="3.59321">
        <ele>174.2</ele>
        <time>2014-04-30T09:49:44Z</time>
      </trkpt>
      <trkpt lat="43.8083" lon="3.59321">
        <ele>174.3</ele>
        <time>2014-04-30T09:49:47Z</time>
      </trkpt>
      <trkpt lat="43.80821" lon="3.5932">
        <ele>174.5</ele>
        <time>2014-04-30T09:49:50Z</time>
      </trkpt>
      <trkpt lat="43.80811" lon="3.59318">
        <ele>175</ele>
        <time>2014-04-30T09:49:54Z</time>
      </trkpt>
      <trkpt lat="43.80802" lon="3.59313">
        <ele>175.5</ele>
        <time>2014-04-30T09:49:58Z</time>
      </trkpt>
      <trkpt lat="43.80793" lon="3.59306">
        <ele>176.5</ele>
        <time>2014-04-30T09:50:03Z</time>
      </trkpt>
      <trkpt lat="43.80783" lon="3.59302">
        <ele>176.1</ele>
        <time>2014-04-30T09:50:07Z</time>
      </trkpt>
      <trkpt lat="43.80791" lon="3.59309">
        <ele>176.9</ele>
        <time>2014-04-30T09:50:25Z</time>
      </trkpt>
      <trkpt lat="43.808" lon="3.59315">
        <ele>177.4</ele>
        <time>2014-04-30T09:50:29Z</time>
      </trkpt>
      <trkpt lat="43.80809" lon="3.59319">
        <ele>177.6</ele>
        <time>2014-04-30T09:50:32Z</time>
      </trkpt>
      <trkpt lat="43.8082" lon="3.59319">
        <ele>176.8</ele>
        <time>2014-04-30T09:50:35Z</time>
      </trkpt>
      <trkpt lat="43.80825" lon="3.59308">
        <ele>176.1</ele>
        <time>2014-04-30T09:50:38Z</time>
      </trkpt>
      <trkpt lat="43.80826" lon="3.59292">
        <ele>176.5</ele>
        <time>2014-04-30T09:50:41Z</time>
      </trkpt>
      <trkpt lat="43.80828" lon="3.59275">
        <ele>175.5</ele>
        <time>2014-04-30T09:50:44Z</time>
      </trkpt>
      <trkpt lat="43.8083" lon="3.59261">
        <ele>175.8</ele>
        <time>2014-04-30T09:50:47Z</time>
      </trkpt>
      <trkpt lat="43.80823" lon="3.59249">
        <ele>175.1</ele>
        <time>2014-04-30T09:50:51Z</time>
      </trkpt>
      <trkpt lat="43.80815" lon="3.59244">
        <ele>175</ele>
        <time>2014-04-30T09:50:55Z</time>
      </trkpt>
      <trkpt lat="43.80806" lon="3.59234">
        <ele>175.2</ele>
        <time>2014-04-30T09:51:00Z</time>
      </trkpt>
      <trkpt lat="43.808" lon="3.59225">
        <ele>175.1</ele>
        <time>2014-04-30T09:51:04Z</time>
      </trkpt>
      <trkpt lat="43.80789" lon="3.5922">
        <ele>175.9</ele>
        <time>2014-04-30T09:51:09Z</time>
      </trkpt>
      <trkpt lat="43.8078" lon="3.59219">
        <ele>175.7</ele>
        <time>2014-04-30T09:51:13Z</time>
      </trkpt>
      <trkpt lat="43.80771" lon="3.59215">
        <ele>177.8</ele>
        <time>2014-04-30T09:51:17Z</time>
      </trkpt>
      <trkpt lat="43.80761" lon="3.59215">
        <ele>178.9</ele>
        <time>2014-04-30T09:51:21Z</time>
      </trkpt>
      <trkpt lat="43.80753" lon="3.5921">
        <ele>179.6</ele>
        <time>2014-04-30T09:51:25Z</time>
      </trkpt>
      <trkpt lat="43.80747" lon="3.59199">
        <ele>179.7</ele>
        <time>2014-04-30T09:51:30Z</time>
      </trkpt>
      <trkpt lat="43.80748" lon="3.59187">
        <ele>181</ele>
        <time>2014-04-30T09:51:35Z</time>
      </trkpt>
      <trkpt lat="43.80741" lon="3.59178">
        <ele>182.9</ele>
        <time>2014-04-30T09:51:41Z</time>
      </trkpt>
      <trkpt lat="43.80731" lon="3.5918">
        <ele>186</ele>
        <time>2014-04-30T09:51:47Z</time>
      </trkpt>
      <trkpt lat="43.80724" lon="3.5917">
        <ele>186.7</ele>
        <time>2014-04-30T09:51:54Z</time>
      </trkpt>
      <trkpt lat="43.80716" lon="3.59161">
        <ele>188.9</ele>
        <time>2014-04-30T09:52:06Z</time>
      </trkpt>
      <trkpt lat="43.80706" lon="3.59155">
        <ele>190.1</ele>
        <time>2014-04-30T09:52:12Z</time>
      </trkpt>
      <trkpt lat="43.80696" lon="3.59148">
        <ele>191.2</ele>
        <time>2014-04-30T09:52:17Z</time>
      </trkpt>
      <trkpt lat="43.80688" lon="3.59139">
        <ele>190.1</ele>
        <time>2014-04-30T09:52:22Z</time>
      </trkpt>
      <trkpt lat="43.80686" lon="3.59126">
        <ele>196.9</ele>
        <time>2014-04-30T09:53:12Z</time>
      </trkpt>
      <trkpt lat="43.80689" lon="3.59113">
        <ele>197.4</ele>
        <time>2014-04-30T09:53:15Z</time>
      </trkpt>
      <trkpt lat="43.80689" lon="3.59096">
        <ele>198.7</ele>
        <time>2014-04-30T09:53:34Z</time>
      </trkpt>
      <trkpt lat="43.8069" lon="3.59082">
        <ele>199.1</ele>
        <time>2014-04-30T09:53:37Z</time>
      </trkpt>
      <trkpt lat="43.8069" lon="3.59067">
        <ele>200.5</ele>
        <time>2014-04-30T09:53:41Z</time>
      </trkpt>
      <trkpt lat="43.80691" lon="3.59053">
        <ele>201.2</ele>
        <time>2014-04-30T09:53:45Z</time>
      </trkpt>
      <trkpt lat="43.8069" lon="3.59039">
        <ele>202.7</ele>
        <time>2014-04-30T09:53:50Z</time>
      </trkpt>
      <trkpt lat="43.80691" lon="3.59026">
        <ele>203</ele>
        <time>2014-04-30T09:54:09Z</time>
      </trkpt>
      <trkpt lat="43.80692" lon="3.59011">
        <ele>203.5</ele>
        <time>2014-04-30T09:54:14Z</time>
      </trkpt>
      <trkpt lat="43.80693" lon="3.58997">
        <ele>211.1</ele>
        <time>2014-04-30T09:54:58Z</time>
      </trkpt>
      <trkpt lat="43.80694" lon="3.58984">
        <ele>211.4</ele>
        <time>2014-04-30T09:55:01Z</time>
      </trkpt>
      <trkpt lat="43.80693" lon="3.58968">
        <ele>212.8</ele>
        <time>2014-04-30T09:55:26Z</time>
      </trkpt>
      <trkpt lat="43.80692" lon="3.58953">
        <ele>213.6</ele>
        <time>2014-04-30T09:55:29Z</time>
      </trkpt>
      <trkpt lat="43.80691" lon="3.5894">
        <ele>213.8</ele>
        <time>2014-04-30T09:55:32Z</time>
      </trkpt>
      <trkpt lat="43.80689" lon="3.58924">
        <ele>212.9</ele>
        <time>2014-04-30T09:55:36Z</time>
      </trkpt>
      <trkpt lat="43.80687" lon="3.5891">
        <ele>213.3</ele>
        <time>2014-04-30T09:55:40Z</time>
      </trkpt>
      <trkpt lat="43.80688" lon="3.58895">
        <ele>214.7</ele>
        <time>2014-04-30T09:55:45Z</time>
      </trkpt>
      <trkpt lat="43.80688" lon="3.58882">
        <ele>214.8</ele>
        <time>2014-04-30T09:55:50Z</time>
      </trkpt>
      <trkpt lat="43.80688" lon="3.5887">
        <ele>214.7</ele>
        <time>2014-04-30T09:55:55Z</time>
      </trkpt>
      <trkpt lat="43.80687" lon="3.58856">
        <ele>217.6</ele>
        <time>2014-04-30T09:56:10Z</time>
      </trkpt>
      <trkpt lat="43.80688" lon="3.58843">
        <ele>217.9</ele>
        <time>2014-04-30T09:56:14Z</time>
      </trkpt>
      <trkpt lat="43.80687" lon="3.58828">
        <ele>223</ele>
        <time>2014-04-30T09:56:49Z</time>
      </trkpt>
      <trkpt lat="43.80686" lon="3.58811">
        <ele>225.6</ele>
        <time>2014-04-30T09:57:18Z</time>
      </trkpt>
      <trkpt lat="43.80687" lon="3.58797">
        <ele>228.1</ele>
        <time>2014-04-30T09:57:30Z</time>
      </trkpt>
      <trkpt lat="43.80687" lon="3.58784">
        <ele>238.3</ele>
        <time>2014-04-30T09:58:36Z</time>
      </trkpt>
      <trkpt lat="43.80681" lon="3.58775">
        <ele>238.5</ele>
        <time>2014-04-30T09:58:59Z</time>
      </trkpt>
      <trkpt lat="43.80671" lon="3.58778">
        <ele>237.8</ele>
        <time>2014-04-30T09:59:04Z</time>
      </trkpt>
      <trkpt lat="43.80661" lon="3.58775">
        <ele>238.4</ele>
        <time>2014-04-30T09:59:09Z</time>
      </trkpt>
      <trkpt lat="43.8066" lon="3.58762">
        <ele>239.4</ele>
        <time>2014-04-30T09:59:15Z</time>
      </trkpt>
      <trkpt lat="43.80662" lon="3.58749">
        <ele>241.5</ele>
        <time>2014-04-30T09:59:26Z</time>
      </trkpt>
      <trkpt lat="43.80663" lon="3.58734">
        <ele>241.8</ele>
        <time>2014-04-30T09:59:31Z</time>
      </trkpt>
      <trkpt lat="43.80664" lon="3.5872">
        <ele>242</ele>
        <time>2014-04-30T09:59:36Z</time>
      </trkpt>
      <trkpt lat="43.80663" lon="3.58706">
        <ele>243.4</ele>
        <time>2014-04-30T09:59:41Z</time>
      </trkpt>
      <trkpt lat="43.8066" lon="3.58693">
        <ele>245.9</ele>
        <time>2014-04-30T09:59:46Z</time>
      </trkpt>
      <trkpt lat="43.80652" lon="3.58686">
        <ele>247.3</ele>
        <time>2014-04-30T09:59:52Z</time>
      </trkpt>
      <trkpt lat="43.8065" lon="3.58699">
        <ele>247.8</ele>
        <time>2014-04-30T10:00:00Z</time>
      </trkpt>
      <trkpt lat="43.80648" lon="3.58711">
        <ele>250.6</ele>
        <time>2014-04-30T10:00:06Z</time>
      </trkpt>
      <trkpt lat="43.80645" lon="3.58725">
        <ele>251.3</ele>
        <time>2014-04-30T10:00:12Z</time>
      </trkpt>
      <trkpt lat="43.80643" lon="3.58738">
        <ele>250.3</ele>
        <time>2014-04-30T10:00:17Z</time>
      </trkpt>
      <trkpt lat="43.80637" lon="3.58749">
        <ele>251.2</ele>
        <time>2014-04-30T10:00:22Z</time>
      </trkpt>
      <trkpt lat="43.80628" lon="3.58752">
        <ele>253.4</ele>
        <time>2014-04-30T10:00:27Z</time>
      </trkpt>
      <trkpt lat="43.80619" lon="3.58758">
        <ele>255.3</ele>
        <time>2014-04-30T10:00:32Z</time>
      </trkpt>
      <trkpt lat="43.8061" lon="3.58763">
        <ele>257.2</ele>
        <time>2014-04-30T10:00:37Z</time>
      </trkpt>
      <trkpt lat="43.806" lon="3.58769">
        <ele>257</ele>
        <time>2014-04-30T10:00:42Z</time>
      </trkpt>
      <trkpt lat="43.8059" lon="3.58765">
        <ele>257.1</ele>
        <time>2014-04-30T10:00:48Z</time>
      </trkpt>
      <trkpt lat="43.80583" lon="3.58754">
        <ele>258.5</ele>
        <time>2014-04-30T10:00:53Z</time>
      </trkpt>
      <trkpt lat="43.80576" lon="3.58743">
        <ele>259.7</ele>
        <time>2014-04-30T10:00:58Z</time>
      </trkpt>
      <trkpt lat="43.8057" lon="3.58733">
        <ele>260.1</ele>
        <time>2014-04-30T10:01:02Z</time>
      </trkpt>
      <trkpt lat="43.80564" lon="3.58721">
        <ele>260.3</ele>
        <time>2014-04-30T10:01:07Z</time>
      </trkpt>
      <trkpt lat="43.80558" lon="3.58709">
        <ele>262.2</ele>
        <time>2014-04-30T10:01:12Z</time>
      </trkpt>
      <trkpt lat="43.80552" lon="3.587">
        <ele>261.8</ele>
        <time>2014-04-30T10:01:16Z</time>
      </trkpt>
      <trkpt lat="43.80545" lon="3.58689">
        <ele>263.3</ele>
        <time>2014-04-30T10:01:20Z</time>
      </trkpt>
      <trkpt lat="43.80537" lon="3.5868">
        <ele>263.3</ele>
        <time>2014-04-30T10:01:24Z</time>
      </trkpt>
      <trkpt lat="43.80529" lon="3.5867">
        <ele>263.1</ele>
        <time>2014-04-30T10:01:28Z</time>
      </trkpt>
      <trkpt lat="43.80521" lon="3.5866">
        <ele>263.4</ele>
        <time>2014-04-30T10:01:32Z</time>
      </trkpt>
      <trkpt lat="43.80514" lon="3.5865">
        <ele>263.6</ele>
        <time>2014-04-30T10:01:35Z</time>
      </trkpt>
      <trkpt lat="43.80505" lon="3.58635">
        <ele>262.1</ele>
        <time>2014-04-30T10:01:38Z</time>
      </trkpt>
      <trkpt lat="43.80497" lon="3.58622">
        <ele>262.3</ele>
        <time>2014-04-30T10:01:40Z</time>
      </trkpt>
      <trkpt lat="43.80489" lon="3.58607">
        <ele>262.8</ele>
        <time>2014-04-30T10:01:42Z</time>
      </trkpt>
      <trkpt lat="43.80482" lon="3.58593">
        <ele>261.8</ele>
        <time>2014-04-30T10:01:44Z</time>
      </trkpt>
      <trkpt lat="43.80477" lon="3.58577">
        <ele>260.9</ele>
        <time>2014-04-30T10:01:46Z</time>
      </trkpt>
      <trkpt lat="43.80473" lon="3.58558">
        <ele>260.2</ele>
        <time>2014-04-30T10:01:48Z</time>
      </trkpt>
      <trkpt lat="43.80469" lon="3.58537">
        <ele>257.4</ele>
        <time>2014-04-30T10:01:50Z</time>
      </trkpt>
      <trkpt lat="43.80465" lon="3.58515">
        <ele>255.9</ele>
        <time>2014-04-30T10:01:52Z</time>
      </trkpt>
      <trkpt lat="43.80458" lon="3.58493">
        <ele>255.2</ele>
        <time>2014-04-30T10:01:54Z</time>
      </trkpt>
      <trkpt lat="43.80453" lon="3.5847">
        <ele>254.4</ele>
        <time>2014-04-30T10:01:56Z</time>
      </trkpt>
      <trkpt lat="43.80452" lon="3.58446">
        <ele>253.6</ele>
        <time>2014-04-30T10:01:58Z</time>
      </trkpt>
      <trkpt lat="43.80451" lon="3.58422">
        <ele>252</ele>
        <time>2014-04-30T10:02:00Z</time>
      </trkpt>
      <trkpt lat="43.80447" lon="3.58401">
        <ele>250.6</ele>
        <time>2014-04-30T10:02:02Z</time>
      </trkpt>
      <trkpt lat="43.80441" lon="3.58389">
        <ele>249.3</ele>
        <time>2014-04-30T10:02:04Z</time>
      </trkpt>
      <trkpt lat="43.80435" lon="3.58377">
        <ele>248</ele>
        <time>2014-04-30T10:02:08Z</time>
      </trkpt>
      <trkpt lat="43.8043" lon="3.58362">
        <ele>247.6</ele>
        <time>2014-04-30T10:02:12Z</time>
      </trkpt>
      <trkpt lat="43.80428" lon="3.5835">
        <ele>247.5</ele>
        <time>2014-04-30T10:02:15Z</time>
      </trkpt>
      <trkpt lat="43.80427" lon="3.58337">
        <ele>247.7</ele>
        <time>2014-04-30T10:02:18Z</time>
      </trkpt>
      <trkpt lat="43.80427" lon="3.58323">
        <ele>247.4</ele>
        <time>2014-04-30T10:02:21Z</time>
      </trkpt>
      <trkpt lat="43.80427" lon="3.58309">
        <ele>246.6</ele>
        <time>2014-04-30T10:02:24Z</time>
      </trkpt>
      <trkpt lat="43.80427" lon="3.58296">
        <ele>246.3</ele>
        <time>2014-04-30T10:02:27Z</time>
      </trkpt>
      <trkpt lat="43.80427" lon="3.58282">
        <ele>245.9</ele>
        <time>2014-04-30T10:02:30Z</time>
      </trkpt>
      <trkpt lat="43.80426" lon="3.58269">
        <ele>247.2</ele>
        <time>2014-04-30T10:02:33Z</time>
      </trkpt>
      <trkpt lat="43.80422" lon="3.58256">
        <ele>246.7</ele>
        <time>2014-04-30T10:02:36Z</time>
      </trkpt>
      <trkpt lat="43.80419" lon="3.58244">
        <ele>248.4</ele>
        <time>2014-04-30T10:02:39Z</time>
      </trkpt>
      <trkpt lat="43.80417" lon="3.58231">
        <ele>249.4</ele>
        <time>2014-04-30T10:02:42Z</time>
      </trkpt>
      <trkpt lat="43.80413" lon="3.58219">
        <ele>250.7</ele>
        <time>2014-04-30T10:02:45Z</time>
      </trkpt>
      <trkpt lat="43.8041" lon="3.58206">
        <ele>251</ele>
        <time>2014-04-30T10:02:48Z</time>
      </trkpt>
      <trkpt lat="43.80407" lon="3.58194">
        <ele>252</ele>
        <time>2014-04-30T10:02:51Z</time>
      </trkpt>
      <trkpt lat="43.80403" lon="3.58182">
        <ele>253.1</ele>
        <time>2014-04-30T10:02:54Z</time>
      </trkpt>
      <trkpt lat="43.804" lon="3.58169">
        <ele>255.1</ele>
        <time>2014-04-30T10:02:58Z</time>
      </trkpt>
      <trkpt lat="43.80397" lon="3.58157">
        <ele>255.6</ele>
        <time>2014-04-30T10:03:03Z</time>
      </trkpt>
      <trkpt lat="43.80388" lon="3.5815">
        <ele>257.4</ele>
        <time>2014-04-30T10:03:08Z</time>
      </trkpt>
      <trkpt lat="43.80378" lon="3.58147">
        <ele>259</ele>
        <time>2014-04-30T10:03:13Z</time>
      </trkpt>
      <trkpt lat="43.80367" lon="3.58146">
        <ele>258.7</ele>
        <time>2014-04-30T10:03:18Z</time>
      </trkpt>
      <trkpt lat="43.80357" lon="3.58145">
        <ele>259.3</ele>
        <time>2014-04-30T10:03:23Z</time>
      </trkpt>
      <trkpt lat="43.80346" lon="3.58144">
        <ele>260.6</ele>
        <time>2014-04-30T10:03:28Z</time>
      </trkpt>
      <trkpt lat="43.80335" lon="3.5814">
        <ele>260.6</ele>
        <time>2014-04-30T10:03:33Z</time>
      </trkpt>
      <trkpt lat="43.80326" lon="3.58133">
        <ele>262.2</ele>
        <time>2014-04-30T10:03:38Z</time>
      </trkpt>
      <trkpt lat="43.80319" lon="3.58124">
        <ele>262.5</ele>
        <time>2014-04-30T10:03:42Z</time>
      </trkpt>
      <trkpt lat="43.80313" lon="3.58115">
        <ele>263.7</ele>
        <time>2014-04-30T10:03:46Z</time>
      </trkpt>
      <trkpt lat="43.80306" lon="3.58105">
        <ele>265.4</ele>
        <time>2014-04-30T10:03:50Z</time>
      </trkpt>
      <trkpt lat="43.803" lon="3.58096">
        <ele>265.6</ele>
        <time>2014-04-30T10:03:54Z</time>
      </trkpt>
      <trkpt lat="43.80292" lon="3.58085">
        <ele>267</ele>
        <time>2014-04-30T10:03:59Z</time>
      </trkpt>
      <trkpt lat="43.80284" lon="3.58074">
        <ele>268.4</ele>
        <time>2014-04-30T10:04:04Z</time>
      </trkpt>
      <trkpt lat="43.80277" lon="3.58065">
        <ele>269.6</ele>
        <time>2014-04-30T10:04:08Z</time>
      </trkpt>
      <trkpt lat="43.8027" lon="3.58057">
        <ele>270.3</ele>
        <time>2014-04-30T10:04:12Z</time>
      </trkpt>
      <trkpt lat="43.80262" lon="3.58048">
        <ele>271.2</ele>
        <time>2014-04-30T10:04:16Z</time>
      </trkpt>
      <trkpt lat="43.80255" lon="3.58038">
        <ele>271.9</ele>
        <time>2014-04-30T10:04:20Z</time>
      </trkpt>
      <trkpt lat="43.80249" lon="3.58028">
        <ele>272.6</ele>
        <time>2014-04-30T10:04:24Z</time>
      </trkpt>
      <trkpt lat="43.80243" lon="3.58018">
        <ele>272.4</ele>
        <time>2014-04-30T10:04:28Z</time>
      </trkpt>
      <trkpt lat="43.80236" lon="3.58007">
        <ele>274.4</ele>
        <time>2014-04-30T10:04:32Z</time>
      </trkpt>
      <trkpt lat="43.80231" lon="3.57996">
        <ele>276</ele>
        <time>2014-04-30T10:04:36Z</time>
      </trkpt>
      <trkpt lat="43.80225" lon="3.57986">
        <ele>276.7</ele>
        <time>2014-04-30T10:04:40Z</time>
      </trkpt>
      <trkpt lat="43.80218" lon="3.57976">
        <ele>277.3</ele>
        <time>2014-04-30T10:04:45Z</time>
      </trkpt>
      <trkpt lat="43.8021" lon="3.57965">
        <ele>278.6</ele>
        <time>2014-04-30T10:04:50Z</time>
      </trkpt>
      <trkpt lat="43.80203" lon="3.57956">
        <ele>280.1</ele>
        <time>2014-04-30T10:04:55Z</time>
      </trkpt>
      <trkpt lat="43.80194" lon="3.57946">
        <ele>280.9</ele>
        <time>2014-04-30T10:05:00Z</time>
      </trkpt>
      <trkpt lat="43.80187" lon="3.57938">
        <ele>281.6</ele>
        <time>2014-04-30T10:05:04Z</time>
      </trkpt>
      <trkpt lat="43.80177" lon="3.57929">
        <ele>282.9</ele>
        <time>2014-04-30T10:05:09Z</time>
      </trkpt>
      <trkpt lat="43.80169" lon="3.57922">
        <ele>283.7</ele>
        <time>2014-04-30T10:05:13Z</time>
      </trkpt>
      <trkpt lat="43.80161" lon="3.57915">
        <ele>284.1</ele>
        <time>2014-04-30T10:05:17Z</time>
      </trkpt>
      <trkpt lat="43.80153" lon="3.57908">
        <ele>285.6</ele>
        <time>2014-04-30T10:05:21Z</time>
      </trkpt>
      <trkpt lat="43.80144" lon="3.579">
        <ele>286.2</ele>
        <time>2014-04-30T10:05:25Z</time>
      </trkpt>
      <trkpt lat="43.80136" lon="3.57891">
        <ele>288</ele>
        <time>2014-04-30T10:05:29Z</time>
      </trkpt>
      <trkpt lat="43.80128" lon="3.57882">
        <ele>289</ele>
        <time>2014-04-30T10:05:33Z</time>
      </trkpt>
      <trkpt lat="43.80122" lon="3.57872">
        <ele>289.3</ele>
        <time>2014-04-30T10:05:37Z</time>
      </trkpt>
      <trkpt lat="43.80116" lon="3.57861">
        <ele>289.6</ele>
        <time>2014-04-30T10:05:41Z</time>
      </trkpt>
      <trkpt lat="43.80111" lon="3.57849">
        <ele>291.4</ele>
        <time>2014-04-30T10:05:45Z</time>
      </trkpt>
      <trkpt lat="43.80107" lon="3.57836">
        <ele>292.3</ele>
        <time>2014-04-30T10:05:49Z</time>
      </trkpt>
      <trkpt lat="43.80103" lon="3.57822">
        <ele>292.7</ele>
        <time>2014-04-30T10:05:53Z</time>
      </trkpt>
      <trkpt lat="43.80098" lon="3.57811">
        <ele>293.6</ele>
        <time>2014-04-30T10:05:57Z</time>
      </trkpt>
      <trkpt lat="43.80092" lon="3.578">
        <ele>295</ele>
        <time>2014-04-30T10:06:01Z</time>
      </trkpt>
      <trkpt lat="43.80083" lon="3.57792">
        <ele>295.9</ele>
        <time>2014-04-30T10:06:05Z</time>
      </trkpt>
      <trkpt lat="43.80074" lon="3.57784">
        <ele>297.4</ele>
        <time>2014-04-30T10:06:09Z</time>
      </trkpt>
      <trkpt lat="43.80066" lon="3.57775">
        <ele>298</ele>
        <time>2014-04-30T10:06:13Z</time>
      </trkpt>
      <trkpt lat="43.80061" lon="3.57763">
        <ele>299</ele>
        <time>2014-04-30T10:06:17Z</time>
      </trkpt>
      <trkpt lat="43.80062" lon="3.57748">
        <ele>299.8</ele>
        <time>2014-04-30T10:06:21Z</time>
      </trkpt>
      <trkpt lat="43.80065" lon="3.57734">
        <ele>300.3</ele>
        <time>2014-04-30T10:06:25Z</time>
      </trkpt>
      <trkpt lat="43.80068" lon="3.5772">
        <ele>301.2</ele>
        <time>2014-04-30T10:06:29Z</time>
      </trkpt>
      <trkpt lat="43.80068" lon="3.57705">
        <ele>302.4</ele>
        <time>2014-04-30T10:06:33Z</time>
      </trkpt>
      <trkpt lat="43.80064" lon="3.57692">
        <ele>303.3</ele>
        <time>2014-04-30T10:06:37Z</time>
      </trkpt>
      <trkpt lat="43.80059" lon="3.5768">
        <ele>303.6</ele>
        <time>2014-04-30T10:06:41Z</time>
      </trkpt>
      <trkpt lat="43.80053" lon="3.57668">
        <ele>303.5</ele>
        <time>2014-04-30T10:06:45Z</time>
      </trkpt>
      <trkpt lat="43.80047" lon="3.57656">
        <ele>304.2</ele>
        <time>2014-04-30T10:06:49Z</time>
      </trkpt>
      <trkpt lat="43.80041" lon="3.57645">
        <ele>305.4</ele>
        <time>2014-04-30T10:06:53Z</time>
      </trkpt>
      <trkpt lat="43.80037" lon="3.5763">
        <ele>306.2</ele>
        <time>2014-04-30T10:06:57Z</time>
      </trkpt>
      <trkpt lat="43.80038" lon="3.57615">
        <ele>306.8</ele>
        <time>2014-04-30T10:07:01Z</time>
      </trkpt>
      <trkpt lat="43.80043" lon="3.57601">
        <ele>307.5</ele>
        <time>2014-04-30T10:07:05Z</time>
      </trkpt>
      <trkpt lat="43.80044" lon="3.57586">
        <ele>308.3</ele>
        <time>2014-04-30T10:07:09Z</time>
      </trkpt>
      <trkpt lat="43.80041" lon="3.57572">
        <ele>308.7</ele>
        <time>2014-04-30T10:07:13Z</time>
      </trkpt>
      <trkpt lat="43.80037" lon="3.57559">
        <ele>310.7</ele>
        <time>2014-04-30T10:07:17Z</time>
      </trkpt>
      <trkpt lat="43.80032" lon="3.57547">
        <ele>311.4</ele>
        <time>2014-04-30T10:07:21Z</time>
      </trkpt>
      <trkpt lat="43.80027" lon="3.57535">
        <ele>311.6</ele>
        <time>2014-04-30T10:07:25Z</time>
      </trkpt>
      <trkpt lat="43.8002" lon="3.57524">
        <ele>312</ele>
        <time>2014-04-30T10:07:29Z</time>
      </trkpt>
      <trkpt lat="43.80012" lon="3.57514">
        <ele>313.4</ele>
        <time>2014-04-30T10:07:33Z</time>
      </trkpt>
      <trkpt lat="43.80004" lon="3.57505">
        <ele>315.1</ele>
        <time>2014-04-30T10:07:37Z</time>
      </trkpt>
      <trkpt lat="43.79996" lon="3.57496">
        <ele>315.9</ele>
        <time>2014-04-30T10:07:41Z</time>
      </trkpt>
      <trkpt lat="43.79988" lon="3.57487">
        <ele>317.1</ele>
        <time>2014-04-30T10:07:45Z</time>
      </trkpt>
      <trkpt lat="43.7998" lon="3.57478">
        <ele>317</ele>
        <time>2014-04-30T10:07:49Z</time>
      </trkpt>
      <trkpt lat="43.79972" lon="3.57468">
        <ele>318.1</ele>
        <time>2014-04-30T10:07:53Z</time>
      </trkpt>
      <trkpt lat="43.79964" lon="3.57458">
        <ele>318.9</ele>
        <time>2014-04-30T10:07:57Z</time>
      </trkpt>
      <trkpt lat="43.79958" lon="3.57445">
        <ele>319.5</ele>
        <time>2014-04-30T10:08:01Z</time>
      </trkpt>
      <trkpt lat="43.79952" lon="3.57432">
        <ele>320.9</ele>
        <time>2014-04-30T10:08:05Z</time>
      </trkpt>
      <trkpt lat="43.79947" lon="3.57417">
        <ele>320.5</ele>
        <time>2014-04-30T10:08:09Z</time>
      </trkpt>
      <trkpt lat="43.79943" lon="3.57402">
        <ele>321.6</ele>
        <time>2014-04-30T10:08:13Z</time>
      </trkpt>
      <trkpt lat="43.79937" lon="3.57388">
        <ele>322.4</ele>
        <time>2014-04-30T10:08:17Z</time>
      </trkpt>
      <trkpt lat="43.7993" lon="3.57377">
        <ele>322.8</ele>
        <time>2014-04-30T10:08:21Z</time>
      </trkpt>
      <trkpt lat="43.7992" lon="3.57368">
        <ele>324.1</ele>
        <time>2014-04-30T10:08:25Z</time>
      </trkpt>
      <trkpt lat="43.7991" lon="3.57359">
        <ele>324.1</ele>
        <time>2014-04-30T10:08:29Z</time>
      </trkpt>
      <trkpt lat="43.79901" lon="3.57351">
        <ele>325.1</ele>
        <time>2014-04-30T10:08:33Z</time>
      </trkpt>
      <trkpt lat="43.79893" lon="3.57344">
        <ele>326.1</ele>
        <time>2014-04-30T10:08:37Z</time>
      </trkpt>
      <trkpt lat="43.79884" lon="3.57336">
        <ele>326.5</ele>
        <time>2014-04-30T10:08:41Z</time>
      </trkpt>
      <trkpt lat="43.79876" lon="3.57327">
        <ele>326.8</ele>
        <time>2014-04-30T10:08:45Z</time>
      </trkpt>
      <trkpt lat="43.79868" lon="3.57319">
        <ele>328.3</ele>
        <time>2014-04-30T10:08:49Z</time>
      </trkpt>
      <trkpt lat="43.79859" lon="3.57311">
        <ele>328.8</ele>
        <time>2014-04-30T10:08:53Z</time>
      </trkpt>
      <trkpt lat="43.79851" lon="3.57302">
        <ele>329.5</ele>
        <time>2014-04-30T10:08:57Z</time>
      </trkpt>
      <trkpt lat="43.79843" lon="3.57294">
        <ele>330.1</ele>
        <time>2014-04-30T10:09:01Z</time>
      </trkpt>
      <trkpt lat="43.79834" lon="3.57287">
        <ele>331.1</ele>
        <time>2014-04-30T10:09:05Z</time>
      </trkpt>
      <trkpt lat="43.79826" lon="3.57278">
        <ele>332.6</ele>
        <time>2014-04-30T10:09:09Z</time>
      </trkpt>
      <trkpt lat="43.79818" lon="3.57268">
        <ele>333</ele>
        <time>2014-04-30T10:09:13Z</time>
      </trkpt>
      <trkpt lat="43.79811" lon="3.57257">
        <ele>333.4</ele>
        <time>2014-04-30T10:09:17Z</time>
      </trkpt>
      <trkpt lat="43.79805" lon="3.57245">
        <ele>332.6</ele>
        <time>2014-04-30T10:09:21Z</time>
      </trkpt>
      <trkpt lat="43.798" lon="3.57233">
        <ele>334.1</ele>
        <time>2014-04-30T10:09:25Z</time>
      </trkpt>
      <trkpt lat="43.79794" lon="3.57221">
        <ele>335.3</ele>
        <time>2014-04-30T10:09:29Z</time>
      </trkpt>
      <trkpt lat="43.79788" lon="3.57209">
        <ele>336</ele>
        <time>2014-04-30T10:09:33Z</time>
      </trkpt>
      <trkpt lat="43.79782" lon="3.57199">
        <ele>336.9</ele>
        <time>2014-04-30T10:09:37Z</time>
      </trkpt>
      <trkpt lat="43.79775" lon="3.57188">
        <ele>338.4</ele>
        <time>2014-04-30T10:09:41Z</time>
      </trkpt>
      <trkpt lat="43.79768" lon="3.57178">
        <ele>338.9</ele>
        <time>2014-04-30T10:09:45Z</time>
      </trkpt>
      <trkpt lat="43.7976" lon="3.57168">
        <ele>339.8</ele>
        <time>2014-04-30T10:09:49Z</time>
      </trkpt>
      <trkpt lat="43.79752" lon="3.5716">
        <ele>341.3</ele>
        <time>2014-04-30T10:09:53Z</time>
      </trkpt>
      <trkpt lat="43.79744" lon="3.57153">
        <ele>341.5</ele>
        <time>2014-04-30T10:09:57Z</time>
      </trkpt>
      <trkpt lat="43.79736" lon="3.57145">
        <ele>342.7</ele>
        <time>2014-04-30T10:10:01Z</time>
      </trkpt>
      <trkpt lat="43.79728" lon="3.57137">
        <ele>343</ele>
        <time>2014-04-30T10:10:05Z</time>
      </trkpt>
      <trkpt lat="43.7972" lon="3.57129">
        <ele>343.7</ele>
        <time>2014-04-30T10:10:09Z</time>
      </trkpt>
      <trkpt lat="43.79712" lon="3.5712">
        <ele>344.8</ele>
        <time>2014-04-30T10:10:13Z</time>
      </trkpt>
      <trkpt lat="43.79705" lon="3.5711">
        <ele>345.7</ele>
        <time>2014-04-30T10:10:17Z</time>
      </trkpt>
      <trkpt lat="43.79697" lon="3.57101">
        <ele>346.1</ele>
        <time>2014-04-30T10:10:21Z</time>
      </trkpt>
      <trkpt lat="43.79691" lon="3.57091">
        <ele>346.7</ele>
        <time>2014-04-30T10:10:25Z</time>
      </trkpt>
      <trkpt lat="43.79684" lon="3.57081">
        <ele>347.5</ele>
        <time>2014-04-30T10:10:29Z</time>
      </trkpt>
      <trkpt lat="43.79676" lon="3.57071">
        <ele>348.6</ele>
        <time>2014-04-30T10:10:33Z</time>
      </trkpt>
      <trkpt lat="43.79669" lon="3.5706">
        <ele>349.4</ele>
        <time>2014-04-30T10:10:37Z</time>
      </trkpt>
      <trkpt lat="43.79661" lon="3.57051">
        <ele>350.3</ele>
        <time>2014-04-30T10:10:41Z</time>
      </trkpt>
      <trkpt lat="43.79654" lon="3.57042">
        <ele>351.4</ele>
        <time>2014-04-30T10:10:45Z</time>
      </trkpt>
      <trkpt lat="43.79645" lon="3.57034">
        <ele>352.2</ele>
        <time>2014-04-30T10:10:49Z</time>
      </trkpt>
      <trkpt lat="43.79637" lon="3.57026">
        <ele>352.9</ele>
        <time>2014-04-30T10:10:53Z</time>
      </trkpt>
      <trkpt lat="43.79629" lon="3.57018">
        <ele>352.9</ele>
        <time>2014-04-30T10:10:57Z</time>
      </trkpt>
      <trkpt lat="43.7962" lon="3.57011">
        <ele>354.4</ele>
        <time>2014-04-30T10:11:01Z</time>
      </trkpt>
      <trkpt lat="43.7961" lon="3.57007">
        <ele>354.6</ele>
        <time>2014-04-30T10:11:05Z</time>
      </trkpt>
      <trkpt lat="43.79599" lon="3.57006">
        <ele>355.5</ele>
        <time>2014-04-30T10:11:09Z</time>
      </trkpt>
      <trkpt lat="43.79588" lon="3.57008">
        <ele>356</ele>
        <time>2014-04-30T10:11:13Z</time>
      </trkpt>
      <trkpt lat="43.79578" lon="3.57012">
        <ele>357.1</ele>
        <time>2014-04-30T10:11:17Z</time>
      </trkpt>
      <trkpt lat="43.79567" lon="3.57016">
        <ele>358.6</ele>
        <time>2014-04-30T10:11:21Z</time>
      </trkpt>
      <trkpt lat="43.79557" lon="3.57014">
        <ele>359.3</ele>
        <time>2014-04-30T10:11:25Z</time>
      </trkpt>
      <trkpt lat="43.79547" lon="3.57007">
        <ele>359.3</ele>
        <time>2014-04-30T10:11:29Z</time>
      </trkpt>
      <trkpt lat="43.7954" lon="3.56999">
        <ele>359.8</ele>
        <time>2014-04-30T10:11:32Z</time>
      </trkpt>
      <trkpt lat="43.7953" lon="3.5699">
        <ele>360</ele>
        <time>2014-04-30T10:11:36Z</time>
      </trkpt>
      <trkpt lat="43.79521" lon="3.5698">
        <ele>360.9</ele>
        <time>2014-04-30T10:11:40Z</time>
      </trkpt>
      <trkpt lat="43.79509" lon="3.56975">
        <ele>361.4</ele>
        <time>2014-04-30T10:11:44Z</time>
      </trkpt>
      <trkpt lat="43.79501" lon="3.56978">
        <ele>361.8</ele>
        <time>2014-04-30T10:11:47Z</time>
      </trkpt>
      <trkpt lat="43.79493" lon="3.56989">
        <ele>362.3</ele>
        <time>2014-04-30T10:11:51Z</time>
      </trkpt>
      <trkpt lat="43.79489" lon="3.57004">
        <ele>363.1</ele>
        <time>2014-04-30T10:11:55Z</time>
      </trkpt>
      <trkpt lat="43.79489" lon="3.5702">
        <ele>363.9</ele>
        <time>2014-04-30T10:11:59Z</time>
      </trkpt>
      <trkpt lat="43.79491" lon="3.57035">
        <ele>364.5</ele>
        <time>2014-04-30T10:12:03Z</time>
      </trkpt>
      <trkpt lat="43.79477" lon="3.57055">
        <ele>364</ele>
        <time>2014-04-30T10:12:43Z</time>
      </trkpt>
      <trkpt lat="43.79467" lon="3.57044">
        <ele>366.4</ele>
        <time>2014-04-30T10:12:48Z</time>
      </trkpt>
      <trkpt lat="43.79465" lon="3.5703">
        <ele>366.7</ele>
        <time>2014-04-30T10:12:51Z</time>
      </trkpt>
      <trkpt lat="43.79462" lon="3.57014">
        <ele>366.6</ele>
        <time>2014-04-30T10:12:54Z</time>
      </trkpt>
      <trkpt lat="43.7946" lon="3.56999">
        <ele>367</ele>
        <time>2014-04-30T10:12:57Z</time>
      </trkpt>
      <trkpt lat="43.79457" lon="3.56982">
        <ele>367.2</ele>
        <time>2014-04-30T10:13:00Z</time>
      </trkpt>
      <trkpt lat="43.79454" lon="3.56965">
        <ele>367</ele>
        <time>2014-04-30T10:13:03Z</time>
      </trkpt>
      <trkpt lat="43.79449" lon="3.56948">
        <ele>366.8</ele>
        <time>2014-04-30T10:13:06Z</time>
      </trkpt>
      <trkpt lat="43.79445" lon="3.56937">
        <ele>367</ele>
        <time>2014-04-30T10:13:08Z</time>
      </trkpt>
      <trkpt lat="43.79439" lon="3.56924">
        <ele>366.6</ele>
        <time>2014-04-30T10:13:10Z</time>
      </trkpt>
      <trkpt lat="43.79435" lon="3.5691">
        <ele>366.2</ele>
        <time>2014-04-30T10:13:12Z</time>
      </trkpt>
      <trkpt lat="43.79432" lon="3.56893">
        <ele>365.8</ele>
        <time>2014-04-30T10:13:14Z</time>
      </trkpt>
      <trkpt lat="43.79431" lon="3.56876">
        <ele>365.7</ele>
        <time>2014-04-30T10:13:16Z</time>
      </trkpt>
      <trkpt lat="43.79434" lon="3.56858">
        <ele>365.6</ele>
        <time>2014-04-30T10:13:18Z</time>
      </trkpt>
      <trkpt lat="43.79441" lon="3.56841">
        <ele>364.5</ele>
        <time>2014-04-30T10:13:20Z</time>
      </trkpt>
      <trkpt lat="43.79451" lon="3.56824">
        <ele>363.5</ele>
        <time>2014-04-30T10:13:22Z</time>
      </trkpt>
      <trkpt lat="43.79451" lon="3.56802">
        <ele>362.7</ele>
        <time>2014-04-30T10:13:24Z</time>
      </trkpt>
      <trkpt lat="43.79445" lon="3.56782">
        <ele>361.8</ele>
        <time>2014-04-30T10:13:26Z</time>
      </trkpt>
      <trkpt lat="43.79439" lon="3.56761">
        <ele>360.9</ele>
        <time>2014-04-30T10:13:28Z</time>
      </trkpt>
      <trkpt lat="43.79432" lon="3.5674">
        <ele>360.1</ele>
        <time>2014-04-30T10:13:30Z</time>
      </trkpt>
      <trkpt lat="43.79421" lon="3.56721">
        <ele>358.6</ele>
        <time>2014-04-30T10:13:32Z</time>
      </trkpt>
      <trkpt lat="43.79414" lon="3.56713">
        <ele>358.1</ele>
        <time>2014-04-30T10:13:33Z</time>
      </trkpt>
      <trkpt lat="43.79402" lon="3.56696">
        <ele>357.2</ele>
        <time>2014-04-30T10:13:35Z</time>
      </trkpt>
      <trkpt lat="43.79398" lon="3.56684">
        <ele>356.9</ele>
        <time>2014-04-30T10:13:36Z</time>
      </trkpt>
      <trkpt lat="43.79395" lon="3.56672">
        <ele>356.6</ele>
        <time>2014-04-30T10:13:37Z</time>
      </trkpt>
      <trkpt lat="43.79386" lon="3.56654">
        <ele>355.2</ele>
        <time>2014-04-30T10:13:39Z</time>
      </trkpt>
      <trkpt lat="43.79376" lon="3.56641">
        <ele>355</ele>
        <time>2014-04-30T10:13:41Z</time>
      </trkpt>
      <trkpt lat="43.79366" lon="3.56628">
        <ele>355.3</ele>
        <time>2014-04-30T10:13:43Z</time>
      </trkpt>
      <trkpt lat="43.79354" lon="3.5662">
        <ele>355.9</ele>
        <time>2014-04-30T10:13:45Z</time>
      </trkpt>
      <trkpt lat="43.79342" lon="3.56618">
        <ele>356.8</ele>
        <time>2014-04-30T10:13:47Z</time>
      </trkpt>
      <trkpt lat="43.7933" lon="3.56616">
        <ele>357.8</ele>
        <time>2014-04-30T10:13:49Z</time>
      </trkpt>
      <trkpt lat="43.79319" lon="3.56613">
        <ele>358.7</ele>
        <time>2014-04-30T10:13:51Z</time>
      </trkpt>
      <trkpt lat="43.79309" lon="3.56606">
        <ele>359.5</ele>
        <time>2014-04-30T10:13:53Z</time>
      </trkpt>
      <trkpt lat="43.79301" lon="3.56596">
        <ele>359.7</ele>
        <time>2014-04-30T10:13:55Z</time>
      </trkpt>
      <trkpt lat="43.79294" lon="3.56585">
        <ele>360</ele>
        <time>2014-04-30T10:13:57Z</time>
      </trkpt>
      <trkpt lat="43.79288" lon="3.56574">
        <ele>360.5</ele>
        <time>2014-04-30T10:13:59Z</time>
      </trkpt>
      <trkpt lat="43.79281" lon="3.56563">
        <ele>361.5</ele>
        <time>2014-04-30T10:14:01Z</time>
      </trkpt>
      <trkpt lat="43.79276" lon="3.56551">
        <ele>362.1</ele>
        <time>2014-04-30T10:14:03Z</time>
      </trkpt>
      <trkpt lat="43.79272" lon="3.56538">
        <ele>362.4</ele>
        <time>2014-04-30T10:14:05Z</time>
      </trkpt>
      <trkpt lat="43.79266" lon="3.56527">
        <ele>364.4</ele>
        <time>2014-04-30T10:14:07Z</time>
      </trkpt>
      <trkpt lat="43.79257" lon="3.56516">
        <ele>365.6</ele>
        <time>2014-04-30T10:14:10Z</time>
      </trkpt>
      <trkpt lat="43.79249" lon="3.56506">
        <ele>365.8</ele>
        <time>2014-04-30T10:14:13Z</time>
      </trkpt>
      <trkpt lat="43.79241" lon="3.56493">
        <ele>366.5</ele>
        <time>2014-04-30T10:14:16Z</time>
      </trkpt>
      <trkpt lat="43.79235" lon="3.56479">
        <ele>367.2</ele>
        <time>2014-04-30T10:14:19Z</time>
      </trkpt>
      <trkpt lat="43.79228" lon="3.56464">
        <ele>367.7</ele>
        <time>2014-04-30T10:14:22Z</time>
      </trkpt>
      <trkpt lat="43.79221" lon="3.5645">
        <ele>368.9</ele>
        <time>2014-04-30T10:14:25Z</time>
      </trkpt>
      <trkpt lat="43.79213" lon="3.56436">
        <ele>369.1</ele>
        <time>2014-04-30T10:14:28Z</time>
      </trkpt>
      <trkpt lat="43.79206" lon="3.56422">
        <ele>369.6</ele>
        <time>2014-04-30T10:14:31Z</time>
      </trkpt>
      <trkpt lat="43.792" lon="3.56407">
        <ele>369.2</ele>
        <time>2014-04-30T10:14:34Z</time>
      </trkpt>
      <trkpt lat="43.79194" lon="3.56391">
        <ele>370.1</ele>
        <time>2014-04-30T10:14:37Z</time>
      </trkpt>
      <trkpt lat="43.79191" lon="3.56374">
        <ele>370.8</ele>
        <time>2014-04-30T10:14:40Z</time>
      </trkpt>
      <trkpt lat="43.79184" lon="3.5636">
        <ele>371.5</ele>
        <time>2014-04-30T10:14:43Z</time>
      </trkpt>
      <trkpt lat="43.79176" lon="3.56354">
        <ele>371.4</ele>
        <time>2014-04-30T10:14:45Z</time>
      </trkpt>
      <trkpt lat="43.79167" lon="3.56349">
        <ele>371.1</ele>
        <time>2014-04-30T10:14:47Z</time>
      </trkpt>
      <trkpt lat="43.79155" lon="3.56343">
        <ele>371</ele>
        <time>2014-04-30T10:14:50Z</time>
      </trkpt>
      <trkpt lat="43.79146" lon="3.56332">
        <ele>372.1</ele>
        <time>2014-04-30T10:14:53Z</time>
      </trkpt>
      <trkpt lat="43.79137" lon="3.5632">
        <ele>371.6</ele>
        <time>2014-04-30T10:14:56Z</time>
      </trkpt>
      <trkpt lat="43.79128" lon="3.56309">
        <ele>371.7</ele>
        <time>2014-04-30T10:14:59Z</time>
      </trkpt>
      <trkpt lat="43.7912" lon="3.56298">
        <ele>371.8</ele>
        <time>2014-04-30T10:15:02Z</time>
      </trkpt>
      <trkpt lat="43.7911" lon="3.56287">
        <ele>372</ele>
        <time>2014-04-30T10:15:05Z</time>
      </trkpt>
      <trkpt lat="43.79102" lon="3.56278">
        <ele>372.8</ele>
        <time>2014-04-30T10:15:08Z</time>
      </trkpt>
      <trkpt lat="43.79095" lon="3.56271">
        <ele>373.4</ele>
        <time>2014-04-30T10:15:11Z</time>
      </trkpt>
      <trkpt lat="43.79087" lon="3.56259">
        <ele>374</ele>
        <time>2014-04-30T10:15:15Z</time>
      </trkpt>
      <trkpt lat="43.79079" lon="3.56248">
        <ele>376.1</ele>
        <time>2014-04-30T10:15:19Z</time>
      </trkpt>
      <trkpt lat="43.79075" lon="3.56237">
        <ele>375.9</ele>
        <time>2014-04-30T10:15:22Z</time>
      </trkpt>
      <trkpt lat="43.79071" lon="3.56222">
        <ele>377.4</ele>
        <time>2014-04-30T10:15:26Z</time>
      </trkpt>
      <trkpt lat="43.79067" lon="3.56207">
        <ele>379</ele>
        <time>2014-04-30T10:15:30Z</time>
      </trkpt>
      <trkpt lat="43.79062" lon="3.56194">
        <ele>379.7</ele>
        <time>2014-04-30T10:15:34Z</time>
      </trkpt>
      <trkpt lat="43.79057" lon="3.56182">
        <ele>381.8</ele>
        <time>2014-04-30T10:15:38Z</time>
      </trkpt>
      <trkpt lat="43.7905" lon="3.56167">
        <ele>382</ele>
        <time>2014-04-30T10:15:43Z</time>
      </trkpt>
      <trkpt lat="43.79045" lon="3.56155">
        <ele>382.3</ele>
        <time>2014-04-30T10:15:47Z</time>
      </trkpt>
      <trkpt lat="43.79039" lon="3.56142">
        <ele>382.4</ele>
        <time>2014-04-30T10:15:51Z</time>
      </trkpt>
      <trkpt lat="43.79032" lon="3.56132">
        <ele>384.4</ele>
        <time>2014-04-30T10:15:55Z</time>
      </trkpt>
      <trkpt lat="43.79026" lon="3.56121">
        <ele>385.5</ele>
        <time>2014-04-30T10:15:59Z</time>
      </trkpt>
      <trkpt lat="43.79022" lon="3.56107">
        <ele>387.2</ele>
        <time>2014-04-30T10:16:04Z</time>
      </trkpt>
      <trkpt lat="43.79018" lon="3.56095">
        <ele>387.6</ele>
        <time>2014-04-30T10:16:08Z</time>
      </trkpt>
      <trkpt lat="43.79014" lon="3.56083">
        <ele>388.4</ele>
        <time>2014-04-30T10:16:12Z</time>
      </trkpt>
      <trkpt lat="43.79011" lon="3.56071">
        <ele>388.8</ele>
        <time>2014-04-30T10:16:16Z</time>
      </trkpt>
      <trkpt lat="43.79008" lon="3.56057">
        <ele>390.2</ele>
        <time>2014-04-30T10:16:20Z</time>
      </trkpt>
      <trkpt lat="43.79007" lon="3.56042">
        <ele>390.4</ele>
        <time>2014-04-30T10:16:24Z</time>
      </trkpt>
      <trkpt lat="43.79008" lon="3.56028">
        <ele>391.3</ele>
        <time>2014-04-30T10:16:28Z</time>
      </trkpt>
      <trkpt lat="43.79011" lon="3.56014">
        <ele>392.2</ele>
        <time>2014-04-30T10:16:32Z</time>
      </trkpt>
      <trkpt lat="43.79018" lon="3.56003">
        <ele>393.1</ele>
        <time>2014-04-30T10:16:36Z</time>
      </trkpt>
      <trkpt lat="43.79025" lon="3.55994">
        <ele>393.9</ele>
        <time>2014-04-30T10:16:40Z</time>
      </trkpt>
      <trkpt lat="43.79032" lon="3.55983">
        <ele>394.9</ele>
        <time>2014-04-30T10:16:44Z</time>
      </trkpt>
      <trkpt lat="43.79034" lon="3.55969">
        <ele>395.2</ele>
        <time>2014-04-30T10:16:48Z</time>
      </trkpt>
      <trkpt lat="43.79032" lon="3.55955">
        <ele>396.9</ele>
        <time>2014-04-30T10:16:52Z</time>
      </trkpt>
      <trkpt lat="43.79027" lon="3.55941">
        <ele>398.2</ele>
        <time>2014-04-30T10:16:56Z</time>
      </trkpt>
      <trkpt lat="43.79021" lon="3.5593">
        <ele>398.9</ele>
        <time>2014-04-30T10:17:00Z</time>
      </trkpt>
      <trkpt lat="43.79013" lon="3.55919">
        <ele>400.1</ele>
        <time>2014-04-30T10:17:05Z</time>
      </trkpt>
      <trkpt lat="43.79007" lon="3.55909">
        <ele>401</ele>
        <time>2014-04-30T10:17:09Z</time>
      </trkpt>
      <trkpt lat="43.79" lon="3.55899">
        <ele>401.5</ele>
        <time>2014-04-30T10:17:13Z</time>
      </trkpt>
      <trkpt lat="43.78993" lon="3.55889">
        <ele>401.3</ele>
        <time>2014-04-30T10:17:17Z</time>
      </trkpt>
      <trkpt lat="43.78985" lon="3.55878">
        <ele>402.9</ele>
        <time>2014-04-30T10:17:21Z</time>
      </trkpt>
      <trkpt lat="43.78977" lon="3.55867">
        <ele>403.4</ele>
        <time>2014-04-30T10:17:25Z</time>
      </trkpt>
      <trkpt lat="43.7897" lon="3.55856">
        <ele>404.7</ele>
        <time>2014-04-30T10:17:29Z</time>
      </trkpt>
      <trkpt lat="43.78962" lon="3.55845">
        <ele>405.4</ele>
        <time>2014-04-30T10:17:33Z</time>
      </trkpt>
      <trkpt lat="43.78955" lon="3.55835">
        <ele>406.3</ele>
        <time>2014-04-30T10:17:37Z</time>
      </trkpt>
      <trkpt lat="43.78947" lon="3.55825">
        <ele>407.6</ele>
        <time>2014-04-30T10:17:41Z</time>
      </trkpt>
      <trkpt lat="43.7894" lon="3.55813">
        <ele>408.5</ele>
        <time>2014-04-30T10:17:45Z</time>
      </trkpt>
      <trkpt lat="43.78934" lon="3.558">
        <ele>409.5</ele>
        <time>2014-04-30T10:17:49Z</time>
      </trkpt>
      <trkpt lat="43.78928" lon="3.55786">
        <ele>409.5</ele>
        <time>2014-04-30T10:17:53Z</time>
      </trkpt>
      <trkpt lat="43.78924" lon="3.55773">
        <ele>410.5</ele>
        <time>2014-04-30T10:17:57Z</time>
      </trkpt>
      <trkpt lat="43.78921" lon="3.55759">
        <ele>411.3</ele>
        <time>2014-04-30T10:18:01Z</time>
      </trkpt>
      <trkpt lat="43.7892" lon="3.55744">
        <ele>411.6</ele>
        <time>2014-04-30T10:18:05Z</time>
      </trkpt>
      <trkpt lat="43.78919" lon="3.55729">
        <ele>412.4</ele>
        <time>2014-04-30T10:18:09Z</time>
      </trkpt>
      <trkpt lat="43.78919" lon="3.55714">
        <ele>412.9</ele>
        <time>2014-04-30T10:18:13Z</time>
      </trkpt>
      <trkpt lat="43.78918" lon="3.557">
        <ele>413.5</ele>
        <time>2014-04-30T10:18:17Z</time>
      </trkpt>
      <trkpt lat="43.78916" lon="3.55686">
        <ele>413.7</ele>
        <time>2014-04-30T10:18:21Z</time>
      </trkpt>
      <trkpt lat="43.78913" lon="3.55673">
        <ele>415.5</ele>
        <time>2014-04-30T10:18:25Z</time>
      </trkpt>
      <trkpt lat="43.78909" lon="3.55659">
        <ele>416.1</ele>
        <time>2014-04-30T10:18:29Z</time>
      </trkpt>
      <trkpt lat="43.78906" lon="3.55646">
        <ele>415.7</ele>
        <time>2014-04-30T10:18:33Z</time>
      </trkpt>
      <trkpt lat="43.78902" lon="3.55633">
        <ele>416.5</ele>
        <time>2014-04-30T10:18:37Z</time>
      </trkpt>
      <trkpt lat="43.78898" lon="3.55621">
        <ele>417.6</ele>
        <time>2014-04-30T10:18:41Z</time>
      </trkpt>
      <trkpt lat="43.78894" lon="3.5561">
        <ele>418.8</ele>
        <time>2014-04-30T10:18:45Z</time>
      </trkpt>
      <trkpt lat="43.7889" lon="3.55596">
        <ele>419</ele>
        <time>2014-04-30T10:18:50Z</time>
      </trkpt>
      <trkpt lat="43.78886" lon="3.55582">
        <ele>420.4</ele>
        <time>2014-04-30T10:18:55Z</time>
      </trkpt>
      <trkpt lat="43.78881" lon="3.55568">
        <ele>421.3</ele>
        <time>2014-04-30T10:19:00Z</time>
      </trkpt>
      <trkpt lat="43.78878" lon="3.55555">
        <ele>423.2</ele>
        <time>2014-04-30T10:19:05Z</time>
      </trkpt>
      <trkpt lat="43.78873" lon="3.55541">
        <ele>425</ele>
        <time>2014-04-30T10:19:10Z</time>
      </trkpt>
      <trkpt lat="43.78868" lon="3.55527">
        <ele>426.4</ele>
        <time>2014-04-30T10:19:15Z</time>
      </trkpt>
      <trkpt lat="43.78863" lon="3.55514">
        <ele>426.5</ele>
        <time>2014-04-30T10:19:20Z</time>
      </trkpt>
      <trkpt lat="43.78856" lon="3.55503">
        <ele>427.4</ele>
        <time>2014-04-30T10:19:25Z</time>
      </trkpt>
      <trkpt lat="43.7885" lon="3.55491">
        <ele>428</ele>
        <time>2014-04-30T10:19:30Z</time>
      </trkpt>
      <trkpt lat="43.78844" lon="3.55479">
        <ele>429.3</ele>
        <time>2014-04-30T10:19:35Z</time>
      </trkpt>
      <trkpt lat="43.78838" lon="3.55468">
        <ele>430.9</ele>
        <time>2014-04-30T10:19:40Z</time>
      </trkpt>
      <trkpt lat="43.78832" lon="3.55457">
        <ele>431</ele>
        <time>2014-04-30T10:19:45Z</time>
      </trkpt>
      <trkpt lat="43.78826" lon="3.55447">
        <ele>431.6</ele>
        <time>2014-04-30T10:19:50Z</time>
      </trkpt>
      <trkpt lat="43.7882" lon="3.55436">
        <ele>433.2</ele>
        <time>2014-04-30T10:19:55Z</time>
      </trkpt>
      <trkpt lat="43.78815" lon="3.55425">
        <ele>433.5</ele>
        <time>2014-04-30T10:20:00Z</time>
      </trkpt>
      <trkpt lat="43.78809" lon="3.55414">
        <ele>435</ele>
        <time>2014-04-30T10:20:05Z</time>
      </trkpt>
      <trkpt lat="43.78803" lon="3.55403">
        <ele>435.7</ele>
        <time>2014-04-30T10:20:10Z</time>
      </trkpt>
      <trkpt lat="43.78797" lon="3.55392">
        <ele>437.2</ele>
        <time>2014-04-30T10:20:15Z</time>
      </trkpt>
      <trkpt lat="43.7879" lon="3.5538">
        <ele>438.2</ele>
        <time>2014-04-30T10:20:20Z</time>
      </trkpt>
      <trkpt lat="43.78784" lon="3.55369">
        <ele>439.5</ele>
        <time>2014-04-30T10:20:25Z</time>
      </trkpt>
      <trkpt lat="43.78777" lon="3.55357">
        <ele>440.7</ele>
        <time>2014-04-30T10:20:30Z</time>
      </trkpt>
      <trkpt lat="43.78772" lon="3.55347">
        <ele>442</ele>
        <time>2014-04-30T10:20:34Z</time>
      </trkpt>
      <trkpt lat="43.78765" lon="3.55335">
        <ele>442.1</ele>
        <time>2014-04-30T10:20:39Z</time>
      </trkpt>
      <trkpt lat="43.7876" lon="3.55322">
        <ele>444.1</ele>
        <time>2014-04-30T10:20:44Z</time>
      </trkpt>
      <trkpt lat="43.78754" lon="3.5531">
        <ele>444</ele>
        <time>2014-04-30T10:20:49Z</time>
      </trkpt>
      <trkpt lat="43.78749" lon="3.55298">
        <ele>444.7</ele>
        <time>2014-04-30T10:20:54Z</time>
      </trkpt>
      <trkpt lat="43.78744" lon="3.55287">
        <ele>446.6</ele>
        <time>2014-04-30T10:20:59Z</time>
      </trkpt>
      <trkpt lat="43.78738" lon="3.55274">
        <ele>447.8</ele>
        <time>2014-04-30T10:21:04Z</time>
      </trkpt>
      <trkpt lat="43.78733" lon="3.55262">
        <ele>448.8</ele>
        <time>2014-04-30T10:21:09Z</time>
      </trkpt>
      <trkpt lat="43.78727" lon="3.55249">
        <ele>449.6</ele>
        <time>2014-04-30T10:21:14Z</time>
      </trkpt>
      <trkpt lat="43.78722" lon="3.55237">
        <ele>450.8</ele>
        <time>2014-04-30T10:21:19Z</time>
      </trkpt>
      <trkpt lat="43.78715" lon="3.55225">
        <ele>450.9</ele>
        <time>2014-04-30T10:21:24Z</time>
      </trkpt>
      <trkpt lat="43.78709" lon="3.55214">
        <ele>451.1</ele>
        <time>2014-04-30T10:21:28Z</time>
      </trkpt>
      <trkpt lat="43.78703" lon="3.55202">
        <ele>452.7</ele>
        <time>2014-04-30T10:21:33Z</time>
      </trkpt>
      <trkpt lat="43.78697" lon="3.55192">
        <ele>453.1</ele>
        <time>2014-04-30T10:21:37Z</time>
      </trkpt>
      <trkpt lat="43.78691" lon="3.55179">
        <ele>453.5</ele>
        <time>2014-04-30T10:21:41Z</time>
      </trkpt>
      <trkpt lat="43.78687" lon="3.55164">
        <ele>453.9</ele>
        <time>2014-04-30T10:21:44Z</time>
      </trkpt>
      <trkpt lat="43.78682" lon="3.5515">
        <ele>453.7</ele>
        <time>2014-04-30T10:21:47Z</time>
      </trkpt>
      <trkpt lat="43.78676" lon="3.55136">
        <ele>454</ele>
        <time>2014-04-30T10:21:50Z</time>
      </trkpt>
      <trkpt lat="43.78668" lon="3.55124">
        <ele>453.6</ele>
        <time>2014-04-30T10:21:53Z</time>
      </trkpt>
      <trkpt lat="43.78659" lon="3.55111">
        <ele>453.5</ele>
        <time>2014-04-30T10:21:56Z</time>
      </trkpt>
      <trkpt lat="43.7865" lon="3.55098">
        <ele>453.3</ele>
        <time>2014-04-30T10:21:59Z</time>
      </trkpt>
      <trkpt lat="43.7864" lon="3.55085">
        <ele>452.8</ele>
        <time>2014-04-30T10:22:02Z</time>
      </trkpt>
      <trkpt lat="43.78631" lon="3.55072">
        <ele>452.9</ele>
        <time>2014-04-30T10:22:05Z</time>
      </trkpt>
      <trkpt lat="43.78622" lon="3.55061">
        <ele>452.6</ele>
        <time>2014-04-30T10:22:08Z</time>
      </trkpt>
      <trkpt lat="43.78613" lon="3.55049">
        <ele>452.4</ele>
        <time>2014-04-30T10:22:11Z</time>
      </trkpt>
      <trkpt lat="43.78604" lon="3.55038">
        <ele>452.8</ele>
        <time>2014-04-30T10:22:14Z</time>
      </trkpt>
      <trkpt lat="43.78596" lon="3.5503">
        <ele>453.9</ele>
        <time>2014-04-30T10:22:17Z</time>
      </trkpt>
      <trkpt lat="43.78587" lon="3.55022">
        <ele>454</ele>
        <time>2014-04-30T10:22:20Z</time>
      </trkpt>
      <trkpt lat="43.78579" lon="3.55011">
        <ele>454.1</ele>
        <time>2014-04-30T10:22:23Z</time>
      </trkpt>
      <trkpt lat="43.78571" lon="3.55">
        <ele>456.1</ele>
        <time>2014-04-30T10:22:26Z</time>
      </trkpt>
      <trkpt lat="43.78565" lon="3.54989">
        <ele>456.7</ele>
        <time>2014-04-30T10:22:29Z</time>
      </trkpt>
      <trkpt lat="43.78559" lon="3.54979">
        <ele>457.4</ele>
        <time>2014-04-30T10:22:32Z</time>
      </trkpt>
      <trkpt lat="43.78553" lon="3.54968">
        <ele>457.6</ele>
        <time>2014-04-30T10:22:35Z</time>
      </trkpt>
      <trkpt lat="43.78546" lon="3.54957">
        <ele>457.9</ele>
        <time>2014-04-30T10:22:38Z</time>
      </trkpt>
      <trkpt lat="43.78538" lon="3.54944">
        <ele>457.6</ele>
        <time>2014-04-30T10:22:41Z</time>
      </trkpt>
      <trkpt lat="43.78532" lon="3.54931">
        <ele>457.9</ele>
        <time>2014-04-30T10:22:44Z</time>
      </trkpt>
      <trkpt lat="43.78526" lon="3.54919">
        <ele>458.3</ele>
        <time>2014-04-30T10:22:47Z</time>
      </trkpt>
      <trkpt lat="43.78521" lon="3.54906">
        <ele>458.5</ele>
        <time>2014-04-30T10:22:51Z</time>
      </trkpt>
      <trkpt lat="43.78517" lon="3.54892">
        <ele>460.2</ele>
        <time>2014-04-30T10:22:56Z</time>
      </trkpt>
      <trkpt lat="43.78512" lon="3.54878">
        <ele>460.7</ele>
        <time>2014-04-30T10:23:01Z</time>
      </trkpt>
      <trkpt lat="43.78507" lon="3.54865">
        <ele>462</ele>
        <time>2014-04-30T10:23:06Z</time>
      </trkpt>
      <trkpt lat="43.78503" lon="3.54851">
        <ele>463.4</ele>
        <time>2014-04-30T10:23:11Z</time>
      </trkpt>
      <trkpt lat="43.78499" lon="3.5484">
        <ele>465.6</ele>
        <time>2014-04-30T10:23:15Z</time>
      </trkpt>
      <trkpt lat="43.78495" lon="3.54827">
        <ele>466.1</ele>
        <time>2014-04-30T10:23:20Z</time>
      </trkpt>
      <trkpt lat="43.7849" lon="3.54814">
        <ele>466.3</ele>
        <time>2014-04-30T10:23:25Z</time>
      </trkpt>
      <trkpt lat="43.78482" lon="3.54806">
        <ele>467.1</ele>
        <time>2014-04-30T10:23:30Z</time>
      </trkpt>
      <trkpt lat="43.78471" lon="3.548">
        <ele>467.3</ele>
        <time>2014-04-30T10:23:35Z</time>
      </trkpt>
      <trkpt lat="43.78463" lon="3.54792">
        <ele>467.9</ele>
        <time>2014-04-30T10:23:40Z</time>
      </trkpt>
      <trkpt lat="43.78455" lon="3.54782">
        <ele>468.6</ele>
        <time>2014-04-30T10:23:45Z</time>
      </trkpt>
      <trkpt lat="43.78448" lon="3.54771">
        <ele>469.4</ele>
        <time>2014-04-30T10:23:50Z</time>
      </trkpt>
      <trkpt lat="43.78441" lon="3.54762">
        <ele>471.7</ele>
        <time>2014-04-30T10:23:54Z</time>
      </trkpt>
      <trkpt lat="43.78433" lon="3.54752">
        <ele>472.1</ele>
        <time>2014-04-30T10:23:58Z</time>
      </trkpt>
      <trkpt lat="43.78426" lon="3.54744">
        <ele>471.8</ele>
        <time>2014-04-30T10:24:02Z</time>
      </trkpt>
      <trkpt lat="43.78418" lon="3.54736">
        <ele>473.5</ele>
        <time>2014-04-30T10:24:06Z</time>
      </trkpt>
      <trkpt lat="43.78411" lon="3.54727">
        <ele>473.5</ele>
        <time>2014-04-30T10:24:10Z</time>
      </trkpt>
      <trkpt lat="43.78404" lon="3.54718">
        <ele>473.3</ele>
        <time>2014-04-30T10:24:14Z</time>
      </trkpt>
      <trkpt lat="43.78397" lon="3.54708">
        <ele>473.5</ele>
        <time>2014-04-30T10:24:18Z</time>
      </trkpt>
      <trkpt lat="43.7839" lon="3.54699">
        <ele>473.8</ele>
        <time>2014-04-30T10:24:22Z</time>
      </trkpt>
      <trkpt lat="43.78384" lon="3.54689">
        <ele>474.1</ele>
        <time>2014-04-30T10:24:26Z</time>
      </trkpt>
      <trkpt lat="43.78376" lon="3.54678">
        <ele>475.6</ele>
        <time>2014-04-30T10:24:31Z</time>
      </trkpt>
      <trkpt lat="43.78368" lon="3.5467">
        <ele>476.4</ele>
        <time>2014-04-30T10:24:35Z</time>
      </trkpt>
      <trkpt lat="43.7836" lon="3.54663">
        <ele>476.6</ele>
        <time>2014-04-30T10:24:39Z</time>
      </trkpt>
      <trkpt lat="43.78352" lon="3.54655">
        <ele>477.2</ele>
        <time>2014-04-30T10:24:43Z</time>
      </trkpt>
      <trkpt lat="43.78344" lon="3.54646">
        <ele>477.9</ele>
        <time>2014-04-30T10:24:47Z</time>
      </trkpt>
      <trkpt lat="43.78337" lon="3.54637">
        <ele>479.1</ele>
        <time>2014-04-30T10:24:51Z</time>
      </trkpt>
      <trkpt lat="43.78329" lon="3.54627">
        <ele>479.7</ele>
        <time>2014-04-30T10:24:56Z</time>
      </trkpt>
      <trkpt lat="43.78321" lon="3.54617">
        <ele>480.6</ele>
        <time>2014-04-30T10:25:01Z</time>
      </trkpt>
      <trkpt lat="43.78312" lon="3.54608">
        <ele>482.4</ele>
        <time>2014-04-30T10:25:06Z</time>
      </trkpt>
      <trkpt lat="43.78305" lon="3.54601">
        <ele>482.5</ele>
        <time>2014-04-30T10:25:10Z</time>
      </trkpt>
      <trkpt lat="43.78297" lon="3.54591">
        <ele>482.8</ele>
        <time>2014-04-30T10:25:15Z</time>
      </trkpt>
      <trkpt lat="43.78289" lon="3.54581">
        <ele>484.8</ele>
        <time>2014-04-30T10:25:20Z</time>
      </trkpt>
      <trkpt lat="43.78282" lon="3.54572">
        <ele>485.1</ele>
        <time>2014-04-30T10:25:25Z</time>
      </trkpt>
      <trkpt lat="43.78275" lon="3.54563">
        <ele>486.4</ele>
        <time>2014-04-30T10:25:30Z</time>
      </trkpt>
      <trkpt lat="43.78269" lon="3.54552">
        <ele>488.1</ele>
        <time>2014-04-30T10:25:35Z</time>
      </trkpt>
      <trkpt lat="43.78262" lon="3.5454">
        <ele>488</ele>
        <time>2014-04-30T10:25:40Z</time>
      </trkpt>
      <trkpt lat="43.78256" lon="3.54531">
        <ele>487.9</ele>
        <time>2014-04-30T10:25:44Z</time>
      </trkpt>
      <trkpt lat="43.78249" lon="3.54522">
        <ele>488.9</ele>
        <time>2014-04-30T10:25:48Z</time>
      </trkpt>
      <trkpt lat="43.78243" lon="3.54513">
        <ele>487.6</ele>
        <time>2014-04-30T10:25:52Z</time>
      </trkpt>
      <trkpt lat="43.78235" lon="3.54503">
        <ele>487.6</ele>
        <time>2014-04-30T10:25:57Z</time>
      </trkpt>
      <trkpt lat="43.78226" lon="3.54493">
        <ele>488.5</ele>
        <time>2014-04-30T10:26:02Z</time>
      </trkpt>
      <trkpt lat="43.78219" lon="3.54485">
        <ele>489.4</ele>
        <time>2014-04-30T10:26:06Z</time>
      </trkpt>
      <trkpt lat="43.78212" lon="3.54477">
        <ele>490.1</ele>
        <time>2014-04-30T10:26:10Z</time>
      </trkpt>
      <trkpt lat="43.78205" lon="3.5447">
        <ele>490.7</ele>
        <time>2014-04-30T10:26:14Z</time>
      </trkpt>
      <trkpt lat="43.78198" lon="3.54462">
        <ele>491.5</ele>
        <time>2014-04-30T10:26:18Z</time>
      </trkpt>
      <trkpt lat="43.78191" lon="3.54453">
        <ele>492.7</ele>
        <time>2014-04-30T10:26:22Z</time>
      </trkpt>
      <trkpt lat="43.78184" lon="3.54444">
        <ele>492.5</ele>
        <time>2014-04-30T10:26:26Z</time>
      </trkpt>
      <trkpt lat="43.78177" lon="3.54435">
        <ele>493.1</ele>
        <time>2014-04-30T10:26:30Z</time>
      </trkpt>
      <trkpt lat="43.7817" lon="3.54424">
        <ele>493.2</ele>
        <time>2014-04-30T10:26:35Z</time>
      </trkpt>
      <trkpt lat="43.78162" lon="3.54413">
        <ele>493.3</ele>
        <time>2014-04-30T10:26:40Z</time>
      </trkpt>
      <trkpt lat="43.78155" lon="3.54401">
        <ele>494.8</ele>
        <time>2014-04-30T10:26:45Z</time>
      </trkpt>
      <trkpt lat="43.78149" lon="3.54391">
        <ele>495.5</ele>
        <time>2014-04-30T10:26:49Z</time>
      </trkpt>
      <trkpt lat="43.78143" lon="3.54382">
        <ele>496.2</ele>
        <time>2014-04-30T10:26:53Z</time>
      </trkpt>
      <trkpt lat="43.78137" lon="3.54371">
        <ele>496.4</ele>
        <time>2014-04-30T10:26:58Z</time>
      </trkpt>
      <trkpt lat="43.78131" lon="3.54361">
        <ele>497.2</ele>
        <time>2014-04-30T10:27:03Z</time>
      </trkpt>
      <trkpt lat="43.78126" lon="3.5435">
        <ele>498.2</ele>
        <time>2014-04-30T10:27:08Z</time>
      </trkpt>
      <trkpt lat="43.78121" lon="3.54337">
        <ele>498.8</ele>
        <time>2014-04-30T10:27:13Z</time>
      </trkpt>
      <trkpt lat="43.78116" lon="3.54325">
        <ele>500.7</ele>
        <time>2014-04-30T10:27:18Z</time>
      </trkpt>
      <trkpt lat="43.78112" lon="3.54312">
        <ele>500.6</ele>
        <time>2014-04-30T10:27:23Z</time>
      </trkpt>
      <trkpt lat="43.78107" lon="3.54299">
        <ele>501.4</ele>
        <time>2014-04-30T10:27:28Z</time>
      </trkpt>
      <trkpt lat="43.78102" lon="3.54286">
        <ele>502</ele>
        <time>2014-04-30T10:27:33Z</time>
      </trkpt>
      <trkpt lat="43.78096" lon="3.54274">
        <ele>503.4</ele>
        <time>2014-04-30T10:27:38Z</time>
      </trkpt>
      <trkpt lat="43.78088" lon="3.5427">
        <ele>503.6</ele>
        <time>2014-04-30T10:27:42Z</time>
      </trkpt>
      <trkpt lat="43.78079" lon="3.54274">
        <ele>503.4</ele>
        <time>2014-04-30T10:27:46Z</time>
      </trkpt>
      <trkpt lat="43.78072" lon="3.54281">
        <ele>503.8</ele>
        <time>2014-04-30T10:27:50Z</time>
      </trkpt>
      <trkpt lat="43.78061" lon="3.54286">
        <ele>503.9</ele>
        <time>2014-04-30T10:27:55Z</time>
      </trkpt>
      <trkpt lat="43.78051" lon="3.54286">
        <ele>504.2</ele>
        <time>2014-04-30T10:28:00Z</time>
      </trkpt>
      <trkpt lat="43.78041" lon="3.54285">
        <ele>505.7</ele>
        <time>2014-04-30T10:28:05Z</time>
      </trkpt>
      <trkpt lat="43.78031" lon="3.54288">
        <ele>507.6</ele>
        <time>2014-04-30T10:28:10Z</time>
      </trkpt>
      <trkpt lat="43.78024" lon="3.54297">
        <ele>508.7</ele>
        <time>2014-04-30T10:28:15Z</time>
      </trkpt>
      <trkpt lat="43.78021" lon="3.54309">
        <ele>510</ele>
        <time>2014-04-30T10:28:20Z</time>
      </trkpt>
      <trkpt lat="43.78018" lon="3.54321">
        <ele>512</ele>
        <time>2014-04-30T10:28:25Z</time>
      </trkpt>
      <trkpt lat="43.78017" lon="3.54336">
        <ele>513.8</ele>
        <time>2014-04-30T10:28:31Z</time>
      </trkpt>
      <trkpt lat="43.78016" lon="3.54349">
        <ele>515</ele>
        <time>2014-04-30T10:28:36Z</time>
      </trkpt>
      <trkpt lat="43.78016" lon="3.54362">
        <ele>516.5</ele>
        <time>2014-04-30T10:28:41Z</time>
      </trkpt>
      <trkpt lat="43.78014" lon="3.54374">
        <ele>516.4</ele>
        <time>2014-04-30T10:28:46Z</time>
      </trkpt>
      <trkpt lat="43.78014" lon="3.54388">
        <ele>516.3</ele>
        <time>2014-04-30T10:28:51Z</time>
      </trkpt>
      <trkpt lat="43.78014" lon="3.54402">
        <ele>515.4</ele>
        <time>2014-04-30T10:28:56Z</time>
      </trkpt>
      <trkpt lat="43.78016" lon="3.54415">
        <ele>515.2</ele>
        <time>2014-04-30T10:29:01Z</time>
      </trkpt>
      <trkpt lat="43.7802" lon="3.54428">
        <ele>515.1</ele>
        <time>2014-04-30T10:29:06Z</time>
      </trkpt>
      <trkpt lat="43.78025" lon="3.54441">
        <ele>514.8</ele>
        <time>2014-04-30T10:29:11Z</time>
      </trkpt>
      <trkpt lat="43.78023" lon="3.54454">
        <ele>515.6</ele>
        <time>2014-04-30T10:29:17Z</time>
      </trkpt>
      <trkpt lat="43.78016" lon="3.54446">
        <ele>518.1</ele>
        <time>2014-04-30T10:29:23Z</time>
      </trkpt>
      <trkpt lat="43.78009" lon="3.54436">
        <ele>520.1</ele>
        <time>2014-04-30T10:29:30Z</time>
      </trkpt>
      <trkpt lat="43.78002" lon="3.54426">
        <ele>522.1</ele>
        <time>2014-04-30T10:29:36Z</time>
      </trkpt>
      <trkpt lat="43.77996" lon="3.54416">
        <ele>523.4</ele>
        <time>2014-04-30T10:29:42Z</time>
      </trkpt>
      <trkpt lat="43.77992" lon="3.54403">
        <ele>524.8</ele>
        <time>2014-04-30T10:29:48Z</time>
      </trkpt>
      <trkpt lat="43.77989" lon="3.54391">
        <ele>526.5</ele>
        <time>2014-04-30T10:29:54Z</time>
      </trkpt>
      <trkpt lat="43.77987" lon="3.54378">
        <ele>528.6</ele>
        <time>2014-04-30T10:30:00Z</time>
      </trkpt>
      <trkpt lat="43.77983" lon="3.54365">
        <ele>529.7</ele>
        <time>2014-04-30T10:30:07Z</time>
      </trkpt>
      <trkpt lat="43.77979" lon="3.54353">
        <ele>531.7</ele>
        <time>2014-04-30T10:30:13Z</time>
      </trkpt>
      <trkpt lat="43.77976" lon="3.54342">
        <ele>532</ele>
        <time>2014-04-30T10:30:18Z</time>
      </trkpt>
      <trkpt lat="43.77973" lon="3.54329">
        <ele>531.9</ele>
        <time>2014-04-30T10:30:24Z</time>
      </trkpt>
      <trkpt lat="43.77969" lon="3.54317">
        <ele>531.7</ele>
        <time>2014-04-30T10:30:30Z</time>
      </trkpt>
      <trkpt lat="43.77965" lon="3.54305">
        <ele>531.7</ele>
        <time>2014-04-30T10:30:35Z</time>
      </trkpt>
      <trkpt lat="43.77962" lon="3.54293">
        <ele>533.9</ele>
        <time>2014-04-30T10:30:40Z</time>
      </trkpt>
      <trkpt lat="43.77961" lon="3.54279">
        <ele>536.2</ele>
        <time>2014-04-30T10:30:46Z</time>
      </trkpt>
      <trkpt lat="43.77963" lon="3.54266">
        <ele>537.6</ele>
        <time>2014-04-30T10:30:52Z</time>
      </trkpt>
      <trkpt lat="43.77966" lon="3.54253">
        <ele>539.8</ele>
        <time>2014-04-30T10:30:58Z</time>
      </trkpt>
      <trkpt lat="43.77967" lon="3.54241">
        <ele>540.6</ele>
        <time>2014-04-30T10:31:04Z</time>
      </trkpt>
      <trkpt lat="43.77968" lon="3.54228">
        <ele>542.9</ele>
        <time>2014-04-30T10:31:10Z</time>
      </trkpt>
      <trkpt lat="43.77967" lon="3.54215">
        <ele>543.1</ele>
        <time>2014-04-30T10:31:16Z</time>
      </trkpt>
      <trkpt lat="43.77964" lon="3.54199">
        <ele>546.7</ele>
        <time>2014-04-30T10:31:34Z</time>
      </trkpt>
      <trkpt lat="43.77961" lon="3.54185">
        <ele>547</ele>
        <time>2014-04-30T10:31:38Z</time>
      </trkpt>
      <trkpt lat="43.77957" lon="3.54172">
        <ele>548.9</ele>
        <time>2014-04-30T10:31:42Z</time>
      </trkpt>
      <trkpt lat="43.77951" lon="3.54158">
        <ele>549.4</ele>
        <time>2014-04-30T10:31:47Z</time>
      </trkpt>
      <trkpt lat="43.77946" lon="3.54147">
        <ele>549.8</ele>
        <time>2014-04-30T10:31:52Z</time>
      </trkpt>
      <trkpt lat="43.77939" lon="3.54135">
        <ele>550.4</ele>
        <time>2014-04-30T10:31:57Z</time>
      </trkpt>
      <trkpt lat="43.77933" lon="3.54123">
        <ele>551.1</ele>
        <time>2014-04-30T10:32:02Z</time>
      </trkpt>
      <trkpt lat="43.77927" lon="3.5411">
        <ele>551</ele>
        <time>2014-04-30T10:32:07Z</time>
      </trkpt>
      <trkpt lat="43.77921" lon="3.541">
        <ele>552.2</ele>
        <time>2014-04-30T10:32:11Z</time>
      </trkpt>
      <trkpt lat="43.77915" lon="3.54089">
        <ele>552</ele>
        <time>2014-04-30T10:32:15Z</time>
      </trkpt>
      <trkpt lat="43.77908" lon="3.54079">
        <ele>551.9</ele>
        <time>2014-04-30T10:32:19Z</time>
      </trkpt>
      <trkpt lat="43.77902" lon="3.54067">
        <ele>551.7</ele>
        <time>2014-04-30T10:32:23Z</time>
      </trkpt>
      <trkpt lat="43.77896" lon="3.54056">
        <ele>552.1</ele>
        <time>2014-04-30T10:32:27Z</time>
      </trkpt>
      <trkpt lat="43.77888" lon="3.54048">
        <ele>554</ele>
        <time>2014-04-30T10:32:32Z</time>
      </trkpt>
      <trkpt lat="43.7788" lon="3.5404">
        <ele>554.9</ele>
        <time>2014-04-30T10:32:38Z</time>
      </trkpt>
      <trkpt lat="43.77882" lon="3.54054">
        <ele>559</ele>
        <time>2014-04-30T10:34:32Z</time>
      </trkpt>
      <trkpt lat="43.77882" lon="3.54067">
        <ele>558.6</ele>
        <time>2014-04-30T10:34:36Z</time>
      </trkpt>
      <trkpt lat="43.7788" lon="3.5408">
        <ele>559.8</ele>
        <time>2014-04-30T10:34:46Z</time>
      </trkpt>
      <trkpt lat="43.77877" lon="3.54095">
        <ele>561.2</ele>
        <time>2014-04-30T10:34:51Z</time>
      </trkpt>
      <trkpt lat="43.77873" lon="3.54108">
        <ele>561.2</ele>
        <time>2014-04-30T10:34:55Z</time>
      </trkpt>
      <trkpt lat="43.77869" lon="3.54122">
        <ele>561.1</ele>
        <time>2014-04-30T10:34:59Z</time>
      </trkpt>
      <trkpt lat="43.77866" lon="3.54135">
        <ele>561.5</ele>
        <time>2014-04-30T10:35:04Z</time>
      </trkpt>
      <trkpt lat="43.77863" lon="3.54149">
        <ele>561.2</ele>
        <time>2014-04-30T10:35:08Z</time>
      </trkpt>
      <trkpt lat="43.7786" lon="3.54162">
        <ele>560.4</ele>
        <time>2014-04-30T10:35:11Z</time>
      </trkpt>
      <trkpt lat="43.77857" lon="3.54175">
        <ele>559.9</ele>
        <time>2014-04-30T10:35:14Z</time>
      </trkpt>
      <trkpt lat="43.77853" lon="3.54189">
        <ele>559.8</ele>
        <time>2014-04-30T10:35:18Z</time>
      </trkpt>
      <trkpt lat="43.77849" lon="3.54202">
        <ele>559.3</ele>
        <time>2014-04-30T10:35:22Z</time>
      </trkpt>
      <trkpt lat="43.77848" lon="3.54215">
        <ele>558.5</ele>
        <time>2014-04-30T10:35:26Z</time>
      </trkpt>
      <trkpt lat="43.77847" lon="3.54228">
        <ele>558.3</ele>
        <time>2014-04-30T10:35:30Z</time>
      </trkpt>
      <trkpt lat="43.77847" lon="3.54243">
        <ele>559</ele>
        <time>2014-04-30T10:35:35Z</time>
      </trkpt>
      <trkpt lat="43.77847" lon="3.54258">
        <ele>560</ele>
        <time>2014-04-30T10:35:40Z</time>
      </trkpt>
      <trkpt lat="43.77849" lon="3.54271">
        <ele>561.3</ele>
        <time>2014-04-30T10:35:45Z</time>
      </trkpt>
      <trkpt lat="43.77851" lon="3.54284">
        <ele>562.9</ele>
        <time>2014-04-30T10:39:16Z</time>
      </trkpt>
      <trkpt lat="43.77856" lon="3.54297">
        <ele>562.2</ele>
        <time>2014-04-30T10:39:20Z</time>
      </trkpt>
      <trkpt lat="43.7786" lon="3.54309">
        <ele>562.5</ele>
        <time>2014-04-30T10:39:24Z</time>
      </trkpt>
      <trkpt lat="43.77865" lon="3.54322">
        <ele>563.8</ele>
        <time>2014-04-30T10:39:29Z</time>
      </trkpt>
      <trkpt lat="43.7787" lon="3.54335">
        <ele>565.4</ele>
        <time>2014-04-30T10:39:34Z</time>
      </trkpt>
      <trkpt lat="43.77875" lon="3.54346">
        <ele>564.4</ele>
        <time>2014-04-30T10:39:38Z</time>
      </trkpt>
      <trkpt lat="43.77877" lon="3.54359">
        <ele>566.6</ele>
        <time>2014-04-30T10:39:42Z</time>
      </trkpt>
      <trkpt lat="43.7788" lon="3.54374">
        <ele>565.8</ele>
        <time>2014-04-30T10:39:47Z</time>
      </trkpt>
      <trkpt lat="43.77882" lon="3.54388">
        <ele>566.2</ele>
        <time>2014-04-30T10:39:51Z</time>
      </trkpt>
      <trkpt lat="43.77886" lon="3.54402">
        <ele>566.2</ele>
        <time>2014-04-30T10:39:55Z</time>
      </trkpt>
      <trkpt lat="43.7789" lon="3.54415">
        <ele>566.3</ele>
        <time>2014-04-30T10:39:59Z</time>
      </trkpt>
      <trkpt lat="43.77894" lon="3.54427">
        <ele>566.4</ele>
        <time>2014-04-30T10:40:02Z</time>
      </trkpt>
      <trkpt lat="43.77898" lon="3.54438">
        <ele>566.2</ele>
        <time>2014-04-30T10:40:05Z</time>
      </trkpt>
      <trkpt lat="43.77899" lon="3.54453">
        <ele>566.8</ele>
        <time>2014-04-30T10:40:09Z</time>
      </trkpt>
      <trkpt lat="43.77895" lon="3.54466">
        <ele>567.3</ele>
        <time>2014-04-30T10:40:13Z</time>
      </trkpt>
      <trkpt lat="43.77891" lon="3.5448">
        <ele>569.1</ele>
        <time>2014-04-30T10:40:17Z</time>
      </trkpt>
      <trkpt lat="43.77888" lon="3.54494">
        <ele>569.8</ele>
        <time>2014-04-30T10:40:21Z</time>
      </trkpt>
      <trkpt lat="43.77886" lon="3.54509">
        <ele>570.4</ele>
        <time>2014-04-30T10:40:25Z</time>
      </trkpt>
      <trkpt lat="43.77886" lon="3.54525">
        <ele>570.7</ele>
        <time>2014-04-30T10:40:29Z</time>
      </trkpt>
      <trkpt lat="43.77889" lon="3.54538">
        <ele>570.7</ele>
        <time>2014-04-30T10:40:33Z</time>
      </trkpt>
      <trkpt lat="43.77896" lon="3.54549">
        <ele>571.6</ele>
        <time>2014-04-30T10:40:37Z</time>
      </trkpt>
      <trkpt lat="43.77904" lon="3.5456">
        <ele>571.9</ele>
        <time>2014-04-30T10:40:41Z</time>
      </trkpt>
      <trkpt lat="43.7791" lon="3.54572">
        <ele>572.4</ele>
        <time>2014-04-30T10:40:44Z</time>
      </trkpt>
      <trkpt lat="43.77915" lon="3.54584">
        <ele>572.1</ele>
        <time>2014-04-30T10:40:47Z</time>
      </trkpt>
      <trkpt lat="43.77921" lon="3.54596">
        <ele>571.4</ele>
        <time>2014-04-30T10:40:50Z</time>
      </trkpt>
      <trkpt lat="43.77927" lon="3.5461">
        <ele>570.4</ele>
        <time>2014-04-30T10:40:53Z</time>
      </trkpt>
      <trkpt lat="43.77931" lon="3.54627">
        <ele>570.6</ele>
        <time>2014-04-30T10:40:56Z</time>
      </trkpt>
      <trkpt lat="43.7793" lon="3.54644">
        <ele>570.3</ele>
        <time>2014-04-30T10:40:59Z</time>
      </trkpt>
      <trkpt lat="43.77925" lon="3.54658">
        <ele>569.8</ele>
        <time>2014-04-30T10:41:02Z</time>
      </trkpt>
      <trkpt lat="43.7792" lon="3.54671">
        <ele>569.8</ele>
        <time>2014-04-30T10:41:05Z</time>
      </trkpt>
      <trkpt lat="43.77915" lon="3.54686">
        <ele>570.1</ele>
        <time>2014-04-30T10:41:08Z</time>
      </trkpt>
      <trkpt lat="43.77909" lon="3.54703">
        <ele>570</ele>
        <time>2014-04-30T10:41:11Z</time>
      </trkpt>
      <trkpt lat="43.77905" lon="3.54716">
        <ele>569.9</ele>
        <time>2014-04-30T10:41:13Z</time>
      </trkpt>
      <trkpt lat="43.77904" lon="3.54729">
        <ele>570.3</ele>
        <time>2014-04-30T10:41:15Z</time>
      </trkpt>
      <trkpt lat="43.77904" lon="3.54743">
        <ele>570.4</ele>
        <time>2014-04-30T10:41:17Z</time>
      </trkpt>
      <trkpt lat="43.77905" lon="3.54757">
        <ele>569.5</ele>
        <time>2014-04-30T10:41:19Z</time>
      </trkpt>
      <trkpt lat="43.7791" lon="3.54771">
        <ele>569.2</ele>
        <time>2014-04-30T10:41:21Z</time>
      </trkpt>
      <trkpt lat="43.77917" lon="3.54783">
        <ele>569.3</ele>
        <time>2014-04-30T10:41:23Z</time>
      </trkpt>
      <trkpt lat="43.77925" lon="3.54794">
        <ele>569.1</ele>
        <time>2014-04-30T10:41:25Z</time>
      </trkpt>
      <trkpt lat="43.77931" lon="3.54806">
        <ele>568.7</ele>
        <time>2014-04-30T10:41:27Z</time>
      </trkpt>
      <trkpt lat="43.77936" lon="3.54817">
        <ele>568.1</ele>
        <time>2014-04-30T10:41:29Z</time>
      </trkpt>
      <trkpt lat="43.77944" lon="3.54831">
        <ele>567.8</ele>
        <time>2014-04-30T10:41:32Z</time>
      </trkpt>
      <trkpt lat="43.77951" lon="3.54846">
        <ele>568.2</ele>
        <time>2014-04-30T10:41:35Z</time>
      </trkpt>
      <trkpt lat="43.77955" lon="3.54861">
        <ele>568.4</ele>
        <time>2014-04-30T10:41:38Z</time>
      </trkpt>
      <trkpt lat="43.7796" lon="3.54875">
        <ele>568.5</ele>
        <time>2014-04-30T10:41:41Z</time>
      </trkpt>
      <trkpt lat="43.77966" lon="3.5489">
        <ele>568.6</ele>
        <time>2014-04-30T10:41:44Z</time>
      </trkpt>
      <trkpt lat="43.77973" lon="3.54904">
        <ele>568.5</ele>
        <time>2014-04-30T10:41:47Z</time>
      </trkpt>
      <trkpt lat="43.77981" lon="3.54917">
        <ele>569</ele>
        <time>2014-04-30T10:41:50Z</time>
      </trkpt>
      <trkpt lat="43.77988" lon="3.54931">
        <ele>569.8</ele>
        <time>2014-04-30T10:41:53Z</time>
      </trkpt>
      <trkpt lat="43.77994" lon="3.54944">
        <ele>570.8</ele>
        <time>2014-04-30T10:41:56Z</time>
      </trkpt>
      <trkpt lat="43.78" lon="3.54957">
        <ele>571.5</ele>
        <time>2014-04-30T10:41:59Z</time>
      </trkpt>
      <trkpt lat="43.78005" lon="3.54969">
        <ele>571.9</ele>
        <time>2014-04-30T10:42:02Z</time>
      </trkpt>
      <trkpt lat="43.78011" lon="3.5498">
        <ele>572.6</ele>
        <time>2014-04-30T10:42:05Z</time>
      </trkpt>
      <trkpt lat="43.78018" lon="3.54992">
        <ele>573</ele>
        <time>2014-04-30T10:42:09Z</time>
      </trkpt>
      <trkpt lat="43.78023" lon="3.55002">
        <ele>573.4</ele>
        <time>2014-04-30T10:42:12Z</time>
      </trkpt>
      <trkpt lat="43.78029" lon="3.55012">
        <ele>574</ele>
        <time>2014-04-30T10:42:15Z</time>
      </trkpt>
      <trkpt lat="43.78035" lon="3.55022">
        <ele>574.5</ele>
        <time>2014-04-30T10:42:18Z</time>
      </trkpt>
      <trkpt lat="43.78042" lon="3.55031">
        <ele>575.4</ele>
        <time>2014-04-30T10:42:21Z</time>
      </trkpt>
      <trkpt lat="43.7805" lon="3.55041">
        <ele>576.4</ele>
        <time>2014-04-30T10:42:24Z</time>
      </trkpt>
      <trkpt lat="43.78057" lon="3.55051">
        <ele>576</ele>
        <time>2014-04-30T10:42:27Z</time>
      </trkpt>
      <trkpt lat="43.78066" lon="3.55061">
        <ele>577.2</ele>
        <time>2014-04-30T10:42:30Z</time>
      </trkpt>
      <trkpt lat="43.78076" lon="3.55068">
        <ele>576.8</ele>
        <time>2014-04-30T10:42:33Z</time>
      </trkpt>
      <trkpt lat="43.78084" lon="3.55075">
        <ele>576.7</ele>
        <time>2014-04-30T10:42:36Z</time>
      </trkpt>
      <trkpt lat="43.78092" lon="3.55086">
        <ele>577.9</ele>
        <time>2014-04-30T10:42:39Z</time>
      </trkpt>
      <trkpt lat="43.78098" lon="3.551">
        <ele>578.3</ele>
        <time>2014-04-30T10:42:42Z</time>
      </trkpt>
      <trkpt lat="43.78103" lon="3.55117">
        <ele>578</ele>
        <time>2014-04-30T10:42:45Z</time>
      </trkpt>
      <trkpt lat="43.78106" lon="3.55134">
        <ele>577.2</ele>
        <time>2014-04-30T10:42:48Z</time>
      </trkpt>
      <trkpt lat="43.78108" lon="3.5515">
        <ele>576.3</ele>
        <time>2014-04-30T10:42:51Z</time>
      </trkpt>
      <trkpt lat="43.7811" lon="3.55165">
        <ele>576.1</ele>
        <time>2014-04-30T10:42:54Z</time>
      </trkpt>
      <trkpt lat="43.7811" lon="3.55181">
        <ele>576.3</ele>
        <time>2014-04-30T10:42:57Z</time>
      </trkpt>
      <trkpt lat="43.78111" lon="3.55199">
        <ele>576.5</ele>
        <time>2014-04-30T10:43:00Z</time>
      </trkpt>
      <trkpt lat="43.78109" lon="3.55211">
        <ele>576.6</ele>
        <time>2014-04-30T10:43:02Z</time>
      </trkpt>
      <trkpt lat="43.78103" lon="3.55223">
        <ele>576.5</ele>
        <time>2014-04-30T10:43:04Z</time>
      </trkpt>
      <trkpt lat="43.78094" lon="3.55235">
        <ele>576</ele>
        <time>2014-04-30T10:43:06Z</time>
      </trkpt>
      <trkpt lat="43.78084" lon="3.55246">
        <ele>575.3</ele>
        <time>2014-04-30T10:43:08Z</time>
      </trkpt>
      <trkpt lat="43.78073" lon="3.55259">
        <ele>575.3</ele>
        <time>2014-04-30T10:43:10Z</time>
      </trkpt>
      <trkpt lat="43.78064" lon="3.55273">
        <ele>575</ele>
        <time>2014-04-30T10:43:12Z</time>
      </trkpt>
      <trkpt lat="43.78055" lon="3.55289">
        <ele>574.7</ele>
        <time>2014-04-30T10:43:14Z</time>
      </trkpt>
      <trkpt lat="43.78049" lon="3.55306">
        <ele>574.3</ele>
        <time>2014-04-30T10:43:16Z</time>
      </trkpt>
      <trkpt lat="43.78046" lon="3.55324">
        <ele>574</ele>
        <time>2014-04-30T10:43:18Z</time>
      </trkpt>
      <trkpt lat="43.78041" lon="3.5534">
        <ele>573.3</ele>
        <time>2014-04-30T10:43:20Z</time>
      </trkpt>
      <trkpt lat="43.78036" lon="3.55353">
        <ele>573.1</ele>
        <time>2014-04-30T10:43:22Z</time>
      </trkpt>
      <trkpt lat="43.78033" lon="3.55365">
        <ele>573.1</ele>
        <time>2014-04-30T10:43:24Z</time>
      </trkpt>
      <trkpt lat="43.78026" lon="3.5538">
        <ele>574.2</ele>
        <time>2014-04-30T10:43:27Z</time>
      </trkpt>
      <trkpt lat="43.7802" lon="3.55396">
        <ele>574.6</ele>
        <time>2014-04-30T10:43:30Z</time>
      </trkpt>
      <trkpt lat="43.78014" lon="3.55413">
        <ele>574.1</ele>
        <time>2014-04-30T10:43:33Z</time>
      </trkpt>
      <trkpt lat="43.78011" lon="3.55425">
        <ele>573.8</ele>
        <time>2014-04-30T10:43:35Z</time>
      </trkpt>
      <trkpt lat="43.78007" lon="3.55436">
        <ele>573.6</ele>
        <time>2014-04-30T10:43:37Z</time>
      </trkpt>
      <trkpt lat="43.78003" lon="3.55448">
        <ele>574</ele>
        <time>2014-04-30T10:43:39Z</time>
      </trkpt>
      <trkpt lat="43.77999" lon="3.5546">
        <ele>574.1</ele>
        <time>2014-04-30T10:43:41Z</time>
      </trkpt>
      <trkpt lat="43.77995" lon="3.55471">
        <ele>574</ele>
        <time>2014-04-30T10:43:43Z</time>
      </trkpt>
      <trkpt lat="43.77989" lon="3.55488">
        <ele>574.1</ele>
        <time>2014-04-30T10:43:46Z</time>
      </trkpt>
      <trkpt lat="43.77983" lon="3.55503">
        <ele>575</ele>
        <time>2014-04-30T10:43:49Z</time>
      </trkpt>
      <trkpt lat="43.77972" lon="3.55501">
        <ele>575.5</ele>
        <time>2014-04-30T10:43:53Z</time>
      </trkpt>
      <trkpt lat="43.77966" lon="3.5549">
        <ele>576.4</ele>
        <time>2014-04-30T10:43:56Z</time>
      </trkpt>
      <trkpt lat="43.77962" lon="3.5548">
        <ele>576.5</ele>
        <time>2014-04-30T10:43:59Z</time>
      </trkpt>
      <trkpt lat="43.77957" lon="3.55469">
        <ele>577.7</ele>
        <time>2014-04-30T10:44:02Z</time>
      </trkpt>
      <trkpt lat="43.77951" lon="3.55456">
        <ele>579.3</ele>
        <time>2014-04-30T10:44:06Z</time>
      </trkpt>
      <trkpt lat="43.77945" lon="3.55444">
        <ele>580.7</ele>
        <time>2014-04-30T10:44:10Z</time>
      </trkpt>
      <trkpt lat="43.7794" lon="3.55432">
        <ele>581.7</ele>
        <time>2014-04-30T10:44:14Z</time>
      </trkpt>
      <trkpt lat="43.77934" lon="3.55419">
        <ele>581.5</ele>
        <time>2014-04-30T10:44:18Z</time>
      </trkpt>
      <trkpt lat="43.77928" lon="3.55408">
        <ele>582</ele>
        <time>2014-04-30T10:44:22Z</time>
      </trkpt>
      <trkpt lat="43.77922" lon="3.55397">
        <ele>583.2</ele>
        <time>2014-04-30T10:44:26Z</time>
      </trkpt>
      <trkpt lat="43.77915" lon="3.55383">
        <ele>584.9</ele>
        <time>2014-04-30T10:44:31Z</time>
      </trkpt>
      <trkpt lat="43.7791" lon="3.55372">
        <ele>586.2</ele>
        <time>2014-04-30T10:44:35Z</time>
      </trkpt>
      <trkpt lat="43.77904" lon="3.55361">
        <ele>586.6</ele>
        <time>2014-04-30T10:44:39Z</time>
      </trkpt>
      <trkpt lat="43.77898" lon="3.55351">
        <ele>586.9</ele>
        <time>2014-04-30T10:44:43Z</time>
      </trkpt>
      <trkpt lat="43.77891" lon="3.5534">
        <ele>587.7</ele>
        <time>2014-04-30T10:44:47Z</time>
      </trkpt>
      <trkpt lat="43.77882" lon="3.55332">
        <ele>588.6</ele>
        <time>2014-04-30T10:44:51Z</time>
      </trkpt>
      <trkpt lat="43.77873" lon="3.55325">
        <ele>588.8</ele>
        <time>2014-04-30T10:44:56Z</time>
      </trkpt>
      <trkpt lat="43.77863" lon="3.55321">
        <ele>589.6</ele>
        <time>2014-04-30T10:45:01Z</time>
      </trkpt>
      <trkpt lat="43.77855" lon="3.55313">
        <ele>590.2</ele>
        <time>2014-04-30T10:45:05Z</time>
      </trkpt>
      <trkpt lat="43.77848" lon="3.55303">
        <ele>590.7</ele>
        <time>2014-04-30T10:45:10Z</time>
      </trkpt>
      <trkpt lat="43.77842" lon="3.55293">
        <ele>591.6</ele>
        <time>2014-04-30T10:45:14Z</time>
      </trkpt>
      <trkpt lat="43.77833" lon="3.55285">
        <ele>592.3</ele>
        <time>2014-04-30T10:45:19Z</time>
      </trkpt>
      <trkpt lat="43.77824" lon="3.55286">
        <ele>593</ele>
        <time>2014-04-30T10:45:24Z</time>
      </trkpt>
      <trkpt lat="43.77819" lon="3.55297">
        <ele>593.3</ele>
        <time>2014-04-30T10:45:29Z</time>
      </trkpt>
      <trkpt lat="43.77818" lon="3.55312">
        <ele>596.2</ele>
        <time>2014-04-30T10:45:34Z</time>
      </trkpt>
      <trkpt lat="43.77816" lon="3.55324">
        <ele>597.8</ele>
        <time>2014-04-30T10:45:38Z</time>
      </trkpt>
      <trkpt lat="43.77812" lon="3.55338">
        <ele>597.3</ele>
        <time>2014-04-30T10:45:42Z</time>
      </trkpt>
      <trkpt lat="43.77807" lon="3.55351">
        <ele>597.5</ele>
        <time>2014-04-30T10:45:46Z</time>
      </trkpt>
      <trkpt lat="43.77801" lon="3.55361">
        <ele>597.4</ele>
        <time>2014-04-30T10:45:49Z</time>
      </trkpt>
      <trkpt lat="43.77791" lon="3.55367">
        <ele>597.7</ele>
        <time>2014-04-30T10:45:52Z</time>
      </trkpt>
      <trkpt lat="43.77781" lon="3.55372">
        <ele>597.9</ele>
        <time>2014-04-30T10:45:55Z</time>
      </trkpt>
      <trkpt lat="43.77771" lon="3.55377">
        <ele>597.7</ele>
        <time>2014-04-30T10:45:58Z</time>
      </trkpt>
      <trkpt lat="43.77762" lon="3.55381">
        <ele>598.1</ele>
        <time>2014-04-30T10:46:01Z</time>
      </trkpt>
      <trkpt lat="43.77753" lon="3.55385">
        <ele>598.2</ele>
        <time>2014-04-30T10:46:04Z</time>
      </trkpt>
      <trkpt lat="43.77742" lon="3.55389">
        <ele>598.6</ele>
        <time>2014-04-30T10:46:07Z</time>
      </trkpt>
      <trkpt lat="43.77732" lon="3.55393">
        <ele>599.3</ele>
        <time>2014-04-30T10:46:10Z</time>
      </trkpt>
      <trkpt lat="43.77721" lon="3.55394">
        <ele>598.8</ele>
        <time>2014-04-30T10:46:13Z</time>
      </trkpt>
      <trkpt lat="43.77711" lon="3.55394">
        <ele>599</ele>
        <time>2014-04-30T10:46:16Z</time>
      </trkpt>
      <trkpt lat="43.777" lon="3.55396">
        <ele>599.4</ele>
        <time>2014-04-30T10:46:19Z</time>
      </trkpt>
      <trkpt lat="43.7769" lon="3.55399">
        <ele>598.8</ele>
        <time>2014-04-30T10:46:22Z</time>
      </trkpt>
      <trkpt lat="43.7768" lon="3.55404">
        <ele>599.6</ele>
        <time>2014-04-30T10:46:26Z</time>
      </trkpt>
      <trkpt lat="43.77671" lon="3.5541">
        <ele>602.1</ele>
        <time>2014-04-30T10:46:53Z</time>
      </trkpt>
      <trkpt lat="43.77662" lon="3.55419">
        <ele>601.9</ele>
        <time>2014-04-30T10:46:57Z</time>
      </trkpt>
      <trkpt lat="43.77654" lon="3.55428">
        <ele>601.6</ele>
        <time>2014-04-30T10:47:00Z</time>
      </trkpt>
      <trkpt lat="43.77646" lon="3.55439">
        <ele>601.2</ele>
        <time>2014-04-30T10:47:03Z</time>
      </trkpt>
      <trkpt lat="43.77639" lon="3.55452">
        <ele>601.1</ele>
        <time>2014-04-30T10:47:06Z</time>
      </trkpt>
      <trkpt lat="43.77631" lon="3.55464">
        <ele>600.9</ele>
        <time>2014-04-30T10:47:09Z</time>
      </trkpt>
      <trkpt lat="43.77624" lon="3.55475">
        <ele>600.6</ele>
        <time>2014-04-30T10:47:12Z</time>
      </trkpt>
      <trkpt lat="43.77616" lon="3.55486">
        <ele>600.4</ele>
        <time>2014-04-30T10:47:15Z</time>
      </trkpt>
      <trkpt lat="43.77605" lon="3.55495">
        <ele>600.4</ele>
        <time>2014-04-30T10:47:18Z</time>
      </trkpt>
      <trkpt lat="43.77595" lon="3.55502">
        <ele>600.9</ele>
        <time>2014-04-30T10:47:21Z</time>
      </trkpt>
      <trkpt lat="43.77586" lon="3.55508">
        <ele>601.7</ele>
        <time>2014-04-30T10:47:24Z</time>
      </trkpt>
      <trkpt lat="43.77576" lon="3.55514">
        <ele>602.9</ele>
        <time>2014-04-30T10:47:27Z</time>
      </trkpt>
      <trkpt lat="43.77565" lon="3.55522">
        <ele>601.6</ele>
        <time>2014-04-30T10:47:30Z</time>
      </trkpt>
      <trkpt lat="43.77552" lon="3.55527">
        <ele>601.7</ele>
        <time>2014-04-30T10:47:33Z</time>
      </trkpt>
      <trkpt lat="43.77541" lon="3.55517">
        <ele>600.3</ele>
        <time>2014-04-30T10:47:36Z</time>
      </trkpt>
      <trkpt lat="43.77533" lon="3.55508">
        <ele>600.1</ele>
        <time>2014-04-30T10:47:38Z</time>
      </trkpt>
      <trkpt lat="43.77526" lon="3.55499">
        <ele>600</ele>
        <time>2014-04-30T10:47:40Z</time>
      </trkpt>
      <trkpt lat="43.77519" lon="3.55489">
        <ele>599.1</ele>
        <time>2014-04-30T10:47:42Z</time>
      </trkpt>
      <trkpt lat="43.77512" lon="3.5548">
        <ele>597.9</ele>
        <time>2014-04-30T10:47:44Z</time>
      </trkpt>
      <trkpt lat="43.77505" lon="3.55471">
        <ele>596.5</ele>
        <time>2014-04-30T10:47:46Z</time>
      </trkpt>
      <trkpt lat="43.77497" lon="3.55458">
        <ele>595.9</ele>
        <time>2014-04-30T10:47:49Z</time>
      </trkpt>
      <trkpt lat="43.77488" lon="3.55446">
        <ele>595.5</ele>
        <time>2014-04-30T10:47:52Z</time>
      </trkpt>
      <trkpt lat="43.7748" lon="3.55431">
        <ele>596.5</ele>
        <time>2014-04-30T10:47:55Z</time>
      </trkpt>
      <trkpt lat="43.77475" lon="3.55421">
        <ele>595.8</ele>
        <time>2014-04-30T10:47:57Z</time>
      </trkpt>
      <trkpt lat="43.77469" lon="3.55411">
        <ele>595.3</ele>
        <time>2014-04-30T10:47:59Z</time>
      </trkpt>
      <trkpt lat="43.77463" lon="3.55401">
        <ele>595.6</ele>
        <time>2014-04-30T10:48:01Z</time>
      </trkpt>
      <trkpt lat="43.77454" lon="3.55387">
        <ele>596.9</ele>
        <time>2014-04-30T10:48:04Z</time>
      </trkpt>
      <trkpt lat="43.77445" lon="3.55374">
        <ele>597.5</ele>
        <time>2014-04-30T10:48:07Z</time>
      </trkpt>
      <trkpt lat="43.77437" lon="3.55361">
        <ele>598.8</ele>
        <time>2014-04-30T10:48:10Z</time>
      </trkpt>
      <trkpt lat="43.77429" lon="3.55347">
        <ele>599.1</ele>
        <time>2014-04-30T10:48:13Z</time>
      </trkpt>
      <trkpt lat="43.77422" lon="3.55336">
        <ele>599.8</ele>
        <time>2014-04-30T10:48:16Z</time>
      </trkpt>
      <trkpt lat="43.77415" lon="3.55323">
        <ele>600.7</ele>
        <time>2014-04-30T10:48:19Z</time>
      </trkpt>
      <trkpt lat="43.77409" lon="3.55307">
        <ele>600.7</ele>
        <time>2014-04-30T10:48:22Z</time>
      </trkpt>
      <trkpt lat="43.77404" lon="3.55296">
        <ele>600.6</ele>
        <time>2014-04-30T10:48:24Z</time>
      </trkpt>
      <trkpt lat="43.77398" lon="3.55286">
        <ele>600.9</ele>
        <time>2014-04-30T10:48:26Z</time>
      </trkpt>
      <trkpt lat="43.77391" lon="3.55275">
        <ele>600.6</ele>
        <time>2014-04-30T10:48:28Z</time>
      </trkpt>
      <trkpt lat="43.77383" lon="3.55264">
        <ele>600.1</ele>
        <time>2014-04-30T10:48:30Z</time>
      </trkpt>
      <trkpt lat="43.77376" lon="3.55254">
        <ele>600.1</ele>
        <time>2014-04-30T10:48:32Z</time>
      </trkpt>
      <trkpt lat="43.77369" lon="3.55244">
        <ele>600.2</ele>
        <time>2014-04-30T10:48:34Z</time>
      </trkpt>
      <trkpt lat="43.77361" lon="3.55233">
        <ele>599.8</ele>
        <time>2014-04-30T10:48:37Z</time>
      </trkpt>
      <trkpt lat="43.77353" lon="3.55223">
        <ele>598.5</ele>
        <time>2014-04-30T10:48:40Z</time>
      </trkpt>
      <trkpt lat="43.77346" lon="3.55214">
        <ele>599.5</ele>
        <time>2014-04-30T10:48:43Z</time>
      </trkpt>
      <trkpt lat="43.77337" lon="3.55206">
        <ele>598.6</ele>
        <time>2014-04-30T10:48:48Z</time>
      </trkpt>
      <trkpt lat="43.7733" lon="3.55218">
        <ele>598.8</ele>
        <time>2014-04-30T10:49:26Z</time>
      </trkpt>
      <trkpt lat="43.77325" lon="3.55229">
        <ele>598.6</ele>
        <time>2014-04-30T10:49:29Z</time>
      </trkpt>
      <trkpt lat="43.77315" lon="3.55242">
        <ele>597.3</ele>
        <time>2014-04-30T10:49:33Z</time>
      </trkpt>
      <trkpt lat="43.77308" lon="3.55251">
        <ele>596.1</ele>
        <time>2014-04-30T10:49:35Z</time>
      </trkpt>
      <trkpt lat="43.77299" lon="3.5526">
        <ele>595</ele>
        <time>2014-04-30T10:49:37Z</time>
      </trkpt>
      <trkpt lat="43.77289" lon="3.55272">
        <ele>593.9</ele>
        <time>2014-04-30T10:49:39Z</time>
      </trkpt>
      <trkpt lat="43.7728" lon="3.55281">
        <ele>592.9</ele>
        <time>2014-04-30T10:49:41Z</time>
      </trkpt>
      <trkpt lat="43.77272" lon="3.55289">
        <ele>591.9</ele>
        <time>2014-04-30T10:49:43Z</time>
      </trkpt>
      <trkpt lat="43.77262" lon="3.55299">
        <ele>591.1</ele>
        <time>2014-04-30T10:49:45Z</time>
      </trkpt>
      <trkpt lat="43.77253" lon="3.55309">
        <ele>590.5</ele>
        <time>2014-04-30T10:49:47Z</time>
      </trkpt>
      <trkpt lat="43.77243" lon="3.55318">
        <ele>590</ele>
        <time>2014-04-30T10:49:49Z</time>
      </trkpt>
      <trkpt lat="43.77233" lon="3.55328">
        <ele>589.5</ele>
        <time>2014-04-30T10:49:51Z</time>
      </trkpt>
      <trkpt lat="43.77224" lon="3.55338">
        <ele>589.1</ele>
        <time>2014-04-30T10:49:53Z</time>
      </trkpt>
      <trkpt lat="43.77215" lon="3.55349">
        <ele>588.4</ele>
        <time>2014-04-30T10:49:55Z</time>
      </trkpt>
      <trkpt lat="43.77206" lon="3.55358">
        <ele>587.7</ele>
        <time>2014-04-30T10:49:57Z</time>
      </trkpt>
      <trkpt lat="43.77198" lon="3.55368">
        <ele>587.4</ele>
        <time>2014-04-30T10:49:59Z</time>
      </trkpt>
      <trkpt lat="43.77188" lon="3.55374">
        <ele>587.4</ele>
        <time>2014-04-30T10:50:01Z</time>
      </trkpt>
      <trkpt lat="43.77179" lon="3.55379">
        <ele>587.6</ele>
        <time>2014-04-30T10:50:03Z</time>
      </trkpt>
      <trkpt lat="43.77169" lon="3.55383">
        <ele>586.8</ele>
        <time>2014-04-30T10:50:05Z</time>
      </trkpt>
      <trkpt lat="43.77161" lon="3.55389">
        <ele>586.5</ele>
        <time>2014-04-30T10:50:07Z</time>
      </trkpt>
      <trkpt lat="43.77151" lon="3.55401">
        <ele>586.3</ele>
        <time>2014-04-30T10:50:10Z</time>
      </trkpt>
      <trkpt lat="43.77142" lon="3.55414">
        <ele>586.6</ele>
        <time>2014-04-30T10:50:13Z</time>
      </trkpt>
      <trkpt lat="43.77133" lon="3.55425">
        <ele>585.4</ele>
        <time>2014-04-30T10:50:16Z</time>
      </trkpt>
      <trkpt lat="43.77124" lon="3.55436">
        <ele>584.3</ele>
        <time>2014-04-30T10:50:19Z</time>
      </trkpt>
      <trkpt lat="43.77116" lon="3.55446">
        <ele>584.4</ele>
        <time>2014-04-30T10:50:22Z</time>
      </trkpt>
      <trkpt lat="43.77109" lon="3.55458">
        <ele>583.8</ele>
        <time>2014-04-30T10:50:25Z</time>
      </trkpt>
      <trkpt lat="43.77102" lon="3.5547">
        <ele>583.7</ele>
        <time>2014-04-30T10:50:28Z</time>
      </trkpt>
      <trkpt lat="43.77096" lon="3.55482">
        <ele>584.2</ele>
        <time>2014-04-30T10:50:31Z</time>
      </trkpt>
      <trkpt lat="43.7709" lon="3.55496">
        <ele>584.9</ele>
        <time>2014-04-30T10:50:34Z</time>
      </trkpt>
      <trkpt lat="43.77082" lon="3.5551">
        <ele>585.4</ele>
        <time>2014-04-30T10:50:37Z</time>
      </trkpt>
      <trkpt lat="43.77072" lon="3.5552">
        <ele>585.5</ele>
        <time>2014-04-30T10:50:40Z</time>
      </trkpt>
      <trkpt lat="43.77062" lon="3.55523">
        <ele>585.7</ele>
        <time>2014-04-30T10:50:44Z</time>
      </trkpt>
      <trkpt lat="43.77053" lon="3.55521">
        <ele>587.2</ele>
        <time>2014-04-30T10:50:49Z</time>
      </trkpt>
      <trkpt lat="43.77044" lon="3.55516">
        <ele>588</ele>
        <time>2014-04-30T10:50:54Z</time>
      </trkpt>
      <trkpt lat="43.77034" lon="3.55511">
        <ele>589.8</ele>
        <time>2014-04-30T10:51:00Z</time>
      </trkpt>
      <trkpt lat="43.77026" lon="3.55505">
        <ele>591.1</ele>
        <time>2014-04-30T10:51:06Z</time>
      </trkpt>
      <trkpt lat="43.77018" lon="3.55498">
        <ele>593.5</ele>
        <time>2014-04-30T10:51:12Z</time>
      </trkpt>
      <trkpt lat="43.7701" lon="3.55487">
        <ele>595.3</ele>
        <time>2014-04-30T10:51:18Z</time>
      </trkpt>
      <trkpt lat="43.77002" lon="3.55479">
        <ele>596.1</ele>
        <time>2014-04-30T10:51:23Z</time>
      </trkpt>
      <trkpt lat="43.76993" lon="3.55472">
        <ele>596</ele>
        <time>2014-04-30T10:51:27Z</time>
      </trkpt>
      <trkpt lat="43.76983" lon="3.55473">
        <ele>596.1</ele>
        <time>2014-04-30T10:51:32Z</time>
      </trkpt>
      <trkpt lat="43.76973" lon="3.55478">
        <ele>597.1</ele>
        <time>2014-04-30T10:51:37Z</time>
      </trkpt>
      <trkpt lat="43.76964" lon="3.55482">
        <ele>598.6</ele>
        <time>2014-04-30T10:51:42Z</time>
      </trkpt>
      <trkpt lat="43.76954" lon="3.55486">
        <ele>600.2</ele>
        <time>2014-04-30T10:51:48Z</time>
      </trkpt>
      <trkpt lat="43.76948" lon="3.55495">
        <ele>603.5</ele>
        <time>2014-04-30T10:51:54Z</time>
      </trkpt>
      <trkpt lat="43.76945" lon="3.55507">
        <ele>603.4</ele>
        <time>2014-04-30T10:52:00Z</time>
      </trkpt>
      <trkpt lat="43.76944" lon="3.55521">
        <ele>605.9</ele>
        <time>2014-04-30T10:52:07Z</time>
      </trkpt>
      <trkpt lat="43.76945" lon="3.55533">
        <ele>606.4</ele>
        <time>2014-04-30T10:52:13Z</time>
      </trkpt>
      <trkpt lat="43.76945" lon="3.55546">
        <ele>607.9</ele>
        <time>2014-04-30T10:52:19Z</time>
      </trkpt>
      <trkpt lat="43.76943" lon="3.55559">
        <ele>609.7</ele>
        <time>2014-04-30T10:52:26Z</time>
      </trkpt>
      <trkpt lat="43.76937" lon="3.5557">
        <ele>610.2</ele>
        <time>2014-04-30T10:52:33Z</time>
      </trkpt>
      <trkpt lat="43.76927" lon="3.55575">
        <ele>611.6</ele>
        <time>2014-04-30T10:52:40Z</time>
      </trkpt>
      <trkpt lat="43.76918" lon="3.55569">
        <ele>612.3</ele>
        <time>2014-04-30T10:52:46Z</time>
      </trkpt>
      <trkpt lat="43.76909" lon="3.55561">
        <ele>613.2</ele>
        <time>2014-04-30T10:52:52Z</time>
      </trkpt>
      <trkpt lat="43.76903" lon="3.55549">
        <ele>614.6</ele>
        <time>2014-04-30T10:52:59Z</time>
      </trkpt>
      <trkpt lat="43.769" lon="3.55537">
        <ele>616.2</ele>
        <time>2014-04-30T10:53:05Z</time>
      </trkpt>
      <trkpt lat="43.76891" lon="3.5553">
        <ele>616</ele>
        <time>2014-04-30T10:53:11Z</time>
      </trkpt>
      <trkpt lat="43.76889" lon="3.55543">
        <ele>616.5</ele>
        <time>2014-04-30T10:53:19Z</time>
      </trkpt>
      <trkpt lat="43.7689" lon="3.55557">
        <ele>616.2</ele>
        <time>2014-04-30T10:53:25Z</time>
      </trkpt>
      <trkpt lat="43.7689" lon="3.5557">
        <ele>617.5</ele>
        <time>2014-04-30T10:53:31Z</time>
      </trkpt>
      <trkpt lat="43.76893" lon="3.55584">
        <ele>619.2</ele>
        <time>2014-04-30T10:53:38Z</time>
      </trkpt>
      <trkpt lat="43.76898" lon="3.55595">
        <ele>621</ele>
        <time>2014-04-30T10:53:45Z</time>
      </trkpt>
      <trkpt lat="43.76902" lon="3.55607">
        <ele>625.1</ele>
        <time>2014-04-30T10:53:59Z</time>
      </trkpt>
      <trkpt lat="43.76904" lon="3.55621">
        <ele>626.9</ele>
        <time>2014-04-30T10:54:04Z</time>
      </trkpt>
      <trkpt lat="43.76907" lon="3.55634">
        <ele>627.7</ele>
        <time>2014-04-30T10:54:10Z</time>
      </trkpt>
      <trkpt lat="43.76916" lon="3.55642">
        <ele>628.4</ele>
        <time>2014-04-30T10:54:16Z</time>
      </trkpt>
      <trkpt lat="43.76912" lon="3.55654">
        <ele>634.2</ele>
        <time>2014-04-30T10:54:41Z</time>
      </trkpt>
      <trkpt lat="43.76902" lon="3.55655">
        <ele>635.2</ele>
        <time>2014-04-30T10:54:49Z</time>
      </trkpt>
      <trkpt lat="43.76894" lon="3.55661">
        <ele>642.9</ele>
        <time>2014-04-30T10:55:19Z</time>
      </trkpt>
      <trkpt lat="43.76892" lon="3.55673">
        <ele>644.2</ele>
        <time>2014-04-30T10:55:23Z</time>
      </trkpt>
      <trkpt lat="43.76892" lon="3.55686">
        <ele>644.9</ele>
        <time>2014-04-30T10:55:28Z</time>
      </trkpt>
      <trkpt lat="43.76895" lon="3.55699">
        <ele>644.9</ele>
        <time>2014-04-30T10:55:34Z</time>
      </trkpt>
      <trkpt lat="43.76896" lon="3.55712">
        <ele>649.2</ele>
        <time>2014-04-30T10:56:30Z</time>
      </trkpt>
      <trkpt lat="43.76895" lon="3.55726">
        <ele>650.2</ele>
        <time>2014-04-30T10:56:33Z</time>
      </trkpt>
      <trkpt lat="43.76892" lon="3.5574">
        <ele>649.5</ele>
        <time>2014-04-30T10:56:37Z</time>
      </trkpt>
      <trkpt lat="43.76891" lon="3.55755">
        <ele>649</ele>
        <time>2014-04-30T10:56:41Z</time>
      </trkpt>
      <trkpt lat="43.76891" lon="3.55768">
        <ele>649.9</ele>
        <time>2014-04-30T10:56:45Z</time>
      </trkpt>
      <trkpt lat="43.76889" lon="3.55782">
        <ele>648.9</ele>
        <time>2014-04-30T10:56:50Z</time>
      </trkpt>
      <trkpt lat="43.76887" lon="3.55795">
        <ele>649.9</ele>
        <time>2014-04-30T10:56:55Z</time>
      </trkpt>
      <trkpt lat="43.76883" lon="3.55807">
        <ele>650.7</ele>
        <time>2014-04-30T10:57:00Z</time>
      </trkpt>
      <trkpt lat="43.76878" lon="3.55818">
        <ele>652.6</ele>
        <time>2014-04-30T10:57:06Z</time>
      </trkpt>
      <trkpt lat="43.76875" lon="3.5583">
        <ele>652.8</ele>
        <time>2014-04-30T10:57:22Z</time>
      </trkpt>
      <trkpt lat="43.76873" lon="3.55843">
        <ele>652.5</ele>
        <time>2014-04-30T10:57:26Z</time>
      </trkpt>
      <trkpt lat="43.76868" lon="3.55858">
        <ele>653.3</ele>
        <time>2014-04-30T10:57:31Z</time>
      </trkpt>
      <trkpt lat="43.76863" lon="3.55871">
        <ele>653.5</ele>
        <time>2014-04-30T10:57:36Z</time>
      </trkpt>
      <trkpt lat="43.76857" lon="3.55882">
        <ele>653.3</ele>
        <time>2014-04-30T10:57:41Z</time>
      </trkpt>
      <trkpt lat="43.7685" lon="3.55893">
        <ele>653.1</ele>
        <time>2014-04-30T10:57:45Z</time>
      </trkpt>
      <trkpt lat="43.76844" lon="3.55904">
        <ele>653.3</ele>
        <time>2014-04-30T10:57:49Z</time>
      </trkpt>
      <trkpt lat="43.76839" lon="3.55914">
        <ele>651.6</ele>
        <time>2014-04-30T10:57:53Z</time>
      </trkpt>
      <trkpt lat="43.76834" lon="3.55926">
        <ele>651.2</ele>
        <time>2014-04-30T10:57:57Z</time>
      </trkpt>
      <trkpt lat="43.76831" lon="3.5594">
        <ele>651.5</ele>
        <time>2014-04-30T10:58:01Z</time>
      </trkpt>
      <trkpt lat="43.7683" lon="3.55956">
        <ele>651.2</ele>
        <time>2014-04-30T10:58:05Z</time>
      </trkpt>
      <trkpt lat="43.76831" lon="3.55969">
        <ele>651.3</ele>
        <time>2014-04-30T10:58:08Z</time>
      </trkpt>
      <trkpt lat="43.76833" lon="3.55982">
        <ele>651.2</ele>
        <time>2014-04-30T10:58:12Z</time>
      </trkpt>
      <trkpt lat="43.76836" lon="3.55996">
        <ele>651.1</ele>
        <time>2014-04-30T10:58:17Z</time>
      </trkpt>
      <trkpt lat="43.76835" lon="3.56009">
        <ele>654.9</ele>
        <time>2014-04-30T10:59:14Z</time>
      </trkpt>
      <trkpt lat="43.76833" lon="3.56024">
        <ele>654.2</ele>
        <time>2014-04-30T10:59:18Z</time>
      </trkpt>
      <trkpt lat="43.76829" lon="3.56038">
        <ele>656.5</ele>
        <time>2014-04-30T10:59:24Z</time>
      </trkpt>
      <trkpt lat="43.76828" lon="3.56052">
        <ele>658</ele>
        <time>2014-04-30T10:59:28Z</time>
      </trkpt>
      <trkpt lat="43.76829" lon="3.56067">
        <ele>659.2</ele>
        <time>2014-04-30T10:59:33Z</time>
      </trkpt>
      <trkpt lat="43.76822" lon="3.56076">
        <ele>668.4</ele>
        <time>2014-04-30T11:00:09Z</time>
      </trkpt>
      <trkpt lat="43.76814" lon="3.56084">
        <ele>670.9</ele>
        <time>2014-04-30T11:00:42Z</time>
      </trkpt>
      <trkpt lat="43.76805" lon="3.56094">
        <ele>673.7</ele>
        <time>2014-04-30T11:01:00Z</time>
      </trkpt>
      <trkpt lat="43.76798" lon="3.56102">
        <ele>674.8</ele>
        <time>2014-04-30T11:01:03Z</time>
      </trkpt>
      <trkpt lat="43.7679" lon="3.56111">
        <ele>677.2</ele>
        <time>2014-04-30T11:01:22Z</time>
      </trkpt>
      <trkpt lat="43.76785" lon="3.56125">
        <ele>683.6</ele>
        <time>2014-04-30T11:01:50Z</time>
      </trkpt>
      <trkpt lat="43.76783" lon="3.56137">
        <ele>686.6</ele>
        <time>2014-04-30T11:02:13Z</time>
      </trkpt>
      <trkpt lat="43.76781" lon="3.5615">
        <ele>691.2</ele>
        <time>2014-04-30T11:02:43Z</time>
      </trkpt>
      <trkpt lat="43.76779" lon="3.56166">
        <ele>693.8</ele>
        <time>2014-04-30T11:03:07Z</time>
      </trkpt>
      <trkpt lat="43.76776" lon="3.56181">
        <ele>698.8</ele>
        <time>2014-04-30T11:03:29Z</time>
      </trkpt>
      <trkpt lat="43.76774" lon="3.56196">
        <ele>703.7</ele>
        <time>2014-04-30T11:03:55Z</time>
      </trkpt>
      <trkpt lat="43.76772" lon="3.56212">
        <ele>707.8</ele>
        <time>2014-04-30T11:04:23Z</time>
      </trkpt>
      <trkpt lat="43.76774" lon="3.56228">
        <ele>712.2</ele>
        <time>2014-04-30T11:04:46Z</time>
      </trkpt>
      <trkpt lat="43.76779" lon="3.56242">
        <ele>716.6</ele>
        <time>2014-04-30T11:05:26Z</time>
      </trkpt>
      <trkpt lat="43.76774" lon="3.56231">
        <ele>698.1</ele>
        <time>2014-04-30T11:20:04Z</time>
      </trkpt>
      <trkpt lat="43.76774" lon="3.56218">
        <ele>693.4</ele>
        <time>2014-04-30T11:20:34Z</time>
      </trkpt>
      <trkpt lat="43.76776" lon="3.56203">
        <ele>691.2</ele>
        <time>2014-04-30T11:20:38Z</time>
      </trkpt>
      <trkpt lat="43.76775" lon="3.56188">
        <ele>691</ele>
        <time>2014-04-30T11:20:42Z</time>
      </trkpt>
      <trkpt lat="43.76772" lon="3.56175">
        <ele>687.9</ele>
        <time>2014-04-30T11:20:47Z</time>
      </trkpt>
      <trkpt lat="43.76772" lon="3.56161">
        <ele>686.5</ele>
        <time>2014-04-30T11:20:52Z</time>
      </trkpt>
      <trkpt lat="43.7677" lon="3.56149">
        <ele>684.6</ele>
        <time>2014-04-30T11:20:57Z</time>
      </trkpt>
      <trkpt lat="43.76776" lon="3.56136">
        <ele>681.8</ele>
        <time>2014-04-30T11:21:03Z</time>
      </trkpt>
      <trkpt lat="43.76781" lon="3.56123">
        <ele>678.8</ele>
        <time>2014-04-30T11:21:09Z</time>
      </trkpt>
      <trkpt lat="43.76789" lon="3.56115">
        <ele>675.9</ele>
        <time>2014-04-30T11:21:15Z</time>
      </trkpt>
      <trkpt lat="43.76798" lon="3.56109">
        <ele>672.7</ele>
        <time>2014-04-30T11:21:21Z</time>
      </trkpt>
      <trkpt lat="43.76806" lon="3.56101">
        <ele>670.2</ele>
        <time>2014-04-30T11:21:26Z</time>
      </trkpt>
      <trkpt lat="43.76817" lon="3.56096">
        <ele>670</ele>
        <time>2014-04-30T11:21:30Z</time>
      </trkpt>
      <trkpt lat="43.76825" lon="3.5609">
        <ele>666.4</ele>
        <time>2014-04-30T11:21:34Z</time>
      </trkpt>
      <trkpt lat="43.76827" lon="3.56075">
        <ele>662.7</ele>
        <time>2014-04-30T11:21:40Z</time>
      </trkpt>
      <trkpt lat="43.76831" lon="3.56061">
        <ele>660.3</ele>
        <time>2014-04-30T11:21:47Z</time>
      </trkpt>
      <trkpt lat="43.76831" lon="3.56047">
        <ele>658.5</ele>
        <time>2014-04-30T11:21:51Z</time>
      </trkpt>
      <trkpt lat="43.76833" lon="3.56041">
        <ele>655.1</ele>
        <time>2014-04-30T11:23:15Z</time>
      </trkpt>
      <trkpt lat="43.76824" lon="3.55979">
        <ele>640</ele>
        <time>2014-04-30T11:27:43Z</time>
      </trkpt>
      <trkpt lat="43.76826" lon="3.55963">
        <ele>641.9</ele>
        <time>2014-04-30T11:27:50Z</time>
      </trkpt>
      <trkpt lat="43.76829" lon="3.55951">
        <ele>640.7</ele>
        <time>2014-04-30T11:27:56Z</time>
      </trkpt>
      <trkpt lat="43.76835" lon="3.5594">
        <ele>641</ele>
        <time>2014-04-30T11:28:00Z</time>
      </trkpt>
      <trkpt lat="43.76842" lon="3.55929">
        <ele>642.4</ele>
        <time>2014-04-30T11:28:04Z</time>
      </trkpt>
      <trkpt lat="43.76848" lon="3.55918">
        <ele>642.7</ele>
        <time>2014-04-30T11:28:08Z</time>
      </trkpt>
      <trkpt lat="43.76855" lon="3.55908">
        <ele>642.4</ele>
        <time>2014-04-30T11:28:12Z</time>
      </trkpt>
      <trkpt lat="43.7686" lon="3.55896">
        <ele>643.2</ele>
        <time>2014-04-30T11:28:16Z</time>
      </trkpt>
      <trkpt lat="43.76866" lon="3.55883">
        <ele>642.9</ele>
        <time>2014-04-30T11:28:20Z</time>
      </trkpt>
      <trkpt lat="43.7687" lon="3.55869">
        <ele>642.4</ele>
        <time>2014-04-30T11:28:25Z</time>
      </trkpt>
      <trkpt lat="43.76869" lon="3.55854">
        <ele>642.5</ele>
        <time>2014-04-30T11:28:42Z</time>
      </trkpt>
      <trkpt lat="43.76865" lon="3.55841">
        <ele>643.3</ele>
        <time>2014-04-30T11:28:46Z</time>
      </trkpt>
      <trkpt lat="43.76855" lon="3.55834">
        <ele>642.8</ele>
        <time>2014-04-30T11:28:49Z</time>
      </trkpt>
      <trkpt lat="43.76846" lon="3.55828">
        <ele>642.9</ele>
        <time>2014-04-30T11:28:52Z</time>
      </trkpt>
      <trkpt lat="43.76836" lon="3.5583">
        <ele>642.1</ele>
        <time>2014-04-30T11:28:58Z</time>
      </trkpt>
      <trkpt lat="43.76831" lon="3.55841">
        <ele>641.5</ele>
        <time>2014-04-30T11:29:01Z</time>
      </trkpt>
      <trkpt lat="43.76825" lon="3.55851">
        <ele>639.7</ele>
        <time>2014-04-30T11:29:05Z</time>
      </trkpt>
      <trkpt lat="43.76819" lon="3.5586">
        <ele>639.2</ele>
        <time>2014-04-30T11:29:08Z</time>
      </trkpt>
      <trkpt lat="43.7681" lon="3.55869">
        <ele>638.8</ele>
        <time>2014-04-30T11:29:11Z</time>
      </trkpt>
      <trkpt lat="43.76799" lon="3.55875">
        <ele>637.7</ele>
        <time>2014-04-30T11:29:14Z</time>
      </trkpt>
      <trkpt lat="43.76789" lon="3.5588">
        <ele>635.6</ele>
        <time>2014-04-30T11:29:18Z</time>
      </trkpt>
      <trkpt lat="43.76781" lon="3.55885">
        <ele>633.9</ele>
        <time>2014-04-30T11:29:21Z</time>
      </trkpt>
      <trkpt lat="43.7677" lon="3.55891">
        <ele>633.3</ele>
        <time>2014-04-30T11:29:24Z</time>
      </trkpt>
      <trkpt lat="43.76761" lon="3.55896">
        <ele>633.2</ele>
        <time>2014-04-30T11:29:27Z</time>
      </trkpt>
      <trkpt lat="43.7675" lon="3.55901">
        <ele>632.5</ele>
        <time>2014-04-30T11:29:30Z</time>
      </trkpt>
      <trkpt lat="43.76741" lon="3.55909">
        <ele>630.8</ele>
        <time>2014-04-30T11:29:34Z</time>
      </trkpt>
      <trkpt lat="43.76735" lon="3.5592">
        <ele>629.6</ele>
        <time>2014-04-30T11:29:37Z</time>
      </trkpt>
      <trkpt lat="43.76729" lon="3.55933">
        <ele>629.1</ele>
        <time>2014-04-30T11:29:40Z</time>
      </trkpt>
      <trkpt lat="43.76721" lon="3.55939">
        <ele>628.8</ele>
        <time>2014-04-30T11:29:42Z</time>
      </trkpt>
      <trkpt lat="43.76709" lon="3.55939">
        <ele>628.4</ele>
        <time>2014-04-30T11:29:45Z</time>
      </trkpt>
      <trkpt lat="43.76698" lon="3.55937">
        <ele>626</ele>
        <time>2014-04-30T11:29:48Z</time>
      </trkpt>
      <trkpt lat="43.76687" lon="3.55938">
        <ele>625.1</ele>
        <time>2014-04-30T11:29:52Z</time>
      </trkpt>
      <trkpt lat="43.76678" lon="3.55941">
        <ele>625.5</ele>
        <time>2014-04-30T11:30:17Z</time>
      </trkpt>
      <trkpt lat="43.76685" lon="3.55929">
        <ele>622</ele>
        <time>2014-04-30T11:30:31Z</time>
      </trkpt>
      <trkpt lat="43.76694" lon="3.55924">
        <ele>619.9</ele>
        <time>2014-04-30T11:30:37Z</time>
      </trkpt>
      <trkpt lat="43.76702" lon="3.55916">
        <ele>617.7</ele>
        <time>2014-04-30T11:30:43Z</time>
      </trkpt>
      <trkpt lat="43.76703" lon="3.55902">
        <ele>617.6</ele>
        <time>2014-04-30T11:30:50Z</time>
      </trkpt>
      <trkpt lat="43.7671" lon="3.55892">
        <ele>616.9</ele>
        <time>2014-04-30T11:30:55Z</time>
      </trkpt>
      <trkpt lat="43.76719" lon="3.55884">
        <ele>616.8</ele>
        <time>2014-04-30T11:30:59Z</time>
      </trkpt>
      <trkpt lat="43.76727" lon="3.55877">
        <ele>615.3</ele>
        <time>2014-04-30T11:31:03Z</time>
      </trkpt>
      <trkpt lat="43.76735" lon="3.55868">
        <ele>613.8</ele>
        <time>2014-04-30T11:31:07Z</time>
      </trkpt>
      <trkpt lat="43.76744" lon="3.55858">
        <ele>613.7</ele>
        <time>2014-04-30T11:31:11Z</time>
      </trkpt>
      <trkpt lat="43.7675" lon="3.55848">
        <ele>613.4</ele>
        <time>2014-04-30T11:31:15Z</time>
      </trkpt>
      <trkpt lat="43.76753" lon="3.55836">
        <ele>612.4</ele>
        <time>2014-04-30T11:31:18Z</time>
      </trkpt>
      <trkpt lat="43.76758" lon="3.55826">
        <ele>611.3</ele>
        <time>2014-04-30T11:31:21Z</time>
      </trkpt>
      <trkpt lat="43.76765" lon="3.55816">
        <ele>610.1</ele>
        <time>2014-04-30T11:31:25Z</time>
      </trkpt>
      <trkpt lat="43.76771" lon="3.55804">
        <ele>609.9</ele>
        <time>2014-04-30T11:31:29Z</time>
      </trkpt>
      <trkpt lat="43.76774" lon="3.5579">
        <ele>608.9</ele>
        <time>2014-04-30T11:31:33Z</time>
      </trkpt>
      <trkpt lat="43.76777" lon="3.55778">
        <ele>608.2</ele>
        <time>2014-04-30T11:31:36Z</time>
      </trkpt>
      <trkpt lat="43.76782" lon="3.55765">
        <ele>606.8</ele>
        <time>2014-04-30T11:31:39Z</time>
      </trkpt>
      <trkpt lat="43.76786" lon="3.55754">
        <ele>605</ele>
        <time>2014-04-30T11:31:43Z</time>
      </trkpt>
      <trkpt lat="43.76783" lon="3.55741">
        <ele>605.1</ele>
        <time>2014-04-30T11:31:47Z</time>
      </trkpt>
      <trkpt lat="43.76778" lon="3.5573">
        <ele>604.7</ele>
        <time>2014-04-30T11:31:50Z</time>
      </trkpt>
      <trkpt lat="43.76771" lon="3.55721">
        <ele>604.3</ele>
        <time>2014-04-30T11:31:54Z</time>
      </trkpt>
      <trkpt lat="43.76762" lon="3.55713">
        <ele>602.6</ele>
        <time>2014-04-30T11:31:57Z</time>
      </trkpt>
      <trkpt lat="43.76753" lon="3.55706">
        <ele>601.5</ele>
        <time>2014-04-30T11:32:00Z</time>
      </trkpt>
      <trkpt lat="43.76743" lon="3.55702">
        <ele>601</ele>
        <time>2014-04-30T11:32:04Z</time>
      </trkpt>
      <trkpt lat="43.76731" lon="3.55698">
        <ele>599</ele>
        <time>2014-04-30T11:32:09Z</time>
      </trkpt>
      <trkpt lat="43.76721" lon="3.55694">
        <ele>598.6</ele>
        <time>2014-04-30T11:32:13Z</time>
      </trkpt>
      <trkpt lat="43.7671" lon="3.55691">
        <ele>597.7</ele>
        <time>2014-04-30T11:32:16Z</time>
      </trkpt>
      <trkpt lat="43.76701" lon="3.55688">
        <ele>596.2</ele>
        <time>2014-04-30T11:32:19Z</time>
      </trkpt>
      <trkpt lat="43.76694" lon="3.55678">
        <ele>595</ele>
        <time>2014-04-30T11:32:23Z</time>
      </trkpt>
      <trkpt lat="43.76689" lon="3.55666">
        <ele>594</ele>
        <time>2014-04-30T11:32:27Z</time>
      </trkpt>
      <trkpt lat="43.76686" lon="3.55652">
        <ele>594</ele>
        <time>2014-04-30T11:32:31Z</time>
      </trkpt>
      <trkpt lat="43.76684" lon="3.5564">
        <ele>593</ele>
        <time>2014-04-30T11:32:35Z</time>
      </trkpt>
      <trkpt lat="43.76683" lon="3.55624">
        <ele>592.3</ele>
        <time>2014-04-30T11:32:39Z</time>
      </trkpt>
      <trkpt lat="43.76686" lon="3.5561">
        <ele>589.9</ele>
        <time>2014-04-30T11:32:44Z</time>
      </trkpt>
      <trkpt lat="43.7669" lon="3.55597">
        <ele>589.7</ele>
        <time>2014-04-30T11:32:50Z</time>
      </trkpt>
      <trkpt lat="43.76694" lon="3.55585">
        <ele>590.1</ele>
        <time>2014-04-30T11:32:56Z</time>
      </trkpt>
      <trkpt lat="43.767" lon="3.55572">
        <ele>590.1</ele>
        <time>2014-04-30T11:33:01Z</time>
      </trkpt>
      <trkpt lat="43.76707" lon="3.55561">
        <ele>590.5</ele>
        <time>2014-04-30T11:33:06Z</time>
      </trkpt>
      <trkpt lat="43.76713" lon="3.55549">
        <ele>589.5</ele>
        <time>2014-04-30T11:33:11Z</time>
      </trkpt>
      <trkpt lat="43.76715" lon="3.55535">
        <ele>589.9</ele>
        <time>2014-04-30T11:33:18Z</time>
      </trkpt>
      <trkpt lat="43.76709" lon="3.55544">
        <ele>589.3</ele>
        <time>2014-04-30T11:33:38Z</time>
      </trkpt>
      <trkpt lat="43.76701" lon="3.55553">
        <ele>587.9</ele>
        <time>2014-04-30T11:33:44Z</time>
      </trkpt>
      <trkpt lat="43.76692" lon="3.5556">
        <ele>587</ele>
        <time>2014-04-30T11:33:48Z</time>
      </trkpt>
      <trkpt lat="43.76685" lon="3.5557">
        <ele>586.6</ele>
        <time>2014-04-30T11:33:53Z</time>
      </trkpt>
      <trkpt lat="43.76679" lon="3.55584">
        <ele>586.1</ele>
        <time>2014-04-30T11:33:57Z</time>
      </trkpt>
      <trkpt lat="43.76673" lon="3.55595">
        <ele>585.1</ele>
        <time>2014-04-30T11:34:01Z</time>
      </trkpt>
      <trkpt lat="43.76669" lon="3.55606">
        <ele>583.6</ele>
        <time>2014-04-30T11:34:05Z</time>
      </trkpt>
      <trkpt lat="43.76663" lon="3.5562">
        <ele>582.4</ele>
        <time>2014-04-30T11:34:08Z</time>
      </trkpt>
      <trkpt lat="43.76661" lon="3.55635">
        <ele>580.4</ele>
        <time>2014-04-30T11:34:12Z</time>
      </trkpt>
      <trkpt lat="43.76662" lon="3.5565">
        <ele>579.7</ele>
        <time>2014-04-30T11:34:16Z</time>
      </trkpt>
      <trkpt lat="43.76663" lon="3.55666">
        <ele>579.5</ele>
        <time>2014-04-30T11:34:19Z</time>
      </trkpt>
      <trkpt lat="43.76664" lon="3.55679">
        <ele>579.4</ele>
        <time>2014-04-30T11:34:21Z</time>
      </trkpt>
      <trkpt lat="43.76664" lon="3.55693">
        <ele>578</ele>
        <time>2014-04-30T11:34:24Z</time>
      </trkpt>
      <trkpt lat="43.76666" lon="3.55706">
        <ele>575.8</ele>
        <time>2014-04-30T11:34:29Z</time>
      </trkpt>
      <trkpt lat="43.76657" lon="3.557">
        <ele>572</ele>
        <time>2014-04-30T11:34:43Z</time>
      </trkpt>
      <trkpt lat="43.7665" lon="3.55691">
        <ele>569.9</ele>
        <time>2014-04-30T11:34:48Z</time>
      </trkpt>
      <trkpt lat="43.76644" lon="3.55679">
        <ele>568.4</ele>
        <time>2014-04-30T11:34:53Z</time>
      </trkpt>
      <trkpt lat="43.76637" lon="3.55668">
        <ele>565.9</ele>
        <time>2014-04-30T11:34:58Z</time>
      </trkpt>
      <trkpt lat="43.76632" lon="3.55657">
        <ele>563.2</ele>
        <time>2014-04-30T11:35:02Z</time>
      </trkpt>
      <trkpt lat="43.76627" lon="3.55644">
        <ele>560</ele>
        <time>2014-04-30T11:35:06Z</time>
      </trkpt>
      <trkpt lat="43.76624" lon="3.5563">
        <ele>557.1</ele>
        <time>2014-04-30T11:35:11Z</time>
      </trkpt>
      <trkpt lat="43.76624" lon="3.55615">
        <ele>555.5</ele>
        <time>2014-04-30T11:35:16Z</time>
      </trkpt>
      <trkpt lat="43.76625" lon="3.55602">
        <ele>552.5</ele>
        <time>2014-04-30T11:35:23Z</time>
      </trkpt>
      <trkpt lat="43.76621" lon="3.55587">
        <ele>551.7</ele>
        <time>2014-04-30T11:35:47Z</time>
      </trkpt>
      <trkpt lat="43.76618" lon="3.55575">
        <ele>550.8</ele>
        <time>2014-04-30T11:35:51Z</time>
      </trkpt>
      <trkpt lat="43.76612" lon="3.55561">
        <ele>549.7</ele>
        <time>2014-04-30T11:35:55Z</time>
      </trkpt>
      <trkpt lat="43.76607" lon="3.55549">
        <ele>548.7</ele>
        <time>2014-04-30T11:35:58Z</time>
      </trkpt>
      <trkpt lat="43.76605" lon="3.55536">
        <ele>547.7</ele>
        <time>2014-04-30T11:36:01Z</time>
      </trkpt>
      <trkpt lat="43.76607" lon="3.55521">
        <ele>546.7</ele>
        <time>2014-04-30T11:36:04Z</time>
      </trkpt>
      <trkpt lat="43.76608" lon="3.55505">
        <ele>545.9</ele>
        <time>2014-04-30T11:36:07Z</time>
      </trkpt>
      <trkpt lat="43.76608" lon="3.55492">
        <ele>544.9</ele>
        <time>2014-04-30T11:36:10Z</time>
      </trkpt>
      <trkpt lat="43.76598" lon="3.55481">
        <ele>543</ele>
        <time>2014-04-30T11:36:14Z</time>
      </trkpt>
      <trkpt lat="43.76587" lon="3.55476">
        <ele>542.2</ele>
        <time>2014-04-30T11:36:18Z</time>
      </trkpt>
      <trkpt lat="43.76577" lon="3.55475">
        <ele>539.1</ele>
        <time>2014-04-30T11:36:23Z</time>
      </trkpt>
      <trkpt lat="43.76568" lon="3.55469">
        <ele>536.5</ele>
        <time>2014-04-30T11:36:43Z</time>
      </trkpt>
      <trkpt lat="43.76558" lon="3.55465">
        <ele>535.2</ele>
        <time>2014-04-30T11:36:48Z</time>
      </trkpt>
      <trkpt lat="43.76547" lon="3.55458">
        <ele>533.3</ele>
        <time>2014-04-30T11:36:53Z</time>
      </trkpt>
      <trkpt lat="43.76539" lon="3.55452">
        <ele>532.3</ele>
        <time>2014-04-30T11:36:56Z</time>
      </trkpt>
      <trkpt lat="43.7653" lon="3.55442">
        <ele>530.4</ele>
        <time>2014-04-30T11:37:00Z</time>
      </trkpt>
      <trkpt lat="43.76521" lon="3.55439">
        <ele>528.5</ele>
        <time>2014-04-30T11:37:04Z</time>
      </trkpt>
      <trkpt lat="43.76511" lon="3.55436">
        <ele>525.9</ele>
        <time>2014-04-30T11:37:08Z</time>
      </trkpt>
      <trkpt lat="43.76501" lon="3.55434">
        <ele>524.3</ele>
        <time>2014-04-30T11:37:13Z</time>
      </trkpt>
      <trkpt lat="43.76491" lon="3.55438">
        <ele>520.1</ele>
        <time>2014-04-30T11:37:56Z</time>
      </trkpt>
      <trkpt lat="43.76482" lon="3.55444">
        <ele>519.2</ele>
        <time>2014-04-30T11:37:59Z</time>
      </trkpt>
      <trkpt lat="43.76472" lon="3.55449">
        <ele>518.8</ele>
        <time>2014-04-30T11:38:02Z</time>
      </trkpt>
      <trkpt lat="43.76461" lon="3.55452">
        <ele>518.2</ele>
        <time>2014-04-30T11:38:05Z</time>
      </trkpt>
      <trkpt lat="43.76452" lon="3.55455">
        <ele>516.3</ele>
        <time>2014-04-30T11:38:08Z</time>
      </trkpt>
      <trkpt lat="43.76442" lon="3.55453">
        <ele>514.4</ele>
        <time>2014-04-30T11:38:11Z</time>
      </trkpt>
      <trkpt lat="43.76435" lon="3.55446">
        <ele>510.4</ele>
        <time>2014-04-30T11:38:18Z</time>
      </trkpt>
      <trkpt lat="43.76435" lon="3.55433">
        <ele>509.4</ele>
        <time>2014-04-30T11:38:21Z</time>
      </trkpt>
      <trkpt lat="43.76431" lon="3.55422">
        <ele>508.3</ele>
        <time>2014-04-30T11:38:24Z</time>
      </trkpt>
      <trkpt lat="43.76423" lon="3.55411">
        <ele>507.7</ele>
        <time>2014-04-30T11:38:27Z</time>
      </trkpt>
      <trkpt lat="43.76412" lon="3.554">
        <ele>506.6</ele>
        <time>2014-04-30T11:38:30Z</time>
      </trkpt>
      <trkpt lat="43.76403" lon="3.55392">
        <ele>504.7</ele>
        <time>2014-04-30T11:38:33Z</time>
      </trkpt>
      <trkpt lat="43.76392" lon="3.55385">
        <ele>502.9</ele>
        <time>2014-04-30T11:38:37Z</time>
      </trkpt>
      <trkpt lat="43.7638" lon="3.55381">
        <ele>501.9</ele>
        <time>2014-04-30T11:38:40Z</time>
      </trkpt>
      <trkpt lat="43.7637" lon="3.55378">
        <ele>500.7</ele>
        <time>2014-04-30T11:38:42Z</time>
      </trkpt>
      <trkpt lat="43.7636" lon="3.55377">
        <ele>499</ele>
        <time>2014-04-30T11:38:45Z</time>
      </trkpt>
      <trkpt lat="43.7636" lon="3.55389">
        <ele>494.3</ele>
        <time>2014-04-30T11:38:59Z</time>
      </trkpt>
      <trkpt lat="43.76368" lon="3.55399">
        <ele>492.5</ele>
        <time>2014-04-30T11:39:03Z</time>
      </trkpt>
      <trkpt lat="43.76375" lon="3.55407">
        <ele>490.7</ele>
        <time>2014-04-30T11:39:07Z</time>
      </trkpt>
      <trkpt lat="43.76382" lon="3.55417">
        <ele>490.1</ele>
        <time>2014-04-30T11:39:10Z</time>
      </trkpt>
      <trkpt lat="43.76388" lon="3.55427">
        <ele>488.5</ele>
        <time>2014-04-30T11:39:14Z</time>
      </trkpt>
      <trkpt lat="43.76378" lon="3.55433">
        <ele>479.8</ele>
        <time>2014-04-30T11:39:56Z</time>
      </trkpt>
      <trkpt lat="43.76368" lon="3.55432">
        <ele>479.4</ele>
        <time>2014-04-30T11:39:59Z</time>
      </trkpt>
      <trkpt lat="43.76357" lon="3.5543">
        <ele>477.9</ele>
        <time>2014-04-30T11:40:03Z</time>
      </trkpt>
      <trkpt lat="43.76347" lon="3.55427">
        <ele>476.6</ele>
        <time>2014-04-30T11:40:07Z</time>
      </trkpt>
      <trkpt lat="43.76338" lon="3.55427">
        <ele>474.7</ele>
        <time>2014-04-30T11:40:11Z</time>
      </trkpt>
      <trkpt lat="43.76329" lon="3.55424">
        <ele>473</ele>
        <time>2014-04-30T11:40:16Z</time>
      </trkpt>
      <trkpt lat="43.76325" lon="3.55412">
        <ele>471.4</ele>
        <time>2014-04-30T11:40:19Z</time>
      </trkpt>
      <trkpt lat="43.76316" lon="3.55401">
        <ele>469.3</ele>
        <time>2014-04-30T11:40:23Z</time>
      </trkpt>
      <trkpt lat="43.76306" lon="3.55395">
        <ele>468</ele>
        <time>2014-04-30T11:40:27Z</time>
      </trkpt>
      <trkpt lat="43.76297" lon="3.55391">
        <ele>466.9</ele>
        <time>2014-04-30T11:40:30Z</time>
      </trkpt>
      <trkpt lat="43.76287" lon="3.55394">
        <ele>465.7</ele>
        <time>2014-04-30T11:40:35Z</time>
      </trkpt>
      <trkpt lat="43.76278" lon="3.55403">
        <ele>463.1</ele>
        <time>2014-04-30T11:40:40Z</time>
      </trkpt>
      <trkpt lat="43.76272" lon="3.55413">
        <ele>461.6</ele>
        <time>2014-04-30T11:40:44Z</time>
      </trkpt>
      <trkpt lat="43.76265" lon="3.55423">
        <ele>458.9</ele>
        <time>2014-04-30T11:40:49Z</time>
      </trkpt>
      <trkpt lat="43.76255" lon="3.55425">
        <ele>457.4</ele>
        <time>2014-04-30T11:40:53Z</time>
      </trkpt>
      <trkpt lat="43.76244" lon="3.55426">
        <ele>455.2</ele>
        <time>2014-04-30T11:40:57Z</time>
      </trkpt>
      <trkpt lat="43.76235" lon="3.55433">
        <ele>452.9</ele>
        <time>2014-04-30T11:41:02Z</time>
      </trkpt>
      <trkpt lat="43.76227" lon="3.5544">
        <ele>451.3</ele>
        <time>2014-04-30T11:41:07Z</time>
      </trkpt>
      <trkpt lat="43.76217" lon="3.55448">
        <ele>450.4</ele>
        <time>2014-04-30T11:41:12Z</time>
      </trkpt>
      <trkpt lat="43.76208" lon="3.55455">
        <ele>447.7</ele>
        <time>2014-04-30T11:41:17Z</time>
      </trkpt>
      <trkpt lat="43.762" lon="3.55464">
        <ele>446</ele>
        <time>2014-04-30T11:41:21Z</time>
      </trkpt>
      <trkpt lat="43.76194" lon="3.55475">
        <ele>444.1</ele>
        <time>2014-04-30T11:41:25Z</time>
      </trkpt>
      <trkpt lat="43.76188" lon="3.55486">
        <ele>442.3</ele>
        <time>2014-04-30T11:41:29Z</time>
      </trkpt>
      <trkpt lat="43.76179" lon="3.55493">
        <ele>440.4</ele>
        <time>2014-04-30T11:41:33Z</time>
      </trkpt>
      <trkpt lat="43.76171" lon="3.555">
        <ele>437.4</ele>
        <time>2014-04-30T11:41:37Z</time>
      </trkpt>
      <trkpt lat="43.76163" lon="3.55512">
        <ele>435.4</ele>
        <time>2014-04-30T11:41:42Z</time>
      </trkpt>
      <trkpt lat="43.76157" lon="3.55523">
        <ele>435.4</ele>
        <time>2014-04-30T11:41:46Z</time>
      </trkpt>
      <trkpt lat="43.76154" lon="3.55536">
        <ele>432.8</ele>
        <time>2014-04-30T11:41:50Z</time>
      </trkpt>
      <trkpt lat="43.76144" lon="3.55542">
        <ele>430.5</ele>
        <time>2014-04-30T11:41:55Z</time>
      </trkpt>
      <trkpt lat="43.76135" lon="3.5554">
        <ele>429.7</ele>
        <time>2014-04-30T11:41:58Z</time>
      </trkpt>
      <trkpt lat="43.76125" lon="3.55545">
        <ele>428</ele>
        <time>2014-04-30T11:42:02Z</time>
      </trkpt>
      <trkpt lat="43.76116" lon="3.55553">
        <ele>426.3</ele>
        <time>2014-04-30T11:42:05Z</time>
      </trkpt>
      <trkpt lat="43.76107" lon="3.55563">
        <ele>425</ele>
        <time>2014-04-30T11:42:08Z</time>
      </trkpt>
      <trkpt lat="43.76096" lon="3.55572">
        <ele>423.1</ele>
        <time>2014-04-30T11:42:11Z</time>
      </trkpt>
      <trkpt lat="43.76087" lon="3.55579">
        <ele>421.2</ele>
        <time>2014-04-30T11:42:14Z</time>
      </trkpt>
      <trkpt lat="43.76078" lon="3.55583">
        <ele>421.2</ele>
        <time>2014-04-30T11:42:17Z</time>
      </trkpt>
      <trkpt lat="43.7607" lon="3.55589">
        <ele>420</ele>
        <time>2014-04-30T11:42:20Z</time>
      </trkpt>
      <trkpt lat="43.76061" lon="3.55601">
        <ele>418.6</ele>
        <time>2014-04-30T11:42:23Z</time>
      </trkpt>
      <trkpt lat="43.76056" lon="3.55614">
        <ele>416.7</ele>
        <time>2014-04-30T11:42:26Z</time>
      </trkpt>
      <trkpt lat="43.76049" lon="3.55622">
        <ele>414.6</ele>
        <time>2014-04-30T11:42:30Z</time>
      </trkpt>
      <trkpt lat="43.76042" lon="3.55636">
        <ele>413</ele>
        <time>2014-04-30T11:42:34Z</time>
      </trkpt>
      <trkpt lat="43.76039" lon="3.55651">
        <ele>411.1</ele>
        <time>2014-04-30T11:42:37Z</time>
      </trkpt>
      <trkpt lat="43.76038" lon="3.55666">
        <ele>408.9</ele>
        <time>2014-04-30T11:42:40Z</time>
      </trkpt>
      <trkpt lat="43.76037" lon="3.55681">
        <ele>407.3</ele>
        <time>2014-04-30T11:42:43Z</time>
      </trkpt>
      <trkpt lat="43.76039" lon="3.55698">
        <ele>406.1</ele>
        <time>2014-04-30T11:42:46Z</time>
      </trkpt>
      <trkpt lat="43.76041" lon="3.55713">
        <ele>404.6</ele>
        <time>2014-04-30T11:42:49Z</time>
      </trkpt>
      <trkpt lat="43.76044" lon="3.55727">
        <ele>402</ele>
        <time>2014-04-30T11:42:52Z</time>
      </trkpt>
      <trkpt lat="43.76047" lon="3.55742">
        <ele>400.8</ele>
        <time>2014-04-30T11:42:56Z</time>
      </trkpt>
      <trkpt lat="43.76048" lon="3.55758">
        <ele>398.1</ele>
        <time>2014-04-30T11:43:00Z</time>
      </trkpt>
      <trkpt lat="43.76047" lon="3.55774">
        <ele>396.5</ele>
        <time>2014-04-30T11:43:03Z</time>
      </trkpt>
      <trkpt lat="43.76044" lon="3.55787">
        <ele>394.6</ele>
        <time>2014-04-30T11:43:06Z</time>
      </trkpt>
      <trkpt lat="43.76041" lon="3.55799">
        <ele>393.7</ele>
        <time>2014-04-30T11:43:09Z</time>
      </trkpt>
      <trkpt lat="43.76038" lon="3.55811">
        <ele>392.5</ele>
        <time>2014-04-30T11:43:12Z</time>
      </trkpt>
      <trkpt lat="43.76036" lon="3.55826">
        <ele>389.8</ele>
        <time>2014-04-30T11:43:16Z</time>
      </trkpt>
      <trkpt lat="43.76034" lon="3.55843">
        <ele>387.9</ele>
        <time>2014-04-30T11:43:20Z</time>
      </trkpt>
      <trkpt lat="43.76031" lon="3.55855">
        <ele>385.8</ele>
        <time>2014-04-30T11:43:23Z</time>
      </trkpt>
      <trkpt lat="43.76028" lon="3.55866">
        <ele>383.3</ele>
        <time>2014-04-30T11:43:26Z</time>
      </trkpt>
      <trkpt lat="43.76024" lon="3.55878">
        <ele>380.1</ele>
        <time>2014-04-30T11:43:31Z</time>
      </trkpt>
      <trkpt lat="43.76022" lon="3.55893">
        <ele>378</ele>
        <time>2014-04-30T11:43:36Z</time>
      </trkpt>
      <trkpt lat="43.76017" lon="3.55905">
        <ele>376</ele>
        <time>2014-04-30T11:43:40Z</time>
      </trkpt>
      <trkpt lat="43.76013" lon="3.55917">
        <ele>374.2</ele>
        <time>2014-04-30T11:43:44Z</time>
      </trkpt>
      <trkpt lat="43.7601" lon="3.55932">
        <ele>372.2</ele>
        <time>2014-04-30T11:43:48Z</time>
      </trkpt>
      <trkpt lat="43.76006" lon="3.55947">
        <ele>369.6</ele>
        <time>2014-04-30T11:43:52Z</time>
      </trkpt>
      <trkpt lat="43.76003" lon="3.55958">
        <ele>368.5</ele>
        <time>2014-04-30T11:43:55Z</time>
      </trkpt>
      <trkpt lat="43.76" lon="3.55971">
        <ele>367.4</ele>
        <time>2014-04-30T11:43:58Z</time>
      </trkpt>
      <trkpt lat="43.75998" lon="3.55984">
        <ele>365.5</ele>
        <time>2014-04-30T11:44:01Z</time>
      </trkpt>
      <trkpt lat="43.75995" lon="3.55997">
        <ele>363.2</ele>
        <time>2014-04-30T11:44:05Z</time>
      </trkpt>
      <trkpt lat="43.75989" lon="3.5601">
        <ele>361.6</ele>
        <time>2014-04-30T11:44:09Z</time>
      </trkpt>
      <trkpt lat="43.75982" lon="3.56023">
        <ele>359.4</ele>
        <time>2014-04-30T11:44:13Z</time>
      </trkpt>
      <trkpt lat="43.75975" lon="3.56035">
        <ele>359.2</ele>
        <time>2014-04-30T11:44:17Z</time>
      </trkpt>
      <trkpt lat="43.75969" lon="3.56045">
        <ele>358.6</ele>
        <time>2014-04-30T11:44:20Z</time>
      </trkpt>
      <trkpt lat="43.75962" lon="3.56056">
        <ele>357.4</ele>
        <time>2014-04-30T11:44:24Z</time>
      </trkpt>
      <trkpt lat="43.75956" lon="3.56068">
        <ele>355.2</ele>
        <time>2014-04-30T11:44:28Z</time>
      </trkpt>
      <trkpt lat="43.7595" lon="3.56082">
        <ele>353.2</ele>
        <time>2014-04-30T11:44:31Z</time>
      </trkpt>
      <trkpt lat="43.75945" lon="3.56093">
        <ele>352.4</ele>
        <time>2014-04-30T11:44:33Z</time>
      </trkpt>
      <trkpt lat="43.7594" lon="3.56103">
        <ele>352</ele>
        <time>2014-04-30T11:44:35Z</time>
      </trkpt>
      <trkpt lat="43.75935" lon="3.56113">
        <ele>350.6</ele>
        <time>2014-04-30T11:44:37Z</time>
      </trkpt>
      <trkpt lat="43.75929" lon="3.56124">
        <ele>349.5</ele>
        <time>2014-04-30T11:44:39Z</time>
      </trkpt>
      <trkpt lat="43.75924" lon="3.56135">
        <ele>348.5</ele>
        <time>2014-04-30T11:44:41Z</time>
      </trkpt>
      <trkpt lat="43.75918" lon="3.5615">
        <ele>347.3</ele>
        <time>2014-04-30T11:44:44Z</time>
      </trkpt>
      <trkpt lat="43.75913" lon="3.56161">
        <ele>346.6</ele>
        <time>2014-04-30T11:44:47Z</time>
      </trkpt>
      <trkpt lat="43.75907" lon="3.56174">
        <ele>345.3</ele>
        <time>2014-04-30T11:44:50Z</time>
      </trkpt>
      <trkpt lat="43.75901" lon="3.56188">
        <ele>342.9</ele>
        <time>2014-04-30T11:44:54Z</time>
      </trkpt>
      <trkpt lat="43.75896" lon="3.56199">
        <ele>340.9</ele>
        <time>2014-04-30T11:44:58Z</time>
      </trkpt>
      <trkpt lat="43.75885" lon="3.56201">
        <ele>338.8</ele>
        <time>2014-04-30T11:45:03Z</time>
      </trkpt>
      <trkpt lat="43.75876" lon="3.56197">
        <ele>338.1</ele>
        <time>2014-04-30T11:45:29Z</time>
      </trkpt>
      <trkpt lat="43.75866" lon="3.5619">
        <ele>336.8</ele>
        <time>2014-04-30T11:45:33Z</time>
      </trkpt>
      <trkpt lat="43.75858" lon="3.56182">
        <ele>336</ele>
        <time>2014-04-30T11:45:36Z</time>
      </trkpt>
      <trkpt lat="43.75849" lon="3.56176">
        <ele>335.9</ele>
        <time>2014-04-30T11:45:40Z</time>
      </trkpt>
      <trkpt lat="43.75845" lon="3.56187">
        <ele>334.4</ele>
        <time>2014-04-30T11:45:44Z</time>
      </trkpt>
      <trkpt lat="43.75839" lon="3.56197">
        <ele>332.5</ele>
        <time>2014-04-30T11:45:47Z</time>
      </trkpt>
      <trkpt lat="43.75829" lon="3.56208">
        <ele>331.1</ele>
        <time>2014-04-30T11:45:50Z</time>
      </trkpt>
      <trkpt lat="43.7582" lon="3.56221">
        <ele>329.3</ele>
        <time>2014-04-30T11:45:53Z</time>
      </trkpt>
      <trkpt lat="43.75812" lon="3.56235">
        <ele>327.5</ele>
        <time>2014-04-30T11:45:56Z</time>
      </trkpt>
      <trkpt lat="43.75804" lon="3.56248">
        <ele>325.8</ele>
        <time>2014-04-30T11:45:59Z</time>
      </trkpt>
      <trkpt lat="43.75796" lon="3.56256">
        <ele>324.4</ele>
        <time>2014-04-30T11:46:01Z</time>
      </trkpt>
      <trkpt lat="43.75788" lon="3.56264">
        <ele>322.8</ele>
        <time>2014-04-30T11:46:03Z</time>
      </trkpt>
      <trkpt lat="43.75777" lon="3.56269">
        <ele>321</ele>
        <time>2014-04-30T11:46:06Z</time>
      </trkpt>
      <trkpt lat="43.75766" lon="3.56267">
        <ele>319.3</ele>
        <time>2014-04-30T11:46:09Z</time>
      </trkpt>
      <trkpt lat="43.75758" lon="3.56263">
        <ele>318</ele>
        <time>2014-04-30T11:46:13Z</time>
      </trkpt>
      <trkpt lat="43.75748" lon="3.56262">
        <ele>317</ele>
        <time>2014-04-30T11:46:18Z</time>
      </trkpt>
      <trkpt lat="43.75742" lon="3.56272">
        <ele>316.6</ele>
        <time>2014-04-30T11:46:22Z</time>
      </trkpt>
      <trkpt lat="43.75735" lon="3.56282">
        <ele>315.4</ele>
        <time>2014-04-30T11:46:26Z</time>
      </trkpt>
      <trkpt lat="43.75728" lon="3.56269">
        <ele>313.2</ele>
        <time>2014-04-30T11:46:31Z</time>
      </trkpt>
      <trkpt lat="43.75727" lon="3.56253">
        <ele>311.8</ele>
        <time>2014-04-30T11:46:34Z</time>
      </trkpt>
      <trkpt lat="43.75726" lon="3.56239">
        <ele>311</ele>
        <time>2014-04-30T11:46:37Z</time>
      </trkpt>
      <trkpt lat="43.75718" lon="3.56228">
        <ele>311.2</ele>
        <time>2014-04-30T11:46:40Z</time>
      </trkpt>
      <trkpt lat="43.75708" lon="3.56222">
        <ele>311.5</ele>
        <time>2014-04-30T11:46:43Z</time>
      </trkpt>
      <trkpt lat="43.75699" lon="3.56221">
        <ele>310.1</ele>
        <time>2014-04-30T11:46:46Z</time>
      </trkpt>
      <trkpt lat="43.75688" lon="3.56221">
        <ele>309.9</ele>
        <time>2014-04-30T11:46:49Z</time>
      </trkpt>
      <trkpt lat="43.75678" lon="3.56225">
        <ele>308.6</ele>
        <time>2014-04-30T11:46:52Z</time>
      </trkpt>
      <trkpt lat="43.75666" lon="3.56226">
        <ele>307.7</ele>
        <time>2014-04-30T11:46:55Z</time>
      </trkpt>
      <trkpt lat="43.75657" lon="3.56226">
        <ele>305.8</ele>
        <time>2014-04-30T11:46:58Z</time>
      </trkpt>
      <trkpt lat="43.75647" lon="3.5623">
        <ele>304.1</ele>
        <time>2014-04-30T11:47:03Z</time>
      </trkpt>
      <trkpt lat="43.75638" lon="3.56234">
        <ele>302.8</ele>
        <time>2014-04-30T11:47:07Z</time>
      </trkpt>
      <trkpt lat="43.75639" lon="3.56247">
        <ele>300.6</ele>
        <time>2014-04-30T11:47:11Z</time>
      </trkpt>
      <trkpt lat="43.75647" lon="3.56258">
        <ele>299.5</ele>
        <time>2014-04-30T11:47:15Z</time>
      </trkpt>
      <trkpt lat="43.75654" lon="3.56268">
        <ele>298.4</ele>
        <time>2014-04-30T11:47:18Z</time>
      </trkpt>
      <trkpt lat="43.75656" lon="3.56282">
        <ele>297</ele>
        <time>2014-04-30T11:47:21Z</time>
      </trkpt>
      <trkpt lat="43.75651" lon="3.56294">
        <ele>296.1</ele>
        <time>2014-04-30T11:47:24Z</time>
      </trkpt>
      <trkpt lat="43.75648" lon="3.56281">
        <ele>296.6</ele>
        <time>2014-04-30T11:48:20Z</time>
      </trkpt>
      <trkpt lat="43.75644" lon="3.56266">
        <ele>298.4</ele>
        <time>2014-04-30T11:48:30Z</time>
      </trkpt>
      <trkpt lat="43.75646" lon="3.56254">
        <ele>298.1</ele>
        <time>2014-04-30T11:48:35Z</time>
      </trkpt>
      <trkpt lat="43.7565" lon="3.5624">
        <ele>299.7</ele>
        <time>2014-04-30T11:48:42Z</time>
      </trkpt>
      <trkpt lat="43.75659" lon="3.56234">
        <ele>305.8</ele>
        <time>2014-04-30T11:49:23Z</time>
      </trkpt>
      <trkpt lat="43.75669" lon="3.5623">
        <ele>307</ele>
        <time>2014-04-30T11:49:26Z</time>
      </trkpt>
      <trkpt lat="43.75679" lon="3.56227">
        <ele>308.6</ele>
        <time>2014-04-30T11:49:30Z</time>
      </trkpt>
      <trkpt lat="43.7569" lon="3.56229">
        <ele>309.4</ele>
        <time>2014-04-30T11:49:36Z</time>
      </trkpt>
      <trkpt lat="43.75698" lon="3.56238">
        <ele>309.5</ele>
        <time>2014-04-30T11:49:45Z</time>
      </trkpt>
      <trkpt lat="43.75702" lon="3.5625">
        <ele>309.4</ele>
        <time>2014-04-30T11:49:50Z</time>
      </trkpt>
      <trkpt lat="43.75708" lon="3.56262">
        <ele>309.8</ele>
        <time>2014-04-30T11:49:55Z</time>
      </trkpt>
      <trkpt lat="43.75713" lon="3.56273">
        <ele>310.6</ele>
        <time>2014-04-30T11:50:00Z</time>
      </trkpt>
      <trkpt lat="43.75724" lon="3.56272">
        <ele>317.1</ele>
        <time>2014-04-30T11:50:22Z</time>
      </trkpt>
      <trkpt lat="43.75735" lon="3.56272">
        <ele>319.9</ele>
        <time>2014-04-30T11:50:42Z</time>
      </trkpt>
      <trkpt lat="43.75746" lon="3.56272">
        <ele>319.1</ele>
        <time>2014-04-30T11:50:55Z</time>
      </trkpt>
      <trkpt lat="43.75756" lon="3.56269">
        <ele>318.2</ele>
        <time>2014-04-30T11:50:58Z</time>
      </trkpt>
      <trkpt lat="43.75766" lon="3.56265">
        <ele>319.6</ele>
        <time>2014-04-30T11:51:01Z</time>
      </trkpt>
      <trkpt lat="43.75776" lon="3.56261">
        <ele>320</ele>
        <time>2014-04-30T11:51:05Z</time>
      </trkpt>
      <trkpt lat="43.75784" lon="3.56256">
        <ele>320.4</ele>
        <time>2014-04-30T11:51:09Z</time>
      </trkpt>
      <trkpt lat="43.75792" lon="3.56248">
        <ele>325.1</ele>
        <time>2014-04-30T11:51:32Z</time>
      </trkpt>
      <trkpt lat="43.75799" lon="3.56237">
        <ele>325.5</ele>
        <time>2014-04-30T11:51:38Z</time>
      </trkpt>
      <trkpt lat="43.75804" lon="3.56224">
        <ele>325.3</ele>
        <time>2014-04-30T11:51:41Z</time>
      </trkpt>
      <trkpt lat="43.75811" lon="3.56211">
        <ele>329.9</ele>
        <time>2014-04-30T11:52:08Z</time>
      </trkpt>
      <trkpt lat="43.75813" lon="3.56197">
        <ele>330</ele>
        <time>2014-04-30T11:52:11Z</time>
      </trkpt>
      <trkpt lat="43.75815" lon="3.56184">
        <ele>330.3</ele>
        <time>2014-04-30T11:52:14Z</time>
      </trkpt>
      <trkpt lat="43.75817" lon="3.56169">
        <ele>329.5</ele>
        <time>2014-04-30T11:52:19Z</time>
      </trkpt>
      <trkpt lat="43.75821" lon="3.56156">
        <ele>330</ele>
        <time>2014-04-30T11:52:23Z</time>
      </trkpt>
      <trkpt lat="43.75819" lon="3.5614">
        <ele>333.4</ele>
        <time>2014-04-30T11:52:52Z</time>
      </trkpt>
      <trkpt lat="43.75817" lon="3.56126">
        <ele>333.6</ele>
        <time>2014-04-30T11:52:56Z</time>
      </trkpt>
      <trkpt lat="43.75814" lon="3.56111">
        <ele>333.3</ele>
        <time>2014-04-30T11:52:59Z</time>
      </trkpt>
      <trkpt lat="43.75811" lon="3.56098">
        <ele>333.7</ele>
        <time>2014-04-30T11:53:02Z</time>
      </trkpt>
      <trkpt lat="43.75809" lon="3.56086">
        <ele>334.3</ele>
        <time>2014-04-30T11:53:05Z</time>
      </trkpt>
      <trkpt lat="43.75808" lon="3.56073">
        <ele>333.3</ele>
        <time>2014-04-30T11:53:09Z</time>
      </trkpt>
      <trkpt lat="43.75805" lon="3.56059">
        <ele>333.5</ele>
        <time>2014-04-30T11:53:17Z</time>
      </trkpt>
      <trkpt lat="43.75799" lon="3.56044">
        <ele>333.2</ele>
        <time>2014-04-30T11:53:21Z</time>
      </trkpt>
      <trkpt lat="43.75795" lon="3.56032">
        <ele>333.6</ele>
        <time>2014-04-30T11:53:25Z</time>
      </trkpt>
      <trkpt lat="43.7579" lon="3.56021">
        <ele>333.5</ele>
        <time>2014-04-30T11:53:29Z</time>
      </trkpt>
      <trkpt lat="43.75784" lon="3.56009">
        <ele>333.5</ele>
        <time>2014-04-30T11:53:34Z</time>
      </trkpt>
      <trkpt lat="43.75777" lon="3.55997">
        <ele>335.6</ele>
        <time>2014-04-30T11:53:39Z</time>
      </trkpt>
      <trkpt lat="43.75772" lon="3.55985">
        <ele>336</ele>
        <time>2014-04-30T11:53:44Z</time>
      </trkpt>
      <trkpt lat="43.75767" lon="3.55973">
        <ele>336.9</ele>
        <time>2014-04-30T11:53:49Z</time>
      </trkpt>
      <trkpt lat="43.7576" lon="3.55964">
        <ele>337.3</ele>
        <time>2014-04-30T11:53:54Z</time>
      </trkpt>
      <trkpt lat="43.75754" lon="3.55951">
        <ele>339.2</ele>
        <time>2014-04-30T11:53:59Z</time>
      </trkpt>
      <trkpt lat="43.75747" lon="3.55939">
        <ele>339.4</ele>
        <time>2014-04-30T11:54:03Z</time>
      </trkpt>
      <trkpt lat="43.7574" lon="3.55928">
        <ele>339.9</ele>
        <time>2014-04-30T11:54:06Z</time>
      </trkpt>
      <trkpt lat="43.75735" lon="3.55914">
        <ele>338.2</ele>
        <time>2014-04-30T11:54:10Z</time>
      </trkpt>
      <trkpt lat="43.75732" lon="3.559">
        <ele>338.1</ele>
        <time>2014-04-30T11:54:16Z</time>
      </trkpt>
      <trkpt lat="43.75727" lon="3.55888">
        <ele>338.2</ele>
        <time>2014-04-30T11:54:22Z</time>
      </trkpt>
      <trkpt lat="43.75722" lon="3.55876">
        <ele>339.9</ele>
        <time>2014-04-30T11:54:27Z</time>
      </trkpt>
      <trkpt lat="43.75716" lon="3.55865">
        <ele>341.1</ele>
        <time>2014-04-30T11:54:32Z</time>
      </trkpt>
      <trkpt lat="43.75715" lon="3.55852">
        <ele>340.7</ele>
        <time>2014-04-30T11:54:37Z</time>
      </trkpt>
      <trkpt lat="43.75714" lon="3.55838">
        <ele>340.8</ele>
        <time>2014-04-30T11:54:43Z</time>
      </trkpt>
      <trkpt lat="43.75713" lon="3.55826">
        <ele>342.4</ele>
        <time>2014-04-30T11:54:48Z</time>
      </trkpt>
      <trkpt lat="43.7571" lon="3.55812">
        <ele>343</ele>
        <time>2014-04-30T11:54:53Z</time>
      </trkpt>
      <trkpt lat="43.75711" lon="3.55799">
        <ele>342.7</ele>
        <time>2014-04-30T11:54:58Z</time>
      </trkpt>
      <trkpt lat="43.75713" lon="3.55786">
        <ele>343.3</ele>
        <time>2014-04-30T11:55:03Z</time>
      </trkpt>
      <trkpt lat="43.75714" lon="3.55771">
        <ele>343.6</ele>
        <time>2014-04-30T11:55:08Z</time>
      </trkpt>
      <trkpt lat="43.75711" lon="3.55756">
        <ele>344.2</ele>
        <time>2014-04-30T11:55:13Z</time>
      </trkpt>
      <trkpt lat="43.75708" lon="3.55743">
        <ele>345.4</ele>
        <time>2014-04-30T11:55:18Z</time>
      </trkpt>
      <trkpt lat="43.75703" lon="3.5573">
        <ele>345.3</ele>
        <time>2014-04-30T11:55:23Z</time>
      </trkpt>
      <trkpt lat="43.75699" lon="3.55718">
        <ele>345.2</ele>
        <time>2014-04-30T11:55:27Z</time>
      </trkpt>
      <trkpt lat="43.75692" lon="3.55705">
        <ele>345.7</ele>
        <time>2014-04-30T11:55:32Z</time>
      </trkpt>
      <trkpt lat="43.7569" lon="3.55692">
        <ele>346.2</ele>
        <time>2014-04-30T11:55:36Z</time>
      </trkpt>
      <trkpt lat="43.75689" lon="3.55678">
        <ele>346.7</ele>
        <time>2014-04-30T11:55:41Z</time>
      </trkpt>
      <trkpt lat="43.75688" lon="3.55666">
        <ele>347.5</ele>
        <time>2014-04-30T11:55:56Z</time>
      </trkpt>
      <trkpt lat="43.7569" lon="3.55651">
        <ele>346.7</ele>
        <time>2014-04-30T11:56:02Z</time>
      </trkpt>
      <trkpt lat="43.75692" lon="3.55638">
        <ele>346.3</ele>
        <time>2014-04-30T11:56:05Z</time>
      </trkpt>
      <trkpt lat="43.75694" lon="3.55625">
        <ele>345.3</ele>
        <time>2014-04-30T11:56:08Z</time>
      </trkpt>
      <trkpt lat="43.75692" lon="3.55609">
        <ele>344.3</ele>
        <time>2014-04-30T11:56:12Z</time>
      </trkpt>
      <trkpt lat="43.75692" lon="3.55596">
        <ele>343</ele>
        <time>2014-04-30T11:56:16Z</time>
      </trkpt>
      <trkpt lat="43.75692" lon="3.55579">
        <ele>338.8</ele>
        <time>2014-04-30T11:56:41Z</time>
      </trkpt>
      <trkpt lat="43.75693" lon="3.55566">
        <ele>338.6</ele>
        <time>2014-04-30T11:56:44Z</time>
      </trkpt>
      <trkpt lat="43.75693" lon="3.55553">
        <ele>337.7</ele>
        <time>2014-04-30T11:56:48Z</time>
      </trkpt>
      <trkpt lat="43.75688" lon="3.55538">
        <ele>335.6</ele>
        <time>2014-04-30T11:57:22Z</time>
      </trkpt>
      <trkpt lat="43.75685" lon="3.55524">
        <ele>335.4</ele>
        <time>2014-04-30T11:57:35Z</time>
      </trkpt>
      <trkpt lat="43.75685" lon="3.55509">
        <ele>334.7</ele>
        <time>2014-04-30T11:57:38Z</time>
      </trkpt>
      <trkpt lat="43.75682" lon="3.55494">
        <ele>330.2</ele>
        <time>2014-04-30T11:58:28Z</time>
      </trkpt>
      <trkpt lat="43.75682" lon="3.55482">
        <ele>327.9</ele>
        <time>2014-04-30T11:58:36Z</time>
      </trkpt>
      <trkpt lat="43.75684" lon="3.55467">
        <ele>327.2</ele>
        <time>2014-04-30T11:58:39Z</time>
      </trkpt>
      <trkpt lat="43.75684" lon="3.55454">
        <ele>326.8</ele>
        <time>2014-04-30T11:58:42Z</time>
      </trkpt>
      <trkpt lat="43.75684" lon="3.5544">
        <ele>326.6</ele>
        <time>2014-04-30T11:58:45Z</time>
      </trkpt>
      <trkpt lat="43.75684" lon="3.55425">
        <ele>325.2</ele>
        <time>2014-04-30T11:58:49Z</time>
      </trkpt>
      <trkpt lat="43.75683" lon="3.5541">
        <ele>325.4</ele>
        <time>2014-04-30T11:58:54Z</time>
      </trkpt>
      <trkpt lat="43.75682" lon="3.55397">
        <ele>323</ele>
        <time>2014-04-30T11:58:58Z</time>
      </trkpt>
      <trkpt lat="43.75682" lon="3.55384">
        <ele>322.9</ele>
        <time>2014-04-30T11:59:03Z</time>
      </trkpt>
      <trkpt lat="43.7568" lon="3.5537">
        <ele>320.3</ele>
        <time>2014-04-30T11:59:08Z</time>
      </trkpt>
      <trkpt lat="43.75672" lon="3.55365">
        <ele>319.6</ele>
        <time>2014-04-30T11:59:52Z</time>
      </trkpt>
      <trkpt lat="43.75662" lon="3.55362">
        <ele>321.6</ele>
        <time>2014-04-30T11:59:56Z</time>
      </trkpt>
      <trkpt lat="43.75653" lon="3.5536">
        <ele>322.4</ele>
        <time>2014-04-30T12:00:00Z</time>
      </trkpt>
      <trkpt lat="43.75643" lon="3.55361">
        <ele>322.6</ele>
        <time>2014-04-30T12:00:04Z</time>
      </trkpt>
      <trkpt lat="43.75634" lon="3.5536">
        <ele>322.6</ele>
        <time>2014-04-30T12:00:09Z</time>
      </trkpt>
      <trkpt lat="43.75625" lon="3.55359">
        <ele>322.8</ele>
        <time>2014-04-30T12:00:14Z</time>
      </trkpt>
      <trkpt lat="43.75616" lon="3.55359">
        <ele>322.7</ele>
        <time>2014-04-30T12:00:18Z</time>
      </trkpt>
      <trkpt lat="43.75605" lon="3.55357">
        <ele>326.6</ele>
        <time>2014-04-30T12:01:03Z</time>
      </trkpt>
      <trkpt lat="43.75594" lon="3.55361">
        <ele>328.4</ele>
        <time>2014-04-30T12:01:19Z</time>
      </trkpt>
      <trkpt lat="43.75585" lon="3.55367">
        <ele>329.3</ele>
        <time>2014-04-30T12:01:22Z</time>
      </trkpt>
      <trkpt lat="43.75575" lon="3.5537">
        <ele>329.9</ele>
        <time>2014-04-30T12:01:51Z</time>
      </trkpt>
      <trkpt lat="43.75565" lon="3.55374">
        <ele>331</ele>
        <time>2014-04-30T12:02:04Z</time>
      </trkpt>
      <trkpt lat="43.75554" lon="3.55378">
        <ele>334</ele>
        <time>2014-04-30T12:02:28Z</time>
      </trkpt>
      <trkpt lat="43.75544" lon="3.55379">
        <ele>331.9</ele>
        <time>2014-04-30T12:02:43Z</time>
      </trkpt>
      <trkpt lat="43.75532" lon="3.55381">
        <ele>331.9</ele>
        <time>2014-04-30T12:02:46Z</time>
      </trkpt>
      <trkpt lat="43.75523" lon="3.55386">
        <ele>331.8</ele>
        <time>2014-04-30T12:02:49Z</time>
      </trkpt>
      <trkpt lat="43.75513" lon="3.5539">
        <ele>332.4</ele>
        <time>2014-04-30T12:02:53Z</time>
      </trkpt>
      <trkpt lat="43.75502" lon="3.55396">
        <ele>332.8</ele>
        <time>2014-04-30T12:03:03Z</time>
      </trkpt>
      <trkpt lat="43.75492" lon="3.55399">
        <ele>332.2</ele>
        <time>2014-04-30T12:03:07Z</time>
      </trkpt>
      <trkpt lat="43.75481" lon="3.55398">
        <ele>331.9</ele>
        <time>2014-04-30T12:03:29Z</time>
      </trkpt>
      <trkpt lat="43.75469" lon="3.55395">
        <ele>331.1</ele>
        <time>2014-04-30T12:03:33Z</time>
      </trkpt>
      <trkpt lat="43.75461" lon="3.5539">
        <ele>329.9</ele>
        <time>2014-04-30T12:03:36Z</time>
      </trkpt>
      <trkpt lat="43.75451" lon="3.55385">
        <ele>329.1</ele>
        <time>2014-04-30T12:03:40Z</time>
      </trkpt>
      <trkpt lat="43.7544" lon="3.5538">
        <ele>328.6</ele>
        <time>2014-04-30T12:03:44Z</time>
      </trkpt>
      <trkpt lat="43.7543" lon="3.55377">
        <ele>327.7</ele>
        <time>2014-04-30T12:03:48Z</time>
      </trkpt>
      <trkpt lat="43.75419" lon="3.55371">
        <ele>326.8</ele>
        <time>2014-04-30T12:03:52Z</time>
      </trkpt>
      <trkpt lat="43.75408" lon="3.55367">
        <ele>326.9</ele>
        <time>2014-04-30T12:03:57Z</time>
      </trkpt>
      <trkpt lat="43.75398" lon="3.55367">
        <ele>327.6</ele>
        <time>2014-04-30T12:04:01Z</time>
      </trkpt>
      <trkpt lat="43.75389" lon="3.55362">
        <ele>324.3</ele>
        <time>2014-04-30T12:04:11Z</time>
      </trkpt>
      <trkpt lat="43.75382" lon="3.55353">
        <ele>324.3</ele>
        <time>2014-04-30T12:04:15Z</time>
      </trkpt>
      <trkpt lat="43.75377" lon="3.55341">
        <ele>323.9</ele>
        <time>2014-04-30T12:04:21Z</time>
      </trkpt>
      <trkpt lat="43.75372" lon="3.55329">
        <ele>322.5</ele>
        <time>2014-04-30T12:04:26Z</time>
      </trkpt>
      <trkpt lat="43.75365" lon="3.55315">
        <ele>313.3</ele>
        <time>2014-04-30T12:05:30Z</time>
      </trkpt>
      <trkpt lat="43.75358" lon="3.55303">
        <ele>312.3</ele>
        <time>2014-04-30T12:05:33Z</time>
      </trkpt>
      <trkpt lat="43.75354" lon="3.55289">
        <ele>310.8</ele>
        <time>2014-04-30T12:05:36Z</time>
      </trkpt>
      <trkpt lat="43.75348" lon="3.55274">
        <ele>310.3</ele>
        <time>2014-04-30T12:05:39Z</time>
      </trkpt>
      <trkpt lat="43.75343" lon="3.55264">
        <ele>307.7</ele>
        <time>2014-04-30T12:05:42Z</time>
      </trkpt>
      <trkpt lat="43.75335" lon="3.55252">
        <ele>306.2</ele>
        <time>2014-04-30T12:05:46Z</time>
      </trkpt>
      <trkpt lat="43.75334" lon="3.5524">
        <ele>304.9</ele>
        <time>2014-04-30T12:05:51Z</time>
      </trkpt>
      <trkpt lat="43.75326" lon="3.55231">
        <ele>305</ele>
        <time>2014-04-30T12:05:57Z</time>
      </trkpt>
      <trkpt lat="43.75316" lon="3.55224">
        <ele>302.5</ele>
        <time>2014-04-30T12:06:36Z</time>
      </trkpt>
      <trkpt lat="43.75307" lon="3.55219">
        <ele>302.8</ele>
        <time>2014-04-30T12:06:40Z</time>
      </trkpt>
      <trkpt lat="43.75296" lon="3.5522">
        <ele>309</ele>
        <time>2014-04-30T12:07:26Z</time>
      </trkpt>
      <trkpt lat="43.75287" lon="3.55226">
        <ele>308.3</ele>
        <time>2014-04-30T12:07:47Z</time>
      </trkpt>
      <trkpt lat="43.75278" lon="3.55231">
        <ele>307.4</ele>
        <time>2014-04-30T12:07:59Z</time>
      </trkpt>
      <trkpt lat="43.75266" lon="3.55238">
        <ele>307.9</ele>
        <time>2014-04-30T12:08:14Z</time>
      </trkpt>
      <trkpt lat="43.75255" lon="3.55242">
        <ele>307.9</ele>
        <time>2014-04-30T12:08:17Z</time>
      </trkpt>
      <trkpt lat="43.75245" lon="3.55245">
        <ele>307.9</ele>
        <time>2014-04-30T12:08:20Z</time>
      </trkpt>
      <trkpt lat="43.75235" lon="3.55247">
        <ele>307.6</ele>
        <time>2014-04-30T12:08:24Z</time>
      </trkpt>
      <trkpt lat="43.75224" lon="3.55247">
        <ele>308.1</ele>
        <time>2014-04-30T12:08:29Z</time>
      </trkpt>
      <trkpt lat="43.75214" lon="3.55247">
        <ele>308.9</ele>
        <time>2014-04-30T12:08:34Z</time>
      </trkpt>
      <trkpt lat="43.75207" lon="3.55256">
        <ele>308.1</ele>
        <time>2014-04-30T12:08:38Z</time>
      </trkpt>
      <trkpt lat="43.75198" lon="3.55264">
        <ele>307.2</ele>
        <time>2014-04-30T12:08:42Z</time>
      </trkpt>
      <trkpt lat="43.75188" lon="3.55267">
        <ele>307.6</ele>
        <time>2014-04-30T12:09:24Z</time>
      </trkpt>
      <trkpt lat="43.75177" lon="3.55267">
        <ele>307.1</ele>
        <time>2014-04-30T12:09:27Z</time>
      </trkpt>
      <trkpt lat="43.75165" lon="3.55263">
        <ele>306.8</ele>
        <time>2014-04-30T12:09:45Z</time>
      </trkpt>
      <trkpt lat="43.75154" lon="3.55258">
        <ele>306.9</ele>
        <time>2014-04-30T12:09:48Z</time>
      </trkpt>
      <trkpt lat="43.75142" lon="3.55252">
        <ele>307.2</ele>
        <time>2014-04-30T12:09:51Z</time>
      </trkpt>
      <trkpt lat="43.75132" lon="3.55247">
        <ele>305.2</ele>
        <time>2014-04-30T12:09:54Z</time>
      </trkpt>
      <trkpt lat="43.75123" lon="3.55245">
        <ele>303.7</ele>
        <time>2014-04-30T12:09:58Z</time>
      </trkpt>
      <trkpt lat="43.75113" lon="3.55244">
        <ele>304.6</ele>
        <time>2014-04-30T12:10:02Z</time>
      </trkpt>
      <trkpt lat="43.75104" lon="3.55241">
        <ele>305.1</ele>
        <time>2014-04-30T12:10:09Z</time>
      </trkpt>
      <trkpt lat="43.75099" lon="3.55231">
        <ele>304.8</ele>
        <time>2014-04-30T12:10:14Z</time>
      </trkpt>
      <trkpt lat="43.75096" lon="3.55217">
        <ele>304.6</ele>
        <time>2014-04-30T12:10:20Z</time>
      </trkpt>
      <trkpt lat="43.75094" lon="3.55204">
        <ele>303.7</ele>
        <time>2014-04-30T12:10:24Z</time>
      </trkpt>
      <trkpt lat="43.75095" lon="3.5519">
        <ele>301.2</ele>
        <time>2014-04-30T12:10:29Z</time>
      </trkpt>
      <trkpt lat="43.75089" lon="3.5518">
        <ele>299.6</ele>
        <time>2014-04-30T12:11:12Z</time>
      </trkpt>
      <trkpt lat="43.75081" lon="3.55168">
        <ele>294.1</ele>
        <time>2014-04-30T12:12:55Z</time>
      </trkpt>
      <trkpt lat="43.75075" lon="3.55153">
        <ele>290.9</ele>
        <time>2014-04-30T12:13:37Z</time>
      </trkpt>
      <trkpt lat="43.75073" lon="3.55137">
        <ele>288.2</ele>
        <time>2014-04-30T12:13:57Z</time>
      </trkpt>
      <trkpt lat="43.75068" lon="3.55123">
        <ele>286.3</ele>
        <time>2014-04-30T12:14:18Z</time>
      </trkpt>
      <trkpt lat="43.75062" lon="3.55112">
        <ele>286.4</ele>
        <time>2014-04-30T12:14:21Z</time>
      </trkpt>
      <trkpt lat="43.75055" lon="3.55101">
        <ele>287.7</ele>
        <time>2014-04-30T12:14:36Z</time>
      </trkpt>
      <trkpt lat="43.75048" lon="3.55092">
        <ele>284.5</ele>
        <time>2014-04-30T12:14:52Z</time>
      </trkpt>
      <trkpt lat="43.7504" lon="3.55083">
        <ele>284.4</ele>
        <time>2014-04-30T12:15:21Z</time>
      </trkpt>
      <trkpt lat="43.75033" lon="3.55073">
        <ele>285</ele>
        <time>2014-04-30T12:15:24Z</time>
      </trkpt>
      <trkpt lat="43.75026" lon="3.55063">
        <ele>284.1</ele>
        <time>2014-04-30T12:15:36Z</time>
      </trkpt>
      <trkpt lat="43.75019" lon="3.55054">
        <ele>282.5</ele>
        <time>2014-04-30T12:15:53Z</time>
      </trkpt>
      <trkpt lat="43.75012" lon="3.55045">
        <ele>280.4</ele>
        <time>2014-04-30T12:16:10Z</time>
      </trkpt>
      <trkpt lat="43.75007" lon="3.55032">
        <ele>279.9</ele>
        <time>2014-04-30T12:16:13Z</time>
      </trkpt>
      <trkpt lat="43.75004" lon="3.55019">
        <ele>278.6</ele>
        <time>2014-04-30T12:16:17Z</time>
      </trkpt>
      <trkpt lat="43.75005" lon="3.55002">
        <ele>279.1</ele>
        <time>2014-04-30T12:16:56Z</time>
      </trkpt>
      <trkpt lat="43.75003" lon="3.54986">
        <ele>278.9</ele>
        <time>2014-04-30T12:17:00Z</time>
      </trkpt>
      <trkpt lat="43.74995" lon="3.54976">
        <ele>278.9</ele>
        <time>2014-04-30T12:17:50Z</time>
      </trkpt>
      <trkpt lat="43.74985" lon="3.54975">
        <ele>280.1</ele>
        <time>2014-04-30T12:17:54Z</time>
      </trkpt>
      <trkpt lat="43.74976" lon="3.54976">
        <ele>280.9</ele>
        <time>2014-04-30T12:18:01Z</time>
      </trkpt>
      <trkpt lat="43.74965" lon="3.54976">
        <ele>281.1</ele>
        <time>2014-04-30T12:18:09Z</time>
      </trkpt>
      <trkpt lat="43.74956" lon="3.54972">
        <ele>281</ele>
        <time>2014-04-30T12:18:13Z</time>
      </trkpt>
      <trkpt lat="43.74947" lon="3.54962">
        <ele>285.5</ele>
        <time>2014-04-30T12:19:05Z</time>
      </trkpt>
      <trkpt lat="43.7494" lon="3.54953">
        <ele>287.6</ele>
        <time>2014-04-30T12:19:33Z</time>
      </trkpt>
      <trkpt lat="43.74933" lon="3.54944">
        <ele>287.5</ele>
        <time>2014-04-30T12:19:36Z</time>
      </trkpt>
      <trkpt lat="43.74922" lon="3.54935">
        <ele>287.9</ele>
        <time>2014-04-30T12:19:46Z</time>
      </trkpt>
      <trkpt lat="43.74915" lon="3.54926">
        <ele>287.8</ele>
        <time>2014-04-30T12:19:49Z</time>
      </trkpt>
      <trkpt lat="43.74906" lon="3.54919">
        <ele>288.2</ele>
        <time>2014-04-30T12:19:57Z</time>
      </trkpt>
      <trkpt lat="43.74898" lon="3.54914">
        <ele>287.8</ele>
        <time>2014-04-30T12:20:00Z</time>
      </trkpt>
      <trkpt lat="43.74889" lon="3.54911">
        <ele>293.7</ele>
        <time>2014-04-30T12:20:25Z</time>
      </trkpt>
      <trkpt lat="43.74879" lon="3.54907">
        <ele>298.1</ele>
        <time>2014-04-30T12:20:43Z</time>
      </trkpt>
      <trkpt lat="43.7487" lon="3.54905">
        <ele>298.5</ele>
        <time>2014-04-30T12:20:46Z</time>
      </trkpt>
      <trkpt lat="43.74861" lon="3.54903">
        <ele>302.3</ele>
        <time>2014-04-30T12:21:04Z</time>
      </trkpt>
      <trkpt lat="43.74852" lon="3.54902">
        <ele>304.6</ele>
        <time>2014-04-30T12:21:20Z</time>
      </trkpt>
      <trkpt lat="43.74841" lon="3.54899">
        <ele>307.7</ele>
        <time>2014-04-30T12:21:34Z</time>
      </trkpt>
      <trkpt lat="43.74828" lon="3.54897">
        <ele>307.8</ele>
        <time>2014-04-30T12:22:14Z</time>
      </trkpt>
      <trkpt lat="43.74816" lon="3.54897">
        <ele>307.6</ele>
        <time>2014-04-30T12:22:17Z</time>
      </trkpt>
      <trkpt lat="43.74805" lon="3.54896">
        <ele>307.3</ele>
        <time>2014-04-30T12:22:20Z</time>
      </trkpt>
      <trkpt lat="43.74795" lon="3.54896">
        <ele>307.3</ele>
        <time>2014-04-30T12:22:23Z</time>
      </trkpt>
      <trkpt lat="43.74784" lon="3.54895">
        <ele>307.1</ele>
        <time>2014-04-30T12:22:27Z</time>
      </trkpt>
      <trkpt lat="43.74774" lon="3.54893">
        <ele>307.8</ele>
        <time>2014-04-30T12:22:44Z</time>
      </trkpt>
      <trkpt lat="43.74764" lon="3.54895">
        <ele>307.1</ele>
        <time>2014-04-30T12:22:47Z</time>
      </trkpt>
      <trkpt lat="43.74752" lon="3.54897">
        <ele>306</ele>
        <time>2014-04-30T12:22:51Z</time>
      </trkpt>
      <trkpt lat="43.74741" lon="3.54898">
        <ele>300.7</ele>
        <time>2014-04-30T12:23:31Z</time>
      </trkpt>
      <trkpt lat="43.74731" lon="3.54898">
        <ele>300.1</ele>
        <time>2014-04-30T12:23:34Z</time>
      </trkpt>
      <trkpt lat="43.74719" lon="3.54901">
        <ele>298.3</ele>
        <time>2014-04-30T12:23:37Z</time>
      </trkpt>
      <trkpt lat="43.7471" lon="3.54902">
        <ele>298.3</ele>
        <time>2014-04-30T12:23:40Z</time>
      </trkpt>
      <trkpt lat="43.747" lon="3.54904">
        <ele>298.2</ele>
        <time>2014-04-30T12:23:44Z</time>
      </trkpt>
      <trkpt lat="43.74688" lon="3.54906">
        <ele>296.8</ele>
        <time>2014-04-30T12:23:49Z</time>
      </trkpt>
      <trkpt lat="43.74679" lon="3.54909">
        <ele>296.3</ele>
        <time>2014-04-30T12:23:53Z</time>
      </trkpt>
      <trkpt lat="43.74669" lon="3.5491">
        <ele>294.3</ele>
        <time>2014-04-30T12:23:59Z</time>
      </trkpt>
      <trkpt lat="43.7466" lon="3.54908">
        <ele>290.5</ele>
        <time>2014-04-30T12:24:40Z</time>
      </trkpt>
      <trkpt lat="43.74649" lon="3.54908">
        <ele>289.8</ele>
        <time>2014-04-30T12:24:44Z</time>
      </trkpt>
      <trkpt lat="43.74641" lon="3.54905">
        <ele>288.2</ele>
        <time>2014-04-30T12:24:48Z</time>
      </trkpt>
      <trkpt lat="43.74632" lon="3.54895">
        <ele>283.1</ele>
        <time>2014-04-30T12:25:14Z</time>
      </trkpt>
      <trkpt lat="43.74624" lon="3.54889">
        <ele>278.7</ele>
        <time>2014-04-30T12:25:30Z</time>
      </trkpt>
      <trkpt lat="43.74615" lon="3.54886">
        <ele>278.6</ele>
        <time>2014-04-30T12:25:33Z</time>
      </trkpt>
      <trkpt lat="43.74604" lon="3.54886">
        <ele>277.7</ele>
        <time>2014-04-30T12:25:37Z</time>
      </trkpt>
      <trkpt lat="43.74594" lon="3.54887">
        <ele>278.1</ele>
        <time>2014-04-30T12:25:41Z</time>
      </trkpt>
      <trkpt lat="43.74582" lon="3.54883">
        <ele>281.4</ele>
        <time>2014-04-30T12:26:13Z</time>
      </trkpt>
      <trkpt lat="43.74573" lon="3.54881">
        <ele>281.6</ele>
        <time>2014-04-30T12:26:16Z</time>
      </trkpt>
      <trkpt lat="43.74562" lon="3.54876">
        <ele>282.8</ele>
        <time>2014-04-30T12:26:37Z</time>
      </trkpt>
      <trkpt lat="43.74554" lon="3.5487">
        <ele>283.1</ele>
        <time>2014-04-30T12:26:40Z</time>
      </trkpt>
      <trkpt lat="43.74546" lon="3.54863">
        <ele>283.5</ele>
        <time>2014-04-30T12:27:11Z</time>
      </trkpt>
      <trkpt lat="43.74541" lon="3.5485">
        <ele>280.3</ele>
        <time>2014-04-30T12:27:40Z</time>
      </trkpt>
      <trkpt lat="43.74539" lon="3.54837">
        <ele>278.2</ele>
        <time>2014-04-30T12:27:57Z</time>
      </trkpt>
      <trkpt lat="43.74537" lon="3.54824">
        <ele>275</ele>
        <time>2014-04-30T12:28:15Z</time>
      </trkpt>
      <trkpt lat="43.74536" lon="3.54811">
        <ele>274.5</ele>
        <time>2014-04-30T12:28:18Z</time>
      </trkpt>
      <trkpt lat="43.74534" lon="3.54798">
        <ele>271.5</ele>
        <time>2014-04-30T12:28:33Z</time>
      </trkpt>
      <trkpt lat="43.74533" lon="3.54782">
        <ele>270.8</ele>
        <time>2014-04-30T12:28:38Z</time>
      </trkpt>
      <trkpt lat="43.74532" lon="3.54769">
        <ele>270.2</ele>
        <time>2014-04-30T12:28:41Z</time>
      </trkpt>
      <trkpt lat="43.74528" lon="3.54754">
        <ele>265.4</ele>
        <time>2014-04-30T12:29:12Z</time>
      </trkpt>
      <trkpt lat="43.74524" lon="3.5474">
        <ele>264.8</ele>
        <time>2014-04-30T12:29:15Z</time>
      </trkpt>
      <trkpt lat="43.7452" lon="3.5473">
        <ele>264.4</ele>
        <time>2014-04-30T12:29:23Z</time>
      </trkpt>
      <trkpt lat="43.74516" lon="3.54716">
        <ele>262.6</ele>
        <time>2014-04-30T12:29:26Z</time>
      </trkpt>
      <trkpt lat="43.74512" lon="3.54702">
        <ele>261.4</ele>
        <time>2014-04-30T12:29:30Z</time>
      </trkpt>
      <trkpt lat="43.74513" lon="3.54688">
        <ele>260.3</ele>
        <time>2014-04-30T12:29:34Z</time>
      </trkpt>
      <trkpt lat="43.74514" lon="3.54675">
        <ele>259.2</ele>
        <time>2014-04-30T12:29:39Z</time>
      </trkpt>
      <trkpt lat="43.74509" lon="3.54664">
        <ele>257.5</ele>
        <time>2014-04-30T12:29:45Z</time>
      </trkpt>
      <trkpt lat="43.74499" lon="3.54661">
        <ele>263.3</ele>
        <time>2014-04-30T12:31:11Z</time>
      </trkpt>
      <trkpt lat="43.74489" lon="3.54662">
        <ele>267</ele>
        <time>2014-04-30T12:31:30Z</time>
      </trkpt>
      <trkpt lat="43.74481" lon="3.54666">
        <ele>270.1</ele>
        <time>2014-04-30T12:31:47Z</time>
      </trkpt>
      <trkpt lat="43.74472" lon="3.54673">
        <ele>270.8</ele>
        <time>2014-04-30T12:31:50Z</time>
      </trkpt>
      <trkpt lat="43.74463" lon="3.5468">
        <ele>272.2</ele>
        <time>2014-04-30T12:32:06Z</time>
      </trkpt>
      <trkpt lat="43.74455" lon="3.54686">
        <ele>275.1</ele>
        <time>2014-04-30T12:32:22Z</time>
      </trkpt>
      <trkpt lat="43.74445" lon="3.54691">
        <ele>277.4</ele>
        <time>2014-04-30T12:32:37Z</time>
      </trkpt>
      <trkpt lat="43.74436" lon="3.54696">
        <ele>278.9</ele>
        <time>2014-04-30T12:32:40Z</time>
      </trkpt>
      <trkpt lat="43.74426" lon="3.54694">
        <ele>284.4</ele>
        <time>2014-04-30T12:33:12Z</time>
      </trkpt>
      <trkpt lat="43.74416" lon="3.54689">
        <ele>286.3</ele>
        <time>2014-04-30T12:33:27Z</time>
      </trkpt>
      <trkpt lat="43.74405" lon="3.54684">
        <ele>286.5</ele>
        <time>2014-04-30T12:33:30Z</time>
      </trkpt>
      <trkpt lat="43.74394" lon="3.54679">
        <ele>286.8</ele>
        <time>2014-04-30T12:33:38Z</time>
      </trkpt>
      <trkpt lat="43.74385" lon="3.54674">
        <ele>285.4</ele>
        <time>2014-04-30T12:33:41Z</time>
      </trkpt>
      <trkpt lat="43.74374" lon="3.54668">
        <ele>288.4</ele>
        <time>2014-04-30T12:34:10Z</time>
      </trkpt>
      <trkpt lat="43.74363" lon="3.54664">
        <ele>288.5</ele>
        <time>2014-04-30T12:34:30Z</time>
      </trkpt>
      <trkpt lat="43.74351" lon="3.54658">
        <ele>288.1</ele>
        <time>2014-04-30T12:34:33Z</time>
      </trkpt>
      <trkpt lat="43.74341" lon="3.54654">
        <ele>287.7</ele>
        <time>2014-04-30T12:34:36Z</time>
      </trkpt>
      <trkpt lat="43.74331" lon="3.54649">
        <ele>287.8</ele>
        <time>2014-04-30T12:34:40Z</time>
      </trkpt>
      <trkpt lat="43.74321" lon="3.54646">
        <ele>288.1</ele>
        <time>2014-04-30T12:34:47Z</time>
      </trkpt>
      <trkpt lat="43.74311" lon="3.54644">
        <ele>288.6</ele>
        <time>2014-04-30T12:34:51Z</time>
      </trkpt>
      <trkpt lat="43.74301" lon="3.54641">
        <ele>288.7</ele>
        <time>2014-04-30T12:34:55Z</time>
      </trkpt>
      <trkpt lat="43.7429" lon="3.5464">
        <ele>289</ele>
        <time>2014-04-30T12:34:59Z</time>
      </trkpt>
      <trkpt lat="43.74281" lon="3.54638">
        <ele>290</ele>
        <time>2014-04-30T12:35:04Z</time>
      </trkpt>
      <trkpt lat="43.74271" lon="3.54635">
        <ele>291.2</ele>
        <time>2014-04-30T12:35:16Z</time>
      </trkpt>
      <trkpt lat="43.74262" lon="3.54634">
        <ele>290.8</ele>
        <time>2014-04-30T12:35:20Z</time>
      </trkpt>
      <trkpt lat="43.74252" lon="3.54632">
        <ele>291.1</ele>
        <time>2014-04-30T12:35:24Z</time>
      </trkpt>
      <trkpt lat="43.74242" lon="3.5463">
        <ele>290.9</ele>
        <time>2014-04-30T12:35:28Z</time>
      </trkpt>
      <trkpt lat="43.74232" lon="3.54629">
        <ele>290.4</ele>
        <time>2014-04-30T12:35:33Z</time>
      </trkpt>
      <trkpt lat="43.74223" lon="3.54625">
        <ele>290.5</ele>
        <time>2014-04-30T12:35:39Z</time>
      </trkpt>
      <trkpt lat="43.74214" lon="3.54617">
        <ele>291.1</ele>
        <time>2014-04-30T12:35:45Z</time>
      </trkpt>
      <trkpt lat="43.74206" lon="3.5461">
        <ele>292.4</ele>
        <time>2014-04-30T12:35:51Z</time>
      </trkpt>
      <trkpt lat="43.74198" lon="3.54603">
        <ele>290.9</ele>
        <time>2014-04-30T12:35:58Z</time>
      </trkpt>
      <trkpt lat="43.7419" lon="3.54596">
        <ele>292.1</ele>
        <time>2014-04-30T12:36:11Z</time>
      </trkpt>
      <trkpt lat="43.74185" lon="3.54585">
        <ele>291.4</ele>
        <time>2014-04-30T12:36:16Z</time>
      </trkpt>
      <trkpt lat="43.74178" lon="3.54576">
        <ele>289.7</ele>
        <time>2014-04-30T12:36:21Z</time>
      </trkpt>
      <trkpt lat="43.74175" lon="3.54563">
        <ele>288.5</ele>
        <time>2014-04-30T12:36:26Z</time>
      </trkpt>
      <trkpt lat="43.74167" lon="3.54553">
        <ele>285.9</ele>
        <time>2014-04-30T12:36:44Z</time>
      </trkpt>
      <trkpt lat="43.74162" lon="3.54541">
        <ele>285.1</ele>
        <time>2014-04-30T12:36:47Z</time>
      </trkpt>
      <trkpt lat="43.74157" lon="3.5453">
        <ele>284.2</ele>
        <time>2014-04-30T12:36:50Z</time>
      </trkpt>
      <trkpt lat="43.74156" lon="3.54518">
        <ele>282.5</ele>
        <time>2014-04-30T12:36:54Z</time>
      </trkpt>
      <trkpt lat="43.74159" lon="3.54504">
        <ele>281.4</ele>
        <time>2014-04-30T12:36:59Z</time>
      </trkpt>
      <trkpt lat="43.74162" lon="3.54491">
        <ele>280</ele>
        <time>2014-04-30T12:37:06Z</time>
      </trkpt>
      <trkpt lat="43.7416" lon="3.54478">
        <ele>278.4</ele>
        <time>2014-04-30T12:37:11Z</time>
      </trkpt>
      <trkpt lat="43.74156" lon="3.54465">
        <ele>277.9</ele>
        <time>2014-04-30T12:37:24Z</time>
      </trkpt>
      <trkpt lat="43.74151" lon="3.54453">
        <ele>277.6</ele>
        <time>2014-04-30T12:37:29Z</time>
      </trkpt>
      <trkpt lat="43.7415" lon="3.54438">
        <ele>277.6</ele>
        <time>2014-04-30T12:37:34Z</time>
      </trkpt>
      <trkpt lat="43.74148" lon="3.54426">
        <ele>277</ele>
        <time>2014-04-30T12:37:39Z</time>
      </trkpt>
      <trkpt lat="43.74146" lon="3.54413">
        <ele>277.4</ele>
        <time>2014-04-30T12:38:21Z</time>
      </trkpt>
      <trkpt lat="43.74143" lon="3.54399">
        <ele>275.3</ele>
        <time>2014-04-30T12:38:45Z</time>
      </trkpt>
      <trkpt lat="43.74143" lon="3.54382">
        <ele>275.4</ele>
        <time>2014-04-30T12:38:49Z</time>
      </trkpt>
      <trkpt lat="43.74145" lon="3.5437">
        <ele>274.4</ele>
        <time>2014-04-30T12:38:53Z</time>
      </trkpt>
      <trkpt lat="43.74147" lon="3.54356">
        <ele>273</ele>
        <time>2014-04-30T12:38:57Z</time>
      </trkpt>
      <trkpt lat="43.74148" lon="3.54343">
        <ele>271.4</ele>
        <time>2014-04-30T12:39:02Z</time>
      </trkpt>
      <trkpt lat="43.74155" lon="3.54332">
        <ele>276.9</ele>
        <time>2014-04-30T12:40:53Z</time>
      </trkpt>
      <trkpt lat="43.74164" lon="3.54324">
        <ele>277.3</ele>
        <time>2014-04-30T12:40:58Z</time>
      </trkpt>
      <trkpt lat="43.74172" lon="3.54315">
        <ele>278.8</ele>
        <time>2014-04-30T12:41:03Z</time>
      </trkpt>
      <trkpt lat="43.74184" lon="3.54304">
        <ele>281.2</ele>
        <time>2014-04-30T12:41:09Z</time>
      </trkpt>
      <trkpt lat="43.74189" lon="3.54317">
        <ele>285.7</ele>
        <time>2014-04-30T12:41:46Z</time>
      </trkpt>
      <trkpt lat="43.74191" lon="3.54331">
        <ele>287.3</ele>
        <time>2014-04-30T12:42:03Z</time>
      </trkpt>
      <trkpt lat="43.74201" lon="3.54393">
        <ele>288</ele>
        <time>2014-04-30T12:42:20Z</time>
      </trkpt>
      <trkpt lat="43.74211" lon="3.54389">
        <ele>299.9</ele>
        <time>2014-04-30T12:43:58Z</time>
      </trkpt>
      <trkpt lat="43.74218" lon="3.5438">
        <ele>304.4</ele>
        <time>2014-04-30T12:44:21Z</time>
      </trkpt>
      <trkpt lat="43.74225" lon="3.5437">
        <ele>305</ele>
        <time>2014-04-30T12:44:37Z</time>
      </trkpt>
      <trkpt lat="43.74232" lon="3.5436">
        <ele>306.2</ele>
        <time>2014-04-30T12:44:40Z</time>
      </trkpt>
      <trkpt lat="43.74238" lon="3.54348">
        <ele>307.7</ele>
        <time>2014-04-30T12:44:54Z</time>
      </trkpt>
      <trkpt lat="43.74245" lon="3.54336">
        <ele>310.3</ele>
        <time>2014-04-30T12:45:07Z</time>
      </trkpt>
      <trkpt lat="43.74252" lon="3.54325">
        <ele>312.9</ele>
        <time>2014-04-30T12:45:20Z</time>
      </trkpt>
      <trkpt lat="43.74258" lon="3.54315">
        <ele>313.9</ele>
        <time>2014-04-30T12:45:23Z</time>
      </trkpt>
      <trkpt lat="43.74266" lon="3.54303">
        <ele>316.8</ele>
        <time>2014-04-30T12:45:35Z</time>
      </trkpt>
      <trkpt lat="43.74273" lon="3.54293">
        <ele>318.1</ele>
        <time>2014-04-30T12:45:47Z</time>
      </trkpt>
      <trkpt lat="43.74281" lon="3.54282">
        <ele>319</ele>
        <time>2014-04-30T12:46:00Z</time>
      </trkpt>
      <trkpt lat="43.74288" lon="3.54272">
        <ele>319.6</ele>
        <time>2014-04-30T12:46:03Z</time>
      </trkpt>
      <trkpt lat="43.74297" lon="3.54263">
        <ele>320.9</ele>
        <time>2014-04-30T12:46:16Z</time>
      </trkpt>
      <trkpt lat="43.74306" lon="3.54254">
        <ele>322</ele>
        <time>2014-04-30T12:46:32Z</time>
      </trkpt>
      <trkpt lat="43.74314" lon="3.54244">
        <ele>323.2</ele>
        <time>2014-04-30T12:46:44Z</time>
      </trkpt>
      <trkpt lat="43.74322" lon="3.54233">
        <ele>324.1</ele>
        <time>2014-04-30T12:46:47Z</time>
      </trkpt>
      <trkpt lat="43.7433" lon="3.54225">
        <ele>323.3</ele>
        <time>2014-04-30T12:46:50Z</time>
      </trkpt>
      <trkpt lat="43.74339" lon="3.54214">
        <ele>324.2</ele>
        <time>2014-04-30T12:46:54Z</time>
      </trkpt>
      <trkpt lat="43.74347" lon="3.54207">
        <ele>325.1</ele>
        <time>2014-04-30T12:46:58Z</time>
      </trkpt>
      <trkpt lat="43.74356" lon="3.54204">
        <ele>329.2</ele>
        <time>2014-04-30T12:47:33Z</time>
      </trkpt>
      <trkpt lat="43.74366" lon="3.54201">
        <ele>330.7</ele>
        <time>2014-04-30T12:47:51Z</time>
      </trkpt>
      <trkpt lat="43.74377" lon="3.54196">
        <ele>332.8</ele>
        <time>2014-04-30T12:48:19Z</time>
      </trkpt>
      <trkpt lat="43.74385" lon="3.54189">
        <ele>333.3</ele>
        <time>2014-04-30T12:48:22Z</time>
      </trkpt>
      <trkpt lat="43.74385" lon="3.54177">
        <ele>337.6</ele>
        <time>2014-04-30T12:48:59Z</time>
      </trkpt>
      <trkpt lat="43.74384" lon="3.54161">
        <ele>338.8</ele>
        <time>2014-04-30T12:49:03Z</time>
      </trkpt>
      <trkpt lat="43.74385" lon="3.54147">
        <ele>341.3</ele>
        <time>2014-04-30T12:49:21Z</time>
      </trkpt>
      <trkpt lat="43.74384" lon="3.54131">
        <ele>345.9</ele>
        <time>2014-04-30T12:50:00Z</time>
      </trkpt>
      <trkpt lat="43.74382" lon="3.54118">
        <ele>349</ele>
        <time>2014-04-30T12:50:52Z</time>
      </trkpt>
      <trkpt lat="43.74377" lon="3.54105">
        <ele>350.5</ele>
        <time>2014-04-30T12:51:04Z</time>
      </trkpt>
      <trkpt lat="43.7437" lon="3.54093">
        <ele>351</ele>
        <time>2014-04-30T12:51:07Z</time>
      </trkpt>
      <trkpt lat="43.74364" lon="3.54082">
        <ele>350.9</ele>
        <time>2014-04-30T12:51:10Z</time>
      </trkpt>
      <trkpt lat="43.74355" lon="3.54073">
        <ele>350.4</ele>
        <time>2014-04-30T12:51:14Z</time>
      </trkpt>
      <trkpt lat="43.74348" lon="3.54064">
        <ele>350.3</ele>
        <time>2014-04-30T12:51:18Z</time>
      </trkpt>
      <trkpt lat="43.74342" lon="3.54054">
        <ele>350.6</ele>
        <time>2014-04-30T12:51:22Z</time>
      </trkpt>
      <trkpt lat="43.74337" lon="3.54041">
        <ele>350.5</ele>
        <time>2014-04-30T12:51:27Z</time>
      </trkpt>
      <trkpt lat="43.74337" lon="3.54028">
        <ele>351</ele>
        <time>2014-04-30T12:51:32Z</time>
      </trkpt>
      <trkpt lat="43.74336" lon="3.54015">
        <ele>352.2</ele>
        <time>2014-04-30T12:51:38Z</time>
      </trkpt>
      <trkpt lat="43.7433" lon="3.54003">
        <ele>352.7</ele>
        <time>2014-04-30T12:51:48Z</time>
      </trkpt>
      <trkpt lat="43.74324" lon="3.53991">
        <ele>362.9</ele>
        <time>2014-04-30T12:53:33Z</time>
      </trkpt>
      <trkpt lat="43.74325" lon="3.53976">
        <ele>365.6</ele>
        <time>2014-04-30T12:53:54Z</time>
      </trkpt>
      <trkpt lat="43.74327" lon="3.53962">
        <ele>366.4</ele>
        <time>2014-04-30T12:53:57Z</time>
      </trkpt>
      <trkpt lat="43.74332" lon="3.53949">
        <ele>366.4</ele>
        <time>2014-04-30T12:54:07Z</time>
      </trkpt>
      <trkpt lat="43.74339" lon="3.53939">
        <ele>367</ele>
        <time>2014-04-30T12:54:11Z</time>
      </trkpt>
      <trkpt lat="43.74346" lon="3.53928">
        <ele>367.1</ele>
        <time>2014-04-30T12:54:15Z</time>
      </trkpt>
      <trkpt lat="43.74354" lon="3.53916">
        <ele>367.3</ele>
        <time>2014-04-30T12:54:19Z</time>
      </trkpt>
      <trkpt lat="43.7436" lon="3.53904">
        <ele>367.2</ele>
        <time>2014-04-30T12:54:23Z</time>
      </trkpt>
      <trkpt lat="43.74364" lon="3.53892">
        <ele>367.2</ele>
        <time>2014-04-30T12:54:25Z</time>
      </trkpt>
      <trkpt lat="43.7437" lon="3.53884">
        <ele>367</ele>
        <time>2014-04-30T12:54:29Z</time>
      </trkpt>
      <trkpt lat="43.74376" lon="3.53871">
        <ele>368.7</ele>
        <time>2014-04-30T12:54:35Z</time>
      </trkpt>
      <trkpt lat="43.74383" lon="3.53861">
        <ele>369.5</ele>
        <time>2014-04-30T12:54:40Z</time>
      </trkpt>
      <trkpt lat="43.74389" lon="3.5385">
        <ele>370.2</ele>
        <time>2014-04-30T12:54:45Z</time>
      </trkpt>
      <trkpt lat="43.74395" lon="3.5384">
        <ele>370.6</ele>
        <time>2014-04-30T12:54:50Z</time>
      </trkpt>
      <trkpt lat="43.74405" lon="3.53837">
        <ele>371.4</ele>
        <time>2014-04-30T12:54:57Z</time>
      </trkpt>
      <trkpt lat="43.74442" lon="3.53815">
        <ele>376</ele>
        <time>2014-04-30T12:55:33Z</time>
      </trkpt>
      <trkpt lat="43.7445" lon="3.53803">
        <ele>381.8</ele>
        <time>2014-04-30T12:56:11Z</time>
      </trkpt>
      <trkpt lat="43.74453" lon="3.53791">
        <ele>383.2</ele>
        <time>2014-04-30T12:56:29Z</time>
      </trkpt>
      <trkpt lat="43.74452" lon="3.53778">
        <ele>386.1</ele>
        <time>2014-04-30T12:56:52Z</time>
      </trkpt>
      <trkpt lat="43.74445" lon="3.53764">
        <ele>389</ele>
        <time>2014-04-30T12:57:10Z</time>
      </trkpt>
      <trkpt lat="43.74438" lon="3.53755">
        <ele>389</ele>
        <time>2014-04-30T12:57:13Z</time>
      </trkpt>
      <trkpt lat="43.74431" lon="3.53745">
        <ele>390.9</ele>
        <time>2014-04-30T12:57:27Z</time>
      </trkpt>
      <trkpt lat="43.74425" lon="3.53734">
        <ele>392.8</ele>
        <time>2014-04-30T12:57:40Z</time>
      </trkpt>
      <trkpt lat="43.74399" lon="3.53684">
        <ele>396</ele>
        <time>2014-04-30T12:57:59Z</time>
      </trkpt>
      <trkpt lat="43.74437" lon="3.53689">
        <ele>400</ele>
        <time>2014-04-30T12:58:44Z</time>
      </trkpt>
      <trkpt lat="43.74447" lon="3.53681">
        <ele>405</ele>
        <time>2014-04-30T12:59:25Z</time>
      </trkpt>
      <trkpt lat="43.74457" lon="3.53675">
        <ele>408.1</ele>
        <time>2014-04-30T12:59:36Z</time>
      </trkpt>
      <trkpt lat="43.74466" lon="3.53669">
        <ele>410.1</ele>
        <time>2014-04-30T12:59:49Z</time>
      </trkpt>
      <trkpt lat="43.74475" lon="3.53663">
        <ele>410.6</ele>
        <time>2014-04-30T12:59:52Z</time>
      </trkpt>
      <trkpt lat="43.74485" lon="3.53657">
        <ele>410.1</ele>
        <time>2014-04-30T13:00:05Z</time>
      </trkpt>
      <trkpt lat="43.74493" lon="3.5365">
        <ele>412.2</ele>
        <time>2014-04-30T13:00:18Z</time>
      </trkpt>
      <trkpt lat="43.74501" lon="3.53642">
        <ele>415</ele>
        <time>2014-04-30T13:00:33Z</time>
      </trkpt>
      <trkpt lat="43.7451" lon="3.53634">
        <ele>415.5</ele>
        <time>2014-04-30T13:00:36Z</time>
      </trkpt>
      <trkpt lat="43.74498" lon="3.53633">
        <ele>422.5</ele>
        <time>2014-04-30T13:01:41Z</time>
      </trkpt>
      <trkpt lat="43.74488" lon="3.53633">
        <ele>422.1</ele>
        <time>2014-04-30T13:01:44Z</time>
      </trkpt>
      <trkpt lat="43.74476" lon="3.53635">
        <ele>422.8</ele>
        <time>2014-04-30T13:01:48Z</time>
      </trkpt>
      <trkpt lat="43.74466" lon="3.53634">
        <ele>422.7</ele>
        <time>2014-04-30T13:01:52Z</time>
      </trkpt>
      <trkpt lat="43.74456" lon="3.53632">
        <ele>424.1</ele>
        <time>2014-04-30T13:01:57Z</time>
      </trkpt>
      <trkpt lat="43.74465" lon="3.53623">
        <ele>431.2</ele>
        <time>2014-04-30T13:02:48Z</time>
      </trkpt>
      <trkpt lat="43.74474" lon="3.53613">
        <ele>432.9</ele>
        <time>2014-04-30T13:03:00Z</time>
      </trkpt>
      <trkpt lat="43.74482" lon="3.53607">
        <ele>432.8</ele>
        <time>2014-04-30T13:03:26Z</time>
      </trkpt>
      <trkpt lat="43.74491" lon="3.53601">
        <ele>435</ele>
        <time>2014-04-30T13:03:43Z</time>
      </trkpt>
      <trkpt lat="43.745" lon="3.53593">
        <ele>435.4</ele>
        <time>2014-04-30T13:03:46Z</time>
      </trkpt>
      <trkpt lat="43.74509" lon="3.53585">
        <ele>438.2</ele>
        <time>2014-04-30T13:03:59Z</time>
      </trkpt>
      <trkpt lat="43.74518" lon="3.53576">
        <ele>440.3</ele>
        <time>2014-04-30T13:04:13Z</time>
      </trkpt>
      <trkpt lat="43.74532" lon="3.53563">
        <ele>441</ele>
        <time>2014-04-30T13:04:27Z</time>
      </trkpt>
      <trkpt lat="43.74546" lon="3.53553">
        <ele>444</ele>
        <time>2014-04-30T13:04:43Z</time>
      </trkpt>
      <trkpt lat="43.74558" lon="3.53544">
        <ele>446</ele>
        <time>2014-04-30T13:04:59Z</time>
      </trkpt>
      <trkpt lat="43.74568" lon="3.53536">
        <ele>450</ele>
        <time>2014-04-30T13:05:15Z</time>
      </trkpt>
      <trkpt lat="43.74579" lon="3.53526">
        <ele>451</ele>
        <time>2014-04-30T13:05:31Z</time>
      </trkpt>
      <trkpt lat="43.74586" lon="3.53518">
        <ele>454.9</ele>
        <time>2014-04-30T13:05:55Z</time>
      </trkpt>
      <trkpt lat="43.74594" lon="3.53512">
        <ele>458.4</ele>
        <time>2014-04-30T13:06:12Z</time>
      </trkpt>
      <trkpt lat="43.74606" lon="3.5351">
        <ele>461.6</ele>
        <time>2014-04-30T13:06:37Z</time>
      </trkpt>
      <trkpt lat="43.74615" lon="3.53512">
        <ele>465.4</ele>
        <time>2014-04-30T13:06:53Z</time>
      </trkpt>
      <trkpt lat="43.74624" lon="3.53517">
        <ele>466.7</ele>
        <time>2014-04-30T13:06:56Z</time>
      </trkpt>
      <trkpt lat="43.74633" lon="3.53523">
        <ele>468.4</ele>
        <time>2014-04-30T13:07:11Z</time>
      </trkpt>
      <trkpt lat="43.74643" lon="3.53527">
        <ele>470.2</ele>
        <time>2014-04-30T13:07:25Z</time>
      </trkpt>
      <trkpt lat="43.74649" lon="3.53515">
        <ele>481</ele>
        <time>2014-04-30T13:08:51Z</time>
      </trkpt>
      <trkpt lat="43.7466" lon="3.53508">
        <ele>484.4</ele>
        <time>2014-04-30T13:09:33Z</time>
      </trkpt>
      <trkpt lat="43.7466" lon="3.53494">
        <ele>488.6</ele>
        <time>2014-04-30T13:10:04Z</time>
      </trkpt>
      <trkpt lat="43.74656" lon="3.53481">
        <ele>488.5</ele>
        <time>2014-04-30T13:10:11Z</time>
      </trkpt>
      <trkpt lat="43.74658" lon="3.53468">
        <ele>489.8</ele>
        <time>2014-04-30T13:10:20Z</time>
      </trkpt>
      <trkpt lat="43.74659" lon="3.53454">
        <ele>490.9</ele>
        <time>2014-04-30T13:10:25Z</time>
      </trkpt>
      <trkpt lat="43.7466" lon="3.5344">
        <ele>490.9</ele>
        <time>2014-04-30T13:10:31Z</time>
      </trkpt>
      <trkpt lat="43.7466" lon="3.53425">
        <ele>496.8</ele>
        <time>2014-04-30T13:11:21Z</time>
      </trkpt>
      <trkpt lat="43.7466" lon="3.5341">
        <ele>500</ele>
        <time>2014-04-30T13:11:41Z</time>
      </trkpt>
      <trkpt lat="43.7466" lon="3.53395">
        <ele>501</ele>
        <time>2014-04-30T13:11:44Z</time>
      </trkpt>
      <trkpt lat="43.74659" lon="3.5338">
        <ele>502.3</ele>
        <time>2014-04-30T13:11:49Z</time>
      </trkpt>
      <trkpt lat="43.74657" lon="3.53367">
        <ele>501.7</ele>
        <time>2014-04-30T13:11:52Z</time>
      </trkpt>
      <trkpt lat="43.74656" lon="3.53355">
        <ele>500.5</ele>
        <time>2014-04-30T13:11:55Z</time>
      </trkpt>
      <trkpt lat="43.74655" lon="3.53339">
        <ele>497.8</ele>
        <time>2014-04-30T13:12:31Z</time>
      </trkpt>
      <trkpt lat="43.74654" lon="3.53326">
        <ele>497.8</ele>
        <time>2014-04-30T13:12:33Z</time>
      </trkpt>
      <trkpt lat="43.74652" lon="3.5331">
        <ele>497.2</ele>
        <time>2014-04-30T13:12:36Z</time>
      </trkpt>
      <trkpt lat="43.74648" lon="3.53295">
        <ele>494.1</ele>
        <time>2014-04-30T13:13:03Z</time>
      </trkpt>
      <trkpt lat="43.74648" lon="3.5328">
        <ele>493.5</ele>
        <time>2014-04-30T13:13:06Z</time>
      </trkpt>
      <trkpt lat="43.74649" lon="3.53264">
        <ele>493</ele>
        <time>2014-04-30T13:13:09Z</time>
      </trkpt>
      <trkpt lat="43.74651" lon="3.53247">
        <ele>493.2</ele>
        <time>2014-04-30T13:13:12Z</time>
      </trkpt>
      <trkpt lat="43.74651" lon="3.53232">
        <ele>492.6</ele>
        <time>2014-04-30T13:13:15Z</time>
      </trkpt>
      <trkpt lat="43.74648" lon="3.53218">
        <ele>490.9</ele>
        <time>2014-04-30T13:13:18Z</time>
      </trkpt>
      <trkpt lat="43.74641" lon="3.53207">
        <ele>488.6</ele>
        <time>2014-04-30T13:13:21Z</time>
      </trkpt>
      <trkpt lat="43.74634" lon="3.53195">
        <ele>486.1</ele>
        <time>2014-04-30T13:13:24Z</time>
      </trkpt>
      <trkpt lat="43.74636" lon="3.5318">
        <ele>484.1</ele>
        <time>2014-04-30T13:13:27Z</time>
      </trkpt>
      <trkpt lat="43.74639" lon="3.53167">
        <ele>482.4</ele>
        <time>2014-04-30T13:13:30Z</time>
      </trkpt>
      <trkpt lat="43.74644" lon="3.53151">
        <ele>481.1</ele>
        <time>2014-04-30T13:13:33Z</time>
      </trkpt>
      <trkpt lat="43.74648" lon="3.53135">
        <ele>479.6</ele>
        <time>2014-04-30T13:13:36Z</time>
      </trkpt>
      <trkpt lat="43.74648" lon="3.53121">
        <ele>478.2</ele>
        <time>2014-04-30T13:13:39Z</time>
      </trkpt>
      <trkpt lat="43.74649" lon="3.53108">
        <ele>477.7</ele>
        <time>2014-04-30T13:13:41Z</time>
      </trkpt>
      <trkpt lat="43.7465" lon="3.53093">
        <ele>477.2</ele>
        <time>2014-04-30T13:13:43Z</time>
      </trkpt>
      <trkpt lat="43.7465" lon="3.53081">
        <ele>476.7</ele>
        <time>2014-04-30T13:13:45Z</time>
      </trkpt>
      <trkpt lat="43.74648" lon="3.53068">
        <ele>474</ele>
        <time>2014-04-30T13:13:49Z</time>
      </trkpt>
      <trkpt lat="43.74645" lon="3.53056">
        <ele>472.6</ele>
        <time>2014-04-30T13:13:55Z</time>
      </trkpt>
      <trkpt lat="43.74645" lon="3.53044">
        <ele>473</ele>
        <time>2014-04-30T13:14:01Z</time>
      </trkpt>
      <trkpt lat="43.74644" lon="3.53031">
        <ele>474.6</ele>
        <time>2014-04-30T13:14:06Z</time>
      </trkpt>
      <trkpt lat="43.74644" lon="3.53018">
        <ele>475</ele>
        <time>2014-04-30T13:14:11Z</time>
      </trkpt>
      <trkpt lat="43.74641" lon="3.53005">
        <ele>476.2</ele>
        <time>2014-04-30T13:14:17Z</time>
      </trkpt>
      <trkpt lat="43.74643" lon="3.52991">
        <ele>476.2</ele>
        <time>2014-04-30T13:14:23Z</time>
      </trkpt>
      <trkpt lat="43.74651" lon="3.52983">
        <ele>478.5</ele>
        <time>2014-04-30T13:14:29Z</time>
      </trkpt>
      <trkpt lat="43.7466" lon="3.52978">
        <ele>479.1</ele>
        <time>2014-04-30T13:14:35Z</time>
      </trkpt>
      <trkpt lat="43.7467" lon="3.52977">
        <ele>480</ele>
        <time>2014-04-30T13:14:41Z</time>
      </trkpt>
      <trkpt lat="43.74679" lon="3.52978">
        <ele>480</ele>
        <time>2014-04-30T13:14:46Z</time>
      </trkpt>
      <trkpt lat="43.74689" lon="3.52982">
        <ele>480.5</ele>
        <time>2014-04-30T13:14:51Z</time>
      </trkpt>
      <trkpt lat="43.74699" lon="3.52985">
        <ele>480.7</ele>
        <time>2014-04-30T13:14:56Z</time>
      </trkpt>
      <trkpt lat="43.74709" lon="3.52988">
        <ele>480.6</ele>
        <time>2014-04-30T13:15:01Z</time>
      </trkpt>
      <trkpt lat="43.7472" lon="3.52989">
        <ele>480.8</ele>
        <time>2014-04-30T13:15:06Z</time>
      </trkpt>
      <trkpt lat="43.7473" lon="3.52986">
        <ele>481.6</ele>
        <time>2014-04-30T13:15:11Z</time>
      </trkpt>
      <trkpt lat="43.74738" lon="3.52977">
        <ele>481.8</ele>
        <time>2014-04-30T13:15:16Z</time>
      </trkpt>
      <trkpt lat="43.74743" lon="3.52965">
        <ele>483.8</ele>
        <time>2014-04-30T13:15:21Z</time>
      </trkpt>
      <trkpt lat="43.74749" lon="3.52955">
        <ele>484.9</ele>
        <time>2014-04-30T13:15:27Z</time>
      </trkpt>
      <trkpt lat="43.74741" lon="3.52948">
        <ele>487.5</ele>
        <time>2014-04-30T13:16:18Z</time>
      </trkpt>
      <trkpt lat="43.74733" lon="3.52944">
        <ele>488</ele>
        <time>2014-04-30T13:16:22Z</time>
      </trkpt>
      <trkpt lat="43.74723" lon="3.5294">
        <ele>488.7</ele>
        <time>2014-04-30T13:16:27Z</time>
      </trkpt>
      <trkpt lat="43.74715" lon="3.52935">
        <ele>489.4</ele>
        <time>2014-04-30T13:16:36Z</time>
      </trkpt>
      <trkpt lat="43.74708" lon="3.52925">
        <ele>496.7</ele>
        <time>2014-04-30T13:17:35Z</time>
      </trkpt>
      <trkpt lat="43.74702" lon="3.52915">
        <ele>497.6</ele>
        <time>2014-04-30T13:17:38Z</time>
      </trkpt>
      <trkpt lat="43.74695" lon="3.52903">
        <ele>498.8</ele>
        <time>2014-04-30T13:17:42Z</time>
      </trkpt>
      <trkpt lat="43.74687" lon="3.52892">
        <ele>500.7</ele>
        <time>2014-04-30T13:18:01Z</time>
      </trkpt>
      <trkpt lat="43.74679" lon="3.52884">
        <ele>501.5</ele>
        <time>2014-04-30T13:18:04Z</time>
      </trkpt>
      <trkpt lat="43.7467" lon="3.52876">
        <ele>501.9</ele>
        <time>2014-04-30T13:18:08Z</time>
      </trkpt>
      <trkpt lat="43.74663" lon="3.52867">
        <ele>502.9</ele>
        <time>2014-04-30T13:18:20Z</time>
      </trkpt>
      <trkpt lat="43.74654" lon="3.52856">
        <ele>503.4</ele>
        <time>2014-04-30T13:18:24Z</time>
      </trkpt>
      <trkpt lat="43.74646" lon="3.52848">
        <ele>503.2</ele>
        <time>2014-04-30T13:18:28Z</time>
      </trkpt>
      <trkpt lat="43.74637" lon="3.52843">
        <ele>502.6</ele>
        <time>2014-04-30T13:18:32Z</time>
      </trkpt>
      <trkpt lat="43.74628" lon="3.52835">
        <ele>500.8</ele>
        <time>2014-04-30T13:18:37Z</time>
      </trkpt>
      <trkpt lat="43.74619" lon="3.52827">
        <ele>499.5</ele>
        <time>2014-04-30T13:18:41Z</time>
      </trkpt>
      <trkpt lat="43.74611" lon="3.5282">
        <ele>498.9</ele>
        <time>2014-04-30T13:18:45Z</time>
      </trkpt>
      <trkpt lat="43.74606" lon="3.52809">
        <ele>498.9</ele>
        <time>2014-04-30T13:18:49Z</time>
      </trkpt>
      <trkpt lat="43.74603" lon="3.52797">
        <ele>497.3</ele>
        <time>2014-04-30T13:18:58Z</time>
      </trkpt>
      <trkpt lat="43.74599" lon="3.52782">
        <ele>493.3</ele>
        <time>2014-04-30T13:19:31Z</time>
      </trkpt>
      <trkpt lat="43.74593" lon="3.52767">
        <ele>492.1</ele>
        <time>2014-04-30T13:19:34Z</time>
      </trkpt>
      <trkpt lat="43.74588" lon="3.52752">
        <ele>491.6</ele>
        <time>2014-04-30T13:19:37Z</time>
      </trkpt>
      <trkpt lat="43.74584" lon="3.52738">
        <ele>491.3</ele>
        <time>2014-04-30T13:19:40Z</time>
      </trkpt>
      <trkpt lat="43.7458" lon="3.52726">
        <ele>490.3</ele>
        <time>2014-04-30T13:19:43Z</time>
      </trkpt>
      <trkpt lat="43.74578" lon="3.52711">
        <ele>489.3</ele>
        <time>2014-04-30T13:19:47Z</time>
      </trkpt>
      <trkpt lat="43.74578" lon="3.52698">
        <ele>488.2</ele>
        <time>2014-04-30T13:19:51Z</time>
      </trkpt>
      <trkpt lat="43.74579" lon="3.52685">
        <ele>487.2</ele>
        <time>2014-04-30T13:19:55Z</time>
      </trkpt>
      <trkpt lat="43.74579" lon="3.52668">
        <ele>485.8</ele>
        <time>2014-04-30T13:19:59Z</time>
      </trkpt>
      <trkpt lat="43.74579" lon="3.52654">
        <ele>484.8</ele>
        <time>2014-04-30T13:20:02Z</time>
      </trkpt>
      <trkpt lat="43.74581" lon="3.52641">
        <ele>484</ele>
        <time>2014-04-30T13:20:05Z</time>
      </trkpt>
      <trkpt lat="43.7458" lon="3.52626">
        <ele>477.9</ele>
        <time>2014-04-30T13:21:15Z</time>
      </trkpt>
      <trkpt lat="43.7458" lon="3.52612">
        <ele>477.6</ele>
        <time>2014-04-30T13:21:18Z</time>
      </trkpt>
      <trkpt lat="43.74579" lon="3.52596">
        <ele>477.5</ele>
        <time>2014-04-30T13:21:22Z</time>
      </trkpt>
      <trkpt lat="43.74579" lon="3.52583">
        <ele>477.5</ele>
        <time>2014-04-30T13:21:25Z</time>
      </trkpt>
      <trkpt lat="43.74578" lon="3.52569">
        <ele>476.6</ele>
        <time>2014-04-30T13:21:29Z</time>
      </trkpt>
      <trkpt lat="43.74579" lon="3.52556">
        <ele>477.2</ele>
        <time>2014-04-30T13:21:33Z</time>
      </trkpt>
      <trkpt lat="43.7458" lon="3.52542">
        <ele>478</ele>
        <time>2014-04-30T13:21:38Z</time>
      </trkpt>
      <trkpt lat="43.74582" lon="3.52527">
        <ele>479.2</ele>
        <time>2014-04-30T13:21:43Z</time>
      </trkpt>
      <trkpt lat="43.74582" lon="3.52513">
        <ele>479.3</ele>
        <time>2014-04-30T13:21:48Z</time>
      </trkpt>
      <trkpt lat="43.74583" lon="3.52499">
        <ele>480.4</ele>
        <time>2014-04-30T13:21:54Z</time>
      </trkpt>
      <trkpt lat="43.74586" lon="3.52486">
        <ele>482</ele>
        <time>2014-04-30T13:22:00Z</time>
      </trkpt>
      <trkpt lat="43.7459" lon="3.52473">
        <ele>482</ele>
        <time>2014-04-30T13:22:06Z</time>
      </trkpt>
      <trkpt lat="43.74595" lon="3.52461">
        <ele>484.4</ele>
        <time>2014-04-30T13:22:12Z</time>
      </trkpt>
      <trkpt lat="43.74601" lon="3.5245">
        <ele>485.7</ele>
        <time>2014-04-30T13:22:18Z</time>
      </trkpt>
      <trkpt lat="43.74609" lon="3.52439">
        <ele>485.7</ele>
        <time>2014-04-30T13:22:24Z</time>
      </trkpt>
      <trkpt lat="43.74612" lon="3.52427">
        <ele>486.1</ele>
        <time>2014-04-30T13:22:29Z</time>
      </trkpt>
      <trkpt lat="43.74609" lon="3.52415">
        <ele>486.1</ele>
        <time>2014-04-30T13:22:34Z</time>
      </trkpt>
      <trkpt lat="43.74601" lon="3.52408">
        <ele>486.5</ele>
        <time>2014-04-30T13:22:39Z</time>
      </trkpt>
      <trkpt lat="43.74592" lon="3.52402">
        <ele>486.1</ele>
        <time>2014-04-30T13:22:44Z</time>
      </trkpt>
      <trkpt lat="43.74583" lon="3.52395">
        <ele>487.8</ele>
        <time>2014-04-30T13:22:50Z</time>
      </trkpt>
      <trkpt lat="43.74575" lon="3.52387">
        <ele>489.1</ele>
        <time>2014-04-30T13:22:56Z</time>
      </trkpt>
      <trkpt lat="43.74567" lon="3.52377">
        <ele>490.8</ele>
        <time>2014-04-30T13:23:02Z</time>
      </trkpt>
      <trkpt lat="43.74562" lon="3.52365">
        <ele>492.6</ele>
        <time>2014-04-30T13:23:08Z</time>
      </trkpt>
      <trkpt lat="43.74558" lon="3.52353">
        <ele>493.5</ele>
        <time>2014-04-30T13:23:14Z</time>
      </trkpt>
      <trkpt lat="43.74562" lon="3.52341">
        <ele>495.5</ele>
        <time>2014-04-30T13:23:20Z</time>
      </trkpt>
      <trkpt lat="43.74569" lon="3.52329">
        <ele>495.5</ele>
        <time>2014-04-30T13:23:26Z</time>
      </trkpt>
      <trkpt lat="43.74573" lon="3.52316">
        <ele>496.6</ele>
        <time>2014-04-30T13:23:31Z</time>
      </trkpt>
      <trkpt lat="43.74574" lon="3.52302">
        <ele>496.3</ele>
        <time>2014-04-30T13:23:36Z</time>
      </trkpt>
      <trkpt lat="43.74574" lon="3.52286">
        <ele>496.7</ele>
        <time>2014-04-30T13:23:41Z</time>
      </trkpt>
      <trkpt lat="43.74571" lon="3.52272">
        <ele>495.9</ele>
        <time>2014-04-30T13:23:46Z</time>
      </trkpt>
      <trkpt lat="43.7457" lon="3.52256">
        <ele>496.1</ele>
        <time>2014-04-30T13:23:51Z</time>
      </trkpt>
      <trkpt lat="43.74569" lon="3.52241">
        <ele>495.5</ele>
        <time>2014-04-30T13:23:56Z</time>
      </trkpt>
      <trkpt lat="43.74566" lon="3.52228">
        <ele>497.4</ele>
        <time>2014-04-30T13:24:00Z</time>
      </trkpt>
      <trkpt lat="43.74562" lon="3.52214">
        <ele>499.3</ele>
        <time>2014-04-30T13:24:04Z</time>
      </trkpt>
      <trkpt lat="43.74556" lon="3.52201">
        <ele>500.5</ele>
        <time>2014-04-30T13:24:08Z</time>
      </trkpt>
      <trkpt lat="43.74547" lon="3.52193">
        <ele>502.4</ele>
        <time>2014-04-30T13:24:12Z</time>
      </trkpt>
      <trkpt lat="43.74538" lon="3.52194">
        <ele>503.3</ele>
        <time>2014-04-30T13:24:15Z</time>
      </trkpt>
      <trkpt lat="43.74528" lon="3.52198">
        <ele>503.2</ele>
        <time>2014-04-30T13:24:18Z</time>
      </trkpt>
      <trkpt lat="43.74518" lon="3.52204">
        <ele>500.9</ele>
        <time>2014-04-30T13:24:22Z</time>
      </trkpt>
      <trkpt lat="43.74509" lon="3.52206">
        <ele>500.5</ele>
        <time>2014-04-30T13:24:25Z</time>
      </trkpt>
      <trkpt lat="43.74497" lon="3.52209">
        <ele>501.2</ele>
        <time>2014-04-30T13:24:29Z</time>
      </trkpt>
      <trkpt lat="43.74485" lon="3.5221">
        <ele>501.3</ele>
        <time>2014-04-30T13:24:33Z</time>
      </trkpt>
      <trkpt lat="43.74476" lon="3.52211">
        <ele>501.4</ele>
        <time>2014-04-30T13:24:36Z</time>
      </trkpt>
      <trkpt lat="43.74467" lon="3.52212">
        <ele>501.7</ele>
        <time>2014-04-30T13:24:39Z</time>
      </trkpt>
      <trkpt lat="43.74455" lon="3.52215">
        <ele>501.6</ele>
        <time>2014-04-30T13:24:43Z</time>
      </trkpt>
      <trkpt lat="43.74446" lon="3.5222">
        <ele>502</ele>
        <time>2014-04-30T13:24:46Z</time>
      </trkpt>
      <trkpt lat="43.74438" lon="3.52228">
        <ele>502</ele>
        <time>2014-04-30T13:24:49Z</time>
      </trkpt>
      <trkpt lat="43.74431" lon="3.52239">
        <ele>503.8</ele>
        <time>2014-04-30T13:24:52Z</time>
      </trkpt>
      <trkpt lat="43.74425" lon="3.52253">
        <ele>504.4</ele>
        <time>2014-04-30T13:24:55Z</time>
      </trkpt>
      <trkpt lat="43.74419" lon="3.52266">
        <ele>505</ele>
        <time>2014-04-30T13:24:58Z</time>
      </trkpt>
      <trkpt lat="43.7441" lon="3.52273">
        <ele>504.7</ele>
        <time>2014-04-30T13:25:01Z</time>
      </trkpt>
      <trkpt lat="43.74399" lon="3.52276">
        <ele>504.5</ele>
        <time>2014-04-30T13:25:05Z</time>
      </trkpt>
      <trkpt lat="43.7439" lon="3.52278">
        <ele>505.4</ele>
        <time>2014-04-30T13:25:09Z</time>
      </trkpt>
      <trkpt lat="43.7438" lon="3.52281">
        <ele>504.8</ele>
        <time>2014-04-30T13:25:14Z</time>
      </trkpt>
      <trkpt lat="43.74372" lon="3.52289">
        <ele>505</ele>
        <time>2014-04-30T13:25:20Z</time>
      </trkpt>
      <trkpt lat="43.74372" lon="3.52302">
        <ele>503.1</ele>
        <time>2014-04-30T13:25:52Z</time>
      </trkpt>
      <trkpt lat="43.74373" lon="3.52317">
        <ele>499.7</ele>
        <time>2014-04-30T13:26:11Z</time>
      </trkpt>
      <trkpt lat="43.74374" lon="3.52332">
        <ele>500.8</ele>
        <time>2014-04-30T13:26:15Z</time>
      </trkpt>
      <trkpt lat="43.74375" lon="3.52345">
        <ele>499</ele>
        <time>2014-04-30T13:26:19Z</time>
      </trkpt>
      <trkpt lat="43.74375" lon="3.52361">
        <ele>496.9</ele>
        <time>2014-04-30T13:26:23Z</time>
      </trkpt>
      <trkpt lat="43.74372" lon="3.52375">
        <ele>494</ele>
        <time>2014-04-30T13:26:27Z</time>
      </trkpt>
      <trkpt lat="43.74366" lon="3.52386">
        <ele>492.6</ele>
        <time>2014-04-30T13:26:30Z</time>
      </trkpt>
      <trkpt lat="43.7436" lon="3.52396">
        <ele>491.2</ele>
        <time>2014-04-30T13:26:34Z</time>
      </trkpt>
      <trkpt lat="43.74353" lon="3.52407">
        <ele>489.5</ele>
        <time>2014-04-30T13:26:37Z</time>
      </trkpt>
      <trkpt lat="43.74347" lon="3.5242">
        <ele>486.6</ele>
        <time>2014-04-30T13:26:41Z</time>
      </trkpt>
      <trkpt lat="43.74347" lon="3.52433">
        <ele>485.8</ele>
        <time>2014-04-30T13:26:45Z</time>
      </trkpt>
      <trkpt lat="43.7435" lon="3.52446">
        <ele>486.4</ele>
        <time>2014-04-30T13:26:49Z</time>
      </trkpt>
      <trkpt lat="43.74352" lon="3.52461">
        <ele>487.1</ele>
        <time>2014-04-30T13:26:53Z</time>
      </trkpt>
      <trkpt lat="43.74352" lon="3.52475">
        <ele>485.5</ele>
        <time>2014-04-30T13:26:57Z</time>
      </trkpt>
      <trkpt lat="43.74352" lon="3.5249">
        <ele>483.9</ele>
        <time>2014-04-30T13:27:02Z</time>
      </trkpt>
      <trkpt lat="43.74345" lon="3.52483">
        <ele>481.1</ele>
        <time>2014-04-30T13:28:17Z</time>
      </trkpt>
      <trkpt lat="43.74338" lon="3.52473">
        <ele>479.9</ele>
        <time>2014-04-30T13:28:21Z</time>
      </trkpt>
      <trkpt lat="43.74334" lon="3.52485">
        <ele>474.8</ele>
        <time>2014-04-30T13:28:40Z</time>
      </trkpt>
      <trkpt lat="43.74336" lon="3.52499">
        <ele>473.1</ele>
        <time>2014-04-30T13:28:46Z</time>
      </trkpt>
      <trkpt lat="43.7434" lon="3.52514">
        <ele>471.1</ele>
        <time>2014-04-30T13:28:52Z</time>
      </trkpt>
      <trkpt lat="43.74331" lon="3.52507">
        <ele>466.4</ele>
        <time>2014-04-30T13:29:10Z</time>
      </trkpt>
      <trkpt lat="43.74325" lon="3.52496">
        <ele>463.6</ele>
        <time>2014-04-30T13:29:14Z</time>
      </trkpt>
      <trkpt lat="43.74325" lon="3.5251">
        <ele>461.6</ele>
        <time>2014-04-30T13:29:47Z</time>
      </trkpt>
      <trkpt lat="43.74328" lon="3.52524">
        <ele>461.3</ele>
        <time>2014-04-30T13:29:51Z</time>
      </trkpt>
      <trkpt lat="43.74333" lon="3.52537">
        <ele>461.5</ele>
        <time>2014-04-30T13:29:55Z</time>
      </trkpt>
      <trkpt lat="43.7434" lon="3.52549">
        <ele>458.9</ele>
        <time>2014-04-30T13:29:59Z</time>
      </trkpt>
      <trkpt lat="43.74343" lon="3.52562">
        <ele>457.6</ele>
        <time>2014-04-30T13:30:03Z</time>
      </trkpt>
      <trkpt lat="43.74346" lon="3.52577">
        <ele>455.5</ele>
        <time>2014-04-30T13:30:07Z</time>
      </trkpt>
      <trkpt lat="43.74341" lon="3.52591">
        <ele>453.7</ele>
        <time>2014-04-30T13:30:12Z</time>
      </trkpt>
      <trkpt lat="43.74337" lon="3.52604">
        <ele>453.4</ele>
        <time>2014-04-30T13:30:16Z</time>
      </trkpt>
      <trkpt lat="43.74337" lon="3.52588">
        <ele>449.2</ele>
        <time>2014-04-30T13:30:43Z</time>
      </trkpt>
      <trkpt lat="43.74334" lon="3.52576">
        <ele>446.8</ele>
        <time>2014-04-30T13:30:47Z</time>
      </trkpt>
      <trkpt lat="43.74326" lon="3.52585">
        <ele>441.7</ele>
        <time>2014-04-30T13:31:10Z</time>
      </trkpt>
      <trkpt lat="43.74321" lon="3.52596">
        <ele>441.1</ele>
        <time>2014-04-30T13:31:13Z</time>
      </trkpt>
      <trkpt lat="43.74317" lon="3.52611">
        <ele>440.2</ele>
        <time>2014-04-30T13:31:17Z</time>
      </trkpt>
      <trkpt lat="43.74316" lon="3.52625">
        <ele>439.2</ele>
        <time>2014-04-30T13:31:21Z</time>
      </trkpt>
      <trkpt lat="43.7432" lon="3.52636">
        <ele>437.4</ele>
        <time>2014-04-30T13:31:25Z</time>
      </trkpt>
      <trkpt lat="43.74327" lon="3.52648">
        <ele>436.8</ele>
        <time>2014-04-30T13:31:29Z</time>
      </trkpt>
      <trkpt lat="43.74334" lon="3.52659">
        <ele>435.3</ele>
        <time>2014-04-30T13:31:33Z</time>
      </trkpt>
      <trkpt lat="43.74338" lon="3.52671">
        <ele>432.2</ele>
        <time>2014-04-30T13:31:39Z</time>
      </trkpt>
      <trkpt lat="43.74339" lon="3.52684">
        <ele>430.7</ele>
        <time>2014-04-30T13:31:45Z</time>
      </trkpt>
      <trkpt lat="43.74338" lon="3.52698">
        <ele>429.8</ele>
        <time>2014-04-30T13:31:49Z</time>
      </trkpt>
      <trkpt lat="43.74339" lon="3.52715">
        <ele>429.8</ele>
        <time>2014-04-30T13:31:53Z</time>
      </trkpt>
      <trkpt lat="43.74341" lon="3.52731">
        <ele>430.4</ele>
        <time>2014-04-30T13:31:57Z</time>
      </trkpt>
      <trkpt lat="43.74343" lon="3.52743">
        <ele>429.4</ele>
        <time>2014-04-30T13:32:01Z</time>
      </trkpt>
      <trkpt lat="43.74347" lon="3.52755">
        <ele>427.6</ele>
        <time>2014-04-30T13:32:05Z</time>
      </trkpt>
      <trkpt lat="43.74354" lon="3.52765">
        <ele>424.6</ele>
        <time>2014-04-30T13:32:10Z</time>
      </trkpt>
      <trkpt lat="43.74359" lon="3.52778">
        <ele>423.1</ele>
        <time>2014-04-30T13:32:14Z</time>
      </trkpt>
      <trkpt lat="43.74364" lon="3.5279">
        <ele>422.3</ele>
        <time>2014-04-30T13:32:18Z</time>
      </trkpt>
      <trkpt lat="43.74367" lon="3.52803">
        <ele>420.1</ele>
        <time>2014-04-30T13:32:22Z</time>
      </trkpt>
      <trkpt lat="43.74369" lon="3.52817">
        <ele>417.4</ele>
        <time>2014-04-30T13:32:27Z</time>
      </trkpt>
      <trkpt lat="43.74359" lon="3.52815">
        <ele>412</ele>
        <time>2014-04-30T13:33:01Z</time>
      </trkpt>
      <trkpt lat="43.74352" lon="3.52807">
        <ele>411</ele>
        <time>2014-04-30T13:33:06Z</time>
      </trkpt>
      <trkpt lat="43.74342" lon="3.52801">
        <ele>409</ele>
        <time>2014-04-30T13:33:26Z</time>
      </trkpt>
      <trkpt lat="43.74331" lon="3.52795">
        <ele>407.8</ele>
        <time>2014-04-30T13:33:30Z</time>
      </trkpt>
      <trkpt lat="43.74322" lon="3.5279">
        <ele>406.6</ele>
        <time>2014-04-30T13:33:33Z</time>
      </trkpt>
      <trkpt lat="43.74312" lon="3.52784">
        <ele>405.1</ele>
        <time>2014-04-30T13:33:37Z</time>
      </trkpt>
      <trkpt lat="43.74303" lon="3.52774">
        <ele>404.3</ele>
        <time>2014-04-30T13:33:41Z</time>
      </trkpt>
      <trkpt lat="43.74296" lon="3.52763">
        <ele>402.2</ele>
        <time>2014-04-30T13:33:45Z</time>
      </trkpt>
      <trkpt lat="43.74294" lon="3.52748">
        <ele>399.6</ele>
        <time>2014-04-30T13:33:49Z</time>
      </trkpt>
      <trkpt lat="43.74289" lon="3.52737">
        <ele>396.9</ele>
        <time>2014-04-30T13:33:53Z</time>
      </trkpt>
      <trkpt lat="43.74287" lon="3.5275">
        <ele>391.5</ele>
        <time>2014-04-30T13:34:07Z</time>
      </trkpt>
      <trkpt lat="43.74279" lon="3.52742">
        <ele>391</ele>
        <time>2014-04-30T13:34:18Z</time>
      </trkpt>
      <trkpt lat="43.7427" lon="3.52735">
        <ele>389.1</ele>
        <time>2014-04-30T13:34:22Z</time>
      </trkpt>
      <trkpt lat="43.7426" lon="3.52731">
        <ele>387.6</ele>
        <time>2014-04-30T13:34:26Z</time>
      </trkpt>
      <trkpt lat="43.74249" lon="3.52723">
        <ele>386.8</ele>
        <time>2014-04-30T13:34:30Z</time>
      </trkpt>
      <trkpt lat="43.7424" lon="3.52718">
        <ele>385.4</ele>
        <time>2014-04-30T13:34:34Z</time>
      </trkpt>
      <trkpt lat="43.74233" lon="3.52707">
        <ele>384.2</ele>
        <time>2014-04-30T13:34:38Z</time>
      </trkpt>
      <trkpt lat="43.74226" lon="3.52694">
        <ele>382.2</ele>
        <time>2014-04-30T13:34:42Z</time>
      </trkpt>
      <trkpt lat="43.74224" lon="3.52681">
        <ele>378.3</ele>
        <time>2014-04-30T13:34:46Z</time>
      </trkpt>
      <trkpt lat="43.74221" lon="3.52668">
        <ele>375.8</ele>
        <time>2014-04-30T13:34:52Z</time>
      </trkpt>
      <trkpt lat="43.74215" lon="3.52655">
        <ele>373.4</ele>
        <time>2014-04-30T13:34:57Z</time>
      </trkpt>
      <trkpt lat="43.74209" lon="3.52642">
        <ele>371.3</ele>
        <time>2014-04-30T13:35:01Z</time>
      </trkpt>
      <trkpt lat="43.74209" lon="3.52628">
        <ele>369.1</ele>
        <time>2014-04-30T13:35:05Z</time>
      </trkpt>
      <trkpt lat="43.74208" lon="3.52613">
        <ele>368.2</ele>
        <time>2014-04-30T13:35:09Z</time>
      </trkpt>
      <trkpt lat="43.74206" lon="3.526">
        <ele>367.2</ele>
        <time>2014-04-30T13:35:12Z</time>
      </trkpt>
      <trkpt lat="43.74202" lon="3.52587">
        <ele>367.4</ele>
        <time>2014-04-30T13:35:16Z</time>
      </trkpt>
      <trkpt lat="43.74196" lon="3.52574">
        <ele>362.3</ele>
        <time>2014-04-30T13:35:42Z</time>
      </trkpt>
      <trkpt lat="43.7419" lon="3.52561">
        <ele>361.2</ele>
        <time>2014-04-30T13:35:47Z</time>
      </trkpt>
      <trkpt lat="43.74186" lon="3.52546">
        <ele>360.8</ele>
        <time>2014-04-30T13:35:52Z</time>
      </trkpt>
      <trkpt lat="43.74181" lon="3.5253">
        <ele>360.4</ele>
        <time>2014-04-30T13:35:56Z</time>
      </trkpt>
      <trkpt lat="43.74177" lon="3.52518">
        <ele>358.9</ele>
        <time>2014-04-30T13:35:59Z</time>
      </trkpt>
      <trkpt lat="43.74172" lon="3.52506">
        <ele>357.6</ele>
        <time>2014-04-30T13:36:02Z</time>
      </trkpt>
      <trkpt lat="43.74168" lon="3.52492">
        <ele>356.5</ele>
        <time>2014-04-30T13:36:06Z</time>
      </trkpt>
      <trkpt lat="43.74157" lon="3.52491">
        <ele>356.2</ele>
        <time>2014-04-30T13:36:10Z</time>
      </trkpt>
      <trkpt lat="43.74148" lon="3.52498">
        <ele>355.3</ele>
        <time>2014-04-30T13:36:13Z</time>
      </trkpt>
      <trkpt lat="43.7414" lon="3.52507">
        <ele>354.3</ele>
        <time>2014-04-30T13:36:16Z</time>
      </trkpt>
      <trkpt lat="43.7413" lon="3.52516">
        <ele>353.4</ele>
        <time>2014-04-30T13:36:19Z</time>
      </trkpt>
      <trkpt lat="43.74122" lon="3.52523">
        <ele>352.5</ele>
        <time>2014-04-30T13:36:22Z</time>
      </trkpt>
      <trkpt lat="43.74111" lon="3.52527">
        <ele>352.2</ele>
        <time>2014-04-30T13:36:27Z</time>
      </trkpt>
      <trkpt lat="43.741" lon="3.5253">
        <ele>351.9</ele>
        <time>2014-04-30T13:36:31Z</time>
      </trkpt>
      <trkpt lat="43.74089" lon="3.52533">
        <ele>349.1</ele>
        <time>2014-04-30T13:36:35Z</time>
      </trkpt>
      <trkpt lat="43.7408" lon="3.52532">
        <ele>347.1</ele>
        <time>2014-04-30T13:36:40Z</time>
      </trkpt>
      <trkpt lat="43.74073" lon="3.52524">
        <ele>345.5</ele>
        <time>2014-04-30T13:36:45Z</time>
      </trkpt>
      <trkpt lat="43.74065" lon="3.52513">
        <ele>344.4</ele>
        <time>2014-04-30T13:36:50Z</time>
      </trkpt>
      <trkpt lat="43.74057" lon="3.52506">
        <ele>342</ele>
        <time>2014-04-30T13:36:55Z</time>
      </trkpt>
      <trkpt lat="43.74047" lon="3.52497">
        <ele>339.9</ele>
        <time>2014-04-30T13:37:00Z</time>
      </trkpt>
      <trkpt lat="43.74044" lon="3.52485">
        <ele>338.8</ele>
        <time>2014-04-30T13:37:04Z</time>
      </trkpt>
      <trkpt lat="43.74042" lon="3.52472">
        <ele>337</ele>
        <time>2014-04-30T13:37:08Z</time>
      </trkpt>
      <trkpt lat="43.74035" lon="3.52461">
        <ele>334.6</ele>
        <time>2014-04-30T13:37:12Z</time>
      </trkpt>
      <trkpt lat="43.7403" lon="3.52451">
        <ele>331.6</ele>
        <time>2014-04-30T13:37:29Z</time>
      </trkpt>
      <trkpt lat="43.74024" lon="3.52438">
        <ele>330.1</ele>
        <time>2014-04-30T13:37:34Z</time>
      </trkpt>
      <trkpt lat="43.74018" lon="3.52425">
        <ele>328.3</ele>
        <time>2014-04-30T13:37:38Z</time>
      </trkpt>
      <trkpt lat="43.74012" lon="3.52412">
        <ele>326.5</ele>
        <time>2014-04-30T13:37:42Z</time>
      </trkpt>
      <trkpt lat="43.74006" lon="3.524">
        <ele>325.6</ele>
        <time>2014-04-30T13:37:46Z</time>
      </trkpt>
      <trkpt lat="43.73997" lon="3.52391">
        <ele>324.7</ele>
        <time>2014-04-30T13:37:50Z</time>
      </trkpt>
      <trkpt lat="43.73992" lon="3.52379">
        <ele>322.5</ele>
        <time>2014-04-30T13:37:54Z</time>
      </trkpt>
      <trkpt lat="43.73988" lon="3.52367">
        <ele>322.1</ele>
        <time>2014-04-30T13:37:57Z</time>
      </trkpt>
      <trkpt lat="43.73987" lon="3.52354">
        <ele>322.4</ele>
        <time>2014-04-30T13:38:00Z</time>
      </trkpt>
      <trkpt lat="43.73987" lon="3.52339">
        <ele>320.5</ele>
        <time>2014-04-30T13:38:04Z</time>
      </trkpt>
      <trkpt lat="43.73987" lon="3.52326">
        <ele>319.6</ele>
        <time>2014-04-30T13:38:08Z</time>
      </trkpt>
      <trkpt lat="43.73988" lon="3.5231">
        <ele>317</ele>
        <time>2014-04-30T13:38:12Z</time>
      </trkpt>
      <trkpt lat="43.7399" lon="3.52297">
        <ele>316</ele>
        <time>2014-04-30T13:38:15Z</time>
      </trkpt>
      <trkpt lat="43.73991" lon="3.52284">
        <ele>314.3</ele>
        <time>2014-04-30T13:38:18Z</time>
      </trkpt>
      <trkpt lat="43.73993" lon="3.52272">
        <ele>310.5</ele>
        <time>2014-04-30T13:38:31Z</time>
      </trkpt>
      <trkpt lat="43.73994" lon="3.5226">
        <ele>310.5</ele>
        <time>2014-04-30T13:38:34Z</time>
      </trkpt>
      <trkpt lat="43.73988" lon="3.5225">
        <ele>309.4</ele>
        <time>2014-04-30T13:38:39Z</time>
      </trkpt>
      <trkpt lat="43.73979" lon="3.52254">
        <ele>311.1</ele>
        <time>2014-04-30T13:38:45Z</time>
      </trkpt>
      <trkpt lat="43.7397" lon="3.52259">
        <ele>312.1</ele>
        <time>2014-04-30T13:38:52Z</time>
      </trkpt>
      <trkpt lat="43.73962" lon="3.5227">
        <ele>313.1</ele>
        <time>2014-04-30T13:38:57Z</time>
      </trkpt>
      <trkpt lat="43.73954" lon="3.5228">
        <ele>312.3</ele>
        <time>2014-04-30T13:39:01Z</time>
      </trkpt>
      <trkpt lat="43.73948" lon="3.5229">
        <ele>312.4</ele>
        <time>2014-04-30T13:39:05Z</time>
      </trkpt>
      <trkpt lat="43.73942" lon="3.523">
        <ele>311.8</ele>
        <time>2014-04-30T13:39:10Z</time>
      </trkpt>
      <trkpt lat="43.73935" lon="3.5231">
        <ele>313</ele>
        <time>2014-04-30T13:39:17Z</time>
      </trkpt>
      <trkpt lat="43.7393" lon="3.52323">
        <ele>313.7</ele>
        <time>2014-04-30T13:39:24Z</time>
      </trkpt>
      <trkpt lat="43.73925" lon="3.52336">
        <ele>316.8</ele>
        <time>2014-04-30T13:39:36Z</time>
      </trkpt>
      <trkpt lat="43.73925" lon="3.52349">
        <ele>316.7</ele>
        <time>2014-04-30T13:39:40Z</time>
      </trkpt>
      <trkpt lat="43.73924" lon="3.52362">
        <ele>316.5</ele>
        <time>2014-04-30T13:39:44Z</time>
      </trkpt>
      <trkpt lat="43.73925" lon="3.52375">
        <ele>316.3</ele>
        <time>2014-04-30T13:39:50Z</time>
      </trkpt>
      <trkpt lat="43.73924" lon="3.52389">
        <ele>317.7</ele>
        <time>2014-04-30T13:39:56Z</time>
      </trkpt>
      <trkpt lat="43.73925" lon="3.52402">
        <ele>317.4</ele>
        <time>2014-04-30T13:40:02Z</time>
      </trkpt>
      <trkpt lat="43.73928" lon="3.52414">
        <ele>317.9</ele>
        <time>2014-04-30T13:40:46Z</time>
      </trkpt>
      <trkpt lat="43.73932" lon="3.52426">
        <ele>319</ele>
        <time>2014-04-30T13:40:50Z</time>
      </trkpt>
      <trkpt lat="43.73932" lon="3.5244">
        <ele>319</ele>
        <time>2014-04-30T13:40:55Z</time>
      </trkpt>
      <trkpt lat="43.73934" lon="3.52454">
        <ele>319.6</ele>
        <time>2014-04-30T13:41:01Z</time>
      </trkpt>
      <trkpt lat="43.73935" lon="3.52468">
        <ele>319.9</ele>
        <time>2014-04-30T13:41:06Z</time>
      </trkpt>
      <trkpt lat="43.73933" lon="3.52483">
        <ele>320.2</ele>
        <time>2014-04-30T13:41:12Z</time>
      </trkpt>
      <trkpt lat="43.73932" lon="3.52496">
        <ele>321.2</ele>
        <time>2014-04-30T13:41:17Z</time>
      </trkpt>
      <trkpt lat="43.73938" lon="3.52508">
        <ele>322.5</ele>
        <time>2014-04-30T13:41:23Z</time>
      </trkpt>
      <trkpt lat="43.73943" lon="3.52521">
        <ele>322.6</ele>
        <time>2014-04-30T13:41:28Z</time>
      </trkpt>
      <trkpt lat="43.73943" lon="3.52536">
        <ele>322.3</ele>
        <time>2014-04-30T13:41:33Z</time>
      </trkpt>
      <trkpt lat="43.7394" lon="3.52549">
        <ele>323.7</ele>
        <time>2014-04-30T13:41:37Z</time>
      </trkpt>
      <trkpt lat="43.73931" lon="3.52557">
        <ele>323.4</ele>
        <time>2014-04-30T13:41:42Z</time>
      </trkpt>
      <trkpt lat="43.73921" lon="3.52561">
        <ele>324.3</ele>
        <time>2014-04-30T13:41:47Z</time>
      </trkpt>
      <trkpt lat="43.73917" lon="3.52573">
        <ele>324.7</ele>
        <time>2014-04-30T13:41:54Z</time>
      </trkpt>
      <trkpt lat="43.73924" lon="3.52583">
        <ele>326.7</ele>
        <time>2014-04-30T13:41:59Z</time>
      </trkpt>
      <trkpt lat="43.73931" lon="3.52591">
        <ele>327</ele>
        <time>2014-04-30T13:42:04Z</time>
      </trkpt>
      <trkpt lat="43.73938" lon="3.52601">
        <ele>327.6</ele>
        <time>2014-04-30T13:42:09Z</time>
      </trkpt>
      <trkpt lat="43.73945" lon="3.52611">
        <ele>328.5</ele>
        <time>2014-04-30T13:42:14Z</time>
      </trkpt>
      <trkpt lat="43.7395" lon="3.52625">
        <ele>329</ele>
        <time>2014-04-30T13:42:18Z</time>
      </trkpt>
      <trkpt lat="43.73949" lon="3.52638">
        <ele>330.1</ele>
        <time>2014-04-30T13:42:22Z</time>
      </trkpt>
      <trkpt lat="43.73951" lon="3.52653">
        <ele>330.4</ele>
        <time>2014-04-30T13:42:26Z</time>
      </trkpt>
      <trkpt lat="43.73955" lon="3.52664">
        <ele>329.6</ele>
        <time>2014-04-30T13:42:29Z</time>
      </trkpt>
      <trkpt lat="43.73958" lon="3.52677">
        <ele>328.3</ele>
        <time>2014-04-30T13:42:32Z</time>
      </trkpt>
      <trkpt lat="43.73961" lon="3.5269">
        <ele>328.3</ele>
        <time>2014-04-30T13:42:35Z</time>
      </trkpt>
      <trkpt lat="43.73963" lon="3.52705">
        <ele>330.3</ele>
        <time>2014-04-30T13:42:39Z</time>
      </trkpt>
      <trkpt lat="43.73966" lon="3.52719">
        <ele>331.2</ele>
        <time>2014-04-30T13:42:43Z</time>
      </trkpt>
      <trkpt lat="43.73967" lon="3.52733">
        <ele>331.9</ele>
        <time>2014-04-30T13:42:47Z</time>
      </trkpt>
      <trkpt lat="43.73967" lon="3.52748">
        <ele>332.9</ele>
        <time>2014-04-30T13:42:52Z</time>
      </trkpt>
      <trkpt lat="43.73968" lon="3.5276">
        <ele>333.1</ele>
        <time>2014-04-30T13:42:57Z</time>
      </trkpt>
      <trkpt lat="43.7397" lon="3.52775">
        <ele>335</ele>
        <time>2014-04-30T13:43:04Z</time>
      </trkpt>
      <trkpt lat="43.73968" lon="3.52788">
        <ele>336</ele>
        <time>2014-04-30T13:43:10Z</time>
      </trkpt>
      <trkpt lat="43.73964" lon="3.52799">
        <ele>337.2</ele>
        <time>2014-04-30T13:43:16Z</time>
      </trkpt>
      <trkpt lat="43.73957" lon="3.52809">
        <ele>338.2</ele>
        <time>2014-04-30T13:43:23Z</time>
      </trkpt>
      <trkpt lat="43.73955" lon="3.52824">
        <ele>339.1</ele>
        <time>2014-04-30T13:43:30Z</time>
      </trkpt>
      <trkpt lat="43.73955" lon="3.52837">
        <ele>339.5</ele>
        <time>2014-04-30T13:43:37Z</time>
      </trkpt>
      <trkpt lat="43.73954" lon="3.5285">
        <ele>341.5</ele>
        <time>2014-04-30T13:43:42Z</time>
      </trkpt>
      <trkpt lat="43.73952" lon="3.52863">
        <ele>342.8</ele>
        <time>2014-04-30T13:43:47Z</time>
      </trkpt>
      <trkpt lat="43.7395" lon="3.52878">
        <ele>342.7</ele>
        <time>2014-04-30T13:43:53Z</time>
      </trkpt>
      <trkpt lat="43.73948" lon="3.5289">
        <ele>342.5</ele>
        <time>2014-04-30T13:43:57Z</time>
      </trkpt>
      <trkpt lat="43.73946" lon="3.52905">
        <ele>343</ele>
        <time>2014-04-30T13:44:02Z</time>
      </trkpt>
      <trkpt lat="43.73945" lon="3.5292">
        <ele>344.4</ele>
        <time>2014-04-30T13:44:07Z</time>
      </trkpt>
      <trkpt lat="43.73944" lon="3.52933">
        <ele>343.6</ele>
        <time>2014-04-30T13:44:12Z</time>
      </trkpt>
      <trkpt lat="43.73943" lon="3.52947">
        <ele>344.6</ele>
        <time>2014-04-30T13:44:25Z</time>
      </trkpt>
      <trkpt lat="43.73942" lon="3.52961">
        <ele>346.7</ele>
        <time>2014-04-30T13:44:29Z</time>
      </trkpt>
      <trkpt lat="43.73943" lon="3.52975">
        <ele>347.1</ele>
        <time>2014-04-30T13:44:33Z</time>
      </trkpt>
      <trkpt lat="43.73942" lon="3.52988">
        <ele>348.1</ele>
        <time>2014-04-30T13:44:37Z</time>
      </trkpt>
      <trkpt lat="43.73941" lon="3.53003">
        <ele>349.1</ele>
        <time>2014-04-30T13:44:42Z</time>
      </trkpt>
      <trkpt lat="43.73937" lon="3.53016">
        <ele>348.3</ele>
        <time>2014-04-30T13:44:47Z</time>
      </trkpt>
      <trkpt lat="43.73929" lon="3.53024">
        <ele>349.7</ele>
        <time>2014-04-30T13:44:52Z</time>
      </trkpt>
      <trkpt lat="43.7392" lon="3.53031">
        <ele>351.6</ele>
        <time>2014-04-30T13:44:59Z</time>
      </trkpt>
      <trkpt lat="43.7391" lon="3.53035">
        <ele>354.5</ele>
        <time>2014-04-30T13:45:12Z</time>
      </trkpt>
      <trkpt lat="43.739" lon="3.53036">
        <ele>355.6</ele>
        <time>2014-04-30T13:45:17Z</time>
      </trkpt>
      <trkpt lat="43.73889" lon="3.53038">
        <ele>362.3</ele>
        <time>2014-04-30T13:45:43Z</time>
      </trkpt>
      <trkpt lat="43.73879" lon="3.5304">
        <ele>363.4</ele>
        <time>2014-04-30T13:45:46Z</time>
      </trkpt>
      <trkpt lat="43.7387" lon="3.53041">
        <ele>366.6</ele>
        <time>2014-04-30T13:47:08Z</time>
      </trkpt>
      <trkpt lat="43.73861" lon="3.53039">
        <ele>368.3</ele>
        <time>2014-04-30T13:47:11Z</time>
      </trkpt>
      <trkpt lat="43.73851" lon="3.53033">
        <ele>368.9</ele>
        <time>2014-04-30T13:47:26Z</time>
      </trkpt>
      <trkpt lat="43.73847" lon="3.5302">
        <ele>368.3</ele>
        <time>2014-04-30T13:48:37Z</time>
      </trkpt>
      <trkpt lat="43.73842" lon="3.53006">
        <ele>366.3</ele>
        <time>2014-04-30T13:48:41Z</time>
      </trkpt>
      <trkpt lat="43.73841" lon="3.52991">
        <ele>365.9</ele>
        <time>2014-04-30T13:48:45Z</time>
      </trkpt>
      <trkpt lat="43.73834" lon="3.52983">
        <ele>361.9</ele>
        <time>2014-04-30T13:48:49Z</time>
      </trkpt>
      <trkpt lat="43.73824" lon="3.52977">
        <ele>359.7</ele>
        <time>2014-04-30T13:48:52Z</time>
      </trkpt>
      <trkpt lat="43.73815" lon="3.52977">
        <ele>359</ele>
        <time>2014-04-30T13:48:55Z</time>
      </trkpt>
      <trkpt lat="43.73804" lon="3.52983">
        <ele>360</ele>
        <time>2014-04-30T13:48:59Z</time>
      </trkpt>
      <trkpt lat="43.73796" lon="3.52993">
        <ele>360.9</ele>
        <time>2014-04-30T13:49:03Z</time>
      </trkpt>
      <trkpt lat="43.73785" lon="3.52989">
        <ele>358.9</ele>
        <time>2014-04-30T13:49:32Z</time>
      </trkpt>
      <trkpt lat="43.73793" lon="3.52998">
        <ele>347.8</ele>
        <time>2014-04-30T13:50:06Z</time>
      </trkpt>
      <trkpt lat="43.738" lon="3.53007">
        <ele>346.1</ele>
        <time>2014-04-30T13:50:10Z</time>
      </trkpt>
      <trkpt lat="43.73765" lon="3.53022">
        <ele>335.9</ele>
        <time>2014-04-30T13:50:44Z</time>
      </trkpt>
      <trkpt lat="43.73733" lon="3.53049">
        <ele>313.1</ele>
        <time>2014-04-30T13:51:05Z</time>
      </trkpt>
      <trkpt lat="43.73682" lon="3.53085">
        <ele>276.6</ele>
        <time>2014-04-30T13:52:07Z</time>
      </trkpt>
      <trkpt lat="43.73654" lon="3.53136">
        <ele>253.1</ele>
        <time>2014-04-30T13:52:43Z</time>
      </trkpt>
      <trkpt lat="43.73643" lon="3.53184">
        <ele>237.6</ele>
        <time>2014-04-30T13:52:47Z</time>
      </trkpt>
      <trkpt lat="43.73638" lon="3.53247">
        <ele>224.1</ele>
        <time>2014-04-30T13:53:46Z</time>
      </trkpt>
      <trkpt lat="43.73637" lon="3.53289">
        <ele>211.6</ele>
        <time>2014-04-30T13:54:46Z</time>
      </trkpt>
      <trkpt lat="43.73608" lon="3.53335">
        <ele>213.7</ele>
        <time>2014-04-30T13:54:52Z</time>
      </trkpt>
      <trkpt lat="43.73609" lon="3.53381">
        <ele>202.2</ele>
        <time>2014-04-30T13:54:56Z</time>
      </trkpt>
      <trkpt lat="43.73614" lon="3.53423">
        <ele>191</ele>
        <time>2014-04-30T13:55:00Z</time>
      </trkpt>
      <trkpt lat="43.73613" lon="3.53465">
        <ele>189.1</ele>
        <time>2014-04-30T13:55:04Z</time>
      </trkpt>
      <trkpt lat="43.73615" lon="3.53507">
        <ele>186.9</ele>
        <time>2014-04-30T13:55:08Z</time>
      </trkpt>
      <trkpt lat="43.73612" lon="3.53576">
        <ele>193.1</ele>
        <time>2014-04-30T13:55:12Z</time>
      </trkpt>
      <trkpt lat="43.73615" lon="3.53634">
        <ele>194.6</ele>
        <time>2014-04-30T13:55:16Z</time>
      </trkpt>
      <trkpt lat="43.73623" lon="3.53695">
        <ele>192.2</ele>
        <time>2014-04-30T13:55:20Z</time>
      </trkpt>
      <trkpt lat="43.73635" lon="3.5376">
        <ele>184</ele>
        <time>2014-04-30T13:55:27Z</time>
      </trkpt>
      <trkpt lat="43.73635" lon="3.53828">
        <ele>182.2</ele>
        <time>2014-04-30T13:55:40Z</time>
      </trkpt>
      <trkpt lat="43.73621" lon="3.53883">
        <ele>183.8</ele>
        <time>2014-04-30T13:55:53Z</time>
      </trkpt>
      <trkpt lat="43.73593" lon="3.53945">
        <ele>188.8</ele>
        <time>2014-04-30T13:55:57Z</time>
      </trkpt>
      <trkpt lat="43.73576" lon="3.53975">
        <ele>191.9</ele>
        <time>2014-04-30T13:55:59Z</time>
      </trkpt>
      <trkpt lat="43.73554" lon="3.53986">
        <ele>198.3</ele>
        <time>2014-04-30T13:56:02Z</time>
      </trkpt>
      <trkpt lat="43.73525" lon="3.53988">
        <ele>209.6</ele>
        <time>2014-04-30T13:56:07Z</time>
      </trkpt>
      <trkpt lat="43.73505" lon="3.53994">
        <ele>215</ele>
        <time>2014-04-30T13:56:10Z</time>
      </trkpt>
      <trkpt lat="43.7352" lon="3.54025">
        <ele>201.5</ele>
        <time>2014-04-30T13:56:18Z</time>
      </trkpt>
      <trkpt lat="43.73528" lon="3.54051">
        <ele>193.1</ele>
        <time>2014-04-30T13:56:22Z</time>
      </trkpt>
      <trkpt lat="43.73529" lon="3.54083">
        <ele>185.9</ele>
        <time>2014-04-30T13:56:26Z</time>
      </trkpt>
      <trkpt lat="43.73532" lon="3.54109">
        <ele>185</ele>
        <time>2014-04-30T13:56:30Z</time>
      </trkpt>
      <trkpt lat="43.73542" lon="3.5413">
        <ele>181.1</ele>
        <time>2014-04-30T13:56:37Z</time>
      </trkpt>
      <trkpt lat="43.73559" lon="3.5414">
        <ele>173.6</ele>
        <time>2014-04-30T13:56:48Z</time>
      </trkpt>
      <trkpt lat="43.73572" lon="3.54172">
        <ele>166.3</ele>
        <time>2014-04-30T13:56:51Z</time>
      </trkpt>
      <trkpt lat="43.7358" lon="3.542">
        <ele>161.8</ele>
        <time>2014-04-30T13:56:54Z</time>
      </trkpt>
      <trkpt lat="43.73588" lon="3.54226">
        <ele>157.6</ele>
        <time>2014-04-30T13:56:57Z</time>
      </trkpt>
      <trkpt lat="43.73602" lon="3.54251">
        <ele>151.6</ele>
        <time>2014-04-30T14:00:24Z</time>
      </trkpt>
      <trkpt lat="43.73605" lon="3.54231">
        <ele>150.5</ele>
        <time>2014-04-30T14:00:27Z</time>
      </trkpt>
      <trkpt lat="43.73608" lon="3.54213">
        <ele>149.5</ele>
        <time>2014-04-30T14:00:31Z</time>
      </trkpt>
      <trkpt lat="43.73605" lon="3.54189">
        <ele>151.2</ele>
        <time>2014-04-30T14:00:35Z</time>
      </trkpt>
      <trkpt lat="43.7361" lon="3.54162">
        <ele>150.2</ele>
        <time>2014-04-30T14:00:38Z</time>
      </trkpt>
      <trkpt lat="43.73617" lon="3.54148">
        <ele>201.4</ele>
        <time>2014-04-30T14:00:43Z</time>
      </trkpt>
      <trkpt lat="43.73622" lon="3.54161">
        <ele>199.7</ele>
        <time>2014-04-30T14:00:53Z</time>
      </trkpt>
      <trkpt lat="43.73625" lon="3.54175">
        <ele>197.5</ele>
        <time>2014-04-30T14:00:57Z</time>
      </trkpt>
      <trkpt lat="43.73628" lon="3.54186">
        <ele>196</ele>
        <time>2014-04-30T14:01:00Z</time>
      </trkpt>
      <trkpt lat="43.73631" lon="3.54199">
        <ele>194.6</ele>
        <time>2014-04-30T14:01:03Z</time>
      </trkpt>
      <trkpt lat="43.73635" lon="3.54214">
        <ele>192.7</ele>
        <time>2014-04-30T14:01:07Z</time>
      </trkpt>
      <trkpt lat="43.73637" lon="3.54231">
        <ele>190.8</ele>
        <time>2014-04-30T14:01:10Z</time>
      </trkpt>
      <trkpt lat="43.73637" lon="3.54247">
        <ele>189.6</ele>
        <time>2014-04-30T14:01:13Z</time>
      </trkpt>
      <trkpt lat="43.73637" lon="3.54259">
        <ele>188.5</ele>
        <time>2014-04-30T14:01:16Z</time>
      </trkpt>
      <trkpt lat="43.73635" lon="3.54272">
        <ele>186.9</ele>
        <time>2014-04-30T14:01:19Z</time>
      </trkpt>
      <trkpt lat="43.73631" lon="3.54287">
        <ele>184.6</ele>
        <time>2014-04-30T14:01:24Z</time>
      </trkpt>
      <trkpt lat="43.73624" lon="3.54301">
        <ele>184.1</ele>
        <time>2014-04-30T14:01:28Z</time>
      </trkpt>
      <trkpt lat="43.73619" lon="3.54315">
        <ele>182.5</ele>
        <time>2014-04-30T14:01:31Z</time>
      </trkpt>
      <trkpt lat="43.73617" lon="3.54331">
        <ele>181</ele>
        <time>2014-04-30T14:01:34Z</time>
      </trkpt>
      <trkpt lat="43.73614" lon="3.54347">
        <ele>179.7</ele>
        <time>2014-04-30T14:01:37Z</time>
      </trkpt>
      <trkpt lat="43.73614" lon="3.54364">
        <ele>178.1</ele>
        <time>2014-04-30T14:01:41Z</time>
      </trkpt>
      <trkpt lat="43.73615" lon="3.54381">
        <ele>175.7</ele>
        <time>2014-04-30T14:01:44Z</time>
      </trkpt>
      <trkpt lat="43.73613" lon="3.54398">
        <ele>174.4</ele>
        <time>2014-04-30T14:01:47Z</time>
      </trkpt>
      <trkpt lat="43.73613" lon="3.54412">
        <ele>172.7</ele>
        <time>2014-04-30T14:01:51Z</time>
      </trkpt>
      <trkpt lat="43.73612" lon="3.54425">
        <ele>171.6</ele>
        <time>2014-04-30T14:01:54Z</time>
      </trkpt>
      <trkpt lat="43.7361" lon="3.54438">
        <ele>169.7</ele>
        <time>2014-04-30T14:01:57Z</time>
      </trkpt>
      <trkpt lat="43.7362" lon="3.54435">
        <ele>165.3</ele>
        <time>2014-04-30T14:02:08Z</time>
      </trkpt>
      <trkpt lat="43.73628" lon="3.54421">
        <ele>162.8</ele>
        <time>2014-04-30T14:02:11Z</time>
      </trkpt>
      <trkpt lat="43.73634" lon="3.54411">
        <ele>161.2</ele>
        <time>2014-04-30T14:02:14Z</time>
      </trkpt>
      <trkpt lat="43.73639" lon="3.544">
        <ele>160.3</ele>
        <time>2014-04-30T14:02:19Z</time>
      </trkpt>
      <trkpt lat="43.73646" lon="3.54411">
        <ele>156.9</ele>
        <time>2014-04-30T14:02:26Z</time>
      </trkpt>
      <trkpt lat="43.73644" lon="3.5443">
        <ele>155.3</ele>
        <time>2014-04-30T14:02:29Z</time>
      </trkpt>
      <trkpt lat="43.73643" lon="3.54444">
        <ele>154.4</ele>
        <time>2014-04-30T14:02:31Z</time>
      </trkpt>
      <trkpt lat="43.73642" lon="3.54457">
        <ele>153.4</ele>
        <time>2014-04-30T14:02:33Z</time>
      </trkpt>
      <trkpt lat="43.7364" lon="3.54471">
        <ele>152.7</ele>
        <time>2014-04-30T14:02:35Z</time>
      </trkpt>
      <trkpt lat="43.73638" lon="3.54486">
        <ele>151.5</ele>
        <time>2014-04-30T14:02:37Z</time>
      </trkpt>
      <trkpt lat="43.73637" lon="3.54502">
        <ele>150</ele>
        <time>2014-04-30T14:02:40Z</time>
      </trkpt>
      <trkpt lat="43.73638" lon="3.54587">
        <ele>139</ele>
        <time>2014-04-30T14:02:56Z</time>
      </trkpt>
      <trkpt lat="43.7364" lon="3.54622">
        <ele>132.8</ele>
        <time>2014-04-30T14:03:03Z</time>
      </trkpt>
      <trkpt lat="43.73641" lon="3.54636">
        <ele>129</ele>
        <time>2014-04-30T14:03:09Z</time>
      </trkpt>
      <trkpt lat="43.7365" lon="3.54645">
        <ele>129.5</ele>
        <time>2014-04-30T14:03:30Z</time>
      </trkpt>
      <trkpt lat="43.73659" lon="3.54652">
        <ele>129.8</ele>
        <time>2014-04-30T14:03:32Z</time>
      </trkpt>
      <trkpt lat="43.7367" lon="3.54656">
        <ele>129</ele>
        <time>2014-04-30T14:03:35Z</time>
      </trkpt>
      <trkpt lat="43.7368" lon="3.54652">
        <ele>127.8</ele>
        <time>2014-04-30T14:03:38Z</time>
      </trkpt>
      <trkpt lat="43.7369" lon="3.54647">
        <ele>127.2</ele>
        <time>2014-04-30T14:03:43Z</time>
      </trkpt>
      <trkpt lat="43.7369" lon="3.54662">
        <ele>126.8</ele>
        <time>2014-04-30T14:03:50Z</time>
      </trkpt>
      <trkpt lat="43.73684" lon="3.54677">
        <ele>126.8</ele>
        <time>2014-04-30T14:03:54Z</time>
      </trkpt>
      <trkpt lat="43.73681" lon="3.54694">
        <ele>126.7</ele>
        <time>2014-04-30T14:03:57Z</time>
      </trkpt>
      <trkpt lat="43.73681" lon="3.54712">
        <ele>126</ele>
        <time>2014-04-30T14:04:00Z</time>
      </trkpt>
      <trkpt lat="43.73681" lon="3.5473">
        <ele>125.8</ele>
        <time>2014-04-30T14:04:03Z</time>
      </trkpt>
      <trkpt lat="43.73679" lon="3.54747">
        <ele>125.5</ele>
        <time>2014-04-30T14:04:06Z</time>
      </trkpt>
      <trkpt lat="43.73675" lon="3.54759">
        <ele>125.1</ele>
        <time>2014-04-30T14:04:08Z</time>
      </trkpt>
      <trkpt lat="43.73669" lon="3.5477">
        <ele>124.7</ele>
        <time>2014-04-30T14:04:10Z</time>
      </trkpt>
      <trkpt lat="43.73658" lon="3.54779">
        <ele>124.7</ele>
        <time>2014-04-30T14:04:13Z</time>
      </trkpt>
      <trkpt lat="43.73649" lon="3.54786">
        <ele>124.3</ele>
        <time>2014-04-30T14:04:16Z</time>
      </trkpt>
      <trkpt lat="43.73639" lon="3.54788">
        <ele>123.9</ele>
        <time>2014-04-30T14:04:19Z</time>
      </trkpt>
      <trkpt lat="43.7363" lon="3.54787">
        <ele>123.5</ele>
        <time>2014-04-30T14:04:23Z</time>
      </trkpt>
      <trkpt lat="43.73621" lon="3.54785">
        <ele>123.8</ele>
        <time>2014-04-30T14:04:27Z</time>
      </trkpt>
      <trkpt lat="43.73611" lon="3.54785">
        <ele>124.8</ele>
        <time>2014-04-30T14:04:30Z</time>
      </trkpt>
      <trkpt lat="43.73601" lon="3.54784">
        <ele>125</ele>
        <time>2014-04-30T14:04:33Z</time>
      </trkpt>
      <trkpt lat="43.73591" lon="3.54786">
        <ele>124</ele>
        <time>2014-04-30T14:04:36Z</time>
      </trkpt>
      <trkpt lat="43.73578" lon="3.54786">
        <ele>123</ele>
        <time>2014-04-30T14:04:39Z</time>
      </trkpt>
      <trkpt lat="43.73569" lon="3.54788">
        <ele>122.7</ele>
        <time>2014-04-30T14:04:41Z</time>
      </trkpt>
      <trkpt lat="43.73557" lon="3.54793">
        <ele>122.5</ele>
        <time>2014-04-30T14:04:44Z</time>
      </trkpt>
      <trkpt lat="43.73546" lon="3.54797">
        <ele>122.4</ele>
        <time>2014-04-30T14:04:47Z</time>
      </trkpt>
      <trkpt lat="43.73534" lon="3.54798">
        <ele>122.3</ele>
        <time>2014-04-30T14:04:50Z</time>
      </trkpt>
      <trkpt lat="43.73522" lon="3.54799">
        <ele>122.2</ele>
        <time>2014-04-30T14:04:53Z</time>
      </trkpt>
      <trkpt lat="43.73499" lon="3.548">
        <ele>121</ele>
        <time>2014-04-30T14:04:59Z</time>
      </trkpt>
      <trkpt lat="43.73359" lon="3.54987">
        <ele>119</ele>
        <time>2014-04-30T14:06:47Z</time>
      </trkpt>
      <trkpt lat="43.73319" lon="3.55077">
        <ele>116.7</ele>
        <time>2014-04-30T14:07:25Z</time>
      </trkpt>
      <trkpt lat="43.73321" lon="3.55094">
        <ele>116.1</ele>
        <time>2014-04-30T14:07:27Z</time>
      </trkpt>
      <trkpt lat="43.73323" lon="3.55113">
        <ele>115.7</ele>
        <time>2014-04-30T14:07:29Z</time>
      </trkpt>
      <trkpt lat="43.73326" lon="3.55133">
        <ele>115.2</ele>
        <time>2014-04-30T14:07:31Z</time>
      </trkpt>
      <trkpt lat="43.73332" lon="3.55152">
        <ele>114.4</ele>
        <time>2014-04-30T14:07:33Z</time>
      </trkpt>
      <trkpt lat="43.73337" lon="3.55171">
        <ele>113.4</ele>
        <time>2014-04-30T14:07:35Z</time>
      </trkpt>
      <trkpt lat="43.73343" lon="3.55189">
        <ele>111.9</ele>
        <time>2014-04-30T14:07:37Z</time>
      </trkpt>
      <trkpt lat="43.73346" lon="3.55208">
        <ele>110.7</ele>
        <time>2014-04-30T14:07:39Z</time>
      </trkpt>
      <trkpt lat="43.73344" lon="3.55225">
        <ele>109.9</ele>
        <time>2014-04-30T14:07:41Z</time>
      </trkpt>
      <trkpt lat="43.7334" lon="3.55242">
        <ele>108.9</ele>
        <time>2014-04-30T14:07:43Z</time>
      </trkpt>
      <trkpt lat="43.73335" lon="3.5526">
        <ele>108.4</ele>
        <time>2014-04-30T14:07:45Z</time>
      </trkpt>
      <trkpt lat="43.7333" lon="3.55277">
        <ele>107.8</ele>
        <time>2014-04-30T14:07:47Z</time>
      </trkpt>
      <trkpt lat="43.73325" lon="3.55289">
        <ele>107.1</ele>
        <time>2014-04-30T14:07:49Z</time>
      </trkpt>
      <trkpt lat="43.73319" lon="3.55302">
        <ele>106.5</ele>
        <time>2014-04-30T14:07:51Z</time>
      </trkpt>
      <trkpt lat="43.73312" lon="3.55313">
        <ele>105.1</ele>
        <time>2014-04-30T14:07:53Z</time>
      </trkpt>
      <trkpt lat="43.73305" lon="3.55325">
        <ele>104.9</ele>
        <time>2014-04-30T14:07:55Z</time>
      </trkpt>
      <trkpt lat="43.73302" lon="3.55337">
        <ele>105.3</ele>
        <time>2014-04-30T14:07:57Z</time>
      </trkpt>
      <trkpt lat="43.73297" lon="3.5535">
        <ele>102.5</ele>
        <time>2014-04-30T14:08:01Z</time>
      </trkpt>
      <trkpt lat="43.73287" lon="3.55359">
        <ele>99.7</ele>
        <time>2014-04-30T14:08:14Z</time>
      </trkpt>
      <trkpt lat="43.73275" lon="3.5536">
        <ele>99.4</ele>
        <time>2014-04-30T14:08:17Z</time>
      </trkpt>
      <trkpt lat="43.73125" lon="3.55314">
        <ele>93</ele>
        <time>2014-04-30T14:08:43Z</time>
      </trkpt>
      <trkpt lat="43.73114" lon="3.55311">
        <ele>93.2</ele>
        <time>2014-04-30T14:08:46Z</time>
      </trkpt>
      <trkpt lat="43.73103" lon="3.55308">
        <ele>92.6</ele>
        <time>2014-04-30T14:08:49Z</time>
      </trkpt>
      <trkpt lat="43.73092" lon="3.55305">
        <ele>92.5</ele>
        <time>2014-04-30T14:08:52Z</time>
      </trkpt>
      <trkpt lat="43.73081" lon="3.553">
        <ele>92</ele>
        <time>2014-04-30T14:08:55Z</time>
      </trkpt>
      <trkpt lat="43.73071" lon="3.55297">
        <ele>92.2</ele>
        <time>2014-04-30T14:08:58Z</time>
      </trkpt>
      <trkpt lat="43.73061" lon="3.55292">
        <ele>91.2</ele>
        <time>2014-04-30T14:09:01Z</time>
      </trkpt>
      <trkpt lat="43.73052" lon="3.55287">
        <ele>90.8</ele>
        <time>2014-04-30T14:09:05Z</time>
      </trkpt>
      <trkpt lat="43.7304" lon="3.55282">
        <ele>88.8</ele>
        <time>2014-04-30T14:10:00Z</time>
      </trkpt>
      <trkpt lat="43.7303" lon="3.55276">
        <ele>89.3</ele>
        <time>2014-04-30T14:10:03Z</time>
      </trkpt>
      <trkpt lat="43.73018" lon="3.55269">
        <ele>89.3</ele>
        <time>2014-04-30T14:10:06Z</time>
      </trkpt>
      <trkpt lat="43.73009" lon="3.55264">
        <ele>88.9</ele>
        <time>2014-04-30T14:10:08Z</time>
      </trkpt>
      <trkpt lat="43.73" lon="3.55259">
        <ele>89.4</ele>
        <time>2014-04-30T14:10:10Z</time>
      </trkpt>
      <trkpt lat="43.72991" lon="3.55254">
        <ele>89.6</ele>
        <time>2014-04-30T14:10:12Z</time>
      </trkpt>
      <trkpt lat="43.72981" lon="3.55248">
        <ele>89.7</ele>
        <time>2014-04-30T14:10:14Z</time>
      </trkpt>
      <trkpt lat="43.72972" lon="3.55241">
        <ele>89.7</ele>
        <time>2014-04-30T14:10:16Z</time>
      </trkpt>
      <trkpt lat="43.72963" lon="3.55234">
        <ele>89.6</ele>
        <time>2014-04-30T14:10:18Z</time>
      </trkpt>
      <trkpt lat="43.72954" lon="3.55226">
        <ele>90.1</ele>
        <time>2014-04-30T14:10:20Z</time>
      </trkpt>
      <trkpt lat="43.72945" lon="3.55218">
        <ele>90.3</ele>
        <time>2014-04-30T14:10:22Z</time>
      </trkpt>
      <trkpt lat="43.72937" lon="3.55211">
        <ele>90.4</ele>
        <time>2014-04-30T14:10:24Z</time>
      </trkpt>
      <trkpt lat="43.72929" lon="3.55203">
        <ele>90.8</ele>
        <time>2014-04-30T14:10:26Z</time>
      </trkpt>
      <trkpt lat="43.72921" lon="3.55196">
        <ele>90.9</ele>
        <time>2014-04-30T14:10:28Z</time>
      </trkpt>
      <trkpt lat="43.72913" lon="3.55188">
        <ele>90.9</ele>
        <time>2014-04-30T14:10:30Z</time>
      </trkpt>
      <trkpt lat="43.72904" lon="3.5518">
        <ele>91</ele>
        <time>2014-04-30T14:10:32Z</time>
      </trkpt>
      <trkpt lat="43.72896" lon="3.55172">
        <ele>91.2</ele>
        <time>2014-04-30T14:10:34Z</time>
      </trkpt>
      <trkpt lat="43.72888" lon="3.55164">
        <ele>91.2</ele>
        <time>2014-04-30T14:10:36Z</time>
      </trkpt>
      <trkpt lat="43.7288" lon="3.55155">
        <ele>91.6</ele>
        <time>2014-04-30T14:10:38Z</time>
      </trkpt>
      <trkpt lat="43.72872" lon="3.55146">
        <ele>92.2</ele>
        <time>2014-04-30T14:10:40Z</time>
      </trkpt>
      <trkpt lat="43.72863" lon="3.55137">
        <ele>90.9</ele>
        <time>2014-04-30T14:10:42Z</time>
      </trkpt>
      <trkpt lat="43.72854" lon="3.55127">
        <ele>90.4</ele>
        <time>2014-04-30T14:10:44Z</time>
      </trkpt>
      <trkpt lat="43.72844" lon="3.55119">
        <ele>90.1</ele>
        <time>2014-04-30T14:10:46Z</time>
      </trkpt>
      <trkpt lat="43.72834" lon="3.5511">
        <ele>90</ele>
        <time>2014-04-30T14:10:48Z</time>
      </trkpt>
      <trkpt lat="43.72824" lon="3.55103">
        <ele>89.9</ele>
        <time>2014-04-30T14:10:50Z</time>
      </trkpt>
      <trkpt lat="43.72814" lon="3.55095">
        <ele>89.9</ele>
        <time>2014-04-30T14:10:52Z</time>
      </trkpt>
      <trkpt lat="43.72804" lon="3.55088">
        <ele>89.9</ele>
        <time>2014-04-30T14:10:54Z</time>
      </trkpt>
      <trkpt lat="43.72793" lon="3.55081">
        <ele>89.8</ele>
        <time>2014-04-30T14:10:56Z</time>
      </trkpt>
      <trkpt lat="43.72783" lon="3.55073">
        <ele>89.7</ele>
        <time>2014-04-30T14:10:58Z</time>
      </trkpt>
      <trkpt lat="43.72773" lon="3.55066">
        <ele>90.1</ele>
        <time>2014-04-30T14:11:00Z</time>
      </trkpt>
      <trkpt lat="43.72763" lon="3.55057">
        <ele>90.6</ele>
        <time>2014-04-30T14:11:02Z</time>
      </trkpt>
      <trkpt lat="43.72753" lon="3.55048">
        <ele>90.5</ele>
        <time>2014-04-30T14:11:04Z</time>
      </trkpt>
      <trkpt lat="43.72743" lon="3.5504">
        <ele>90.1</ele>
        <time>2014-04-30T14:11:06Z</time>
      </trkpt>
      <trkpt lat="43.72733" lon="3.55034">
        <ele>90.7</ele>
        <time>2014-04-30T14:11:08Z</time>
      </trkpt>
      <trkpt lat="43.72721" lon="3.5503">
        <ele>91.1</ele>
        <time>2014-04-30T14:11:10Z</time>
      </trkpt>
      <trkpt lat="43.72709" lon="3.55026">
        <ele>91.5</ele>
        <time>2014-04-30T14:11:12Z</time>
      </trkpt>
      <trkpt lat="43.72696" lon="3.55022">
        <ele>90.7</ele>
        <time>2014-04-30T14:11:14Z</time>
      </trkpt>
      <trkpt lat="43.72683" lon="3.55019">
        <ele>89.7</ele>
        <time>2014-04-30T14:11:16Z</time>
      </trkpt>
      <trkpt lat="43.72668" lon="3.55016">
        <ele>88.7</ele>
        <time>2014-04-30T14:11:18Z</time>
      </trkpt>
      <trkpt lat="43.72654" lon="3.55013">
        <ele>88.8</ele>
        <time>2014-04-30T14:11:20Z</time>
      </trkpt>
      <trkpt lat="43.7264" lon="3.55012">
        <ele>88.9</ele>
        <time>2014-04-30T14:11:22Z</time>
      </trkpt>
      <trkpt lat="43.72615" lon="3.55012">
        <ele>88</ele>
        <time>2014-04-30T14:11:25Z</time>
      </trkpt>
      <trkpt lat="43.72586" lon="3.55014">
        <ele>87</ele>
        <time>2014-04-30T14:11:29Z</time>
      </trkpt>
      <trkpt lat="43.72555" lon="3.55018">
        <ele>86</ele>
        <time>2014-04-30T14:11:33Z</time>
      </trkpt>
      <trkpt lat="43.72536" lon="3.55023">
        <ele>86.5</ele>
        <time>2014-04-30T14:11:36Z</time>
      </trkpt>
      <trkpt lat="43.7252" lon="3.55027">
        <ele>86</ele>
        <time>2014-04-30T14:11:38Z</time>
      </trkpt>
      <trkpt lat="43.72504" lon="3.55031">
        <ele>85.8</ele>
        <time>2014-04-30T14:11:40Z</time>
      </trkpt>
      <trkpt lat="43.72489" lon="3.55036">
        <ele>85.3</ele>
        <time>2014-04-30T14:11:42Z</time>
      </trkpt>
      <trkpt lat="43.72474" lon="3.55042">
        <ele>84.7</ele>
        <time>2014-04-30T14:11:44Z</time>
      </trkpt>
      <trkpt lat="43.72459" lon="3.55048">
        <ele>84.9</ele>
        <time>2014-04-30T14:11:46Z</time>
      </trkpt>
      <trkpt lat="43.72442" lon="3.55056">
        <ele>85</ele>
        <time>2014-04-30T14:11:48Z</time>
      </trkpt>
      <trkpt lat="43.72426" lon="3.55069">
        <ele>85.4</ele>
        <time>2014-04-30T14:11:51Z</time>
      </trkpt>
      <trkpt lat="43.72414" lon="3.55083">
        <ele>85</ele>
        <time>2014-04-30T14:11:53Z</time>
      </trkpt>
      <trkpt lat="43.72383" lon="3.55135">
        <ele>85</ele>
        <time>2014-04-30T14:11:59Z</time>
      </trkpt>
      <trkpt lat="43.72373" lon="3.55155">
        <ele>84.7</ele>
        <time>2014-04-30T14:12:02Z</time>
      </trkpt>
      <trkpt lat="43.72366" lon="3.55172">
        <ele>84.9</ele>
        <time>2014-04-30T14:12:04Z</time>
      </trkpt>
      <trkpt lat="43.72358" lon="3.55187">
        <ele>85.5</ele>
        <time>2014-04-30T14:12:06Z</time>
      </trkpt>
      <trkpt lat="43.72348" lon="3.55202">
        <ele>85.1</ele>
        <time>2014-04-30T14:12:08Z</time>
      </trkpt>
      <trkpt lat="43.72338" lon="3.55218">
        <ele>84.9</ele>
        <time>2014-04-30T14:12:10Z</time>
      </trkpt>
      <trkpt lat="43.72327" lon="3.55233">
        <ele>85</ele>
        <time>2014-04-30T14:12:12Z</time>
      </trkpt>
      <trkpt lat="43.72316" lon="3.55247">
        <ele>85.2</ele>
        <time>2014-04-30T14:12:14Z</time>
      </trkpt>
      <trkpt lat="43.72303" lon="3.55261">
        <ele>85.5</ele>
        <time>2014-04-30T14:12:16Z</time>
      </trkpt>
      <trkpt lat="43.7229" lon="3.55272">
        <ele>86</ele>
        <time>2014-04-30T14:12:18Z</time>
      </trkpt>
      <trkpt lat="43.72277" lon="3.55281">
        <ele>86.6</ele>
        <time>2014-04-30T14:12:20Z</time>
      </trkpt>
      <trkpt lat="43.72264" lon="3.55288">
        <ele>87.1</ele>
        <time>2014-04-30T14:12:22Z</time>
      </trkpt>
      <trkpt lat="43.7225" lon="3.55293">
        <ele>86.9</ele>
        <time>2014-04-30T14:12:24Z</time>
      </trkpt>
      <trkpt lat="43.72235" lon="3.55296">
        <ele>86.8</ele>
        <time>2014-04-30T14:12:26Z</time>
      </trkpt>
      <trkpt lat="43.72221" lon="3.55298">
        <ele>87</ele>
        <time>2014-04-30T14:12:28Z</time>
      </trkpt>
      <trkpt lat="43.72208" lon="3.553">
        <ele>87.6</ele>
        <time>2014-04-30T14:12:30Z</time>
      </trkpt>
      <trkpt lat="43.72196" lon="3.55302">
        <ele>88.3</ele>
        <time>2014-04-30T14:12:32Z</time>
      </trkpt>
      <trkpt lat="43.72184" lon="3.55306">
        <ele>88.8</ele>
        <time>2014-04-30T14:12:34Z</time>
      </trkpt>
      <trkpt lat="43.72173" lon="3.5531">
        <ele>89.1</ele>
        <time>2014-04-30T14:12:36Z</time>
      </trkpt>
      <trkpt lat="43.72162" lon="3.55316">
        <ele>89.2</ele>
        <time>2014-04-30T14:12:38Z</time>
      </trkpt>
      <trkpt lat="43.72151" lon="3.5532">
        <ele>89.9</ele>
        <time>2014-04-30T14:12:40Z</time>
      </trkpt>
      <trkpt lat="43.7214" lon="3.55325">
        <ele>90.2</ele>
        <time>2014-04-30T14:12:42Z</time>
      </trkpt>
      <trkpt lat="43.72129" lon="3.5533">
        <ele>90.3</ele>
        <time>2014-04-30T14:12:44Z</time>
      </trkpt>
      <trkpt lat="43.72117" lon="3.55335">
        <ele>90.5</ele>
        <time>2014-04-30T14:12:46Z</time>
      </trkpt>
      <trkpt lat="43.72103" lon="3.55341">
        <ele>90.8</ele>
        <time>2014-04-30T14:12:48Z</time>
      </trkpt>
      <trkpt lat="43.72088" lon="3.55346">
        <ele>90.2</ele>
        <time>2014-04-30T14:12:50Z</time>
      </trkpt>
      <trkpt lat="43.72073" lon="3.55351">
        <ele>89.5</ele>
        <time>2014-04-30T14:12:52Z</time>
      </trkpt>
      <trkpt lat="43.72057" lon="3.55354">
        <ele>88.7</ele>
        <time>2014-04-30T14:12:54Z</time>
      </trkpt>
      <trkpt lat="43.72041" lon="3.55356">
        <ele>88.3</ele>
        <time>2014-04-30T14:12:56Z</time>
      </trkpt>
      <trkpt lat="43.72025" lon="3.55356">
        <ele>87.8</ele>
        <time>2014-04-30T14:12:58Z</time>
      </trkpt>
      <trkpt lat="43.72009" lon="3.55356">
        <ele>87.3</ele>
        <time>2014-04-30T14:13:00Z</time>
      </trkpt>
      <trkpt lat="43.71994" lon="3.55356">
        <ele>87.1</ele>
        <time>2014-04-30T14:13:02Z</time>
      </trkpt>
      <trkpt lat="43.71979" lon="3.55355">
        <ele>87.1</ele>
        <time>2014-04-30T14:13:04Z</time>
      </trkpt>
      <trkpt lat="43.71964" lon="3.55354">
        <ele>86.8</ele>
        <time>2014-04-30T14:13:06Z</time>
      </trkpt>
      <trkpt lat="43.71949" lon="3.55354">
        <ele>86.2</ele>
        <time>2014-04-30T14:13:08Z</time>
      </trkpt>
      <trkpt lat="43.71842" lon="3.55348">
        <ele>85</ele>
        <time>2014-04-30T14:13:21Z</time>
      </trkpt>
      <trkpt lat="43.71821" lon="3.55342">
        <ele>85.3</ele>
        <time>2014-04-30T14:13:24Z</time>
      </trkpt>
      <trkpt lat="43.71804" lon="3.55336">
        <ele>85.6</ele>
        <time>2014-04-30T14:13:26Z</time>
      </trkpt>
      <trkpt lat="43.71787" lon="3.55329">
        <ele>85.1</ele>
        <time>2014-04-30T14:13:28Z</time>
      </trkpt>
      <trkpt lat="43.7177" lon="3.55322">
        <ele>85.1</ele>
        <time>2014-04-30T14:13:30Z</time>
      </trkpt>
      <trkpt lat="43.71753" lon="3.55314">
        <ele>85.2</ele>
        <time>2014-04-30T14:13:32Z</time>
      </trkpt>
      <trkpt lat="43.71727" lon="3.55294">
        <ele>86</ele>
        <time>2014-04-30T14:13:35Z</time>
      </trkpt>
      <trkpt lat="43.7171" lon="3.55282">
        <ele>87</ele>
        <time>2014-04-30T14:13:38Z</time>
      </trkpt>
      <trkpt lat="43.71512" lon="3.55249">
        <ele>86</ele>
        <time>2014-04-30T14:14:05Z</time>
      </trkpt>
      <trkpt lat="43.71476" lon="3.55249">
        <ele>85</ele>
        <time>2014-04-30T14:14:09Z</time>
      </trkpt>
      <trkpt lat="43.71444" lon="3.55252">
        <ele>85</ele>
        <time>2014-04-30T14:14:13Z</time>
      </trkpt>
      <trkpt lat="43.71339" lon="3.55258">
        <ele>85</ele>
        <time>2014-04-30T14:14:26Z</time>
      </trkpt>
      <trkpt lat="43.71287" lon="3.55246">
        <ele>85</ele>
        <time>2014-04-30T14:14:33Z</time>
      </trkpt>
      <trkpt lat="43.71261" lon="3.55239">
        <ele>85</ele>
        <time>2014-04-30T14:14:37Z</time>
      </trkpt>
      <trkpt lat="43.71234" lon="3.55237">
        <ele>87</ele>
        <time>2014-04-30T14:14:41Z</time>
      </trkpt>
      <trkpt lat="43.71204" lon="3.55236">
        <ele>87</ele>
        <time>2014-04-30T14:14:45Z</time>
      </trkpt>
      <trkpt lat="43.71175" lon="3.55236">
        <ele>87</ele>
        <time>2014-04-30T14:14:49Z</time>
      </trkpt>
      <trkpt lat="43.71146" lon="3.55239">
        <ele>87</ele>
        <time>2014-04-30T14:14:53Z</time>
      </trkpt>
      <trkpt lat="43.71114" lon="3.55252">
        <ele>85</ele>
        <time>2014-04-30T14:14:58Z</time>
      </trkpt>
      <trkpt lat="43.71038" lon="3.55324">
        <ele>83</ele>
        <time>2014-04-30T14:15:12Z</time>
      </trkpt>
      <trkpt lat="43.70888" lon="3.55508">
        <ele>81.9</ele>
        <time>2014-04-30T14:15:45Z</time>
      </trkpt>
      <trkpt lat="43.70911" lon="3.55564">
        <ele>80</ele>
        <time>2014-04-30T14:16:42Z</time>
      </trkpt>
      <trkpt lat="43.70901" lon="3.55571">
        <ele>79.6</ele>
        <time>2014-04-30T14:17:06Z</time>
      </trkpt>
      <trkpt lat="43.70893" lon="3.55579">
        <ele>82.3</ele>
        <time>2014-04-30T14:17:09Z</time>
      </trkpt>
      <trkpt lat="43.70886" lon="3.55588">
        <ele>82.2</ele>
        <time>2014-04-30T14:17:12Z</time>
      </trkpt>
      <trkpt lat="43.70879" lon="3.55598">
        <ele>82.9</ele>
        <time>2014-04-30T14:17:16Z</time>
      </trkpt>
      <trkpt lat="43.7087" lon="3.55609">
        <ele>81.6</ele>
        <time>2014-04-30T14:17:26Z</time>
      </trkpt>
      <trkpt lat="43.70862" lon="3.55619">
        <ele>82.5</ele>
        <time>2014-04-30T14:17:30Z</time>
      </trkpt>
      <trkpt lat="43.70854" lon="3.55629">
        <ele>83.5</ele>
        <time>2014-04-30T14:17:34Z</time>
      </trkpt>
      <trkpt lat="43.70845" lon="3.55639">
        <ele>85.6</ele>
        <time>2014-04-30T14:17:38Z</time>
      </trkpt>
      <trkpt lat="43.70837" lon="3.55647">
        <ele>84.7</ele>
        <time>2014-04-30T14:17:43Z</time>
      </trkpt>
      <trkpt lat="43.70829" lon="3.55656">
        <ele>84.6</ele>
        <time>2014-04-30T14:17:47Z</time>
      </trkpt>
      <trkpt lat="43.7082" lon="3.55665">
        <ele>84</ele>
        <time>2014-04-30T14:17:51Z</time>
      </trkpt>
      <trkpt lat="43.70811" lon="3.55674">
        <ele>84.6</ele>
        <time>2014-04-30T14:17:55Z</time>
      </trkpt>
      <trkpt lat="43.70803" lon="3.55681">
        <ele>84.7</ele>
        <time>2014-04-30T14:17:58Z</time>
      </trkpt>
      <trkpt lat="43.70796" lon="3.55692">
        <ele>84.8</ele>
        <time>2014-04-30T14:18:02Z</time>
      </trkpt>
      <trkpt lat="43.70799" lon="3.55704">
        <ele>86.5</ele>
        <time>2014-04-30T14:18:07Z</time>
      </trkpt>
      <trkpt lat="43.70794" lon="3.55691">
        <ele>86.3</ele>
        <time>2014-04-30T14:19:24Z</time>
      </trkpt>
      <trkpt lat="43.70781" lon="3.5569">
        <ele>86.7</ele>
        <time>2014-04-30T14:19:28Z</time>
      </trkpt>
      <trkpt lat="43.7077" lon="3.55689">
        <ele>85.9</ele>
        <time>2014-04-30T14:19:30Z</time>
      </trkpt>
      <trkpt lat="43.70759" lon="3.55678">
        <ele>85.3</ele>
        <time>2014-04-30T14:19:32Z</time>
      </trkpt>
      <trkpt lat="43.7075" lon="3.55663">
        <ele>85</ele>
        <time>2014-04-30T14:19:34Z</time>
      </trkpt>
      <trkpt lat="43.70741" lon="3.55646">
        <ele>85</ele>
        <time>2014-04-30T14:19:36Z</time>
      </trkpt>
      <trkpt lat="43.70731" lon="3.55629">
        <ele>85</ele>
        <time>2014-04-30T14:19:38Z</time>
      </trkpt>
      <trkpt lat="43.70718" lon="3.55615">
        <ele>84.9</ele>
        <time>2014-04-30T14:19:40Z</time>
      </trkpt>
      <trkpt lat="43.70703" lon="3.55603">
        <ele>84.9</ele>
        <time>2014-04-30T14:19:42Z</time>
      </trkpt>
      <trkpt lat="43.70688" lon="3.55593">
        <ele>84.8</ele>
        <time>2014-04-30T14:19:44Z</time>
      </trkpt>
      <trkpt lat="43.70674" lon="3.55582">
        <ele>84.7</ele>
        <time>2014-04-30T14:19:46Z</time>
      </trkpt>
      <trkpt lat="43.7066" lon="3.55572">
        <ele>86.4</ele>
        <time>2014-04-30T14:19:48Z</time>
      </trkpt>
      <trkpt lat="43.70647" lon="3.55562">
        <ele>87.4</ele>
        <time>2014-04-30T14:19:50Z</time>
      </trkpt>
      <trkpt lat="43.70636" lon="3.55553">
        <ele>88</ele>
        <time>2014-04-30T14:19:52Z</time>
      </trkpt>
      <trkpt lat="43.70625" lon="3.55546">
        <ele>88.6</ele>
        <time>2014-04-30T14:19:54Z</time>
      </trkpt>
      <trkpt lat="43.70614" lon="3.55542">
        <ele>88.9</ele>
        <time>2014-04-30T14:19:56Z</time>
      </trkpt>
      <trkpt lat="43.70602" lon="3.55542">
        <ele>90.4</ele>
        <time>2014-04-30T14:19:58Z</time>
      </trkpt>
      <trkpt lat="43.70591" lon="3.55542">
        <ele>91.2</ele>
        <time>2014-04-30T14:20:00Z</time>
      </trkpt>
      <trkpt lat="43.70581" lon="3.55543">
        <ele>91.6</ele>
        <time>2014-04-30T14:20:02Z</time>
      </trkpt>
      <trkpt lat="43.70569" lon="3.55544">
        <ele>94</ele>
        <time>2014-04-30T14:20:05Z</time>
      </trkpt>
      <trkpt lat="43.70558" lon="3.55544">
        <ele>95.3</ele>
        <time>2014-04-30T14:20:08Z</time>
      </trkpt>
      <trkpt lat="43.70547" lon="3.55542">
        <ele>96.3</ele>
        <time>2014-04-30T14:20:11Z</time>
      </trkpt>
      <trkpt lat="43.70538" lon="3.55539">
        <ele>96.8</ele>
        <time>2014-04-30T14:20:14Z</time>
      </trkpt>
      <trkpt lat="43.70528" lon="3.55533">
        <ele>97.2</ele>
        <time>2014-04-30T14:20:18Z</time>
      </trkpt>
      <trkpt lat="43.70518" lon="3.55525">
        <ele>97.7</ele>
        <time>2014-04-30T14:20:22Z</time>
      </trkpt>
      <trkpt lat="43.70509" lon="3.55517">
        <ele>97.8</ele>
        <time>2014-04-30T14:20:26Z</time>
      </trkpt>
      <trkpt lat="43.70501" lon="3.55508">
        <ele>97.8</ele>
        <time>2014-04-30T14:20:30Z</time>
      </trkpt>
      <trkpt lat="43.70492" lon="3.55499">
        <ele>98.6</ele>
        <time>2014-04-30T14:20:34Z</time>
      </trkpt>
      <trkpt lat="43.70482" lon="3.55491">
        <ele>99.3</ele>
        <time>2014-04-30T14:20:38Z</time>
      </trkpt>
      <trkpt lat="43.70474" lon="3.55482">
        <ele>100.5</ele>
        <time>2014-04-30T14:20:42Z</time>
      </trkpt>
      <trkpt lat="43.70464" lon="3.55471">
        <ele>100.9</ele>
        <time>2014-04-30T14:20:46Z</time>
      </trkpt>
      <trkpt lat="43.70455" lon="3.55461">
        <ele>101.4</ele>
        <time>2014-04-30T14:20:50Z</time>
      </trkpt>
      <trkpt lat="43.70446" lon="3.55451">
        <ele>102.4</ele>
        <time>2014-04-30T14:20:54Z</time>
      </trkpt>
      <trkpt lat="43.70439" lon="3.55443">
        <ele>102.7</ele>
        <time>2014-04-30T14:20:57Z</time>
      </trkpt>
      <trkpt lat="43.70429" lon="3.55433">
        <ele>103.3</ele>
        <time>2014-04-30T14:21:01Z</time>
      </trkpt>
      <trkpt lat="43.7042" lon="3.55424">
        <ele>103.8</ele>
        <time>2014-04-30T14:21:05Z</time>
      </trkpt>
      <trkpt lat="43.70411" lon="3.55414">
        <ele>104.8</ele>
        <time>2014-04-30T14:21:09Z</time>
      </trkpt>
      <trkpt lat="43.70404" lon="3.55407">
        <ele>105.6</ele>
        <time>2014-04-30T14:21:12Z</time>
      </trkpt>
      <trkpt lat="43.70394" lon="3.55398">
        <ele>106</ele>
        <time>2014-04-30T14:21:16Z</time>
      </trkpt>
      <trkpt lat="43.70386" lon="3.5539">
        <ele>106</ele>
        <time>2014-04-30T14:21:19Z</time>
      </trkpt>
      <trkpt lat="43.70378" lon="3.55382">
        <ele>106.1</ele>
        <time>2014-04-30T14:21:22Z</time>
      </trkpt>
      <trkpt lat="43.70369" lon="3.55374">
        <ele>106.2</ele>
        <time>2014-04-30T14:21:25Z</time>
      </trkpt>
      <trkpt lat="43.70361" lon="3.55365">
        <ele>107.1</ele>
        <time>2014-04-30T14:21:28Z</time>
      </trkpt>
      <trkpt lat="43.70351" lon="3.55357">
        <ele>107.7</ele>
        <time>2014-04-30T14:21:31Z</time>
      </trkpt>
      <trkpt lat="43.70341" lon="3.55349">
        <ele>107.9</ele>
        <time>2014-04-30T14:21:34Z</time>
      </trkpt>
      <trkpt lat="43.70331" lon="3.55341">
        <ele>108</ele>
        <time>2014-04-30T14:21:37Z</time>
      </trkpt>
      <trkpt lat="43.70321" lon="3.55333">
        <ele>107.7</ele>
        <time>2014-04-30T14:21:40Z</time>
      </trkpt>
      <trkpt lat="43.70311" lon="3.55326">
        <ele>107.7</ele>
        <time>2014-04-30T14:21:43Z</time>
      </trkpt>
      <trkpt lat="43.70301" lon="3.5532">
        <ele>107.5</ele>
        <time>2014-04-30T14:21:46Z</time>
      </trkpt>
      <trkpt lat="43.70291" lon="3.55312">
        <ele>108</ele>
        <time>2014-04-30T14:21:49Z</time>
      </trkpt>
      <trkpt lat="43.70281" lon="3.55305">
        <ele>107.6</ele>
        <time>2014-04-30T14:21:52Z</time>
      </trkpt>
      <trkpt lat="43.70272" lon="3.55296">
        <ele>107.2</ele>
        <time>2014-04-30T14:21:55Z</time>
      </trkpt>
      <trkpt lat="43.70262" lon="3.55288">
        <ele>107.5</ele>
        <time>2014-04-30T14:21:58Z</time>
      </trkpt>
      <trkpt lat="43.70253" lon="3.5528">
        <ele>107.8</ele>
        <time>2014-04-30T14:22:01Z</time>
      </trkpt>
      <trkpt lat="43.70244" lon="3.55273">
        <ele>107.9</ele>
        <time>2014-04-30T14:22:04Z</time>
      </trkpt>
      <trkpt lat="43.70236" lon="3.55262">
        <ele>109.7</ele>
        <time>2014-04-30T14:22:08Z</time>
      </trkpt>
      <trkpt lat="43.70232" lon="3.5525">
        <ele>110.8</ele>
        <time>2014-04-30T14:22:12Z</time>
      </trkpt>
      <trkpt lat="43.7023" lon="3.55235">
        <ele>111</ele>
        <time>2014-04-30T14:22:17Z</time>
      </trkpt>
      <trkpt lat="43.70227" lon="3.55222">
        <ele>112.2</ele>
        <time>2014-04-30T14:22:24Z</time>
      </trkpt>
      <trkpt lat="43.70224" lon="3.55209">
        <ele>113</ele>
        <time>2014-04-30T14:22:28Z</time>
      </trkpt>
      <trkpt lat="43.70221" lon="3.55197">
        <ele>112.5</ele>
        <time>2014-04-30T14:22:32Z</time>
      </trkpt>
      <trkpt lat="43.70216" lon="3.55185">
        <ele>113</ele>
        <time>2014-04-30T14:22:35Z</time>
      </trkpt>
      <trkpt lat="43.70212" lon="3.55172">
        <ele>113.2</ele>
        <time>2014-04-30T14:22:38Z</time>
      </trkpt>
      <trkpt lat="43.70206" lon="3.5516">
        <ele>113.2</ele>
        <time>2014-04-30T14:22:42Z</time>
      </trkpt>
      <trkpt lat="43.70201" lon="3.55148">
        <ele>114</ele>
        <time>2014-04-30T14:22:46Z</time>
      </trkpt>
      <trkpt lat="43.70195" lon="3.55137">
        <ele>116</ele>
        <time>2014-04-30T14:22:50Z</time>
      </trkpt>
      <trkpt lat="43.70189" lon="3.55127">
        <ele>116.2</ele>
        <time>2014-04-30T14:22:54Z</time>
      </trkpt>
      <trkpt lat="43.7018" lon="3.55123">
        <ele>116.4</ele>
        <time>2014-04-30T14:22:59Z</time>
      </trkpt>
      <trkpt lat="43.70171" lon="3.55119">
        <ele>118</ele>
        <time>2014-04-30T14:23:05Z</time>
      </trkpt>
      <trkpt lat="43.70164" lon="3.55108">
        <ele>120</ele>
        <time>2014-04-30T14:23:15Z</time>
      </trkpt>
      <trkpt lat="43.7016" lon="3.55119">
        <ele>118.9</ele>
        <time>2014-04-30T14:23:34Z</time>
      </trkpt>
      <trkpt lat="43.70151" lon="3.55127">
        <ele>118.5</ele>
        <time>2014-04-30T14:23:38Z</time>
      </trkpt>
      <trkpt lat="43.7014" lon="3.55133">
        <ele>118.6</ele>
        <time>2014-04-30T14:23:42Z</time>
      </trkpt>
      <trkpt lat="43.7013" lon="3.55138">
        <ele>118.4</ele>
        <time>2014-04-30T14:23:48Z</time>
      </trkpt>
      <trkpt lat="43.70119" lon="3.55144">
        <ele>117.6</ele>
        <time>2014-04-30T14:23:53Z</time>
      </trkpt>
      <trkpt lat="43.7011" lon="3.55146">
        <ele>117.1</ele>
        <time>2014-04-30T14:23:56Z</time>
      </trkpt>
      <trkpt lat="43.70105" lon="3.55133">
        <ele>116.8</ele>
        <time>2014-04-30T14:24:00Z</time>
      </trkpt>
      <trkpt lat="43.70099" lon="3.5512">
        <ele>116.2</ele>
        <time>2014-04-30T14:24:05Z</time>
      </trkpt>
      <trkpt lat="43.70096" lon="3.55107">
        <ele>116.8</ele>
        <time>2014-04-30T14:24:10Z</time>
      </trkpt>
      <trkpt lat="43.7009" lon="3.55096">
        <ele>117</ele>
        <time>2014-04-30T14:24:16Z</time>
      </trkpt>
      <trkpt lat="43.70085" lon="3.55083">
        <ele>118</ele>
        <time>2014-04-30T14:24:21Z</time>
      </trkpt>
      <trkpt lat="43.70081" lon="3.55071">
        <ele>117.9</ele>
        <time>2014-04-30T14:24:25Z</time>
      </trkpt>
      <trkpt lat="43.70076" lon="3.55058">
        <ele>118.7</ele>
        <time>2014-04-30T14:24:29Z</time>
      </trkpt>
      <trkpt lat="43.70069" lon="3.55047">
        <ele>118.4</ele>
        <time>2014-04-30T14:24:33Z</time>
      </trkpt>
      <trkpt lat="43.7006" lon="3.55039">
        <ele>118.7</ele>
        <time>2014-04-30T14:24:38Z</time>
      </trkpt>
      <trkpt lat="43.70055" lon="3.55027">
        <ele>119.2</ele>
        <time>2014-04-30T14:24:43Z</time>
      </trkpt>
      <trkpt lat="43.70051" lon="3.55016">
        <ele>119</ele>
        <time>2014-04-30T14:24:48Z</time>
      </trkpt>
      <trkpt lat="43.70047" lon="3.55002">
        <ele>118.9</ele>
        <time>2014-04-30T14:24:52Z</time>
      </trkpt>
      <trkpt lat="43.70043" lon="3.5499">
        <ele>119.7</ele>
        <time>2014-04-30T14:24:55Z</time>
      </trkpt>
      <trkpt lat="43.70039" lon="3.54977">
        <ele>120.6</ele>
        <time>2014-04-30T14:24:58Z</time>
      </trkpt>
      <trkpt lat="43.70035" lon="3.54964">
        <ele>119.6</ele>
        <time>2014-04-30T14:25:01Z</time>
      </trkpt>
      <trkpt lat="43.70032" lon="3.5495">
        <ele>119.3</ele>
        <time>2014-04-30T14:25:04Z</time>
      </trkpt>
      <trkpt lat="43.70029" lon="3.54938">
        <ele>119.9</ele>
        <time>2014-04-30T14:25:07Z</time>
      </trkpt>
      <trkpt lat="43.70026" lon="3.54926">
        <ele>120.7</ele>
        <time>2014-04-30T14:25:10Z</time>
      </trkpt>
      <trkpt lat="43.70023" lon="3.54914">
        <ele>121.2</ele>
        <time>2014-04-30T14:25:13Z</time>
      </trkpt>
      <trkpt lat="43.7002" lon="3.54902">
        <ele>121.4</ele>
        <time>2014-04-30T14:25:16Z</time>
      </trkpt>
      <trkpt lat="43.70018" lon="3.5489">
        <ele>121.5</ele>
        <time>2014-04-30T14:25:19Z</time>
      </trkpt>
      <trkpt lat="43.70014" lon="3.54878">
        <ele>121.6</ele>
        <time>2014-04-30T14:25:22Z</time>
      </trkpt>
      <trkpt lat="43.70011" lon="3.54866">
        <ele>121.3</ele>
        <time>2014-04-30T14:25:25Z</time>
      </trkpt>
      <trkpt lat="43.70006" lon="3.54852">
        <ele>121.4</ele>
        <time>2014-04-30T14:25:29Z</time>
      </trkpt>
      <trkpt lat="43.69996" lon="3.54846">
        <ele>121.8</ele>
        <time>2014-04-30T14:25:32Z</time>
      </trkpt>
      <trkpt lat="43.69986" lon="3.54842">
        <ele>121.5</ele>
        <time>2014-04-30T14:25:35Z</time>
      </trkpt>
      <trkpt lat="43.69975" lon="3.54837">
        <ele>121</ele>
        <time>2014-04-30T14:25:38Z</time>
      </trkpt>
      <trkpt lat="43.69964" lon="3.54832">
        <ele>121.4</ele>
        <time>2014-04-30T14:25:41Z</time>
      </trkpt>
      <trkpt lat="43.69952" lon="3.54828">
        <ele>121.6</ele>
        <time>2014-04-30T14:25:44Z</time>
      </trkpt>
      <trkpt lat="43.6994" lon="3.54822">
        <ele>121.4</ele>
        <time>2014-04-30T14:25:47Z</time>
      </trkpt>
      <trkpt lat="43.69928" lon="3.54817">
        <ele>122.8</ele>
        <time>2014-04-30T14:25:50Z</time>
      </trkpt>
      <trkpt lat="43.69916" lon="3.54811">
        <ele>122.3</ele>
        <time>2014-04-30T14:25:53Z</time>
      </trkpt>
      <trkpt lat="43.69903" lon="3.54806">
        <ele>121</ele>
        <time>2014-04-30T14:25:56Z</time>
      </trkpt>
      <trkpt lat="43.69894" lon="3.54802">
        <ele>120.4</ele>
        <time>2014-04-30T14:25:58Z</time>
      </trkpt>
      <trkpt lat="43.69885" lon="3.54798">
        <ele>120.1</ele>
        <time>2014-04-30T14:26:00Z</time>
      </trkpt>
      <trkpt lat="43.69876" lon="3.54794">
        <ele>120</ele>
        <time>2014-04-30T14:26:02Z</time>
      </trkpt>
      <trkpt lat="43.69866" lon="3.5479">
        <ele>120.3</ele>
        <time>2014-04-30T14:26:04Z</time>
      </trkpt>
      <trkpt lat="43.69856" lon="3.54786">
        <ele>120.6</ele>
        <time>2014-04-30T14:26:06Z</time>
      </trkpt>
      <trkpt lat="43.69847" lon="3.54782">
        <ele>121.3</ele>
        <time>2014-04-30T14:26:08Z</time>
      </trkpt>
      <trkpt lat="43.69834" lon="3.54779">
        <ele>122.3</ele>
        <time>2014-04-30T14:26:11Z</time>
      </trkpt>
      <trkpt lat="43.69831" lon="3.54791">
        <ele>121.5</ele>
        <time>2014-04-30T14:26:14Z</time>
      </trkpt>
      <trkpt lat="43.69838" lon="3.54807">
        <ele>121.4</ele>
        <time>2014-04-30T14:26:17Z</time>
      </trkpt>
      <trkpt lat="43.69843" lon="3.54819">
        <ele>121.5</ele>
        <time>2014-04-30T14:26:19Z</time>
      </trkpt>
      <trkpt lat="43.69849" lon="3.54831">
        <ele>120.5</ele>
        <time>2014-04-30T14:26:21Z</time>
      </trkpt>
      <trkpt lat="43.69855" lon="3.54844">
        <ele>120.3</ele>
        <time>2014-04-30T14:26:23Z</time>
      </trkpt>
      <trkpt lat="43.6986" lon="3.54856">
        <ele>120.5</ele>
        <time>2014-04-30T14:26:25Z</time>
      </trkpt>
      <trkpt lat="43.69866" lon="3.54869">
        <ele>119.8</ele>
        <time>2014-04-30T14:26:27Z</time>
      </trkpt>
      <trkpt lat="43.69872" lon="3.54881">
        <ele>119.2</ele>
        <time>2014-04-30T14:26:29Z</time>
      </trkpt>
      <trkpt lat="43.69878" lon="3.54894">
        <ele>118.7</ele>
        <time>2014-04-30T14:26:31Z</time>
      </trkpt>
      <trkpt lat="43.69884" lon="3.54908">
        <ele>118.2</ele>
        <time>2014-04-30T14:26:33Z</time>
      </trkpt>
      <trkpt lat="43.69891" lon="3.54921">
        <ele>117.9</ele>
        <time>2014-04-30T14:26:35Z</time>
      </trkpt>
      <trkpt lat="43.69897" lon="3.54935">
        <ele>118.2</ele>
        <time>2014-04-30T14:26:37Z</time>
      </trkpt>
      <trkpt lat="43.69903" lon="3.54949">
        <ele>117.8</ele>
        <time>2014-04-30T14:26:39Z</time>
      </trkpt>
      <trkpt lat="43.69909" lon="3.54962">
        <ele>117.3</ele>
        <time>2014-04-30T14:26:41Z</time>
      </trkpt>
      <trkpt lat="43.69915" lon="3.54976">
        <ele>116.8</ele>
        <time>2014-04-30T14:26:43Z</time>
      </trkpt>
      <trkpt lat="43.6992" lon="3.5499">
        <ele>116.2</ele>
        <time>2014-04-30T14:26:45Z</time>
      </trkpt>
      <trkpt lat="43.69927" lon="3.55004">
        <ele>115.6</ele>
        <time>2014-04-30T14:26:47Z</time>
      </trkpt>
      <trkpt lat="43.69933" lon="3.55019">
        <ele>115.4</ele>
        <time>2014-04-30T14:26:49Z</time>
      </trkpt>
      <trkpt lat="43.69939" lon="3.55033">
        <ele>115.1</ele>
        <time>2014-04-30T14:26:51Z</time>
      </trkpt>
      <trkpt lat="43.69945" lon="3.55047">
        <ele>114.9</ele>
        <time>2014-04-30T14:26:53Z</time>
      </trkpt>
      <trkpt lat="43.69952" lon="3.5506">
        <ele>115.2</ele>
        <time>2014-04-30T14:26:55Z</time>
      </trkpt>
      <trkpt lat="43.69958" lon="3.55073">
        <ele>115.4</ele>
        <time>2014-04-30T14:26:57Z</time>
      </trkpt>
      <trkpt lat="43.69963" lon="3.55084">
        <ele>115</ele>
        <time>2014-04-30T14:26:59Z</time>
      </trkpt>
      <trkpt lat="43.69968" lon="3.55095">
        <ele>115</ele>
        <time>2014-04-30T14:27:01Z</time>
      </trkpt>
      <trkpt lat="43.69974" lon="3.5511">
        <ele>115.1</ele>
        <time>2014-04-30T14:27:04Z</time>
      </trkpt>
      <trkpt lat="43.69978" lon="3.55121">
        <ele>115.3</ele>
        <time>2014-04-30T14:27:06Z</time>
      </trkpt>
      <trkpt lat="43.6998" lon="3.55134">
        <ele>114.6</ele>
        <time>2014-04-30T14:27:08Z</time>
      </trkpt>
      <trkpt lat="43.69982" lon="3.55147">
        <ele>114.3</ele>
        <time>2014-04-30T14:27:10Z</time>
      </trkpt>
      <trkpt lat="43.69983" lon="3.5516">
        <ele>114</ele>
        <time>2014-04-30T14:27:14Z</time>
      </trkpt>
      <trkpt lat="43.69974" lon="3.55164">
        <ele>112.8</ele>
        <time>2014-04-30T14:27:19Z</time>
      </trkpt>
      <trkpt lat="43.69964" lon="3.55167">
        <ele>112.7</ele>
        <time>2014-04-30T14:27:23Z</time>
      </trkpt>
      <trkpt lat="43.69955" lon="3.55168">
        <ele>113</ele>
        <time>2014-04-30T14:27:26Z</time>
      </trkpt>
      <trkpt lat="43.69945" lon="3.55171">
        <ele>113.2</ele>
        <time>2014-04-30T14:27:29Z</time>
      </trkpt>
      <trkpt lat="43.69934" lon="3.55174">
        <ele>112</ele>
        <time>2014-04-30T14:27:32Z</time>
      </trkpt>
      <trkpt lat="43.69921" lon="3.55176">
        <ele>111.5</ele>
        <time>2014-04-30T14:27:35Z</time>
      </trkpt>
      <trkpt lat="43.69908" lon="3.55173">
        <ele>111.6</ele>
        <time>2014-04-30T14:27:38Z</time>
      </trkpt>
      <trkpt lat="43.69897" lon="3.5517">
        <ele>112.1</ele>
        <time>2014-04-30T14:27:41Z</time>
      </trkpt>
      <trkpt lat="43.69887" lon="3.55168">
        <ele>111.9</ele>
        <time>2014-04-30T14:27:44Z</time>
      </trkpt>
      <trkpt lat="43.69896" lon="3.5517">
        <ele>113</ele>
        <time>2014-04-30T14:27:53Z</time>
      </trkpt>
      <trkpt lat="43.69905" lon="3.55169">
        <ele>112.1</ele>
        <time>2014-04-30T14:27:56Z</time>
      </trkpt>
      <trkpt lat="43.69898" lon="3.55178">
        <ele>112.9</ele>
        <time>2014-04-30T14:28:01Z</time>
      </trkpt>
      <trkpt lat="43.69886" lon="3.5518">
        <ele>112.7</ele>
        <time>2014-04-30T14:28:04Z</time>
      </trkpt>
      <trkpt lat="43.69877" lon="3.55181">
        <ele>112.2</ele>
        <time>2014-04-30T14:28:06Z</time>
      </trkpt>
      <trkpt lat="43.69864" lon="3.5518">
        <ele>111.5</ele>
        <time>2014-04-30T14:28:09Z</time>
      </trkpt>
      <trkpt lat="43.69851" lon="3.55182">
        <ele>110.7</ele>
        <time>2014-04-30T14:28:12Z</time>
      </trkpt>
      <trkpt lat="43.69842" lon="3.5518">
        <ele>110.6</ele>
        <time>2014-04-30T14:28:14Z</time>
      </trkpt>
      <trkpt lat="43.69834" lon="3.55178">
        <ele>110.8</ele>
        <time>2014-04-30T14:28:16Z</time>
      </trkpt>
      <trkpt lat="43.69821" lon="3.55174">
        <ele>110.5</ele>
        <time>2014-04-30T14:28:19Z</time>
      </trkpt>
      <trkpt lat="43.6981" lon="3.5517">
        <ele>109.9</ele>
        <time>2014-04-30T14:28:22Z</time>
      </trkpt>
      <trkpt lat="43.698" lon="3.55176">
        <ele>110.7</ele>
        <time>2014-04-30T14:28:26Z</time>
      </trkpt>
      <trkpt lat="43.698" lon="3.5519">
        <ele>110.2</ele>
        <time>2014-04-30T14:28:29Z</time>
      </trkpt>
      <trkpt lat="43.69802" lon="3.55207">
        <ele>110.4</ele>
        <time>2014-04-30T14:28:32Z</time>
      </trkpt>
      <trkpt lat="43.69803" lon="3.55219">
        <ele>110.5</ele>
        <time>2014-04-30T14:28:34Z</time>
      </trkpt>
      <trkpt lat="43.69805" lon="3.55232">
        <ele>110.5</ele>
        <time>2014-04-30T14:28:36Z</time>
      </trkpt>
      <trkpt lat="43.69807" lon="3.55246">
        <ele>109.9</ele>
        <time>2014-04-30T14:28:38Z</time>
      </trkpt>
      <trkpt lat="43.69809" lon="3.55261">
        <ele>109.3</ele>
        <time>2014-04-30T14:28:40Z</time>
      </trkpt>
      <trkpt lat="43.69812" lon="3.55276">
        <ele>108.7</ele>
        <time>2014-04-30T14:28:42Z</time>
      </trkpt>
      <trkpt lat="43.69815" lon="3.55291">
        <ele>109.5</ele>
        <time>2014-04-30T14:28:44Z</time>
      </trkpt>
      <trkpt lat="43.69818" lon="3.55306">
        <ele>109.6</ele>
        <time>2014-04-30T14:28:46Z</time>
      </trkpt>
      <trkpt lat="43.6982" lon="3.55321">
        <ele>109.3</ele>
        <time>2014-04-30T14:28:48Z</time>
      </trkpt>
      <trkpt lat="43.69821" lon="3.55336">
        <ele>109.6</ele>
        <time>2014-04-30T14:28:50Z</time>
      </trkpt>
      <trkpt lat="43.69824" lon="3.55351">
        <ele>110.1</ele>
        <time>2014-04-30T14:28:52Z</time>
      </trkpt>
      <trkpt lat="43.69825" lon="3.55369">
        <ele>109.8</ele>
        <time>2014-04-30T14:28:55Z</time>
      </trkpt>
      <trkpt lat="43.6982" lon="3.55386">
        <ele>110.7</ele>
        <time>2014-04-30T14:28:58Z</time>
      </trkpt>
      <trkpt lat="43.69815" lon="3.55396">
        <ele>110.8</ele>
        <time>2014-04-30T14:29:00Z</time>
      </trkpt>
      <trkpt lat="43.69809" lon="3.55405">
        <ele>110.3</ele>
        <time>2014-04-30T14:29:02Z</time>
      </trkpt>
      <trkpt lat="43.69799" lon="3.55409">
        <ele>109.8</ele>
        <time>2014-04-30T14:29:06Z</time>
      </trkpt>
      <trkpt lat="43.6981" lon="3.55409">
        <ele>109.8</ele>
        <time>2014-04-30T14:29:16Z</time>
      </trkpt>
      <trkpt lat="43.69819" lon="3.554">
        <ele>110.7</ele>
        <time>2014-04-30T14:29:20Z</time>
      </trkpt>
      <trkpt lat="43.69829" lon="3.55393">
        <ele>110.4</ele>
        <time>2014-04-30T14:29:24Z</time>
      </trkpt>
      <trkpt lat="43.69832" lon="3.55377">
        <ele>110.3</ele>
        <time>2014-04-30T14:29:28Z</time>
      </trkpt>
      <trkpt lat="43.69836" lon="3.55364">
        <ele>110.9</ele>
        <time>2014-04-30T14:29:32Z</time>
      </trkpt>
      <trkpt lat="43.69846" lon="3.55362">
        <ele>110.2</ele>
        <time>2014-04-30T14:29:36Z</time>
      </trkpt>
      <trkpt lat="43.69849" lon="3.55361">
        <ele>111.2</ele>
        <time>2014-04-30T14:33:12Z</time>
      </trkpt>
      <trkpt lat="43.69849" lon="3.55361">
        <ele>111.2</ele>
        <time>2014-04-30T14:33:12Z</time>
      </trkpt>
    </trkseg>
  </trk>
</gpx>